<?xml version="1.0" encoding="UTF-8" standalone="no" ?>
<gpx xmlns="http://www.topografix.com/GPX/1/1" xmlns:xsi="http://www.w3.org/2001/XMLSchema-instance" xsi:schemaLocation="http://www.topografix.com/GPX/1/1 http://www.topografix.com/GPX/1/1/gpx.xsd" version="1.1" creator="VisuGPX - https://www.visugpx.com">
  <metadata>
    <name>BTT-J4</name>
    <desc><![CDATA[BTT-J4]]></desc>
  </metadata>
  <wpt lat="45.76944" lon="3.08339">
    <ele>385.9</ele>
    <name><![CDATA[Kyriad-25 Av de La libération]]></name>
    <type><![CDATA[hotel]]></type>
  </wpt>
  <wpt lat="45.87195" lon="3.03187">
    <ele>560.9</ele>
    <name><![CDATA[DépartBTT]]></name>
    <type><![CDATA[activite]]></type>
  </wpt>
  <wpt lat="45.08483" lon="2.81433">
    <ele>1331.5</ele>
    <name><![CDATA[CP1 Forêt de Murat (Col de La Molède) (Alt. 1329 m) Route Forestière de Sagnepic – 15300 Albepierre-Bredons]]></name>
    <type><![CDATA[col]]></type>
  </wpt>
  <wpt lat="45.10979" lon="2.86924">
    <ele>906.3</ele>
    <name><![CDATA[Hotel Messageries-Murat(Nuit8-9/08)-04.71.20.04.04]]></name>
    <type><![CDATA[hotel]]></type>
  </wpt>
  <wpt lat="44.04989" lon="1.75648">
    <ele>405.3</ele>
    <name><![CDATA[CP2-ForêtDeGrésigne-Castelnau-de-Montmiral]]></name>
    <type><![CDATA[activite]]></type>
  </wpt>
  <wpt lat="42.82653" lon="0.16862">
    <ele>1855.7</ele>
    <name><![CDATA[LacOredon-Montagne d’Estoudou–65170 Aragnouet–06 23 05 72 60]]></name>
    <type><![CDATA[activite]]></type>
  </wpt>
  <wpt lat="43.57912" lon="1.35884">
    <ele>159.5</ele>
    <name><![CDATA[Tournefeuille]]></name>
    <type><![CDATA[hotel]]></type>
  </wpt>
  <trk>
    <name><![CDATA[BTT-J4]]></name>
    <trkseg>
      <trkpt lat="43.579" lon="1.35904">
        <ele>159.49</ele>
        <time>2020-08-11T05:03:00.000Z</time>
      </trkpt>
      <trkpt lat="43.57851" lon="1.35984">
        <ele>158.32</ele>
        <time>2020-08-11T05:03:10.701Z</time>
      </trkpt>
      <trkpt lat="43.57798" lon="1.36077">
        <ele>159.23</ele>
        <time>2020-08-11T05:03:29.826Z</time>
      </trkpt>
      <trkpt lat="43.57745" lon="1.36169">
        <ele>160.14</ele>
        <time>2020-08-11T05:03:48.837Z</time>
      </trkpt>
      <trkpt lat="43.57691" lon="1.36262">
        <ele>160.14</ele>
        <time>2020-08-11T05:04:06.227Z</time>
      </trkpt>
      <trkpt lat="43.57638" lon="1.36355">
        <ele>160.32</ele>
        <time>2020-08-11T05:04:23.831Z</time>
      </trkpt>
      <trkpt lat="43.57585" lon="1.36447">
        <ele>161.63</ele>
        <time>2020-08-11T05:04:43.794Z</time>
      </trkpt>
      <trkpt lat="43.57532" lon="1.3654">
        <ele>161.74</ele>
        <time>2020-08-11T05:05:01.265Z</time>
      </trkpt>
      <trkpt lat="43.57478" lon="1.36633">
        <ele>158.92</ele>
        <time>2020-08-11T05:05:11.296Z</time>
      </trkpt>
      <trkpt lat="43.57425" lon="1.36725">
        <ele>156.91</ele>
        <time>2020-08-11T05:05:22.198Z</time>
      </trkpt>
      <trkpt lat="43.57372" lon="1.36818">
        <ele>153.87</ele>
        <time>2020-08-11T05:05:31.880Z</time>
      </trkpt>
      <trkpt lat="43.57361" lon="1.3683">
        <ele>153.87</ele>
        <time>2020-08-11T05:05:34.704Z</time>
      </trkpt>
      <trkpt lat="43.57353" lon="1.36833">
        <ele>153.39</ele>
        <time>2020-08-11T05:05:35.469Z</time>
      </trkpt>
      <trkpt lat="43.57344" lon="1.36832">
        <ele>153.39</ele>
        <time>2020-08-11T05:05:37.288Z</time>
      </trkpt>
      <trkpt lat="43.57321" lon="1.36824">
        <ele>153.52</ele>
        <time>2020-08-11T05:05:42.317Z</time>
      </trkpt>
      <trkpt lat="43.57321" lon="1.36816">
        <ele>153.82</ele>
        <time>2020-08-11T05:05:44.382Z</time>
      </trkpt>
      <trkpt lat="43.57317" lon="1.36801">
        <ele>153.82</ele>
        <time>2020-08-11T05:05:46.715Z</time>
      </trkpt>
      <trkpt lat="43.57308" lon="1.36792">
        <ele>154.11</ele>
        <time>2020-08-11T05:05:49.656Z</time>
      </trkpt>
      <trkpt lat="43.57296" lon="1.36792">
        <ele>154.11</ele>
        <time>2020-08-11T05:05:52.073Z</time>
      </trkpt>
      <trkpt lat="43.57291" lon="1.36796">
        <ele>154.11</ele>
        <time>2020-08-11T05:05:53.237Z</time>
      </trkpt>
      <trkpt lat="43.57284" lon="1.36808">
        <ele>154.11</ele>
        <time>2020-08-11T05:05:55.485Z</time>
      </trkpt>
      <trkpt lat="43.57279" lon="1.36814">
        <ele>154.11</ele>
        <time>2020-08-11T05:05:56.820Z</time>
      </trkpt>
      <trkpt lat="43.57269" lon="1.36818">
        <ele>154.11</ele>
        <time>2020-08-11T05:05:58.916Z</time>
      </trkpt>
      <trkpt lat="43.5718" lon="1.36833">
        <ele>155.59</ele>
        <time>2020-08-11T05:06:20.191Z</time>
      </trkpt>
      <trkpt lat="43.57172" lon="1.36833">
        <ele>155.59</ele>
        <time>2020-08-11T05:06:21.803Z</time>
      </trkpt>
      <trkpt lat="43.5716" lon="1.36829">
        <ele>154.65</ele>
        <time>2020-08-11T05:06:22.965Z</time>
      </trkpt>
      <trkpt lat="43.57147" lon="1.36817">
        <ele>154.19</ele>
        <time>2020-08-11T05:06:24.844Z</time>
      </trkpt>
      <trkpt lat="43.57109" lon="1.36756">
        <ele>154.49</ele>
        <time>2020-08-11T05:06:37.164Z</time>
      </trkpt>
      <trkpt lat="43.57071" lon="1.36695">
        <ele>154.58</ele>
        <time>2020-08-11T05:06:49.072Z</time>
      </trkpt>
      <trkpt lat="43.57053" lon="1.36669">
        <ele>154.74</ele>
        <time>2020-08-11T05:06:54.632Z</time>
      </trkpt>
      <trkpt lat="43.57002" lon="1.36613">
        <ele>154.4</ele>
        <time>2020-08-11T05:07:06.786Z</time>
      </trkpt>
      <trkpt lat="43.56952" lon="1.36556">
        <ele>154.27</ele>
        <time>2020-08-11T05:07:19.458Z</time>
      </trkpt>
      <trkpt lat="43.56901" lon="1.365">
        <ele>155.42</ele>
        <time>2020-08-11T05:07:35.115Z</time>
      </trkpt>
      <trkpt lat="43.56895" lon="1.36488">
        <ele>155.42</ele>
        <time>2020-08-11T05:07:37.243Z</time>
      </trkpt>
      <trkpt lat="43.56891" lon="1.36461">
        <ele>155.53</ele>
        <time>2020-08-11T05:07:41.478Z</time>
      </trkpt>
      <trkpt lat="43.56888" lon="1.36456">
        <ele>155.53</ele>
        <time>2020-08-11T05:07:42.425Z</time>
      </trkpt>
      <trkpt lat="43.56884" lon="1.36453">
        <ele>155.8</ele>
        <time>2020-08-11T05:07:44.133Z</time>
      </trkpt>
      <trkpt lat="43.56876" lon="1.36454">
        <ele>156.03</ele>
        <time>2020-08-11T05:07:46.326Z</time>
      </trkpt>
      <trkpt lat="43.56871" lon="1.36462">
        <ele>156.03</ele>
        <time>2020-08-11T05:07:47.867Z</time>
      </trkpt>
      <trkpt lat="43.56869" lon="1.36469">
        <ele>156.41</ele>
        <time>2020-08-11T05:07:50.072Z</time>
      </trkpt>
      <trkpt lat="43.56858" lon="1.36469">
        <ele>156.41</ele>
        <time>2020-08-11T05:07:52.287Z</time>
      </trkpt>
      <trkpt lat="43.56846" lon="1.36457">
        <ele>157.1</ele>
        <time>2020-08-11T05:07:57.391Z</time>
      </trkpt>
      <trkpt lat="43.56842" lon="1.36457">
        <ele>157.1</ele>
        <time>2020-08-11T05:07:58.197Z</time>
      </trkpt>
      <trkpt lat="43.56839" lon="1.36459">
        <ele>157.1</ele>
        <time>2020-08-11T05:07:58.868Z</time>
      </trkpt>
      <trkpt lat="43.56819" lon="1.36512">
        <ele>159.75</ele>
        <time>2020-08-11T05:08:15.324Z</time>
      </trkpt>
      <trkpt lat="43.56829" lon="1.36528">
        <ele>159.92</ele>
        <time>2020-08-11T05:08:18.757Z</time>
      </trkpt>
      <trkpt lat="43.56824" lon="1.36537">
        <ele>159.96</ele>
        <time>2020-08-11T05:08:20.489Z</time>
      </trkpt>
      <trkpt lat="43.56787" lon="1.36483">
        <ele>159.96</ele>
        <time>2020-08-11T05:08:31.335Z</time>
      </trkpt>
      <trkpt lat="43.5674" lon="1.36396">
        <ele>160.64</ele>
        <time>2020-08-11T05:08:48.534Z</time>
      </trkpt>
      <trkpt lat="43.56713" lon="1.36353">
        <ele>160.84</ele>
        <time>2020-08-11T05:08:57.223Z</time>
      </trkpt>
      <trkpt lat="43.56692" lon="1.36329">
        <ele>160.84</ele>
        <time>2020-08-11T05:09:02.715Z</time>
      </trkpt>
      <trkpt lat="43.56657" lon="1.36303">
        <ele>161.43</ele>
        <time>2020-08-11T05:09:11.980Z</time>
      </trkpt>
      <trkpt lat="43.56639" lon="1.36291">
        <ele>161.5</ele>
        <time>2020-08-11T05:09:16.139Z</time>
      </trkpt>
      <trkpt lat="43.5657" lon="1.36265">
        <ele>161.12</ele>
        <time>2020-08-11T05:09:29.461Z</time>
      </trkpt>
      <trkpt lat="43.56502" lon="1.36242">
        <ele>161.63</ele>
        <time>2020-08-11T05:09:44.570Z</time>
      </trkpt>
      <trkpt lat="43.56434" lon="1.36218">
        <ele>162.69</ele>
        <time>2020-08-11T05:10:00.976Z</time>
      </trkpt>
      <trkpt lat="43.56375" lon="1.36184">
        <ele>163.15</ele>
        <time>2020-08-11T05:10:14.762Z</time>
      </trkpt>
      <trkpt lat="43.56316" lon="1.36149">
        <ele>160.97</ele>
        <time>2020-08-11T05:10:22.126Z</time>
      </trkpt>
      <trkpt lat="43.56316" lon="1.36153">
        <ele>160.97</ele>
        <time>2020-08-11T05:10:22.710Z</time>
      </trkpt>
      <trkpt lat="43.56261" lon="1.36126">
        <ele>160.68</ele>
        <time>2020-08-11T05:10:33.635Z</time>
      </trkpt>
      <trkpt lat="43.56186" lon="1.36092">
        <ele>160.94</ele>
        <time>2020-08-11T05:10:50.030Z</time>
      </trkpt>
      <trkpt lat="43.56143" lon="1.36069">
        <ele>161.06</ele>
        <time>2020-08-11T05:10:59.545Z</time>
      </trkpt>
      <trkpt lat="43.56087" lon="1.36043">
        <ele>160.97</ele>
        <time>2020-08-11T05:11:11.173Z</time>
      </trkpt>
      <trkpt lat="43.56079" lon="1.36042">
        <ele>160.97</ele>
        <time>2020-08-11T05:11:12.791Z</time>
      </trkpt>
      <trkpt lat="43.56065" lon="1.36045">
        <ele>160.93</ele>
        <time>2020-08-11T05:11:15.526Z</time>
      </trkpt>
      <trkpt lat="43.56042" lon="1.3606">
        <ele>160.82</ele>
        <time>2020-08-11T05:11:20.332Z</time>
      </trkpt>
      <trkpt lat="43.56033" lon="1.36064">
        <ele>160.82</ele>
        <time>2020-08-11T05:11:22.236Z</time>
      </trkpt>
      <trkpt lat="43.56017" lon="1.36064">
        <ele>160.6</ele>
        <time>2020-08-11T05:11:24.540Z</time>
      </trkpt>
      <trkpt lat="43.56013" lon="1.36066">
        <ele>160.6</ele>
        <time>2020-08-11T05:11:25.396Z</time>
      </trkpt>
      <trkpt lat="43.56003" lon="1.36061">
        <ele>160.6</ele>
        <time>2020-08-11T05:11:27.539Z</time>
      </trkpt>
      <trkpt lat="43.5598" lon="1.36044">
        <ele>160.6</ele>
        <time>2020-08-11T05:11:32.794Z</time>
      </trkpt>
      <trkpt lat="43.55965" lon="1.36035">
        <ele>161.3</ele>
        <time>2020-08-11T05:11:38.212Z</time>
      </trkpt>
      <trkpt lat="43.55952" lon="1.36023">
        <ele>161.3</ele>
        <time>2020-08-11T05:11:41.362Z</time>
      </trkpt>
      <trkpt lat="43.55953" lon="1.36021">
        <ele>161.3</ele>
        <time>2020-08-11T05:11:41.717Z</time>
      </trkpt>
      <trkpt lat="43.5594" lon="1.3601">
        <ele>161.45</ele>
        <time>2020-08-11T05:11:45.092Z</time>
      </trkpt>
      <trkpt lat="43.55929" lon="1.36006">
        <ele>161.54</ele>
        <time>2020-08-11T05:11:47.562Z</time>
      </trkpt>
      <trkpt lat="43.5589" lon="1.36003">
        <ele>161.69</ele>
        <time>2020-08-11T05:11:55.716Z</time>
      </trkpt>
      <trkpt lat="43.5589" lon="1.35997">
        <ele>161.69</ele>
        <time>2020-08-11T05:11:56.592Z</time>
      </trkpt>
      <trkpt lat="43.55827" lon="1.35994">
        <ele>161.85</ele>
        <time>2020-08-11T05:12:09.590Z</time>
      </trkpt>
      <trkpt lat="43.55764" lon="1.35991">
        <ele>161.87</ele>
        <time>2020-08-11T05:12:22.323Z</time>
      </trkpt>
      <trkpt lat="43.55701" lon="1.35988">
        <ele>161.81</ele>
        <time>2020-08-11T05:12:34.837Z</time>
      </trkpt>
      <trkpt lat="43.55663" lon="1.35983">
        <ele>161.82</ele>
        <time>2020-08-11T05:12:42.544Z</time>
      </trkpt>
      <trkpt lat="43.55634" lon="1.35974">
        <ele>161.82</ele>
        <time>2020-08-11T05:12:48.530Z</time>
      </trkpt>
      <trkpt lat="43.55606" lon="1.35961">
        <ele>162.22</ele>
        <time>2020-08-11T05:12:55.323Z</time>
      </trkpt>
      <trkpt lat="43.55564" lon="1.35922">
        <ele>162.22</ele>
        <time>2020-08-11T05:13:05.519Z</time>
      </trkpt>
      <trkpt lat="43.55552" lon="1.35907">
        <ele>162.38</ele>
        <time>2020-08-11T05:13:09.105Z</time>
      </trkpt>
      <trkpt lat="43.55522" lon="1.35863">
        <ele>162.59</ele>
        <time>2020-08-11T05:13:18.328Z</time>
      </trkpt>
      <trkpt lat="43.55471" lon="1.35777">
        <ele>162.66</ele>
        <time>2020-08-11T05:13:34.677Z</time>
      </trkpt>
      <trkpt lat="43.5545" lon="1.35746">
        <ele>162.93</ele>
        <time>2020-08-11T05:13:41.413Z</time>
      </trkpt>
      <trkpt lat="43.55433" lon="1.35732">
        <ele>162.93</ele>
        <time>2020-08-11T05:13:45.400Z</time>
      </trkpt>
      <trkpt lat="43.55403" lon="1.35722">
        <ele>162.55</ele>
        <time>2020-08-11T05:13:49.926Z</time>
      </trkpt>
      <trkpt lat="43.55396" lon="1.357">
        <ele>162.22</ele>
        <time>2020-08-11T05:13:52.279Z</time>
      </trkpt>
      <trkpt lat="43.55384" lon="1.35671">
        <ele>162.11</ele>
        <time>2020-08-11T05:13:56.836Z</time>
      </trkpt>
      <trkpt lat="43.55369" lon="1.35645">
        <ele>162.27</ele>
        <time>2020-08-11T05:14:02.001Z</time>
      </trkpt>
      <trkpt lat="43.55343" lon="1.35608">
        <ele>162.7</ele>
        <time>2020-08-11T05:14:10.410Z</time>
      </trkpt>
      <trkpt lat="43.55298" lon="1.35549">
        <ele>162.28</ele>
        <time>2020-08-11T05:14:21.738Z</time>
      </trkpt>
      <trkpt lat="43.55254" lon="1.355">
        <ele>163</ele>
        <time>2020-08-11T05:14:34.630Z</time>
      </trkpt>
      <trkpt lat="43.55208" lon="1.35463">
        <ele>162.86</ele>
        <time>2020-08-11T05:14:44.939Z</time>
      </trkpt>
      <trkpt lat="43.55142" lon="1.3539">
        <ele>161.98</ele>
        <time>2020-08-11T05:14:57.656Z</time>
      </trkpt>
      <trkpt lat="43.55075" lon="1.35318">
        <ele>161.88</ele>
        <time>2020-08-11T05:15:14.457Z</time>
      </trkpt>
      <trkpt lat="43.55009" lon="1.35245">
        <ele>162.39</ele>
        <time>2020-08-11T05:15:32.490Z</time>
      </trkpt>
      <trkpt lat="43.54967" lon="1.35197">
        <ele>162.47</ele>
        <time>2020-08-11T05:15:43.624Z</time>
      </trkpt>
      <trkpt lat="43.54924" lon="1.35148">
        <ele>162.86</ele>
        <time>2020-08-11T05:15:55.625Z</time>
      </trkpt>
      <trkpt lat="43.54857" lon="1.35076">
        <ele>163.53</ele>
        <time>2020-08-11T05:16:14.061Z</time>
      </trkpt>
      <trkpt lat="43.54804" lon="1.35049">
        <ele>163.85</ele>
        <time>2020-08-11T05:16:26.063Z</time>
      </trkpt>
      <trkpt lat="43.54784" lon="1.35042">
        <ele>163.87</ele>
        <time>2020-08-11T05:16:30.256Z</time>
      </trkpt>
      <trkpt lat="43.54767" lon="1.35039">
        <ele>163.85</ele>
        <time>2020-08-11T05:16:33.647Z</time>
      </trkpt>
      <trkpt lat="43.54746" lon="1.35038">
        <ele>163.85</ele>
        <time>2020-08-11T05:16:37.879Z</time>
      </trkpt>
      <trkpt lat="43.5471" lon="1.3504">
        <ele>163.67</ele>
        <time>2020-08-11T05:16:44.620Z</time>
      </trkpt>
      <trkpt lat="43.54674" lon="1.35049">
        <ele>163.67</ele>
        <time>2020-08-11T05:16:51.989Z</time>
      </trkpt>
      <trkpt lat="43.54592" lon="1.35064">
        <ele>164.08</ele>
        <time>2020-08-11T05:17:09.441Z</time>
      </trkpt>
      <trkpt lat="43.54558" lon="1.35063">
        <ele>164.39</ele>
        <time>2020-08-11T05:17:16.914Z</time>
      </trkpt>
      <trkpt lat="43.54551" lon="1.3506">
        <ele>164.39</ele>
        <time>2020-08-11T05:17:18.390Z</time>
      </trkpt>
      <trkpt lat="43.54541" lon="1.35052">
        <ele>164.94</ele>
        <time>2020-08-11T05:17:22.398Z</time>
      </trkpt>
      <trkpt lat="43.54534" lon="1.35027">
        <ele>164.89</ele>
        <time>2020-08-11T05:17:26.162Z</time>
      </trkpt>
      <trkpt lat="43.54523" lon="1.35026">
        <ele>164.63</ele>
        <time>2020-08-11T05:17:27.573Z</time>
      </trkpt>
      <trkpt lat="43.54518" lon="1.35022">
        <ele>164.54</ele>
        <time>2020-08-11T05:17:28.387Z</time>
      </trkpt>
      <trkpt lat="43.54508" lon="1.35035">
        <ele>164.54</ele>
        <time>2020-08-11T05:17:31.154Z</time>
      </trkpt>
      <trkpt lat="43.54502" lon="1.35037">
        <ele>164.78</ele>
        <time>2020-08-11T05:17:33.085Z</time>
      </trkpt>
      <trkpt lat="43.54481" lon="1.35031">
        <ele>164.86</ele>
        <time>2020-08-11T05:17:37.557Z</time>
      </trkpt>
      <trkpt lat="43.54471" lon="1.35024">
        <ele>164.86</ele>
        <time>2020-08-11T05:17:39.816Z</time>
      </trkpt>
      <trkpt lat="43.54412" lon="1.34952">
        <ele>165.6</ele>
        <time>2020-08-11T05:17:57.174Z</time>
      </trkpt>
      <trkpt lat="43.54353" lon="1.34879">
        <ele>166.16</ele>
        <time>2020-08-11T05:18:14.241Z</time>
      </trkpt>
      <trkpt lat="43.5433" lon="1.34847">
        <ele>166.16</ele>
        <time>2020-08-11T05:18:20.820Z</time>
      </trkpt>
      <trkpt lat="43.54279" lon="1.348">
        <ele>166.1</ele>
        <time>2020-08-11T05:18:32.990Z</time>
      </trkpt>
      <trkpt lat="43.54217" lon="1.34752">
        <ele>165.02</ele>
        <time>2020-08-11T05:18:43.043Z</time>
      </trkpt>
      <trkpt lat="43.54175" lon="1.34716">
        <ele>166.14</ele>
        <time>2020-08-11T05:18:55.609Z</time>
      </trkpt>
      <trkpt lat="43.54155" lon="1.34704">
        <ele>167.15</ele>
        <time>2020-08-11T05:19:03.108Z</time>
      </trkpt>
      <trkpt lat="43.54106" lon="1.34688">
        <ele>167.94</ele>
        <time>2020-08-11T05:19:14.952Z</time>
      </trkpt>
      <trkpt lat="43.54057" lon="1.34671">
        <ele>167.96</ele>
        <time>2020-08-11T05:19:25.165Z</time>
      </trkpt>
      <trkpt lat="43.54016" lon="1.34652">
        <ele>167.43</ele>
        <time>2020-08-11T05:19:31.513Z</time>
      </trkpt>
      <trkpt lat="43.53992" lon="1.34639">
        <ele>168.15</ele>
        <time>2020-08-11T05:19:38.491Z</time>
      </trkpt>
      <trkpt lat="43.5395" lon="1.34612">
        <ele>169.06</ele>
        <time>2020-08-11T05:19:49.870Z</time>
      </trkpt>
      <trkpt lat="43.53908" lon="1.34584">
        <ele>169.08</ele>
        <time>2020-08-11T05:19:59.302Z</time>
      </trkpt>
      <trkpt lat="43.53829" lon="1.34537">
        <ele>168.5</ele>
        <time>2020-08-11T05:20:15.008Z</time>
      </trkpt>
      <trkpt lat="43.53782" lon="1.34505">
        <ele>168.24</ele>
        <time>2020-08-11T05:20:24.818Z</time>
      </trkpt>
      <trkpt lat="43.53733" lon="1.34461">
        <ele>168.99</ele>
        <time>2020-08-11T05:20:38.162Z</time>
      </trkpt>
      <trkpt lat="43.53683" lon="1.34417">
        <ele>169.68</ele>
        <time>2020-08-11T05:20:51.532Z</time>
      </trkpt>
      <trkpt lat="43.53667" lon="1.3444">
        <ele>169.68</ele>
        <time>2020-08-11T05:20:56.186Z</time>
      </trkpt>
      <trkpt lat="43.53615" lon="1.34532">
        <ele>170.06</ele>
        <time>2020-08-11T05:21:13.950Z</time>
      </trkpt>
      <trkpt lat="43.53597" lon="1.3456">
        <ele>169.92</ele>
        <time>2020-08-11T05:21:19.014Z</time>
      </trkpt>
      <trkpt lat="43.53551" lon="1.34593">
        <ele>169.49</ele>
        <time>2020-08-11T05:21:27.033Z</time>
      </trkpt>
      <trkpt lat="43.53544" lon="1.34586">
        <ele>169.58</ele>
        <time>2020-08-11T05:21:28.958Z</time>
      </trkpt>
      <trkpt lat="43.53536" lon="1.34583">
        <ele>169.58</ele>
        <time>2020-08-11T05:21:30.627Z</time>
      </trkpt>
      <trkpt lat="43.53526" lon="1.34563">
        <ele>169.58</ele>
        <time>2020-08-11T05:21:34.175Z</time>
      </trkpt>
      <trkpt lat="43.53484" lon="1.34525">
        <ele>169.93</ele>
        <time>2020-08-11T05:21:44.981Z</time>
      </trkpt>
      <trkpt lat="43.53441" lon="1.34486">
        <ele>169.87</ele>
        <time>2020-08-11T05:21:55.164Z</time>
      </trkpt>
      <trkpt lat="43.53393" lon="1.3444">
        <ele>169.74</ele>
        <time>2020-08-11T05:22:06.548Z</time>
      </trkpt>
      <trkpt lat="43.53344" lon="1.34393">
        <ele>169.82</ele>
        <time>2020-08-11T05:22:18.717Z</time>
      </trkpt>
      <trkpt lat="43.53285" lon="1.34348">
        <ele>169.8</ele>
        <time>2020-08-11T05:22:32.235Z</time>
      </trkpt>
      <trkpt lat="43.53292" lon="1.34338">
        <ele>169.8</ele>
        <time>2020-08-11T05:22:34.264Z</time>
      </trkpt>
      <trkpt lat="43.53321" lon="1.34263">
        <ele>170.76</ele>
        <time>2020-08-11T05:22:48.742Z</time>
      </trkpt>
      <trkpt lat="43.5335" lon="1.34188">
        <ele>169.68</ele>
        <time>2020-08-11T05:22:57.209Z</time>
      </trkpt>
      <trkpt lat="43.53294" lon="1.34144">
        <ele>170.14</ele>
        <time>2020-08-11T05:23:11.098Z</time>
      </trkpt>
      <trkpt lat="43.53238" lon="1.341">
        <ele>170.46</ele>
        <time>2020-08-11T05:23:24.696Z</time>
      </trkpt>
      <trkpt lat="43.53218" lon="1.34068">
        <ele>170.5</ele>
        <time>2020-08-11T05:23:30.940Z</time>
      </trkpt>
      <trkpt lat="43.53196" lon="1.34026">
        <ele>170.41</ele>
        <time>2020-08-11T05:23:38.238Z</time>
      </trkpt>
      <trkpt lat="43.53169" lon="1.33989">
        <ele>170.21</ele>
        <time>2020-08-11T05:23:45.333Z</time>
      </trkpt>
      <trkpt lat="43.5315" lon="1.33968">
        <ele>169.38</ele>
        <time>2020-08-11T05:23:48.121Z</time>
      </trkpt>
      <trkpt lat="43.53076" lon="1.33903">
        <ele>171.07</ele>
        <time>2020-08-11T05:24:09.576Z</time>
      </trkpt>
      <trkpt lat="43.53047" lon="1.33867">
        <ele>171.15</ele>
        <time>2020-08-11T05:24:17.584Z</time>
      </trkpt>
      <trkpt lat="43.5298" lon="1.33816">
        <ele>170.75</ele>
        <time>2020-08-11T05:24:31.854Z</time>
      </trkpt>
      <trkpt lat="43.52912" lon="1.33764">
        <ele>170.94</ele>
        <time>2020-08-11T05:24:47.873Z</time>
      </trkpt>
      <trkpt lat="43.5284" lon="1.337">
        <ele>171.69</ele>
        <time>2020-08-11T05:25:06.629Z</time>
      </trkpt>
      <trkpt lat="43.52777" lon="1.33641">
        <ele>172.34</ele>
        <time>2020-08-11T05:25:23.267Z</time>
      </trkpt>
      <trkpt lat="43.52713" lon="1.33582">
        <ele>172.26</ele>
        <time>2020-08-11T05:25:38.528Z</time>
      </trkpt>
      <trkpt lat="43.52704" lon="1.33562">
        <ele>172.12</ele>
        <time>2020-08-11T05:25:41.171Z</time>
      </trkpt>
      <trkpt lat="43.52704" lon="1.33555">
        <ele>172.12</ele>
        <time>2020-08-11T05:25:42.193Z</time>
      </trkpt>
      <trkpt lat="43.527" lon="1.33547">
        <ele>172.12</ele>
        <time>2020-08-11T05:25:43.612Z</time>
      </trkpt>
      <trkpt lat="43.52692" lon="1.33545">
        <ele>172.2</ele>
        <time>2020-08-11T05:25:45.412Z</time>
      </trkpt>
      <trkpt lat="43.52688" lon="1.33548">
        <ele>172.2</ele>
        <time>2020-08-11T05:25:46.329Z</time>
      </trkpt>
      <trkpt lat="43.52684" lon="1.33554">
        <ele>172.2</ele>
        <time>2020-08-11T05:25:47.519Z</time>
      </trkpt>
      <trkpt lat="43.5264" lon="1.33517">
        <ele>172.73</ele>
        <time>2020-08-11T05:25:58.978Z</time>
      </trkpt>
      <trkpt lat="43.52582" lon="1.33474">
        <ele>172.64</ele>
        <time>2020-08-11T05:26:11.968Z</time>
      </trkpt>
      <trkpt lat="43.52593" lon="1.33453">
        <ele>172.64</ele>
        <time>2020-08-11T05:26:15.751Z</time>
      </trkpt>
      <trkpt lat="43.52602" lon="1.33436">
        <ele>172.57</ele>
        <time>2020-08-11T05:26:18.624Z</time>
      </trkpt>
      <trkpt lat="43.52582" lon="1.33474">
        <ele>172.73</ele>
        <time>2020-08-11T05:26:25.789Z</time>
      </trkpt>
      <trkpt lat="43.52524" lon="1.33426">
        <ele>171.87</ele>
        <time>2020-08-11T05:26:35.657Z</time>
      </trkpt>
      <trkpt lat="43.52465" lon="1.33378">
        <ele>172.34</ele>
        <time>2020-08-11T05:26:50.379Z</time>
      </trkpt>
      <trkpt lat="43.52402" lon="1.33316">
        <ele>172.6</ele>
        <time>2020-08-11T05:27:06.462Z</time>
      </trkpt>
      <trkpt lat="43.52328" lon="1.33249">
        <ele>171.22</ele>
        <time>2020-08-11T05:27:18.917Z</time>
      </trkpt>
      <trkpt lat="43.52331" lon="1.33241">
        <ele>171.32</ele>
        <time>2020-08-11T05:27:20.447Z</time>
      </trkpt>
      <trkpt lat="43.52278" lon="1.33191">
        <ele>171.84</ele>
        <time>2020-08-11T05:27:34.416Z</time>
      </trkpt>
      <trkpt lat="43.52224" lon="1.33142">
        <ele>172.11</ele>
        <time>2020-08-11T05:27:47.953Z</time>
      </trkpt>
      <trkpt lat="43.52171" lon="1.33092">
        <ele>172.66</ele>
        <time>2020-08-11T05:28:01.987Z</time>
      </trkpt>
      <trkpt lat="43.52123" lon="1.33051">
        <ele>172.19</ele>
        <time>2020-08-11T05:28:10.716Z</time>
      </trkpt>
      <trkpt lat="43.5212" lon="1.3303">
        <ele>172.05</ele>
        <time>2020-08-11T05:28:13.093Z</time>
      </trkpt>
      <trkpt lat="43.52108" lon="1.33016">
        <ele>171.89</ele>
        <time>2020-08-11T05:28:15.463Z</time>
      </trkpt>
      <trkpt lat="43.52084" lon="1.3302">
        <ele>172.11</ele>
        <time>2020-08-11T05:28:20.775Z</time>
      </trkpt>
      <trkpt lat="43.52026" lon="1.32971">
        <ele>172.55</ele>
        <time>2020-08-11T05:28:35.337Z</time>
      </trkpt>
      <trkpt lat="43.52016" lon="1.32957">
        <ele>172.74</ele>
        <time>2020-08-11T05:28:38.606Z</time>
      </trkpt>
      <trkpt lat="43.51974" lon="1.32919">
        <ele>172.89</ele>
        <time>2020-08-11T05:28:49.008Z</time>
      </trkpt>
      <trkpt lat="43.51951" lon="1.32901">
        <ele>173.19</ele>
        <time>2020-08-11T05:28:54.952Z</time>
      </trkpt>
      <trkpt lat="43.51948" lon="1.32908">
        <ele>173.19</ele>
        <time>2020-08-11T05:28:56.139Z</time>
      </trkpt>
      <trkpt lat="43.51904" lon="1.32879">
        <ele>173.19</ele>
        <time>2020-08-11T05:29:05.961Z</time>
      </trkpt>
      <trkpt lat="43.51834" lon="1.32826">
        <ele>173.31</ele>
        <time>2020-08-11T05:29:22.269Z</time>
      </trkpt>
      <trkpt lat="43.51764" lon="1.32773">
        <ele>172.87</ele>
        <time>2020-08-11T05:29:37.101Z</time>
      </trkpt>
      <trkpt lat="43.51737" lon="1.32748">
        <ele>172.91</ele>
        <time>2020-08-11T05:29:43.726Z</time>
      </trkpt>
      <trkpt lat="43.5174" lon="1.32735">
        <ele>173.12</ele>
        <time>2020-08-11T05:29:46.199Z</time>
      </trkpt>
      <trkpt lat="43.51735" lon="1.32726">
        <ele>173.12</ele>
        <time>2020-08-11T05:29:47.855Z</time>
      </trkpt>
      <trkpt lat="43.51726" lon="1.32724">
        <ele>173.18</ele>
        <time>2020-08-11T05:29:49.809Z</time>
      </trkpt>
      <trkpt lat="43.51721" lon="1.3273">
        <ele>173.18</ele>
        <time>2020-08-11T05:29:51.144Z</time>
      </trkpt>
      <trkpt lat="43.51706" lon="1.3271">
        <ele>173.96</ele>
        <time>2020-08-11T05:29:57.535Z</time>
      </trkpt>
      <trkpt lat="43.51675" lon="1.32642">
        <ele>174.98</ele>
        <time>2020-08-11T05:30:11.507Z</time>
      </trkpt>
      <trkpt lat="43.51644" lon="1.32574">
        <ele>174.55</ele>
        <time>2020-08-11T05:30:20.628Z</time>
      </trkpt>
      <trkpt lat="43.51584" lon="1.32665">
        <ele>174.84</ele>
        <time>2020-08-11T05:30:39.143Z</time>
      </trkpt>
      <trkpt lat="43.51548" lon="1.32744">
        <ele>175.36</ele>
        <time>2020-08-11T05:30:53.803Z</time>
      </trkpt>
      <trkpt lat="43.51512" lon="1.32823">
        <ele>176.11</ele>
        <time>2020-08-11T05:31:08.970Z</time>
      </trkpt>
      <trkpt lat="43.51468" lon="1.32905">
        <ele>175.23</ele>
        <time>2020-08-11T05:31:19.877Z</time>
      </trkpt>
      <trkpt lat="43.51422" lon="1.33009">
        <ele>172.99</ele>
        <time>2020-08-11T05:31:30.967Z</time>
      </trkpt>
      <trkpt lat="43.51419" lon="1.33024">
        <ele>172.89</ele>
        <time>2020-08-11T05:31:32.699Z</time>
      </trkpt>
      <trkpt lat="43.51413" lon="1.33025">
        <ele>172.64</ele>
        <time>2020-08-11T05:31:33.344Z</time>
      </trkpt>
      <trkpt lat="43.51408" lon="1.3303">
        <ele>172.64</ele>
        <time>2020-08-11T05:31:34.588Z</time>
      </trkpt>
      <trkpt lat="43.51357" lon="1.32987">
        <ele>173.31</ele>
        <time>2020-08-11T05:31:48.005Z</time>
      </trkpt>
      <trkpt lat="43.51305" lon="1.32944">
        <ele>173.48</ele>
        <time>2020-08-11T05:32:00.539Z</time>
      </trkpt>
      <trkpt lat="43.5128" lon="1.3292">
        <ele>173.96</ele>
        <time>2020-08-11T05:32:07.709Z</time>
      </trkpt>
      <trkpt lat="43.51238" lon="1.32885">
        <ele>174.05</ele>
        <time>2020-08-11T05:32:17.762Z</time>
      </trkpt>
      <trkpt lat="43.51195" lon="1.3285">
        <ele>174.02</ele>
        <time>2020-08-11T05:32:27.727Z</time>
      </trkpt>
      <trkpt lat="43.51133" lon="1.32787">
        <ele>173.24</ele>
        <time>2020-08-11T05:32:39.349Z</time>
      </trkpt>
      <trkpt lat="43.51125" lon="1.32769">
        <ele>173.4</ele>
        <time>2020-08-11T05:32:42.759Z</time>
      </trkpt>
      <trkpt lat="43.51123" lon="1.32759">
        <ele>173.4</ele>
        <time>2020-08-11T05:32:44.274Z</time>
      </trkpt>
      <trkpt lat="43.51127" lon="1.32743">
        <ele>173.7</ele>
        <time>2020-08-11T05:32:47.459Z</time>
      </trkpt>
      <trkpt lat="43.51125" lon="1.32735">
        <ele>173.96</ele>
        <time>2020-08-11T05:32:49.479Z</time>
      </trkpt>
      <trkpt lat="43.51118" lon="1.32725">
        <ele>173.96</ele>
        <time>2020-08-11T05:32:51.509Z</time>
      </trkpt>
      <trkpt lat="43.51112" lon="1.32722">
        <ele>173.9</ele>
        <time>2020-08-11T05:32:52.482Z</time>
      </trkpt>
      <trkpt lat="43.51105" lon="1.32724">
        <ele>173.9</ele>
        <time>2020-08-11T05:32:53.921Z</time>
      </trkpt>
      <trkpt lat="43.51089" lon="1.32715">
        <ele>173.69</ele>
        <time>2020-08-11T05:32:56.461Z</time>
      </trkpt>
      <trkpt lat="43.51041" lon="1.32702">
        <ele>173.5</ele>
        <time>2020-08-11T05:33:05.760Z</time>
      </trkpt>
      <trkpt lat="43.50975" lon="1.32651">
        <ele>173.62</ele>
        <time>2020-08-11T05:33:21.222Z</time>
      </trkpt>
      <trkpt lat="43.50909" lon="1.32599">
        <ele>173.38</ele>
        <time>2020-08-11T05:33:35.826Z</time>
      </trkpt>
      <trkpt lat="43.50843" lon="1.32548">
        <ele>173.86</ele>
        <time>2020-08-11T05:33:52.004Z</time>
      </trkpt>
      <trkpt lat="43.50777" lon="1.32496">
        <ele>174.03</ele>
        <time>2020-08-11T05:34:07.634Z</time>
      </trkpt>
      <trkpt lat="43.5072" lon="1.32436">
        <ele>174.43</ele>
        <time>2020-08-11T05:34:22.855Z</time>
      </trkpt>
      <trkpt lat="43.50663" lon="1.32376">
        <ele>173.88</ele>
        <time>2020-08-11T05:34:34.041Z</time>
      </trkpt>
      <trkpt lat="43.50609" lon="1.32318">
        <ele>173.83</ele>
        <time>2020-08-11T05:34:47.675Z</time>
      </trkpt>
      <trkpt lat="43.50556" lon="1.32259">
        <ele>172.31</ele>
        <time>2020-08-11T05:34:56.524Z</time>
      </trkpt>
      <trkpt lat="43.50502" lon="1.32201">
        <ele>172.07</ele>
        <time>2020-08-11T05:35:09.608Z</time>
      </trkpt>
      <trkpt lat="43.50446" lon="1.32147">
        <ele>172.5</ele>
        <time>2020-08-11T05:35:24.214Z</time>
      </trkpt>
      <trkpt lat="43.50406" lon="1.32116">
        <ele>172.96</ele>
        <time>2020-08-11T05:35:34.390Z</time>
      </trkpt>
      <trkpt lat="43.50374" lon="1.32096">
        <ele>173.64</ele>
        <time>2020-08-11T05:35:42.991Z</time>
      </trkpt>
      <trkpt lat="43.50308" lon="1.3206">
        <ele>174.67</ele>
        <time>2020-08-11T05:35:59.478Z</time>
      </trkpt>
      <trkpt lat="43.50241" lon="1.32023">
        <ele>176.07</ele>
        <time>2020-08-11T05:36:17.155Z</time>
      </trkpt>
      <trkpt lat="43.50189" lon="1.3198">
        <ele>175.76</ele>
        <time>2020-08-11T05:36:28.481Z</time>
      </trkpt>
      <trkpt lat="43.50136" lon="1.31937">
        <ele>175.45</ele>
        <time>2020-08-11T05:36:39.979Z</time>
      </trkpt>
      <trkpt lat="43.50077" lon="1.31878">
        <ele>175.22</ele>
        <time>2020-08-11T05:36:53.981Z</time>
      </trkpt>
      <trkpt lat="43.50018" lon="1.31819">
        <ele>175.04</ele>
        <time>2020-08-11T05:37:08.126Z</time>
      </trkpt>
      <trkpt lat="43.49952" lon="1.31749">
        <ele>176.37</ele>
        <time>2020-08-11T05:37:27.772Z</time>
      </trkpt>
      <trkpt lat="43.49886" lon="1.31679">
        <ele>175.6</ele>
        <time>2020-08-11T05:37:40.486Z</time>
      </trkpt>
      <trkpt lat="43.4982" lon="1.31609">
        <ele>175.86</ele>
        <time>2020-08-11T05:37:57.751Z</time>
      </trkpt>
      <trkpt lat="43.49769" lon="1.31544">
        <ele>175.86</ele>
        <time>2020-08-11T05:38:11.740Z</time>
      </trkpt>
      <trkpt lat="43.49718" lon="1.31478">
        <ele>176.28</ele>
        <time>2020-08-11T05:38:26.649Z</time>
      </trkpt>
      <trkpt lat="43.497" lon="1.3145">
        <ele>176.05</ele>
        <time>2020-08-11T05:38:30.836Z</time>
      </trkpt>
      <trkpt lat="43.49671" lon="1.31415">
        <ele>175.67</ele>
        <time>2020-08-11T05:38:36.673Z</time>
      </trkpt>
      <trkpt lat="43.49606" lon="1.31383">
        <ele>174.28</ele>
        <time>2020-08-11T05:38:45.867Z</time>
      </trkpt>
      <trkpt lat="43.49545" lon="1.31355">
        <ele>175.08</ele>
        <time>2020-08-11T05:39:00.482Z</time>
      </trkpt>
      <trkpt lat="43.49485" lon="1.31326">
        <ele>175.77</ele>
        <time>2020-08-11T05:39:14.701Z</time>
      </trkpt>
      <trkpt lat="43.49424" lon="1.31298">
        <ele>177.85</ele>
        <time>2020-08-11T05:39:33.103Z</time>
      </trkpt>
      <trkpt lat="43.49397" lon="1.31289">
        <ele>177.6</ele>
        <time>2020-08-11T05:39:37.359Z</time>
      </trkpt>
      <trkpt lat="43.49372" lon="1.31272">
        <ele>177.07</ele>
        <time>2020-08-11T05:39:41.122Z</time>
      </trkpt>
      <trkpt lat="43.49364" lon="1.3127">
        <ele>176.09</ele>
        <time>2020-08-11T05:39:41.887Z</time>
      </trkpt>
      <trkpt lat="43.49354" lon="1.31277">
        <ele>175.6</ele>
        <time>2020-08-11T05:39:43.058Z</time>
      </trkpt>
      <trkpt lat="43.4934" lon="1.31271">
        <ele>175.27</ele>
        <time>2020-08-11T05:39:44.958Z</time>
      </trkpt>
      <trkpt lat="43.49285" lon="1.31237">
        <ele>174.88</ele>
        <time>2020-08-11T05:39:56.004Z</time>
      </trkpt>
      <trkpt lat="43.49212" lon="1.31197">
        <ele>174.66</ele>
        <time>2020-08-11T05:40:11.174Z</time>
      </trkpt>
      <trkpt lat="43.49143" lon="1.3117">
        <ele>174.48</ele>
        <time>2020-08-11T05:40:25.086Z</time>
      </trkpt>
      <trkpt lat="43.49074" lon="1.31142">
        <ele>174.32</ele>
        <time>2020-08-11T05:40:39.095Z</time>
      </trkpt>
      <trkpt lat="43.48996" lon="1.31106">
        <ele>174.85</ele>
        <time>2020-08-11T05:40:56.701Z</time>
      </trkpt>
      <trkpt lat="43.48936" lon="1.31073">
        <ele>174.69</ele>
        <time>2020-08-11T05:41:09.236Z</time>
      </trkpt>
      <trkpt lat="43.48876" lon="1.31041">
        <ele>174.07</ele>
        <time>2020-08-11T05:41:19.008Z</time>
      </trkpt>
      <trkpt lat="43.48816" lon="1.31008">
        <ele>174.65</ele>
        <time>2020-08-11T05:41:33.185Z</time>
      </trkpt>
      <trkpt lat="43.48765" lon="1.30985">
        <ele>175.48</ele>
        <time>2020-08-11T05:41:45.776Z</time>
      </trkpt>
      <trkpt lat="43.48713" lon="1.30962">
        <ele>176.12</ele>
        <time>2020-08-11T05:41:58.098Z</time>
      </trkpt>
      <trkpt lat="43.48695" lon="1.3095">
        <ele>176.2</ele>
        <time>2020-08-11T05:42:02.279Z</time>
      </trkpt>
      <trkpt lat="43.48665" lon="1.30924">
        <ele>177.12</ele>
        <time>2020-08-11T05:42:11.643Z</time>
      </trkpt>
      <trkpt lat="43.48619" lon="1.3088">
        <ele>178.5</ele>
        <time>2020-08-11T05:42:26.208Z</time>
      </trkpt>
      <trkpt lat="43.48572" lon="1.30835">
        <ele>179.66</ele>
        <time>2020-08-11T05:42:40.362Z</time>
      </trkpt>
      <trkpt lat="43.48544" lon="1.3081">
        <ele>179.78</ele>
        <time>2020-08-11T05:42:47.310Z</time>
      </trkpt>
      <trkpt lat="43.48491" lon="1.30767">
        <ele>180.68</ele>
        <time>2020-08-11T05:43:01.614Z</time>
      </trkpt>
      <trkpt lat="43.48437" lon="1.30723">
        <ele>181.05</ele>
        <time>2020-08-11T05:43:14.970Z</time>
      </trkpt>
      <trkpt lat="43.48356" lon="1.30672">
        <ele>180.65</ele>
        <time>2020-08-11T05:43:31.751Z</time>
      </trkpt>
      <trkpt lat="43.48303" lon="1.30644">
        <ele>180.22</ele>
        <time>2020-08-11T05:43:40.616Z</time>
      </trkpt>
      <trkpt lat="43.4825" lon="1.30615">
        <ele>180.22</ele>
        <time>2020-08-11T05:43:52.101Z</time>
      </trkpt>
      <trkpt lat="43.48172" lon="1.30558">
        <ele>179.71</ele>
        <time>2020-08-11T05:44:08.437Z</time>
      </trkpt>
      <trkpt lat="43.48094" lon="1.30501">
        <ele>181.1</ele>
        <time>2020-08-11T05:44:29.215Z</time>
      </trkpt>
      <trkpt lat="43.48055" lon="1.30477">
        <ele>181.02</ele>
        <time>2020-08-11T05:44:37.577Z</time>
      </trkpt>
      <trkpt lat="43.48002" lon="1.30461">
        <ele>180.4</ele>
        <time>2020-08-11T05:44:45.626Z</time>
      </trkpt>
      <trkpt lat="43.47948" lon="1.30444">
        <ele>180.46</ele>
        <time>2020-08-11T05:44:56.894Z</time>
      </trkpt>
      <trkpt lat="43.47862" lon="1.3042">
        <ele>179.81</ele>
        <time>2020-08-11T05:45:10.630Z</time>
      </trkpt>
      <trkpt lat="43.47801" lon="1.30412">
        <ele>179.18</ele>
        <time>2020-08-11T05:45:19.857Z</time>
      </trkpt>
      <trkpt lat="43.4774" lon="1.30404">
        <ele>179.29</ele>
        <time>2020-08-11T05:45:32.405Z</time>
      </trkpt>
      <trkpt lat="43.47671" lon="1.30402">
        <ele>179.28</ele>
        <time>2020-08-11T05:45:46.274Z</time>
      </trkpt>
      <trkpt lat="43.47603" lon="1.30399">
        <ele>178.61</ele>
        <time>2020-08-11T05:45:56.579Z</time>
      </trkpt>
      <trkpt lat="43.47534" lon="1.30397">
        <ele>178.59</ele>
        <time>2020-08-11T05:46:10.417Z</time>
      </trkpt>
      <trkpt lat="43.47478" lon="1.30378">
        <ele>178.51</ele>
        <time>2020-08-11T05:46:21.791Z</time>
      </trkpt>
      <trkpt lat="43.47419" lon="1.30353">
        <ele>178.27</ele>
        <time>2020-08-11T05:46:33.524Z</time>
      </trkpt>
      <trkpt lat="43.47369" lon="1.30329">
        <ele>178.5</ele>
        <time>2020-08-11T05:46:44.630Z</time>
      </trkpt>
      <trkpt lat="43.47319" lon="1.30305">
        <ele>178.63</ele>
        <time>2020-08-11T05:46:55.539Z</time>
      </trkpt>
      <trkpt lat="43.47274" lon="1.30287">
        <ele>179.59</ele>
        <time>2020-08-11T05:47:07.157Z</time>
      </trkpt>
      <trkpt lat="43.47233" lon="1.30277">
        <ele>179.84</ele>
        <time>2020-08-11T05:47:16.031Z</time>
      </trkpt>
      <trkpt lat="43.4719" lon="1.30274">
        <ele>180.22</ele>
        <time>2020-08-11T05:47:25.465Z</time>
      </trkpt>
      <trkpt lat="43.47159" lon="1.30279">
        <ele>180.39</ele>
        <time>2020-08-11T05:47:32.082Z</time>
      </trkpt>
      <trkpt lat="43.47138" lon="1.30277">
        <ele>180.42</ele>
        <time>2020-08-11T05:47:36.377Z</time>
      </trkpt>
      <trkpt lat="43.47124" lon="1.30272">
        <ele>180.66</ele>
        <time>2020-08-11T05:47:39.812Z</time>
      </trkpt>
      <trkpt lat="43.47118" lon="1.30261">
        <ele>181.04</ele>
        <time>2020-08-11T05:47:42.900Z</time>
      </trkpt>
      <trkpt lat="43.4711" lon="1.30253">
        <ele>181.04</ele>
        <time>2020-08-11T05:47:44.891Z</time>
      </trkpt>
      <trkpt lat="43.47105" lon="1.30251">
        <ele>180.68</ele>
        <time>2020-08-11T05:47:45.381Z</time>
      </trkpt>
      <trkpt lat="43.4709" lon="1.30254">
        <ele>180.05</ele>
        <time>2020-08-11T05:47:46.995Z</time>
      </trkpt>
      <trkpt lat="43.47061" lon="1.30245">
        <ele>179.82</ele>
        <time>2020-08-11T05:47:51.627Z</time>
      </trkpt>
      <trkpt lat="43.47008" lon="1.30234">
        <ele>180.41</ele>
        <time>2020-08-11T05:48:03.633Z</time>
      </trkpt>
      <trkpt lat="43.46955" lon="1.30222">
        <ele>180.68</ele>
        <time>2020-08-11T05:48:14.973Z</time>
      </trkpt>
      <trkpt lat="43.46879" lon="1.30201">
        <ele>180.76</ele>
        <time>2020-08-11T05:48:30.733Z</time>
      </trkpt>
      <trkpt lat="43.46804" lon="1.3018">
        <ele>180.79</ele>
        <time>2020-08-11T05:48:46.203Z</time>
      </trkpt>
      <trkpt lat="43.46728" lon="1.30159">
        <ele>180.79</ele>
        <time>2020-08-11T05:49:01.815Z</time>
      </trkpt>
      <trkpt lat="43.46701" lon="1.30147">
        <ele>180.79</ele>
        <time>2020-08-11T05:49:07.529Z</time>
      </trkpt>
      <trkpt lat="43.46665" lon="1.30118">
        <ele>180.87</ele>
        <time>2020-08-11T05:49:16.078Z</time>
      </trkpt>
      <trkpt lat="43.46636" lon="1.30089">
        <ele>180.87</ele>
        <time>2020-08-11T05:49:23.295Z</time>
      </trkpt>
      <trkpt lat="43.46602" lon="1.3006">
        <ele>181.31</ele>
        <time>2020-08-11T05:49:32.251Z</time>
      </trkpt>
      <trkpt lat="43.4654" lon="1.30009">
        <ele>182.01</ele>
        <time>2020-08-11T05:49:48.212Z</time>
      </trkpt>
      <trkpt lat="43.46478" lon="1.29957">
        <ele>183.1</ele>
        <time>2020-08-11T05:50:05.162Z</time>
      </trkpt>
      <trkpt lat="43.46434" lon="1.29923">
        <ele>183.03</ele>
        <time>2020-08-11T05:50:15.111Z</time>
      </trkpt>
      <trkpt lat="43.46436" lon="1.29916">
        <ele>182.14</ele>
        <time>2020-08-11T05:50:15.625Z</time>
      </trkpt>
      <trkpt lat="43.46435" lon="1.299">
        <ele>182.14</ele>
        <time>2020-08-11T05:50:17.973Z</time>
      </trkpt>
      <trkpt lat="43.46427" lon="1.29889">
        <ele>182.02</ele>
        <time>2020-08-11T05:50:19.667Z</time>
      </trkpt>
      <trkpt lat="43.46422" lon="1.29885">
        <ele>182.02</ele>
        <time>2020-08-11T05:50:20.832Z</time>
      </trkpt>
      <trkpt lat="43.46415" lon="1.29884">
        <ele>182.12</ele>
        <time>2020-08-11T05:50:22.461Z</time>
      </trkpt>
      <trkpt lat="43.46409" lon="1.29886">
        <ele>182.36</ele>
        <time>2020-08-11T05:50:24.392Z</time>
      </trkpt>
      <trkpt lat="43.464" lon="1.29898">
        <ele>182.14</ele>
        <time>2020-08-11T05:50:26.112Z</time>
      </trkpt>
      <trkpt lat="43.46342" lon="1.29849">
        <ele>181.18</ele>
        <time>2020-08-11T05:50:35.864Z</time>
      </trkpt>
      <trkpt lat="43.46283" lon="1.29801">
        <ele>181.05</ele>
        <time>2020-08-11T05:50:49.274Z</time>
      </trkpt>
      <trkpt lat="43.46225" lon="1.29752">
        <ele>180.45</ele>
        <time>2020-08-11T05:50:59.722Z</time>
      </trkpt>
      <trkpt lat="43.46165" lon="1.297">
        <ele>180.74</ele>
        <time>2020-08-11T05:51:14.554Z</time>
      </trkpt>
      <trkpt lat="43.46105" lon="1.29648">
        <ele>182.89</ele>
        <time>2020-08-11T05:51:34.323Z</time>
      </trkpt>
      <trkpt lat="43.46041" lon="1.29581">
        <ele>184.07</ele>
        <time>2020-08-11T05:51:53.027Z</time>
      </trkpt>
      <trkpt lat="43.46005" lon="1.29539">
        <ele>183.64</ele>
        <time>2020-08-11T05:52:00.242Z</time>
      </trkpt>
      <trkpt lat="43.45969" lon="1.29496">
        <ele>183.47</ele>
        <time>2020-08-11T05:52:09.341Z</time>
      </trkpt>
      <trkpt lat="43.45915" lon="1.29414">
        <ele>183.41</ele>
        <time>2020-08-11T05:52:25.344Z</time>
      </trkpt>
      <trkpt lat="43.45881" lon="1.29359">
        <ele>183.14</ele>
        <time>2020-08-11T05:52:35.134Z</time>
      </trkpt>
      <trkpt lat="43.4586" lon="1.29342">
        <ele>183.39</ele>
        <time>2020-08-11T05:52:40.548Z</time>
      </trkpt>
      <trkpt lat="43.45863" lon="1.29329">
        <ele>183.32</ele>
        <time>2020-08-11T05:52:42.348Z</time>
      </trkpt>
      <trkpt lat="43.45861" lon="1.29324">
        <ele>183.32</ele>
        <time>2020-08-11T05:52:43.182Z</time>
      </trkpt>
      <trkpt lat="43.45857" lon="1.2932">
        <ele>183.32</ele>
        <time>2020-08-11T05:52:44.178Z</time>
      </trkpt>
      <trkpt lat="43.45852" lon="1.29319">
        <ele>183.23</ele>
        <time>2020-08-11T05:52:44.870Z</time>
      </trkpt>
      <trkpt lat="43.45848" lon="1.29322">
        <ele>183.11</ele>
        <time>2020-08-11T05:52:45.435Z</time>
      </trkpt>
      <trkpt lat="43.45844" lon="1.29333">
        <ele>183.11</ele>
        <time>2020-08-11T05:52:47.234Z</time>
      </trkpt>
      <trkpt lat="43.45822" lon="1.29325">
        <ele>182.86</ele>
        <time>2020-08-11T05:52:50.629Z</time>
      </trkpt>
      <trkpt lat="43.45742" lon="1.29306">
        <ele>181.17</ele>
        <time>2020-08-11T05:53:01.357Z</time>
      </trkpt>
      <trkpt lat="43.45661" lon="1.29286">
        <ele>180.56</ele>
        <time>2020-08-11T05:53:14.239Z</time>
      </trkpt>
      <trkpt lat="43.45581" lon="1.29267">
        <ele>181.47</ele>
        <time>2020-08-11T05:53:32.460Z</time>
      </trkpt>
      <trkpt lat="43.455" lon="1.29247">
        <ele>184.24</ele>
        <time>2020-08-11T05:53:56.422Z</time>
      </trkpt>
      <trkpt lat="43.4542" lon="1.29228">
        <ele>184.87</ele>
        <time>2020-08-11T05:54:14.023Z</time>
      </trkpt>
      <trkpt lat="43.4536" lon="1.29219">
        <ele>184.92</ele>
        <time>2020-08-11T05:54:26.272Z</time>
      </trkpt>
      <trkpt lat="43.45272" lon="1.29216">
        <ele>185.5</ele>
        <time>2020-08-11T05:54:45.140Z</time>
      </trkpt>
      <trkpt lat="43.45184" lon="1.29214">
        <ele>185.77</ele>
        <time>2020-08-11T05:55:03.379Z</time>
      </trkpt>
      <trkpt lat="43.45096" lon="1.29211">
        <ele>185.58</ele>
        <time>2020-08-11T05:55:20.540Z</time>
      </trkpt>
      <trkpt lat="43.45014" lon="1.29222">
        <ele>185.49</ele>
        <time>2020-08-11T05:55:36.861Z</time>
      </trkpt>
      <trkpt lat="43.44963" lon="1.29233">
        <ele>185.75</ele>
        <time>2020-08-11T05:55:47.760Z</time>
      </trkpt>
      <trkpt lat="43.44911" lon="1.29244">
        <ele>186.36</ele>
        <time>2020-08-11T05:55:59.615Z</time>
      </trkpt>
      <trkpt lat="43.44861" lon="1.29251">
        <ele>187.02</ele>
        <time>2020-08-11T05:56:11.122Z</time>
      </trkpt>
      <trkpt lat="43.44797" lon="1.29257">
        <ele>187.52</ele>
        <time>2020-08-11T05:56:25.035Z</time>
      </trkpt>
      <trkpt lat="43.44734" lon="1.29262">
        <ele>187.73</ele>
        <time>2020-08-11T05:56:38.144Z</time>
      </trkpt>
      <trkpt lat="43.4467" lon="1.29268">
        <ele>187.81</ele>
        <time>2020-08-11T05:56:51.213Z</time>
      </trkpt>
      <trkpt lat="43.44621" lon="1.2927">
        <ele>188.06</ele>
        <time>2020-08-11T05:57:01.570Z</time>
      </trkpt>
      <trkpt lat="43.44587" lon="1.29269">
        <ele>188.04</ele>
        <time>2020-08-11T05:57:08.359Z</time>
      </trkpt>
      <trkpt lat="43.44513" lon="1.29265">
        <ele>188.67</ele>
        <time>2020-08-11T05:57:24.535Z</time>
      </trkpt>
      <trkpt lat="43.44438" lon="1.2926">
        <ele>189.97</ele>
        <time>2020-08-11T05:57:42.508Z</time>
      </trkpt>
      <trkpt lat="43.44391" lon="1.29255">
        <ele>190.07</ele>
        <time>2020-08-11T05:57:52.191Z</time>
      </trkpt>
      <trkpt lat="43.44343" lon="1.29249">
        <ele>190.15</ele>
        <time>2020-08-11T05:58:02.048Z</time>
      </trkpt>
      <trkpt lat="43.44335" lon="1.29246">
        <ele>190.15</ele>
        <time>2020-08-11T05:58:03.718Z</time>
      </trkpt>
      <trkpt lat="43.44324" lon="1.29251">
        <ele>190.15</ele>
        <time>2020-08-11T05:58:06.051Z</time>
      </trkpt>
      <trkpt lat="43.44266" lon="1.29201">
        <ele>188.89</ele>
        <time>2020-08-11T05:58:15.353Z</time>
      </trkpt>
      <trkpt lat="43.44227" lon="1.29183">
        <ele>189</ele>
        <time>2020-08-11T05:58:23.845Z</time>
      </trkpt>
      <trkpt lat="43.44224" lon="1.29173">
        <ele>189</ele>
        <time>2020-08-11T05:58:25.428Z</time>
      </trkpt>
      <trkpt lat="43.44217" lon="1.29163">
        <ele>189.77</ele>
        <time>2020-08-11T05:58:29.721Z</time>
      </trkpt>
      <trkpt lat="43.44157" lon="1.29113">
        <ele>190.06</ele>
        <time>2020-08-11T05:58:44.401Z</time>
      </trkpt>
      <trkpt lat="43.44105" lon="1.29072">
        <ele>190.08</ele>
        <time>2020-08-11T05:58:56.506Z</time>
      </trkpt>
      <trkpt lat="43.44052" lon="1.29031">
        <ele>190.29</ele>
        <time>2020-08-11T05:59:09.149Z</time>
      </trkpt>
      <trkpt lat="43.44024" lon="1.29004">
        <ele>189.96</ele>
        <time>2020-08-11T05:59:14.340Z</time>
      </trkpt>
      <trkpt lat="43.43985" lon="1.2895">
        <ele>189.61</ele>
        <time>2020-08-11T05:59:24.493Z</time>
      </trkpt>
      <trkpt lat="43.43945" lon="1.28895">
        <ele>189.7</ele>
        <time>2020-08-11T05:59:36.046Z</time>
      </trkpt>
      <trkpt lat="43.43912" lon="1.28858">
        <ele>189.79</ele>
        <time>2020-08-11T05:59:44.786Z</time>
      </trkpt>
      <trkpt lat="43.43864" lon="1.28818">
        <ele>189.88</ele>
        <time>2020-08-11T05:59:56.254Z</time>
      </trkpt>
      <trkpt lat="43.43815" lon="1.28778">
        <ele>189.75</ele>
        <time>2020-08-11T06:00:07.338Z</time>
      </trkpt>
      <trkpt lat="43.43767" lon="1.28744">
        <ele>189.93</ele>
        <time>2020-08-11T06:00:18.552Z</time>
      </trkpt>
      <trkpt lat="43.43708" lon="1.28706">
        <ele>191.35</ele>
        <time>2020-08-11T06:00:34.944Z</time>
      </trkpt>
      <trkpt lat="43.43676" lon="1.28688">
        <ele>191.97</ele>
        <time>2020-08-11T06:00:43.274Z</time>
      </trkpt>
      <trkpt lat="43.43612" lon="1.28647">
        <ele>192.52</ele>
        <time>2020-08-11T06:00:58.584Z</time>
      </trkpt>
      <trkpt lat="43.43549" lon="1.28606">
        <ele>192.74</ele>
        <time>2020-08-11T06:01:13.036Z</time>
      </trkpt>
      <trkpt lat="43.43485" lon="1.28564">
        <ele>192.71</ele>
        <time>2020-08-11T06:01:27.222Z</time>
      </trkpt>
      <trkpt lat="43.43421" lon="1.28523">
        <ele>192.89</ele>
        <time>2020-08-11T06:01:41.779Z</time>
      </trkpt>
      <trkpt lat="43.43355" lon="1.28482">
        <ele>192.63</ele>
        <time>2020-08-11T06:01:55.601Z</time>
      </trkpt>
      <trkpt lat="43.43289" lon="1.2844">
        <ele>192.54</ele>
        <time>2020-08-11T06:02:09.972Z</time>
      </trkpt>
      <trkpt lat="43.43219" lon="1.284">
        <ele>192.08</ele>
        <time>2020-08-11T06:02:23.938Z</time>
      </trkpt>
      <trkpt lat="43.43149" lon="1.2836">
        <ele>191.94</ele>
        <time>2020-08-11T06:02:38.782Z</time>
      </trkpt>
      <trkpt lat="43.43078" lon="1.28319">
        <ele>191.76</ele>
        <time>2020-08-11T06:02:53.752Z</time>
      </trkpt>
      <trkpt lat="43.43008" lon="1.28279">
        <ele>191.44</ele>
        <time>2020-08-11T06:03:08.088Z</time>
      </trkpt>
      <trkpt lat="43.42938" lon="1.28239">
        <ele>191.34</ele>
        <time>2020-08-11T06:03:23.050Z</time>
      </trkpt>
      <trkpt lat="43.42875" lon="1.28206">
        <ele>191.11</ele>
        <time>2020-08-11T06:03:35.951Z</time>
      </trkpt>
      <trkpt lat="43.42812" lon="1.28172">
        <ele>192.09</ele>
        <time>2020-08-11T06:03:51.664Z</time>
      </trkpt>
      <trkpt lat="43.42773" lon="1.28155">
        <ele>192.64</ele>
        <time>2020-08-11T06:04:01.060Z</time>
      </trkpt>
      <trkpt lat="43.42698" lon="1.28129">
        <ele>193.11</ele>
        <time>2020-08-11T06:04:17.556Z</time>
      </trkpt>
      <trkpt lat="43.42659" lon="1.28113">
        <ele>193.43</ele>
        <time>2020-08-11T06:04:26.388Z</time>
      </trkpt>
      <trkpt lat="43.42633" lon="1.28098">
        <ele>194.09</ele>
        <time>2020-08-11T06:04:33.615Z</time>
      </trkpt>
      <trkpt lat="43.42571" lon="1.28057">
        <ele>194.29</ele>
        <time>2020-08-11T06:04:47.847Z</time>
      </trkpt>
      <trkpt lat="43.42508" lon="1.28015">
        <ele>194.44</ele>
        <time>2020-08-11T06:05:02.227Z</time>
      </trkpt>
      <trkpt lat="43.42439" lon="1.27965">
        <ele>194.87</ele>
        <time>2020-08-11T06:05:18.767Z</time>
      </trkpt>
      <trkpt lat="43.42405" lon="1.27934">
        <ele>195.16</ele>
        <time>2020-08-11T06:05:27.552Z</time>
      </trkpt>
      <trkpt lat="43.42385" lon="1.27919">
        <ele>195.28</ele>
        <time>2020-08-11T06:05:32.372Z</time>
      </trkpt>
      <trkpt lat="43.42334" lon="1.27884">
        <ele>195.77</ele>
        <time>2020-08-11T06:05:44.830Z</time>
      </trkpt>
      <trkpt lat="43.42283" lon="1.27849">
        <ele>196.01</ele>
        <time>2020-08-11T06:05:56.768Z</time>
      </trkpt>
      <trkpt lat="43.42238" lon="1.27833">
        <ele>197.05</ele>
        <time>2020-08-11T06:06:08.541Z</time>
      </trkpt>
      <trkpt lat="43.42158" lon="1.27799">
        <ele>196.97</ele>
        <time>2020-08-11T06:06:25.161Z</time>
      </trkpt>
      <trkpt lat="43.42074" lon="1.27774">
        <ele>197.03</ele>
        <time>2020-08-11T06:06:42.581Z</time>
      </trkpt>
      <trkpt lat="43.41991" lon="1.27749">
        <ele>195.59</ele>
        <time>2020-08-11T06:06:54.338Z</time>
      </trkpt>
      <trkpt lat="43.41907" lon="1.27724">
        <ele>195.65</ele>
        <time>2020-08-11T06:07:11.759Z</time>
      </trkpt>
      <trkpt lat="43.41823" lon="1.27699">
        <ele>195.55</ele>
        <time>2020-08-11T06:07:28.764Z</time>
      </trkpt>
      <trkpt lat="43.4177" lon="1.27679">
        <ele>195.55</ele>
        <time>2020-08-11T06:07:39.833Z</time>
      </trkpt>
      <trkpt lat="43.41714" lon="1.27649">
        <ele>196.4</ele>
        <time>2020-08-11T06:07:53.737Z</time>
      </trkpt>
      <trkpt lat="43.41657" lon="1.27618">
        <ele>196.48</ele>
        <time>2020-08-11T06:08:06.230Z</time>
      </trkpt>
      <trkpt lat="43.41602" lon="1.27574">
        <ele>196.4</ele>
        <time>2020-08-11T06:08:18.799Z</time>
      </trkpt>
      <trkpt lat="43.4156" lon="1.2752">
        <ele>196.44</ele>
        <time>2020-08-11T06:08:30.448Z</time>
      </trkpt>
      <trkpt lat="43.41518" lon="1.2746">
        <ele>198.26</ele>
        <time>2020-08-11T06:08:47.273Z</time>
      </trkpt>
      <trkpt lat="43.41476" lon="1.274">
        <ele>198.77</ele>
        <time>2020-08-11T06:09:00.483Z</time>
      </trkpt>
      <trkpt lat="43.41428" lon="1.27334">
        <ele>198.93</ele>
        <time>2020-08-11T06:09:14.448Z</time>
      </trkpt>
      <trkpt lat="43.4138" lon="1.27267">
        <ele>198.41</ele>
        <time>2020-08-11T06:09:25.120Z</time>
      </trkpt>
      <trkpt lat="43.41331" lon="1.27201">
        <ele>197.74</ele>
        <time>2020-08-11T06:09:35.513Z</time>
      </trkpt>
      <trkpt lat="43.41283" lon="1.27134">
        <ele>197.71</ele>
        <time>2020-08-11T06:09:49.189Z</time>
      </trkpt>
      <trkpt lat="43.41231" lon="1.27079">
        <ele>199.75</ele>
        <time>2020-08-11T06:10:07.660Z</time>
      </trkpt>
      <trkpt lat="43.4118" lon="1.27023">
        <ele>197.78</ele>
        <time>2020-08-11T06:10:15.434Z</time>
      </trkpt>
      <trkpt lat="43.41128" lon="1.26968">
        <ele>197.22</ele>
        <time>2020-08-11T06:10:25.542Z</time>
      </trkpt>
      <trkpt lat="43.41071" lon="1.2692">
        <ele>198.3</ele>
        <time>2020-08-11T06:10:41.339Z</time>
      </trkpt>
      <trkpt lat="43.41014" lon="1.26872">
        <ele>198.61</ele>
        <time>2020-08-11T06:10:55.394Z</time>
      </trkpt>
      <trkpt lat="43.40939" lon="1.26815">
        <ele>198.91</ele>
        <time>2020-08-11T06:11:13.221Z</time>
      </trkpt>
      <trkpt lat="43.40894" lon="1.26749">
        <ele>199.55</ele>
        <time>2020-08-11T06:11:27.761Z</time>
      </trkpt>
      <trkpt lat="43.40849" lon="1.26683">
        <ele>199.62</ele>
        <time>2020-08-11T06:11:41.135Z</time>
      </trkpt>
      <trkpt lat="43.40784" lon="1.26614">
        <ele>199.42</ele>
        <time>2020-08-11T06:11:57.072Z</time>
      </trkpt>
      <trkpt lat="43.40718" lon="1.26545">
        <ele>199.38</ele>
        <time>2020-08-11T06:12:13.642Z</time>
      </trkpt>
      <trkpt lat="43.40682" lon="1.26511">
        <ele>199.65</ele>
        <time>2020-08-11T06:12:22.963Z</time>
      </trkpt>
      <trkpt lat="43.4061" lon="1.26482">
        <ele>199.46</ele>
        <time>2020-08-11T06:12:37.508Z</time>
      </trkpt>
      <trkpt lat="43.40597" lon="1.26473">
        <ele>199.67</ele>
        <time>2020-08-11T06:12:40.885Z</time>
      </trkpt>
      <trkpt lat="43.40557" lon="1.26437">
        <ele>200.51</ele>
        <time>2020-08-11T06:12:52.358Z</time>
      </trkpt>
      <trkpt lat="43.40516" lon="1.264">
        <ele>200.73</ele>
        <time>2020-08-11T06:13:02.655Z</time>
      </trkpt>
      <trkpt lat="43.40479" lon="1.26344">
        <ele>201.81</ele>
        <time>2020-08-11T06:13:16.161Z</time>
      </trkpt>
      <trkpt lat="43.40455" lon="1.26273">
        <ele>201.62</ele>
        <time>2020-08-11T06:13:27.062Z</time>
      </trkpt>
      <trkpt lat="43.4043" lon="1.26201">
        <ele>201.25</ele>
        <time>2020-08-11T06:13:37.698Z</time>
      </trkpt>
      <trkpt lat="43.404" lon="1.26089">
        <ele>200.35</ele>
        <time>2020-08-11T06:13:50.742Z</time>
      </trkpt>
      <trkpt lat="43.40369" lon="1.25976">
        <ele>197.6</ele>
        <time>2020-08-11T06:14:01.076Z</time>
      </trkpt>
      <trkpt lat="43.40354" lon="1.25958">
        <ele>197.6</ele>
        <time>2020-08-11T06:14:05.084Z</time>
      </trkpt>
      <trkpt lat="43.40302" lon="1.25909">
        <ele>196.04</ele>
        <time>2020-08-11T06:14:13.049Z</time>
      </trkpt>
      <trkpt lat="43.40249" lon="1.25859">
        <ele>192.97</ele>
        <time>2020-08-11T06:14:19.515Z</time>
      </trkpt>
      <trkpt lat="43.40226" lon="1.25841">
        <ele>192.66</ele>
        <time>2020-08-11T06:14:23.425Z</time>
      </trkpt>
      <trkpt lat="43.40211" lon="1.25836">
        <ele>192.31</ele>
        <time>2020-08-11T06:14:25.422Z</time>
      </trkpt>
      <trkpt lat="43.4019" lon="1.25838">
        <ele>192.15</ele>
        <time>2020-08-11T06:14:28.708Z</time>
      </trkpt>
      <trkpt lat="43.40173" lon="1.25837">
        <ele>191.44</ele>
        <time>2020-08-11T06:14:30.518Z</time>
      </trkpt>
      <trkpt lat="43.40153" lon="1.25828">
        <ele>190.76</ele>
        <time>2020-08-11T06:14:32.971Z</time>
      </trkpt>
      <trkpt lat="43.40127" lon="1.25807">
        <ele>190.58</ele>
        <time>2020-08-11T06:14:38.534Z</time>
      </trkpt>
      <trkpt lat="43.40078" lon="1.25747">
        <ele>190.09</ele>
        <time>2020-08-11T06:14:48.792Z</time>
      </trkpt>
      <trkpt lat="43.4002" lon="1.25716">
        <ele>190.09</ele>
        <time>2020-08-11T06:15:01.323Z</time>
      </trkpt>
      <trkpt lat="43.39961" lon="1.25684">
        <ele>190.4</ele>
        <time>2020-08-11T06:15:14.694Z</time>
      </trkpt>
      <trkpt lat="43.39949" lon="1.25678">
        <ele>190.47</ele>
        <time>2020-08-11T06:15:17.402Z</time>
      </trkpt>
      <trkpt lat="43.39884" lon="1.25643">
        <ele>191.55</ele>
        <time>2020-08-11T06:15:33.781Z</time>
      </trkpt>
      <trkpt lat="43.39819" lon="1.25609">
        <ele>191.4</ele>
        <time>2020-08-11T06:15:47.338Z</time>
      </trkpt>
      <trkpt lat="43.39754" lon="1.25574">
        <ele>191.57</ele>
        <time>2020-08-11T06:16:01.716Z</time>
      </trkpt>
      <trkpt lat="43.39704" lon="1.25542">
        <ele>194.58</ele>
        <time>2020-08-11T06:16:21.737Z</time>
      </trkpt>
      <trkpt lat="43.39706" lon="1.25538">
        <ele>194.42</ele>
        <time>2020-08-11T06:16:22.100Z</time>
      </trkpt>
      <trkpt lat="43.39704" lon="1.25529">
        <ele>194.12</ele>
        <time>2020-08-11T06:16:22.813Z</time>
      </trkpt>
      <trkpt lat="43.39701" lon="1.25525">
        <ele>194.12</ele>
        <time>2020-08-11T06:16:23.654Z</time>
      </trkpt>
      <trkpt lat="43.39695" lon="1.25524">
        <ele>194.12</ele>
        <time>2020-08-11T06:16:24.872Z</time>
      </trkpt>
      <trkpt lat="43.39686" lon="1.25528">
        <ele>194.65</ele>
        <time>2020-08-11T06:16:28.340Z</time>
      </trkpt>
      <trkpt lat="43.39683" lon="1.25533">
        <ele>194.65</ele>
        <time>2020-08-11T06:16:29.289Z</time>
      </trkpt>
      <trkpt lat="43.39683" lon="1.25539">
        <ele>195.55</ele>
        <time>2020-08-11T06:16:32.675Z</time>
      </trkpt>
      <trkpt lat="43.39687" lon="1.25548">
        <ele>195.55</ele>
        <time>2020-08-11T06:16:34.219Z</time>
      </trkpt>
      <trkpt lat="43.3964" lon="1.25599">
        <ele>199.41</ele>
        <time>2020-08-11T06:16:57.509Z</time>
      </trkpt>
      <trkpt lat="43.39634" lon="1.25613">
        <ele>200.21</ele>
        <time>2020-08-11T06:17:02.215Z</time>
      </trkpt>
      <trkpt lat="43.39631" lon="1.25628">
        <ele>200.21</ele>
        <time>2020-08-11T06:17:04.492Z</time>
      </trkpt>
      <trkpt lat="43.39629" lon="1.25672">
        <ele>200.94</ele>
        <time>2020-08-11T06:17:12.646Z</time>
      </trkpt>
      <trkpt lat="43.39618" lon="1.25672">
        <ele>201.44</ele>
        <time>2020-08-11T06:17:16.408Z</time>
      </trkpt>
      <trkpt lat="43.39606" lon="1.25667">
        <ele>201.44</ele>
        <time>2020-08-11T06:17:18.933Z</time>
      </trkpt>
      <trkpt lat="43.39589" lon="1.25647">
        <ele>201.2</ele>
        <time>2020-08-11T06:17:22.281Z</time>
      </trkpt>
      <trkpt lat="43.39555" lon="1.25601">
        <ele>200.87</ele>
        <time>2020-08-11T06:17:30.963Z</time>
      </trkpt>
      <trkpt lat="43.39511" lon="1.25533">
        <ele>199.69</ele>
        <time>2020-08-11T06:17:40.021Z</time>
      </trkpt>
      <trkpt lat="43.39467" lon="1.25465">
        <ele>201.04</ele>
        <time>2020-08-11T06:17:56.409Z</time>
      </trkpt>
      <trkpt lat="43.39442" lon="1.25432">
        <ele>201.79</ele>
        <time>2020-08-11T06:18:05.112Z</time>
      </trkpt>
      <trkpt lat="43.39423" lon="1.25413">
        <ele>201.99</ele>
        <time>2020-08-11T06:18:10.242Z</time>
      </trkpt>
      <trkpt lat="43.39402" lon="1.25399">
        <ele>201.99</ele>
        <time>2020-08-11T06:18:14.942Z</time>
      </trkpt>
      <trkpt lat="43.39336" lon="1.25368">
        <ele>202.5</ele>
        <time>2020-08-11T06:18:29.996Z</time>
      </trkpt>
      <trkpt lat="43.3927" lon="1.25336">
        <ele>202.56</ele>
        <time>2020-08-11T06:18:44.202Z</time>
      </trkpt>
      <trkpt lat="43.39225" lon="1.25309">
        <ele>202.79</ele>
        <time>2020-08-11T06:18:54.532Z</time>
      </trkpt>
      <trkpt lat="43.39179" lon="1.25282">
        <ele>202.95</ele>
        <time>2020-08-11T06:19:04.909Z</time>
      </trkpt>
      <trkpt lat="43.3911" lon="1.25238">
        <ele>203.24</ele>
        <time>2020-08-11T06:19:20.780Z</time>
      </trkpt>
      <trkpt lat="43.39095" lon="1.25237">
        <ele>203.45</ele>
        <time>2020-08-11T06:19:24.248Z</time>
      </trkpt>
      <trkpt lat="43.39087" lon="1.25229">
        <ele>203.46</ele>
        <time>2020-08-11T06:19:26.259Z</time>
      </trkpt>
      <trkpt lat="43.39078" lon="1.25201">
        <ele>203.59</ele>
        <time>2020-08-11T06:19:30.993Z</time>
      </trkpt>
      <trkpt lat="43.3904" lon="1.25134">
        <ele>204.06</ele>
        <time>2020-08-11T06:19:44.365Z</time>
      </trkpt>
      <trkpt lat="43.38993" lon="1.25069">
        <ele>203.85</ele>
        <time>2020-08-11T06:19:57.167Z</time>
      </trkpt>
      <trkpt lat="43.38938" lon="1.25018">
        <ele>202.35</ele>
        <time>2020-08-11T06:20:05.753Z</time>
      </trkpt>
      <trkpt lat="43.38893" lon="1.2499">
        <ele>202.92</ele>
        <time>2020-08-11T06:20:16.875Z</time>
      </trkpt>
      <trkpt lat="43.38848" lon="1.24961">
        <ele>203.2</ele>
        <time>2020-08-11T06:20:27.428Z</time>
      </trkpt>
      <trkpt lat="43.3883" lon="1.24951">
        <ele>203.24</ele>
        <time>2020-08-11T06:20:31.413Z</time>
      </trkpt>
      <trkpt lat="43.38806" lon="1.24941">
        <ele>203.11</ele>
        <time>2020-08-11T06:20:36.092Z</time>
      </trkpt>
      <trkpt lat="43.38739" lon="1.2493">
        <ele>203.42</ele>
        <time>2020-08-11T06:20:50.279Z</time>
      </trkpt>
      <trkpt lat="43.38667" lon="1.24912">
        <ele>203.19</ele>
        <time>2020-08-11T06:21:04.340Z</time>
      </trkpt>
      <trkpt lat="43.38624" lon="1.24895">
        <ele>203.26</ele>
        <time>2020-08-11T06:21:13.482Z</time>
      </trkpt>
      <trkpt lat="43.38608" lon="1.24887">
        <ele>203.28</ele>
        <time>2020-08-11T06:21:16.948Z</time>
      </trkpt>
      <trkpt lat="43.3856" lon="1.24852">
        <ele>203.67</ele>
        <time>2020-08-11T06:21:28.659Z</time>
      </trkpt>
      <trkpt lat="43.38513" lon="1.24811">
        <ele>203.76</ele>
        <time>2020-08-11T06:21:40.036Z</time>
      </trkpt>
      <trkpt lat="43.38456" lon="1.24764">
        <ele>204.16</ele>
        <time>2020-08-11T06:21:54.200Z</time>
      </trkpt>
      <trkpt lat="43.38398" lon="1.24717">
        <ele>204.28</ele>
        <time>2020-08-11T06:22:07.982Z</time>
      </trkpt>
      <trkpt lat="43.38347" lon="1.24664">
        <ele>204.19</ele>
        <time>2020-08-11T06:22:20.583Z</time>
      </trkpt>
      <trkpt lat="43.38306" lon="1.24627">
        <ele>204.42</ele>
        <time>2020-08-11T06:22:30.901Z</time>
      </trkpt>
      <trkpt lat="43.38238" lon="1.24591">
        <ele>204.75</ele>
        <time>2020-08-11T06:22:46.211Z</time>
      </trkpt>
      <trkpt lat="43.3817" lon="1.24554">
        <ele>204.94</ele>
        <time>2020-08-11T06:23:01.298Z</time>
      </trkpt>
      <trkpt lat="43.38102" lon="1.24518">
        <ele>205.18</ele>
        <time>2020-08-11T06:23:16.429Z</time>
      </trkpt>
      <trkpt lat="43.38036" lon="1.24485">
        <ele>205.7</ele>
        <time>2020-08-11T06:23:31.601Z</time>
      </trkpt>
      <trkpt lat="43.37955" lon="1.24453">
        <ele>205.99</ele>
        <time>2020-08-11T06:23:49.127Z</time>
      </trkpt>
      <trkpt lat="43.3794" lon="1.24445">
        <ele>206.35</ele>
        <time>2020-08-11T06:23:53.202Z</time>
      </trkpt>
      <trkpt lat="43.37882" lon="1.24388">
        <ele>206.52</ele>
        <time>2020-08-11T06:24:07.879Z</time>
      </trkpt>
      <trkpt lat="43.37845" lon="1.24341">
        <ele>206.07</ele>
        <time>2020-08-11T06:24:15.600Z</time>
      </trkpt>
      <trkpt lat="43.37825" lon="1.2432">
        <ele>206.03</ele>
        <time>2020-08-11T06:24:20.546Z</time>
      </trkpt>
      <trkpt lat="43.37797" lon="1.24299">
        <ele>206.22</ele>
        <time>2020-08-11T06:24:27.340Z</time>
      </trkpt>
      <trkpt lat="43.37745" lon="1.24276">
        <ele>206.75</ele>
        <time>2020-08-11T06:24:39.414Z</time>
      </trkpt>
      <trkpt lat="43.37693" lon="1.24253">
        <ele>207.69</ele>
        <time>2020-08-11T06:24:52.474Z</time>
      </trkpt>
      <trkpt lat="43.37623" lon="1.24217">
        <ele>207.8</ele>
        <time>2020-08-11T06:25:07.731Z</time>
      </trkpt>
      <trkpt lat="43.37569" lon="1.24186">
        <ele>207.62</ele>
        <time>2020-08-11T06:25:18.985Z</time>
      </trkpt>
      <trkpt lat="43.37537" lon="1.24162">
        <ele>207.65</ele>
        <time>2020-08-11T06:25:26.381Z</time>
      </trkpt>
      <trkpt lat="43.37472" lon="1.24102">
        <ele>208.38</ele>
        <time>2020-08-11T06:25:43.619Z</time>
      </trkpt>
      <trkpt lat="43.37426" lon="1.24064">
        <ele>208.38</ele>
        <time>2020-08-11T06:25:54.426Z</time>
      </trkpt>
      <trkpt lat="43.37374" lon="1.24024">
        <ele>208.38</ele>
        <time>2020-08-11T06:26:06.425Z</time>
      </trkpt>
      <trkpt lat="43.37311" lon="1.23981">
        <ele>207.74</ele>
        <time>2020-08-11T06:26:17.184Z</time>
      </trkpt>
      <trkpt lat="43.37247" lon="1.23937">
        <ele>207.74</ele>
        <time>2020-08-11T06:26:31.594Z</time>
      </trkpt>
      <trkpt lat="43.37202" lon="1.23899">
        <ele>207.74</ele>
        <time>2020-08-11T06:26:42.228Z</time>
      </trkpt>
      <trkpt lat="43.37157" lon="1.2386">
        <ele>207.7</ele>
        <time>2020-08-11T06:26:52.818Z</time>
      </trkpt>
      <trkpt lat="43.37109" lon="1.23813">
        <ele>207.7</ele>
        <time>2020-08-11T06:27:04.685Z</time>
      </trkpt>
      <trkpt lat="43.3706" lon="1.23766">
        <ele>209.22</ele>
        <time>2020-08-11T06:27:20.372Z</time>
      </trkpt>
      <trkpt lat="43.36999" lon="1.23697">
        <ele>209.66</ele>
        <time>2020-08-11T06:27:37.133Z</time>
      </trkpt>
      <trkpt lat="43.36967" lon="1.23654">
        <ele>209.74</ele>
        <time>2020-08-11T06:27:46.293Z</time>
      </trkpt>
      <trkpt lat="43.36926" lon="1.23593">
        <ele>210.02</ele>
        <time>2020-08-11T06:27:58.996Z</time>
      </trkpt>
      <trkpt lat="43.36886" lon="1.23533">
        <ele>210.06</ele>
        <time>2020-08-11T06:28:10.990Z</time>
      </trkpt>
      <trkpt lat="43.36845" lon="1.23472">
        <ele>209.9</ele>
        <time>2020-08-11T06:28:22.679Z</time>
      </trkpt>
      <trkpt lat="43.36822" lon="1.23427">
        <ele>209.59</ele>
        <time>2020-08-11T06:28:28.909Z</time>
      </trkpt>
      <trkpt lat="43.36798" lon="1.23366">
        <ele>209.74</ele>
        <time>2020-08-11T06:28:39.349Z</time>
      </trkpt>
      <trkpt lat="43.36775" lon="1.23296">
        <ele>210.27</ele>
        <time>2020-08-11T06:28:51.667Z</time>
      </trkpt>
      <trkpt lat="43.36749" lon="1.23242">
        <ele>210.66</ele>
        <time>2020-08-11T06:29:01.929Z</time>
      </trkpt>
      <trkpt lat="43.36717" lon="1.23196">
        <ele>210.63</ele>
        <time>2020-08-11T06:29:11.160Z</time>
      </trkpt>
      <trkpt lat="43.36663" lon="1.23129">
        <ele>210.89</ele>
        <time>2020-08-11T06:29:26.302Z</time>
      </trkpt>
      <trkpt lat="43.36592" lon="1.23054">
        <ele>211.37</ele>
        <time>2020-08-11T06:29:45.263Z</time>
      </trkpt>
      <trkpt lat="43.36553" lon="1.23008">
        <ele>211.35</ele>
        <time>2020-08-11T06:29:55.549Z</time>
      </trkpt>
      <trkpt lat="43.36513" lon="1.22962">
        <ele>211.66</ele>
        <time>2020-08-11T06:30:06.655Z</time>
      </trkpt>
      <trkpt lat="43.36473" lon="1.22907">
        <ele>211.83</ele>
        <time>2020-08-11T06:30:18.368Z</time>
      </trkpt>
      <trkpt lat="43.36432" lon="1.22852">
        <ele>212.12</ele>
        <time>2020-08-11T06:30:30.464Z</time>
      </trkpt>
      <trkpt lat="43.36383" lon="1.22804">
        <ele>212.99</ele>
        <time>2020-08-11T06:30:44.430Z</time>
      </trkpt>
      <trkpt lat="43.36334" lon="1.22755">
        <ele>213.22</ele>
        <time>2020-08-11T06:30:57.071Z</time>
      </trkpt>
      <trkpt lat="43.36282" lon="1.22698">
        <ele>213.25</ele>
        <time>2020-08-11T06:31:10.518Z</time>
      </trkpt>
      <trkpt lat="43.3622" lon="1.22621">
        <ele>213.18</ele>
        <time>2020-08-11T06:31:27.129Z</time>
      </trkpt>
      <trkpt lat="43.36158" lon="1.22545">
        <ele>213.03</ele>
        <time>2020-08-11T06:31:43.405Z</time>
      </trkpt>
      <trkpt lat="43.36095" lon="1.22468">
        <ele>213.32</ele>
        <time>2020-08-11T06:32:00.932Z</time>
      </trkpt>
      <trkpt lat="43.36033" lon="1.22392">
        <ele>213.38</ele>
        <time>2020-08-11T06:32:17.770Z</time>
      </trkpt>
      <trkpt lat="43.35971" lon="1.22315">
        <ele>213.36</ele>
        <time>2020-08-11T06:32:34.533Z</time>
      </trkpt>
      <trkpt lat="43.35907" lon="1.22246">
        <ele>213.32</ele>
        <time>2020-08-11T06:32:50.789Z</time>
      </trkpt>
      <trkpt lat="43.35842" lon="1.22177">
        <ele>213.07</ele>
        <time>2020-08-11T06:33:06.589Z</time>
      </trkpt>
      <trkpt lat="43.35791" lon="1.22127">
        <ele>212.78</ele>
        <time>2020-08-11T06:33:18.368Z</time>
      </trkpt>
      <trkpt lat="43.35765" lon="1.22079">
        <ele>212.29</ele>
        <time>2020-08-11T06:33:24.838Z</time>
      </trkpt>
      <trkpt lat="43.35752" lon="1.22063">
        <ele>212.56</ele>
        <time>2020-08-11T06:33:28.932Z</time>
      </trkpt>
      <trkpt lat="43.3575" lon="1.22055">
        <ele>212.69</ele>
        <time>2020-08-11T06:33:30.468Z</time>
      </trkpt>
      <trkpt lat="43.35746" lon="1.22049">
        <ele>212.69</ele>
        <time>2020-08-11T06:33:31.660Z</time>
      </trkpt>
      <trkpt lat="43.35741" lon="1.22045">
        <ele>212.69</ele>
        <time>2020-08-11T06:33:32.825Z</time>
      </trkpt>
      <trkpt lat="43.35734" lon="1.22045">
        <ele>212.64</ele>
        <time>2020-08-11T06:33:34.096Z</time>
      </trkpt>
      <trkpt lat="43.35728" lon="1.22047">
        <ele>212.64</ele>
        <time>2020-08-11T06:33:35.339Z</time>
      </trkpt>
      <trkpt lat="43.35724" lon="1.22053">
        <ele>212.54</ele>
        <time>2020-08-11T06:33:36.159Z</time>
      </trkpt>
      <trkpt lat="43.35711" lon="1.22049">
        <ele>212.55</ele>
        <time>2020-08-11T06:33:38.860Z</time>
      </trkpt>
      <trkpt lat="43.35686" lon="1.22004">
        <ele>212.83</ele>
        <time>2020-08-11T06:33:47.705Z</time>
      </trkpt>
      <trkpt lat="43.35619" lon="1.21934">
        <ele>212.97</ele>
        <time>2020-08-11T06:34:04.913Z</time>
      </trkpt>
      <trkpt lat="43.35584" lon="1.21903">
        <ele>213.32</ele>
        <time>2020-08-11T06:34:13.997Z</time>
      </trkpt>
      <trkpt lat="43.35514" lon="1.21851">
        <ele>213.72</ele>
        <time>2020-08-11T06:34:30.794Z</time>
      </trkpt>
      <trkpt lat="43.3546" lon="1.21806">
        <ele>214.02</ele>
        <time>2020-08-11T06:34:44.090Z</time>
      </trkpt>
      <trkpt lat="43.35422" lon="1.21767">
        <ele>214.13</ele>
        <time>2020-08-11T06:34:53.847Z</time>
      </trkpt>
      <trkpt lat="43.35358" lon="1.21683">
        <ele>214.3</ele>
        <time>2020-08-11T06:35:11.984Z</time>
      </trkpt>
      <trkpt lat="43.35293" lon="1.21598">
        <ele>214.75</ele>
        <time>2020-08-11T06:35:30.919Z</time>
      </trkpt>
      <trkpt lat="43.35229" lon="1.21514">
        <ele>214.9</ele>
        <time>2020-08-11T06:35:49.019Z</time>
      </trkpt>
      <trkpt lat="43.35185" lon="1.21463">
        <ele>214.98</ele>
        <time>2020-08-11T06:36:00.758Z</time>
      </trkpt>
      <trkpt lat="43.35148" lon="1.21431">
        <ele>215.03</ele>
        <time>2020-08-11T06:36:09.654Z</time>
      </trkpt>
      <trkpt lat="43.35102" lon="1.21404">
        <ele>215.27</ele>
        <time>2020-08-11T06:36:20.191Z</time>
      </trkpt>
      <trkpt lat="43.35048" lon="1.21378">
        <ele>215.98</ele>
        <time>2020-08-11T06:36:33.192Z</time>
      </trkpt>
      <trkpt lat="43.34993" lon="1.21352">
        <ele>216.06</ele>
        <time>2020-08-11T06:36:45.055Z</time>
      </trkpt>
      <trkpt lat="43.34965" lon="1.21334">
        <ele>215.87</ele>
        <time>2020-08-11T06:36:50.744Z</time>
      </trkpt>
      <trkpt lat="43.3492" lon="1.21301">
        <ele>216.15</ele>
        <time>2020-08-11T06:37:01.559Z</time>
      </trkpt>
      <trkpt lat="43.34873" lon="1.21272">
        <ele>216.57</ele>
        <time>2020-08-11T06:37:12.772Z</time>
      </trkpt>
      <trkpt lat="43.34839" lon="1.21246">
        <ele>216.83</ele>
        <time>2020-08-11T06:37:21.118Z</time>
      </trkpt>
      <trkpt lat="43.34764" lon="1.2118">
        <ele>216.64</ele>
        <time>2020-08-11T06:37:38.484Z</time>
      </trkpt>
      <trkpt lat="43.3469" lon="1.21113">
        <ele>216.97</ele>
        <time>2020-08-11T06:37:56.959Z</time>
      </trkpt>
      <trkpt lat="43.34615" lon="1.21047">
        <ele>217.29</ele>
        <time>2020-08-11T06:38:15.504Z</time>
      </trkpt>
      <trkpt lat="43.34541" lon="1.2098">
        <ele>217.77</ele>
        <time>2020-08-11T06:38:34.280Z</time>
      </trkpt>
      <trkpt lat="43.34466" lon="1.20914">
        <ele>218.85</ele>
        <time>2020-08-11T06:38:54.455Z</time>
      </trkpt>
      <trkpt lat="43.34392" lon="1.20847">
        <ele>219.08</ele>
        <time>2020-08-11T06:39:12.735Z</time>
      </trkpt>
      <trkpt lat="43.34317" lon="1.20781">
        <ele>219</ele>
        <time>2020-08-11T06:39:30.425Z</time>
      </trkpt>
      <trkpt lat="43.34243" lon="1.20714">
        <ele>219.4</ele>
        <time>2020-08-11T06:39:49.040Z</time>
      </trkpt>
      <trkpt lat="43.34168" lon="1.20648">
        <ele>219.54</ele>
        <time>2020-08-11T06:40:07.236Z</time>
      </trkpt>
      <trkpt lat="43.34137" lon="1.20622">
        <ele>219.39</ele>
        <time>2020-08-11T06:40:14.115Z</time>
      </trkpt>
      <trkpt lat="43.34089" lon="1.20586">
        <ele>219.34</ele>
        <time>2020-08-11T06:40:24.975Z</time>
      </trkpt>
      <trkpt lat="43.34043" lon="1.20547">
        <ele>218.99</ele>
        <time>2020-08-11T06:40:34.876Z</time>
      </trkpt>
      <trkpt lat="43.34003" lon="1.20516">
        <ele>219.04</ele>
        <time>2020-08-11T06:40:44.218Z</time>
      </trkpt>
      <trkpt lat="43.33962" lon="1.20484">
        <ele>219.35</ele>
        <time>2020-08-11T06:40:54.321Z</time>
      </trkpt>
      <trkpt lat="43.3389" lon="1.2042">
        <ele>219.39</ele>
        <time>2020-08-11T06:41:11.663Z</time>
      </trkpt>
      <trkpt lat="43.33819" lon="1.20355">
        <ele>219.2</ele>
        <time>2020-08-11T06:41:28.276Z</time>
      </trkpt>
      <trkpt lat="43.33747" lon="1.20291">
        <ele>219.47</ele>
        <time>2020-08-11T06:41:46.057Z</time>
      </trkpt>
      <trkpt lat="43.33694" lon="1.2025">
        <ele>219.82</ele>
        <time>2020-08-11T06:41:58.987Z</time>
      </trkpt>
      <trkpt lat="43.3364" lon="1.20208">
        <ele>220</ele>
        <time>2020-08-11T06:42:11.824Z</time>
      </trkpt>
      <trkpt lat="43.3358" lon="1.20166">
        <ele>220</ele>
        <time>2020-08-11T06:42:25.384Z</time>
      </trkpt>
      <trkpt lat="43.33519" lon="1.20125">
        <ele>219.98</ele>
        <time>2020-08-11T06:42:38.998Z</time>
      </trkpt>
      <trkpt lat="43.33459" lon="1.20083">
        <ele>220.33</ele>
        <time>2020-08-11T06:42:53.237Z</time>
      </trkpt>
      <trkpt lat="43.33451" lon="1.20068">
        <ele>220.33</ele>
        <time>2020-08-11T06:42:55.961Z</time>
      </trkpt>
      <trkpt lat="43.33449" lon="1.20059">
        <ele>220.5</ele>
        <time>2020-08-11T06:42:57.746Z</time>
      </trkpt>
      <trkpt lat="43.33442" lon="1.20052">
        <ele>220.53</ele>
        <time>2020-08-11T06:42:59.547Z</time>
      </trkpt>
      <trkpt lat="43.33438" lon="1.2005">
        <ele>220.53</ele>
        <time>2020-08-11T06:43:00.404Z</time>
      </trkpt>
      <trkpt lat="43.33432" lon="1.20052">
        <ele>220.69</ele>
        <time>2020-08-11T06:43:02.034Z</time>
      </trkpt>
      <trkpt lat="43.33418" lon="1.2005">
        <ele>220.69</ele>
        <time>2020-08-11T06:43:04.869Z</time>
      </trkpt>
      <trkpt lat="43.33362" lon="1.20005">
        <ele>220.55</ele>
        <time>2020-08-11T06:43:17.515Z</time>
      </trkpt>
      <trkpt lat="43.33312" lon="1.19949">
        <ele>221.41</ele>
        <time>2020-08-11T06:43:32.311Z</time>
      </trkpt>
      <trkpt lat="43.33263" lon="1.19893">
        <ele>221.72</ele>
        <time>2020-08-11T06:43:45.744Z</time>
      </trkpt>
      <trkpt lat="43.33213" lon="1.19837">
        <ele>221.72</ele>
        <time>2020-08-11T06:43:58.733Z</time>
      </trkpt>
      <trkpt lat="43.33169" lon="1.19781">
        <ele>221.69</ele>
        <time>2020-08-11T06:44:10.717Z</time>
      </trkpt>
      <trkpt lat="43.33125" lon="1.19725">
        <ele>221.88</ele>
        <time>2020-08-11T06:44:23.155Z</time>
      </trkpt>
      <trkpt lat="43.33088" lon="1.19673">
        <ele>221.89</ele>
        <time>2020-08-11T06:44:33.830Z</time>
      </trkpt>
      <trkpt lat="43.33051" lon="1.1962">
        <ele>222.24</ele>
        <time>2020-08-11T06:44:45.279Z</time>
      </trkpt>
      <trkpt lat="43.33011" lon="1.19581">
        <ele>222.31</ele>
        <time>2020-08-11T06:44:55.287Z</time>
      </trkpt>
      <trkpt lat="43.32971" lon="1.19541">
        <ele>222.66</ele>
        <time>2020-08-11T06:45:05.939Z</time>
      </trkpt>
      <trkpt lat="43.32917" lon="1.19478">
        <ele>222.43</ele>
        <time>2020-08-11T06:45:19.528Z</time>
      </trkpt>
      <trkpt lat="43.32873" lon="1.1943">
        <ele>222.44</ele>
        <time>2020-08-11T06:45:30.859Z</time>
      </trkpt>
      <trkpt lat="43.32828" lon="1.19382">
        <ele>222.86</ele>
        <time>2020-08-11T06:45:43.162Z</time>
      </trkpt>
      <trkpt lat="43.32765" lon="1.19308">
        <ele>223.68</ele>
        <time>2020-08-11T06:46:01.515Z</time>
      </trkpt>
      <trkpt lat="43.32708" lon="1.19238">
        <ele>223.62</ele>
        <time>2020-08-11T06:46:16.726Z</time>
      </trkpt>
      <trkpt lat="43.32668" lon="1.19193">
        <ele>223.1</ele>
        <time>2020-08-11T06:46:24.533Z</time>
      </trkpt>
      <trkpt lat="43.32628" lon="1.19148">
        <ele>222.94</ele>
        <time>2020-08-11T06:46:34.472Z</time>
      </trkpt>
      <trkpt lat="43.32579" lon="1.1909">
        <ele>222.71</ele>
        <time>2020-08-11T06:46:46.822Z</time>
      </trkpt>
      <trkpt lat="43.32524" lon="1.19012">
        <ele>222.78</ele>
        <time>2020-08-11T06:47:02.868Z</time>
      </trkpt>
      <trkpt lat="43.32469" lon="1.18934">
        <ele>223.65</ele>
        <time>2020-08-11T06:47:20.569Z</time>
      </trkpt>
      <trkpt lat="43.32421" lon="1.18871">
        <ele>225.15</ele>
        <time>2020-08-11T06:47:37.425Z</time>
      </trkpt>
      <trkpt lat="43.32373" lon="1.18808">
        <ele>225.43</ele>
        <time>2020-08-11T06:47:51.329Z</time>
      </trkpt>
      <trkpt lat="43.32312" lon="1.18719">
        <ele>225.62</ele>
        <time>2020-08-11T06:48:09.603Z</time>
      </trkpt>
      <trkpt lat="43.32285" lon="1.18689">
        <ele>225.73</ele>
        <time>2020-08-11T06:48:16.805Z</time>
      </trkpt>
      <trkpt lat="43.32244" lon="1.18634">
        <ele>225.81</ele>
        <time>2020-08-11T06:48:28.493Z</time>
      </trkpt>
      <trkpt lat="43.32202" lon="1.18578">
        <ele>226</ele>
        <time>2020-08-11T06:48:40.639Z</time>
      </trkpt>
      <trkpt lat="43.32136" lon="1.18505">
        <ele>226.45</ele>
        <time>2020-08-11T06:48:58.573Z</time>
      </trkpt>
      <trkpt lat="43.32116" lon="1.18492">
        <ele>226.5</ele>
        <time>2020-08-11T06:49:03.123Z</time>
      </trkpt>
      <trkpt lat="43.32056" lon="1.18444">
        <ele>226.89</ele>
        <time>2020-08-11T06:49:17.864Z</time>
      </trkpt>
      <trkpt lat="43.31996" lon="1.18395">
        <ele>226.89</ele>
        <time>2020-08-11T06:49:31.921Z</time>
      </trkpt>
      <trkpt lat="43.31972" lon="1.18383">
        <ele>226.6</ele>
        <time>2020-08-11T06:49:35.712Z</time>
      </trkpt>
      <trkpt lat="43.31914" lon="1.18346">
        <ele>225.36</ele>
        <time>2020-08-11T06:49:44.305Z</time>
      </trkpt>
      <trkpt lat="43.31877" lon="1.18312">
        <ele>224.37</ele>
        <time>2020-08-11T06:49:50.091Z</time>
      </trkpt>
      <trkpt lat="43.31815" lon="1.18225">
        <ele>224.64</ele>
        <time>2020-08-11T06:50:08.449Z</time>
      </trkpt>
      <trkpt lat="43.31795" lon="1.18206">
        <ele>224.91</ele>
        <time>2020-08-11T06:50:13.900Z</time>
      </trkpt>
      <trkpt lat="43.31776" lon="1.18198">
        <ele>225.07</ele>
        <time>2020-08-11T06:50:18.221Z</time>
      </trkpt>
      <trkpt lat="43.31754" lon="1.18193">
        <ele>225.22</ele>
        <time>2020-08-11T06:50:23.007Z</time>
      </trkpt>
      <trkpt lat="43.31722" lon="1.18197">
        <ele>225.72</ele>
        <time>2020-08-11T06:50:30.555Z</time>
      </trkpt>
      <trkpt lat="43.31648" lon="1.18216">
        <ele>226.53</ele>
        <time>2020-08-11T06:50:47.374Z</time>
      </trkpt>
      <trkpt lat="43.31645" lon="1.18208">
        <ele>226.78</ele>
        <time>2020-08-11T06:50:49.402Z</time>
      </trkpt>
      <trkpt lat="43.31639" lon="1.182">
        <ele>226.78</ele>
        <time>2020-08-11T06:50:51.086Z</time>
      </trkpt>
      <trkpt lat="43.31633" lon="1.18197">
        <ele>226.78</ele>
        <time>2020-08-11T06:50:52.372Z</time>
      </trkpt>
      <trkpt lat="43.31621" lon="1.182">
        <ele>226.15</ele>
        <time>2020-08-11T06:50:53.559Z</time>
      </trkpt>
      <trkpt lat="43.31612" lon="1.18214">
        <ele>226.15</ele>
        <time>2020-08-11T06:50:56.296Z</time>
      </trkpt>
      <trkpt lat="43.31612" lon="1.18219">
        <ele>226.11</ele>
        <time>2020-08-11T06:50:56.839Z</time>
      </trkpt>
      <trkpt lat="43.31604" lon="1.18217">
        <ele>226.11</ele>
        <time>2020-08-11T06:50:58.477Z</time>
      </trkpt>
      <trkpt lat="43.31576" lon="1.18196">
        <ele>225.96</ele>
        <time>2020-08-11T06:51:04.469Z</time>
      </trkpt>
      <trkpt lat="43.31555" lon="1.18171">
        <ele>225.93</ele>
        <time>2020-08-11T06:51:09.974Z</time>
      </trkpt>
      <trkpt lat="43.31522" lon="1.18139">
        <ele>225.95</ele>
        <time>2020-08-11T06:51:18.145Z</time>
      </trkpt>
      <trkpt lat="43.3148" lon="1.18104">
        <ele>225.66</ele>
        <time>2020-08-11T06:51:27.217Z</time>
      </trkpt>
      <trkpt lat="43.31438" lon="1.18073">
        <ele>225.58</ele>
        <time>2020-08-11T06:51:36.578Z</time>
      </trkpt>
      <trkpt lat="43.31415" lon="1.1806">
        <ele>225.58</ele>
        <time>2020-08-11T06:51:41.587Z</time>
      </trkpt>
      <trkpt lat="43.31385" lon="1.18046">
        <ele>226</ele>
        <time>2020-08-11T06:51:48.850Z</time>
      </trkpt>
      <trkpt lat="43.31365" lon="1.18034">
        <ele>226.35</ele>
        <time>2020-08-11T06:51:54.002Z</time>
      </trkpt>
      <trkpt lat="43.31298" lon="1.17982">
        <ele>227.12</ele>
        <time>2020-08-11T06:52:11.063Z</time>
      </trkpt>
      <trkpt lat="43.31267" lon="1.17955">
        <ele>228.24</ele>
        <time>2020-08-11T06:52:21.323Z</time>
      </trkpt>
      <trkpt lat="43.31237" lon="1.17924">
        <ele>228.59</ele>
        <time>2020-08-11T06:52:29.588Z</time>
      </trkpt>
      <trkpt lat="43.31196" lon="1.17869">
        <ele>228.56</ele>
        <time>2020-08-11T06:52:41.036Z</time>
      </trkpt>
      <trkpt lat="43.31154" lon="1.17813">
        <ele>228.2</ele>
        <time>2020-08-11T06:52:51.806Z</time>
      </trkpt>
      <trkpt lat="43.3112" lon="1.17764">
        <ele>227.87</ele>
        <time>2020-08-11T06:53:00.805Z</time>
      </trkpt>
      <trkpt lat="43.31086" lon="1.17714">
        <ele>227.75</ele>
        <time>2020-08-11T06:53:10.478Z</time>
      </trkpt>
      <trkpt lat="43.31049" lon="1.17654">
        <ele>228.36</ele>
        <time>2020-08-11T06:53:23.251Z</time>
      </trkpt>
      <trkpt lat="43.31016" lon="1.17596">
        <ele>228.02</ele>
        <time>2020-08-11T06:53:33.085Z</time>
      </trkpt>
      <trkpt lat="43.30982" lon="1.17537">
        <ele>228.19</ele>
        <time>2020-08-11T06:53:44.437Z</time>
      </trkpt>
      <trkpt lat="43.30953" lon="1.17478">
        <ele>228.92</ele>
        <time>2020-08-11T06:53:56.418Z</time>
      </trkpt>
      <trkpt lat="43.30924" lon="1.17419">
        <ele>229.13</ele>
        <time>2020-08-11T06:54:07.255Z</time>
      </trkpt>
      <trkpt lat="43.30901" lon="1.17379">
        <ele>229.4</ele>
        <time>2020-08-11T06:54:15.261Z</time>
      </trkpt>
      <trkpt lat="43.3086" lon="1.17327">
        <ele>229.57</ele>
        <time>2020-08-11T06:54:26.820Z</time>
      </trkpt>
      <trkpt lat="43.3084" lon="1.17296">
        <ele>229.54</ele>
        <time>2020-08-11T06:54:32.801Z</time>
      </trkpt>
      <trkpt lat="43.30792" lon="1.17216">
        <ele>228.94</ele>
        <time>2020-08-11T06:54:44.525Z</time>
      </trkpt>
      <trkpt lat="43.30744" lon="1.17136">
        <ele>228.58</ele>
        <time>2020-08-11T06:54:58.686Z</time>
      </trkpt>
      <trkpt lat="43.30693" lon="1.17054">
        <ele>228.59</ele>
        <time>2020-08-11T06:55:14.514Z</time>
      </trkpt>
      <trkpt lat="43.30641" lon="1.16972">
        <ele>228.7</ele>
        <time>2020-08-11T06:55:30.660Z</time>
      </trkpt>
      <trkpt lat="43.3059" lon="1.1689">
        <ele>228.99</ele>
        <time>2020-08-11T06:55:47.024Z</time>
      </trkpt>
      <trkpt lat="43.30538" lon="1.16809">
        <ele>228.75</ele>
        <time>2020-08-11T06:56:02.147Z</time>
      </trkpt>
      <trkpt lat="43.30487" lon="1.16727">
        <ele>229.76</ele>
        <time>2020-08-11T06:56:20.070Z</time>
      </trkpt>
      <trkpt lat="43.30435" lon="1.16645">
        <ele>230.01</ele>
        <time>2020-08-11T06:56:36.486Z</time>
      </trkpt>
      <trkpt lat="43.30384" lon="1.16563">
        <ele>230.59</ele>
        <time>2020-08-11T06:56:53.444Z</time>
      </trkpt>
      <trkpt lat="43.30369" lon="1.16516">
        <ele>230.69</ele>
        <time>2020-08-11T06:57:01.155Z</time>
      </trkpt>
      <trkpt lat="43.30355" lon="1.16489">
        <ele>230.9</ele>
        <time>2020-08-11T06:57:06.435Z</time>
      </trkpt>
      <trkpt lat="43.30351" lon="1.16486">
        <ele>230.9</ele>
        <time>2020-08-11T06:57:07.353Z</time>
      </trkpt>
      <trkpt lat="43.30347" lon="1.16486">
        <ele>231.02</ele>
        <time>2020-08-11T06:57:08.464Z</time>
      </trkpt>
      <trkpt lat="43.30343" lon="1.16473">
        <ele>231.2</ele>
        <time>2020-08-11T06:57:10.928Z</time>
      </trkpt>
      <trkpt lat="43.30325" lon="1.16439">
        <ele>231.73</ele>
        <time>2020-08-11T06:57:18.253Z</time>
      </trkpt>
      <trkpt lat="43.30294" lon="1.16393">
        <ele>231.77</ele>
        <time>2020-08-11T06:57:27.516Z</time>
      </trkpt>
      <trkpt lat="43.30263" lon="1.16346">
        <ele>231.75</ele>
        <time>2020-08-11T06:57:36.752Z</time>
      </trkpt>
      <trkpt lat="43.30221" lon="1.16293">
        <ele>231.79</ele>
        <time>2020-08-11T06:57:48.311Z</time>
      </trkpt>
      <trkpt lat="43.30179" lon="1.16239">
        <ele>232.18</ele>
        <time>2020-08-11T06:58:00.663Z</time>
      </trkpt>
      <trkpt lat="43.30132" lon="1.1616">
        <ele>232.9</ele>
        <time>2020-08-11T06:58:17.077Z</time>
      </trkpt>
      <trkpt lat="43.30088" lon="1.16102">
        <ele>233.02</ele>
        <time>2020-08-11T06:58:29.583Z</time>
      </trkpt>
      <trkpt lat="43.30043" lon="1.16045">
        <ele>233.11</ele>
        <time>2020-08-11T06:58:42.078Z</time>
      </trkpt>
      <trkpt lat="43.29999" lon="1.15987">
        <ele>233.31</ele>
        <time>2020-08-11T06:58:54.739Z</time>
      </trkpt>
      <trkpt lat="43.2994" lon="1.159">
        <ele>233.27</ele>
        <time>2020-08-11T06:59:12.047Z</time>
      </trkpt>
      <trkpt lat="43.29904" lon="1.15854">
        <ele>233.43</ele>
        <time>2020-08-11T06:59:22.252Z</time>
      </trkpt>
      <trkpt lat="43.29867" lon="1.15808">
        <ele>234.04</ele>
        <time>2020-08-11T06:59:33.569Z</time>
      </trkpt>
      <trkpt lat="43.29828" lon="1.15767">
        <ele>233.4</ele>
        <time>2020-08-11T06:59:40.704Z</time>
      </trkpt>
      <trkpt lat="43.29785" lon="1.15717">
        <ele>233.61</ele>
        <time>2020-08-11T06:59:52.451Z</time>
      </trkpt>
      <trkpt lat="43.29779" lon="1.15706">
        <ele>234.09</ele>
        <time>2020-08-11T06:59:55.928Z</time>
      </trkpt>
      <trkpt lat="43.29775" lon="1.15686">
        <ele>234.53</ele>
        <time>2020-08-11T07:00:00.076Z</time>
      </trkpt>
      <trkpt lat="43.29775" lon="1.15673">
        <ele>234.27</ele>
        <time>2020-08-11T07:00:01.237Z</time>
      </trkpt>
      <trkpt lat="43.29769" lon="1.15668">
        <ele>234.27</ele>
        <time>2020-08-11T07:00:02.650Z</time>
      </trkpt>
      <trkpt lat="43.29762" lon="1.15671">
        <ele>234.12</ele>
        <time>2020-08-11T07:00:03.623Z</time>
      </trkpt>
      <trkpt lat="43.29755" lon="1.15668">
        <ele>234.12</ele>
        <time>2020-08-11T07:00:05.100Z</time>
      </trkpt>
      <trkpt lat="43.2975" lon="1.15663">
        <ele>234.17</ele>
        <time>2020-08-11T07:00:06.445Z</time>
      </trkpt>
      <trkpt lat="43.29746" lon="1.15662">
        <ele>234.17</ele>
        <time>2020-08-11T07:00:07.264Z</time>
      </trkpt>
      <trkpt lat="43.29709" lon="1.15597">
        <ele>234.04</ele>
        <time>2020-08-11T07:00:18.972Z</time>
      </trkpt>
      <trkpt lat="43.29672" lon="1.15532">
        <ele>233.52</ele>
        <time>2020-08-11T07:00:28.214Z</time>
      </trkpt>
      <trkpt lat="43.29614" lon="1.15464">
        <ele>233.36</ele>
        <time>2020-08-11T07:00:43.092Z</time>
      </trkpt>
      <trkpt lat="43.29555" lon="1.15396">
        <ele>234.1</ele>
        <time>2020-08-11T07:01:00.100Z</time>
      </trkpt>
      <trkpt lat="43.29497" lon="1.15328">
        <ele>233.84</ele>
        <time>2020-08-11T07:01:14.694Z</time>
      </trkpt>
      <trkpt lat="43.29453" lon="1.15265">
        <ele>233.27</ele>
        <time>2020-08-11T07:01:24.433Z</time>
      </trkpt>
      <trkpt lat="43.29424" lon="1.15209">
        <ele>233.17</ele>
        <time>2020-08-11T07:01:34.208Z</time>
      </trkpt>
      <trkpt lat="43.294" lon="1.15168">
        <ele>233.2</ele>
        <time>2020-08-11T07:01:41.977Z</time>
      </trkpt>
      <trkpt lat="43.29359" lon="1.15082">
        <ele>233.51</ele>
        <time>2020-08-11T07:01:57.642Z</time>
      </trkpt>
      <trkpt lat="43.29326" lon="1.15031">
        <ele>233.65</ele>
        <time>2020-08-11T07:02:07.911Z</time>
      </trkpt>
      <trkpt lat="43.29257" lon="1.14966">
        <ele>234.41</ele>
        <time>2020-08-11T07:02:26.290Z</time>
      </trkpt>
      <trkpt lat="43.29187" lon="1.149">
        <ele>234.6</ele>
        <time>2020-08-11T07:02:43.747Z</time>
      </trkpt>
      <trkpt lat="43.29112" lon="1.14838">
        <ele>234.6</ele>
        <time>2020-08-11T07:03:01.376Z</time>
      </trkpt>
      <trkpt lat="43.29063" lon="1.14803">
        <ele>234.33</ele>
        <time>2020-08-11T07:03:11.724Z</time>
      </trkpt>
      <trkpt lat="43.29013" lon="1.14767">
        <ele>234.23</ele>
        <time>2020-08-11T07:03:22.793Z</time>
      </trkpt>
      <trkpt lat="43.2898" lon="1.14741">
        <ele>234.2</ele>
        <time>2020-08-11T07:03:30.364Z</time>
      </trkpt>
      <trkpt lat="43.28957" lon="1.14726">
        <ele>234.26</ele>
        <time>2020-08-11T07:03:35.605Z</time>
      </trkpt>
      <trkpt lat="43.28939" lon="1.14719">
        <ele>234.26</ele>
        <time>2020-08-11T07:03:39.372Z</time>
      </trkpt>
      <trkpt lat="43.28873" lon="1.14701">
        <ele>234.76</ele>
        <time>2020-08-11T07:03:53.914Z</time>
      </trkpt>
      <trkpt lat="43.28829" lon="1.14664">
        <ele>235.07</ele>
        <time>2020-08-11T07:04:04.910Z</time>
      </trkpt>
      <trkpt lat="43.288" lon="1.14646">
        <ele>235.12</ele>
        <time>2020-08-11T07:04:11.413Z</time>
      </trkpt>
      <trkpt lat="43.28767" lon="1.14616">
        <ele>234.79</ele>
        <time>2020-08-11T07:04:17.529Z</time>
      </trkpt>
      <trkpt lat="43.28715" lon="1.14578">
        <ele>234.79</ele>
        <time>2020-08-11T07:04:29.392Z</time>
      </trkpt>
      <trkpt lat="43.28663" lon="1.14539">
        <ele>234.26</ele>
        <time>2020-08-11T07:04:38.474Z</time>
      </trkpt>
      <trkpt lat="43.28607" lon="1.14501">
        <ele>233.96</ele>
        <time>2020-08-11T07:04:50.191Z</time>
      </trkpt>
      <trkpt lat="43.2855" lon="1.14462">
        <ele>233.89</ele>
        <time>2020-08-11T07:05:02.804Z</time>
      </trkpt>
      <trkpt lat="43.28478" lon="1.14428">
        <ele>234.05</ele>
        <time>2020-08-11T07:05:18.439Z</time>
      </trkpt>
      <trkpt lat="43.28405" lon="1.14393">
        <ele>234.66</ele>
        <time>2020-08-11T07:05:35.225Z</time>
      </trkpt>
      <trkpt lat="43.28364" lon="1.14362">
        <ele>235.5</ele>
        <time>2020-08-11T07:05:46.505Z</time>
      </trkpt>
      <trkpt lat="43.28322" lon="1.14331">
        <ele>235.83</ele>
        <time>2020-08-11T07:05:56.758Z</time>
      </trkpt>
      <trkpt lat="43.28297" lon="1.14315">
        <ele>236.49</ele>
        <time>2020-08-11T07:06:03.872Z</time>
      </trkpt>
      <trkpt lat="43.2824" lon="1.14247">
        <ele>237.5</ele>
        <time>2020-08-11T07:06:21.201Z</time>
      </trkpt>
      <trkpt lat="43.28182" lon="1.14201">
        <ele>239.18</ele>
        <time>2020-08-11T07:06:38.714Z</time>
      </trkpt>
      <trkpt lat="43.28124" lon="1.14155">
        <ele>239.41</ele>
        <time>2020-08-11T07:06:52.641Z</time>
      </trkpt>
      <trkpt lat="43.28106" lon="1.14143">
        <ele>239.8</ele>
        <time>2020-08-11T07:06:57.546Z</time>
      </trkpt>
      <trkpt lat="43.28085" lon="1.14143">
        <ele>240.11</ele>
        <time>2020-08-11T07:07:02.437Z</time>
      </trkpt>
      <trkpt lat="43.2806" lon="1.14137">
        <ele>240.3</ele>
        <time>2020-08-11T07:07:07.925Z</time>
      </trkpt>
      <trkpt lat="43.27999" lon="1.14089">
        <ele>240.45</ele>
        <time>2020-08-11T07:07:22.366Z</time>
      </trkpt>
      <trkpt lat="43.27952" lon="1.1405">
        <ele>240.45</ele>
        <time>2020-08-11T07:07:33.425Z</time>
      </trkpt>
      <trkpt lat="43.27905" lon="1.14011">
        <ele>240.55</ele>
        <time>2020-08-11T07:07:44.672Z</time>
      </trkpt>
      <trkpt lat="43.27875" lon="1.13981">
        <ele>240.55</ele>
        <time>2020-08-11T07:07:52.146Z</time>
      </trkpt>
      <trkpt lat="43.27851" lon="1.1396">
        <ele>240.55</ele>
        <time>2020-08-11T07:07:57.877Z</time>
      </trkpt>
      <trkpt lat="43.278" lon="1.13926">
        <ele>240.14</ele>
        <time>2020-08-11T07:08:08.156Z</time>
      </trkpt>
      <trkpt lat="43.27747" lon="1.13906">
        <ele>238.59</ele>
        <time>2020-08-11T07:08:14.846Z</time>
      </trkpt>
      <trkpt lat="43.27694" lon="1.13885">
        <ele>235.94</ele>
        <time>2020-08-11T07:08:20.385Z</time>
      </trkpt>
      <trkpt lat="43.27646" lon="1.13863">
        <ele>235.09</ele>
        <time>2020-08-11T07:08:27.400Z</time>
      </trkpt>
      <trkpt lat="43.27611" lon="1.13845">
        <ele>235.99</ele>
        <time>2020-08-11T07:08:37.057Z</time>
      </trkpt>
      <trkpt lat="43.27566" lon="1.13813">
        <ele>239.62</ele>
        <time>2020-08-11T07:08:57.851Z</time>
      </trkpt>
      <trkpt lat="43.27537" lon="1.138">
        <ele>239</ele>
        <time>2020-08-11T07:09:01.905Z</time>
      </trkpt>
      <trkpt lat="43.27512" lon="1.13799">
        <ele>238.25</ele>
        <time>2020-08-11T07:09:04.893Z</time>
      </trkpt>
      <trkpt lat="43.27496" lon="1.13802">
        <ele>237.67</ele>
        <time>2020-08-11T07:09:06.708Z</time>
      </trkpt>
      <trkpt lat="43.27482" lon="1.13807">
        <ele>237.49</ele>
        <time>2020-08-11T07:09:08.826Z</time>
      </trkpt>
      <trkpt lat="43.27454" lon="1.13826">
        <ele>236.19</ele>
        <time>2020-08-11T07:09:12.150Z</time>
      </trkpt>
      <trkpt lat="43.27431" lon="1.13847">
        <ele>236.14</ele>
        <time>2020-08-11T07:09:17.562Z</time>
      </trkpt>
      <trkpt lat="43.27377" lon="1.13904">
        <ele>235.05</ele>
        <time>2020-08-11T07:09:27.096Z</time>
      </trkpt>
      <trkpt lat="43.27342" lon="1.13946">
        <ele>234.79</ele>
        <time>2020-08-11T07:09:35.718Z</time>
      </trkpt>
      <trkpt lat="43.27306" lon="1.13988">
        <ele>234.49</ele>
        <time>2020-08-11T07:09:44.388Z</time>
      </trkpt>
      <trkpt lat="43.27301" lon="1.13992">
        <ele>234.34</ele>
        <time>2020-08-11T07:09:45.109Z</time>
      </trkpt>
      <trkpt lat="43.2727" lon="1.14028">
        <ele>234.05</ele>
        <time>2020-08-11T07:09:52.479Z</time>
      </trkpt>
      <trkpt lat="43.27264" lon="1.14033">
        <ele>234.01</ele>
        <time>2020-08-11T07:09:53.779Z</time>
      </trkpt>
      <trkpt lat="43.27255" lon="1.14036">
        <ele>234.01</ele>
        <time>2020-08-11T07:09:55.644Z</time>
      </trkpt>
      <trkpt lat="43.27246" lon="1.14034">
        <ele>233.84</ele>
        <time>2020-08-11T07:09:56.881Z</time>
      </trkpt>
      <trkpt lat="43.27237" lon="1.14036">
        <ele>233.73</ele>
        <time>2020-08-11T07:09:58.222Z</time>
      </trkpt>
      <trkpt lat="43.27226" lon="1.14048">
        <ele>233.84</ele>
        <time>2020-08-11T07:10:01.270Z</time>
      </trkpt>
      <trkpt lat="43.27215" lon="1.14051">
        <ele>233.84</ele>
        <time>2020-08-11T07:10:03.528Z</time>
      </trkpt>
      <trkpt lat="43.27202" lon="1.1405">
        <ele>233.89</ele>
        <time>2020-08-11T07:10:06.246Z</time>
      </trkpt>
      <trkpt lat="43.27189" lon="1.14051">
        <ele>233.71</ele>
        <time>2020-08-11T07:10:08.119Z</time>
      </trkpt>
      <trkpt lat="43.27181" lon="1.14055">
        <ele>233.55</ele>
        <time>2020-08-11T07:10:09.272Z</time>
      </trkpt>
      <trkpt lat="43.27165" lon="1.1406">
        <ele>233.45</ele>
        <time>2020-08-11T07:10:12.294Z</time>
      </trkpt>
      <trkpt lat="43.27098" lon="1.14091">
        <ele>233.6</ele>
        <time>2020-08-11T07:10:26.816Z</time>
      </trkpt>
      <trkpt lat="43.2703" lon="1.14121">
        <ele>233.13</ele>
        <time>2020-08-11T07:10:39.883Z</time>
      </trkpt>
      <trkpt lat="43.27026" lon="1.14115">
        <ele>233.13</ele>
        <time>2020-08-11T07:10:41.076Z</time>
      </trkpt>
      <trkpt lat="43.27007" lon="1.14104">
        <ele>233.13</ele>
        <time>2020-08-11T07:10:45.229Z</time>
      </trkpt>
      <trkpt lat="43.26939" lon="1.1408">
        <ele>233.05</ele>
        <time>2020-08-11T07:10:59.127Z</time>
      </trkpt>
      <trkpt lat="43.26871" lon="1.14057">
        <ele>232.69</ele>
        <time>2020-08-11T07:11:12.202Z</time>
      </trkpt>
      <trkpt lat="43.26803" lon="1.14033">
        <ele>232.39</ele>
        <time>2020-08-11T07:11:25.474Z</time>
      </trkpt>
      <trkpt lat="43.26791" lon="1.14025">
        <ele>232.39</ele>
        <time>2020-08-11T07:11:28.161Z</time>
      </trkpt>
      <trkpt lat="43.26744" lon="1.13984">
        <ele>231.78</ele>
        <time>2020-08-11T07:11:36.471Z</time>
      </trkpt>
      <trkpt lat="43.26679" lon="1.13936">
        <ele>231.38</ele>
        <time>2020-08-11T07:11:50.196Z</time>
      </trkpt>
      <trkpt lat="43.26611" lon="1.13891">
        <ele>231.74</ele>
        <time>2020-08-11T07:12:06.093Z</time>
      </trkpt>
      <trkpt lat="43.26542" lon="1.13846">
        <ele>231.91</ele>
        <time>2020-08-11T07:12:21.798Z</time>
      </trkpt>
      <trkpt lat="43.26517" lon="1.13833">
        <ele>231.95</ele>
        <time>2020-08-11T07:12:27.257Z</time>
      </trkpt>
      <trkpt lat="43.26461" lon="1.13811">
        <ele>231.8</ele>
        <time>2020-08-11T07:12:38.543Z</time>
      </trkpt>
      <trkpt lat="43.26437" lon="1.13798">
        <ele>231.77</ele>
        <time>2020-08-11T07:12:43.648Z</time>
      </trkpt>
      <trkpt lat="43.26369" lon="1.13742">
        <ele>231.78</ele>
        <time>2020-08-11T07:12:59.636Z</time>
      </trkpt>
      <trkpt lat="43.26344" lon="1.13718">
        <ele>232.01</ele>
        <time>2020-08-11T07:13:06.235Z</time>
      </trkpt>
      <trkpt lat="43.26315" lon="1.13686">
        <ele>232.01</ele>
        <time>2020-08-11T07:13:13.728Z</time>
      </trkpt>
      <trkpt lat="43.2629" lon="1.13653">
        <ele>232.23</ele>
        <time>2020-08-11T07:13:21.143Z</time>
      </trkpt>
      <trkpt lat="43.26269" lon="1.13621">
        <ele>232.28</ele>
        <time>2020-08-11T07:13:27.555Z</time>
      </trkpt>
      <trkpt lat="43.2622" lon="1.13528">
        <ele>233.01</ele>
        <time>2020-08-11T07:13:45.855Z</time>
      </trkpt>
      <trkpt lat="43.2617" lon="1.13435">
        <ele>233.67</ele>
        <time>2020-08-11T07:14:04.121Z</time>
      </trkpt>
      <trkpt lat="43.26114" lon="1.13347">
        <ele>234.8</ele>
        <time>2020-08-11T07:14:23.635Z</time>
      </trkpt>
      <trkpt lat="43.2609" lon="1.13319">
        <ele>234.98</ele>
        <time>2020-08-11T07:14:30.328Z</time>
      </trkpt>
      <trkpt lat="43.26073" lon="1.13303">
        <ele>234.98</ele>
        <time>2020-08-11T07:14:34.479Z</time>
      </trkpt>
      <trkpt lat="43.26028" lon="1.13268">
        <ele>235.47</ele>
        <time>2020-08-11T07:14:45.886Z</time>
      </trkpt>
      <trkpt lat="43.25977" lon="1.1321">
        <ele>235.07</ele>
        <time>2020-08-11T07:14:58.093Z</time>
      </trkpt>
      <trkpt lat="43.25931" lon="1.13141">
        <ele>234.89</ele>
        <time>2020-08-11T07:15:11.280Z</time>
      </trkpt>
      <trkpt lat="43.25884" lon="1.13071">
        <ele>235.46</ele>
        <time>2020-08-11T07:15:26.382Z</time>
      </trkpt>
      <trkpt lat="43.25841" lon="1.13011">
        <ele>236.06</ele>
        <time>2020-08-11T07:15:39.945Z</time>
      </trkpt>
      <trkpt lat="43.25798" lon="1.1295">
        <ele>236.24</ele>
        <time>2020-08-11T07:15:52.739Z</time>
      </trkpt>
      <trkpt lat="43.25782" lon="1.12934">
        <ele>236.2</ele>
        <time>2020-08-11T07:15:56.606Z</time>
      </trkpt>
      <trkpt lat="43.25765" lon="1.1292">
        <ele>236.12</ele>
        <time>2020-08-11T07:16:00.366Z</time>
      </trkpt>
      <trkpt lat="43.25715" lon="1.1289">
        <ele>235.8</ele>
        <time>2020-08-11T07:16:10.449Z</time>
      </trkpt>
      <trkpt lat="43.25665" lon="1.1286">
        <ele>235.97</ele>
        <time>2020-08-11T07:16:21.762Z</time>
      </trkpt>
      <trkpt lat="43.25654" lon="1.12849">
        <ele>235.98</ele>
        <time>2020-08-11T07:16:24.521Z</time>
      </trkpt>
      <trkpt lat="43.25592" lon="1.12776">
        <ele>236.8</ele>
        <time>2020-08-11T07:16:42.637Z</time>
      </trkpt>
      <trkpt lat="43.2553" lon="1.12702">
        <ele>236.95</ele>
        <time>2020-08-11T07:16:59.464Z</time>
      </trkpt>
      <trkpt lat="43.25502" lon="1.12669">
        <ele>237.04</ele>
        <time>2020-08-11T07:17:07.066Z</time>
      </trkpt>
      <trkpt lat="43.25488" lon="1.12649">
        <ele>237.17</ele>
        <time>2020-08-11T07:17:11.390Z</time>
      </trkpt>
      <trkpt lat="43.2546" lon="1.12601">
        <ele>237.38</ele>
        <time>2020-08-11T07:17:20.816Z</time>
      </trkpt>
      <trkpt lat="43.25431" lon="1.12553">
        <ele>237.36</ele>
        <time>2020-08-11T07:17:29.903Z</time>
      </trkpt>
      <trkpt lat="43.25409" lon="1.12519">
        <ele>237.23</ele>
        <time>2020-08-11T07:17:36.196Z</time>
      </trkpt>
      <trkpt lat="43.2537" lon="1.12473">
        <ele>237.25</ele>
        <time>2020-08-11T07:17:46.588Z</time>
      </trkpt>
      <trkpt lat="43.2534" lon="1.12446">
        <ele>237.51</ele>
        <time>2020-08-11T07:17:54.326Z</time>
      </trkpt>
      <trkpt lat="43.25318" lon="1.1243">
        <ele>237.59</ele>
        <time>2020-08-11T07:17:59.492Z</time>
      </trkpt>
      <trkpt lat="43.25319" lon="1.1242">
        <ele>237.59</ele>
        <time>2020-08-11T07:18:00.973Z</time>
      </trkpt>
      <trkpt lat="43.25315" lon="1.12411">
        <ele>237.91</ele>
        <time>2020-08-11T07:18:03.474Z</time>
      </trkpt>
      <trkpt lat="43.25308" lon="1.12409">
        <ele>237.91</ele>
        <time>2020-08-11T07:18:04.915Z</time>
      </trkpt>
      <trkpt lat="43.25302" lon="1.12415">
        <ele>237.89</ele>
        <time>2020-08-11T07:18:06.350Z</time>
      </trkpt>
      <trkpt lat="43.25262" lon="1.12375">
        <ele>238.8</ele>
        <time>2020-08-11T07:18:18.336Z</time>
      </trkpt>
      <trkpt lat="43.25238" lon="1.12357">
        <ele>238.85</ele>
        <time>2020-08-11T07:18:23.937Z</time>
      </trkpt>
      <trkpt lat="43.25207" lon="1.12338">
        <ele>238.7</ele>
        <time>2020-08-11T07:18:30.341Z</time>
      </trkpt>
      <trkpt lat="43.25184" lon="1.12315">
        <ele>238.66</ele>
        <time>2020-08-11T07:18:35.951Z</time>
      </trkpt>
      <trkpt lat="43.25137" lon="1.12252">
        <ele>239.46</ele>
        <time>2020-08-11T07:18:50.842Z</time>
      </trkpt>
      <trkpt lat="43.25089" lon="1.12188">
        <ele>240.03</ele>
        <time>2020-08-11T07:19:05.459Z</time>
      </trkpt>
      <trkpt lat="43.25042" lon="1.12125">
        <ele>240.12</ele>
        <time>2020-08-11T07:19:18.856Z</time>
      </trkpt>
      <trkpt lat="43.24999" lon="1.12056">
        <ele>240.67</ele>
        <time>2020-08-11T07:19:33.276Z</time>
      </trkpt>
      <trkpt lat="43.24976" lon="1.12029">
        <ele>240.75</ele>
        <time>2020-08-11T07:19:39.522Z</time>
      </trkpt>
      <trkpt lat="43.24965" lon="1.12021">
        <ele>240.75</ele>
        <time>2020-08-11T07:19:42.029Z</time>
      </trkpt>
      <trkpt lat="43.24953" lon="1.12015">
        <ele>240.89</ele>
        <time>2020-08-11T07:19:44.889Z</time>
      </trkpt>
      <trkpt lat="43.24928" lon="1.1201">
        <ele>240.93</ele>
        <time>2020-08-11T07:19:50.052Z</time>
      </trkpt>
      <trkpt lat="43.24864" lon="1.12016">
        <ele>240.81</ele>
        <time>2020-08-11T07:20:02.612Z</time>
      </trkpt>
      <trkpt lat="43.2483" lon="1.12012">
        <ele>240.55</ele>
        <time>2020-08-11T07:20:07.938Z</time>
      </trkpt>
      <trkpt lat="43.2481" lon="1.12007">
        <ele>240.55</ele>
        <time>2020-08-11T07:20:12.033Z</time>
      </trkpt>
      <trkpt lat="43.24774" lon="1.11994">
        <ele>240.57</ele>
        <time>2020-08-11T07:20:19.567Z</time>
      </trkpt>
      <trkpt lat="43.24759" lon="1.11984">
        <ele>240.67</ele>
        <time>2020-08-11T07:20:23.121Z</time>
      </trkpt>
      <trkpt lat="43.24702" lon="1.11928">
        <ele>240.97</ele>
        <time>2020-08-11T07:20:37.814Z</time>
      </trkpt>
      <trkpt lat="43.24675" lon="1.11899">
        <ele>241.26</ele>
        <time>2020-08-11T07:20:45.298Z</time>
      </trkpt>
      <trkpt lat="43.24664" lon="1.11884">
        <ele>241.3</ele>
        <time>2020-08-11T07:20:48.497Z</time>
      </trkpt>
      <trkpt lat="43.24621" lon="1.11816">
        <ele>241.47</ele>
        <time>2020-08-11T07:21:02.029Z</time>
      </trkpt>
      <trkpt lat="43.24577" lon="1.11748">
        <ele>241.69</ele>
        <time>2020-08-11T07:21:15.791Z</time>
      </trkpt>
      <trkpt lat="43.2456" lon="1.11725">
        <ele>241.74</ele>
        <time>2020-08-11T07:21:20.692Z</time>
      </trkpt>
      <trkpt lat="43.24522" lon="1.1168">
        <ele>241.91</ele>
        <time>2020-08-11T07:21:31.123Z</time>
      </trkpt>
      <trkpt lat="43.24484" lon="1.11635">
        <ele>241.97</ele>
        <time>2020-08-11T07:21:41.343Z</time>
      </trkpt>
      <trkpt lat="43.24447" lon="1.11596">
        <ele>241.92</ele>
        <time>2020-08-11T07:21:50.586Z</time>
      </trkpt>
      <trkpt lat="43.24397" lon="1.11547">
        <ele>241.92</ele>
        <time>2020-08-11T07:22:02.959Z</time>
      </trkpt>
      <trkpt lat="43.2436" lon="1.11515">
        <ele>242.07</ele>
        <time>2020-08-11T07:22:12.053Z</time>
      </trkpt>
      <trkpt lat="43.24335" lon="1.11502">
        <ele>242.1</ele>
        <time>2020-08-11T07:22:17.493Z</time>
      </trkpt>
      <trkpt lat="43.2432" lon="1.11496">
        <ele>242.1</ele>
        <time>2020-08-11T07:22:20.640Z</time>
      </trkpt>
      <trkpt lat="43.24301" lon="1.11492">
        <ele>242.13</ele>
        <time>2020-08-11T07:22:24.567Z</time>
      </trkpt>
      <trkpt lat="43.24234" lon="1.11487">
        <ele>242.39</ele>
        <time>2020-08-11T07:22:38.579Z</time>
      </trkpt>
      <trkpt lat="43.24186" lon="1.11486">
        <ele>242.71</ele>
        <time>2020-08-11T07:22:48.876Z</time>
      </trkpt>
      <trkpt lat="43.24159" lon="1.11479">
        <ele>242.85</ele>
        <time>2020-08-11T07:22:54.681Z</time>
      </trkpt>
      <trkpt lat="43.24146" lon="1.11473">
        <ele>242.85</ele>
        <time>2020-08-11T07:22:57.443Z</time>
      </trkpt>
      <trkpt lat="43.24121" lon="1.11456">
        <ele>242.91</ele>
        <time>2020-08-11T07:23:03.175Z</time>
      </trkpt>
      <trkpt lat="43.241" lon="1.11438">
        <ele>243</ele>
        <time>2020-08-11T07:23:08.334Z</time>
      </trkpt>
      <trkpt lat="43.24059" lon="1.11397">
        <ele>243.53</ele>
        <time>2020-08-11T07:23:19.631Z</time>
      </trkpt>
      <trkpt lat="43.24036" lon="1.1136">
        <ele>243.66</ele>
        <time>2020-08-11T07:23:27.016Z</time>
      </trkpt>
      <trkpt lat="43.24001" lon="1.11282">
        <ele>243.77</ele>
        <time>2020-08-11T07:23:40.663Z</time>
      </trkpt>
      <trkpt lat="43.23969" lon="1.11205">
        <ele>243.77</ele>
        <time>2020-08-11T07:23:53.670Z</time>
      </trkpt>
      <trkpt lat="43.23937" lon="1.11127">
        <ele>244.45</ele>
        <time>2020-08-11T07:24:08.191Z</time>
      </trkpt>
      <trkpt lat="43.23907" lon="1.11043">
        <ele>246.18</ele>
        <time>2020-08-11T07:24:26.076Z</time>
      </trkpt>
      <trkpt lat="43.2389" lon="1.10979">
        <ele>246.57</ele>
        <time>2020-08-11T07:24:36.847Z</time>
      </trkpt>
      <trkpt lat="43.23873" lon="1.10914">
        <ele>246.56</ele>
        <time>2020-08-11T07:24:46.949Z</time>
      </trkpt>
      <trkpt lat="43.23861" lon="1.1088">
        <ele>246.66</ele>
        <time>2020-08-11T07:24:52.683Z</time>
      </trkpt>
      <trkpt lat="43.2381" lon="1.10903">
        <ele>246.53</ele>
        <time>2020-08-11T07:25:03.108Z</time>
      </trkpt>
      <trkpt lat="43.23728" lon="1.10944">
        <ele>246.21</ele>
        <time>2020-08-11T07:25:19.750Z</time>
      </trkpt>
      <trkpt lat="43.23713" lon="1.10944">
        <ele>246.21</ele>
        <time>2020-08-11T07:25:22.771Z</time>
      </trkpt>
      <trkpt lat="43.23647" lon="1.10887">
        <ele>246.15</ele>
        <time>2020-08-11T07:25:38.293Z</time>
      </trkpt>
      <trkpt lat="43.23582" lon="1.1083">
        <ele>245.9</ele>
        <time>2020-08-11T07:25:53.093Z</time>
      </trkpt>
      <trkpt lat="43.23516" lon="1.10773">
        <ele>245.71</ele>
        <time>2020-08-11T07:26:08.233Z</time>
      </trkpt>
      <trkpt lat="43.2345" lon="1.10718">
        <ele>245.64</ele>
        <time>2020-08-11T07:26:23.571Z</time>
      </trkpt>
      <trkpt lat="43.23422" lon="1.10689">
        <ele>245.42</ele>
        <time>2020-08-11T07:26:30.017Z</time>
      </trkpt>
      <trkpt lat="43.2338" lon="1.10627">
        <ele>245.32</ele>
        <time>2020-08-11T07:26:42.138Z</time>
      </trkpt>
      <trkpt lat="43.23354" lon="1.10573">
        <ele>245.35</ele>
        <time>2020-08-11T07:26:51.692Z</time>
      </trkpt>
      <trkpt lat="43.23333" lon="1.10513">
        <ele>245.5</ele>
        <time>2020-08-11T07:27:01.744Z</time>
      </trkpt>
      <trkpt lat="43.23313" lon="1.10442">
        <ele>245.3</ele>
        <time>2020-08-11T07:27:12.329Z</time>
      </trkpt>
      <trkpt lat="43.23297" lon="1.10394">
        <ele>245.44</ele>
        <time>2020-08-11T07:27:20.342Z</time>
      </trkpt>
      <trkpt lat="43.23275" lon="1.10343">
        <ele>245.36</ele>
        <time>2020-08-11T07:27:28.799Z</time>
      </trkpt>
      <trkpt lat="43.23239" lon="1.10269">
        <ele>244.84</ele>
        <time>2020-08-11T07:27:38.863Z</time>
      </trkpt>
      <trkpt lat="43.23204" lon="1.10196">
        <ele>244.79</ele>
        <time>2020-08-11T07:27:51.534Z</time>
      </trkpt>
      <trkpt lat="43.23168" lon="1.10122">
        <ele>245.47</ele>
        <time>2020-08-11T07:28:05.979Z</time>
      </trkpt>
      <trkpt lat="43.23156" lon="1.10101">
        <ele>245.77</ele>
        <time>2020-08-11T07:28:10.540Z</time>
      </trkpt>
      <trkpt lat="43.23146" lon="1.10089">
        <ele>246</ele>
        <time>2020-08-11T07:28:13.719Z</time>
      </trkpt>
      <trkpt lat="43.23114" lon="1.10062">
        <ele>246.3</ele>
        <time>2020-08-11T07:28:21.882Z</time>
      </trkpt>
      <trkpt lat="43.23093" lon="1.10039">
        <ele>246.77</ele>
        <time>2020-08-11T07:28:28.326Z</time>
      </trkpt>
      <trkpt lat="43.23062" lon="1.09985">
        <ele>246.79</ele>
        <time>2020-08-11T07:28:38.451Z</time>
      </trkpt>
      <trkpt lat="43.23036" lon="1.09928">
        <ele>247.28</ele>
        <time>2020-08-11T07:28:49.315Z</time>
      </trkpt>
      <trkpt lat="43.2301" lon="1.09871">
        <ele>247.69</ele>
        <time>2020-08-11T07:29:00.002Z</time>
      </trkpt>
      <trkpt lat="43.22976" lon="1.09805">
        <ele>247.58</ele>
        <time>2020-08-11T07:29:11.534Z</time>
      </trkpt>
      <trkpt lat="43.22939" lon="1.09753">
        <ele>248.53</ele>
        <time>2020-08-11T07:29:24.297Z</time>
      </trkpt>
      <trkpt lat="43.22909" lon="1.09723">
        <ele>250.06</ele>
        <time>2020-08-11T07:29:36.308Z</time>
      </trkpt>
      <trkpt lat="43.22887" lon="1.09709">
        <ele>249.8</ele>
        <time>2020-08-11T07:29:39.938Z</time>
      </trkpt>
      <trkpt lat="43.22835" lon="1.0969">
        <ele>248.52</ele>
        <time>2020-08-11T07:29:46.813Z</time>
      </trkpt>
      <trkpt lat="43.22782" lon="1.0967">
        <ele>245.86</ele>
        <time>2020-08-11T07:29:52.315Z</time>
      </trkpt>
      <trkpt lat="43.22706" lon="1.09631">
        <ele>243.71</ele>
        <time>2020-08-11T07:30:02.374Z</time>
      </trkpt>
      <trkpt lat="43.2263" lon="1.09591">
        <ele>242.7</ele>
        <time>2020-08-11T07:30:14.296Z</time>
      </trkpt>
      <trkpt lat="43.22618" lon="1.09586">
        <ele>242.7</ele>
        <time>2020-08-11T07:30:16.822Z</time>
      </trkpt>
      <trkpt lat="43.22562" lon="1.09573">
        <ele>243.01</ele>
        <time>2020-08-11T07:30:28.863Z</time>
      </trkpt>
      <trkpt lat="43.22505" lon="1.0956">
        <ele>243.56</ele>
        <time>2020-08-11T07:30:41.612Z</time>
      </trkpt>
      <trkpt lat="43.22476" lon="1.0956">
        <ele>244.3</ele>
        <time>2020-08-11T07:30:49.235Z</time>
      </trkpt>
      <trkpt lat="43.22396" lon="1.09573">
        <ele>245.1</ele>
        <time>2020-08-11T07:31:07.083Z</time>
      </trkpt>
      <trkpt lat="43.22359" lon="1.09575">
        <ele>245.81</ele>
        <time>2020-08-11T07:31:16.130Z</time>
      </trkpt>
      <trkpt lat="43.22338" lon="1.09574">
        <ele>244.48</ele>
        <time>2020-08-11T07:31:17.990Z</time>
      </trkpt>
      <trkpt lat="43.22309" lon="1.09565">
        <ele>243.81</ele>
        <time>2020-08-11T07:31:21.842Z</time>
      </trkpt>
      <trkpt lat="43.22275" lon="1.09534">
        <ele>243.87</ele>
        <time>2020-08-11T07:31:30.176Z</time>
      </trkpt>
      <trkpt lat="43.22245" lon="1.09497">
        <ele>244.29</ele>
        <time>2020-08-11T07:31:39.156Z</time>
      </trkpt>
      <trkpt lat="43.22178" lon="1.09432">
        <ele>244.08</ele>
        <time>2020-08-11T07:31:55.058Z</time>
      </trkpt>
      <trkpt lat="43.22147" lon="1.09409">
        <ele>244.11</ele>
        <time>2020-08-11T07:32:02.212Z</time>
      </trkpt>
      <trkpt lat="43.22129" lon="1.09399">
        <ele>244.24</ele>
        <time>2020-08-11T07:32:06.378Z</time>
      </trkpt>
      <trkpt lat="43.22066" lon="1.09372">
        <ele>244.32</ele>
        <time>2020-08-11T07:32:19.821Z</time>
      </trkpt>
      <trkpt lat="43.22013" lon="1.09344">
        <ele>244.39</ele>
        <time>2020-08-11T07:32:31.390Z</time>
      </trkpt>
      <trkpt lat="43.2196" lon="1.09316">
        <ele>244.52</ele>
        <time>2020-08-11T07:32:43.073Z</time>
      </trkpt>
      <trkpt lat="43.21928" lon="1.09301">
        <ele>244.61</ele>
        <time>2020-08-11T07:32:50.054Z</time>
      </trkpt>
      <trkpt lat="43.21902" lon="1.09294">
        <ele>244.74</ele>
        <time>2020-08-11T07:32:55.641Z</time>
      </trkpt>
      <trkpt lat="43.21891" lon="1.09293">
        <ele>244.74</ele>
        <time>2020-08-11T07:32:57.862Z</time>
      </trkpt>
      <trkpt lat="43.21846" lon="1.09302">
        <ele>245.18</ele>
        <time>2020-08-11T07:33:07.911Z</time>
      </trkpt>
      <trkpt lat="43.218" lon="1.0931">
        <ele>245.19</ele>
        <time>2020-08-11T07:33:17.269Z</time>
      </trkpt>
      <trkpt lat="43.21779" lon="1.0932">
        <ele>245.17</ele>
        <time>2020-08-11T07:33:21.685Z</time>
      </trkpt>
      <trkpt lat="43.21767" lon="1.09324">
        <ele>245.17</ele>
        <time>2020-08-11T07:33:24.172Z</time>
      </trkpt>
      <trkpt lat="43.21754" lon="1.09325">
        <ele>245.17</ele>
        <time>2020-08-11T07:33:26.794Z</time>
      </trkpt>
      <trkpt lat="43.2172" lon="1.09317">
        <ele>245.25</ele>
        <time>2020-08-11T07:33:33.893Z</time>
      </trkpt>
      <trkpt lat="43.21701" lon="1.09308">
        <ele>245.21</ele>
        <time>2020-08-11T07:33:37.821Z</time>
      </trkpt>
      <trkpt lat="43.21649" lon="1.09276">
        <ele>245.32</ele>
        <time>2020-08-11T07:33:49.506Z</time>
      </trkpt>
      <trkpt lat="43.21632" lon="1.09262">
        <ele>245.36</ele>
        <time>2020-08-11T07:33:53.575Z</time>
      </trkpt>
      <trkpt lat="43.21611" lon="1.09238">
        <ele>245.5</ele>
        <time>2020-08-11T07:33:59.350Z</time>
      </trkpt>
      <trkpt lat="43.21585" lon="1.09188">
        <ele>246.21</ele>
        <time>2020-08-11T07:34:09.898Z</time>
      </trkpt>
      <trkpt lat="43.21546" lon="1.09157">
        <ele>245.64</ele>
        <time>2020-08-11T07:34:16.479Z</time>
      </trkpt>
      <trkpt lat="43.21523" lon="1.09148">
        <ele>245.64</ele>
        <time>2020-08-11T07:34:21.296Z</time>
      </trkpt>
      <trkpt lat="43.21503" lon="1.09146">
        <ele>245.64</ele>
        <time>2020-08-11T07:34:25.335Z</time>
      </trkpt>
      <trkpt lat="43.21461" lon="1.0915">
        <ele>244.55</ele>
        <time>2020-08-11T07:34:30.590Z</time>
      </trkpt>
      <trkpt lat="43.21445" lon="1.09148">
        <ele>244.36</ele>
        <time>2020-08-11T07:34:32.961Z</time>
      </trkpt>
      <trkpt lat="43.21417" lon="1.09138">
        <ele>244.05</ele>
        <time>2020-08-11T07:34:37.293Z</time>
      </trkpt>
      <trkpt lat="43.21361" lon="1.09102">
        <ele>245.12</ele>
        <time>2020-08-11T07:34:52.094Z</time>
      </trkpt>
      <trkpt lat="43.21304" lon="1.09067">
        <ele>245.97</ele>
        <time>2020-08-11T07:35:06.463Z</time>
      </trkpt>
      <trkpt lat="43.21248" lon="1.09031">
        <ele>245.93</ele>
        <time>2020-08-11T07:35:18.796Z</time>
      </trkpt>
      <trkpt lat="43.21203" lon="1.09">
        <ele>246.32</ele>
        <time>2020-08-11T07:35:29.712Z</time>
      </trkpt>
      <trkpt lat="43.21157" lon="1.08968">
        <ele>247.05</ele>
        <time>2020-08-11T07:35:41.646Z</time>
      </trkpt>
      <trkpt lat="43.2114" lon="1.08954">
        <ele>247.05</ele>
        <time>2020-08-11T07:35:45.640Z</time>
      </trkpt>
      <trkpt lat="43.21115" lon="1.08926">
        <ele>247.74</ele>
        <time>2020-08-11T07:35:53.722Z</time>
      </trkpt>
      <trkpt lat="43.21089" lon="1.08891">
        <ele>247.9</ele>
        <time>2020-08-11T07:36:01.366Z</time>
      </trkpt>
      <trkpt lat="43.21044" lon="1.08824">
        <ele>248.37</ele>
        <time>2020-08-11T07:36:15.668Z</time>
      </trkpt>
      <trkpt lat="43.21015" lon="1.08773">
        <ele>248.05</ele>
        <time>2020-08-11T07:36:24.269Z</time>
      </trkpt>
      <trkpt lat="43.20986" lon="1.08721">
        <ele>247.76</ele>
        <time>2020-08-11T07:36:33.061Z</time>
      </trkpt>
      <trkpt lat="43.20981" lon="1.08708">
        <ele>247.5</ele>
        <time>2020-08-11T07:36:34.423Z</time>
      </trkpt>
      <trkpt lat="43.20978" lon="1.08692">
        <ele>247.5</ele>
        <time>2020-08-11T07:36:36.848Z</time>
      </trkpt>
      <trkpt lat="43.2091" lon="1.08674">
        <ele>248.23</ele>
        <time>2020-08-11T07:36:52.287Z</time>
      </trkpt>
      <trkpt lat="43.20825" lon="1.08677">
        <ele>247.84</ele>
        <time>2020-08-11T07:37:08.288Z</time>
      </trkpt>
      <trkpt lat="43.20801" lon="1.08674">
        <ele>247.84</ele>
        <time>2020-08-11T07:37:13.141Z</time>
      </trkpt>
      <trkpt lat="43.20798" lon="1.08666">
        <ele>247.76</ele>
        <time>2020-08-11T07:37:14.104Z</time>
      </trkpt>
      <trkpt lat="43.20795" lon="1.08664">
        <ele>247.76</ele>
        <time>2020-08-11T07:37:14.776Z</time>
      </trkpt>
      <trkpt lat="43.20796" lon="1.08637">
        <ele>248.04</ele>
        <time>2020-08-11T07:37:19.339Z</time>
      </trkpt>
      <trkpt lat="43.20791" lon="1.08576">
        <ele>248.19</ele>
        <time>2020-08-11T07:37:28.635Z</time>
      </trkpt>
      <trkpt lat="43.20736" lon="1.08578">
        <ele>248.19</ele>
        <time>2020-08-11T07:37:39.717Z</time>
      </trkpt>
      <trkpt lat="43.20729" lon="1.08572">
        <ele>248.22</ele>
        <time>2020-08-11T07:37:41.436Z</time>
      </trkpt>
      <trkpt lat="43.20707" lon="1.08542">
        <ele>248.22</ele>
        <time>2020-08-11T07:37:47.684Z</time>
      </trkpt>
      <trkpt lat="43.20692" lon="1.08525">
        <ele>248.22</ele>
        <time>2020-08-11T07:37:51.602Z</time>
      </trkpt>
      <trkpt lat="43.20648" lon="1.08518">
        <ele>248.19</ele>
        <time>2020-08-11T07:38:00.432Z</time>
      </trkpt>
      <trkpt lat="43.20647" lon="1.08514">
        <ele>248.17</ele>
        <time>2020-08-11T07:38:00.997Z</time>
      </trkpt>
      <trkpt lat="43.20601" lon="1.08438">
        <ele>247.46</ele>
        <time>2020-08-11T07:38:11.901Z</time>
      </trkpt>
      <trkpt lat="43.20574" lon="1.08411">
        <ele>247.3</ele>
        <time>2020-08-11T07:38:18.170Z</time>
      </trkpt>
      <trkpt lat="43.20552" lon="1.08407">
        <ele>247.76</ele>
        <time>2020-08-11T07:38:23.687Z</time>
      </trkpt>
      <trkpt lat="43.2052" lon="1.08406">
        <ele>246.81</ele>
        <time>2020-08-11T07:38:27.522Z</time>
      </trkpt>
      <trkpt lat="43.20513" lon="1.08396">
        <ele>246.9</ele>
        <time>2020-08-11T07:38:29.738Z</time>
      </trkpt>
      <trkpt lat="43.20507" lon="1.08395">
        <ele>246.86</ele>
        <time>2020-08-11T07:38:30.844Z</time>
      </trkpt>
      <trkpt lat="43.20502" lon="1.08398">
        <ele>246.86</ele>
        <time>2020-08-11T07:38:31.943Z</time>
      </trkpt>
      <trkpt lat="43.20498" lon="1.08409">
        <ele>246.62</ele>
        <time>2020-08-11T07:38:33.050Z</time>
      </trkpt>
      <trkpt lat="43.205" lon="1.08417">
        <ele>246.62</ele>
        <time>2020-08-11T07:38:34.292Z</time>
      </trkpt>
      <trkpt lat="43.20459" lon="1.08468">
        <ele>245.64</ele>
        <time>2020-08-11T07:38:41.880Z</time>
      </trkpt>
      <trkpt lat="43.20427" lon="1.08522">
        <ele>244.22</ele>
        <time>2020-08-11T07:38:48.069Z</time>
      </trkpt>
      <trkpt lat="43.20417" lon="1.08579">
        <ele>243.41</ele>
        <time>2020-08-11T07:38:53.841Z</time>
      </trkpt>
      <trkpt lat="43.20417" lon="1.086">
        <ele>243.07</ele>
        <time>2020-08-11T07:38:55.832Z</time>
      </trkpt>
      <trkpt lat="43.20406" lon="1.08682">
        <ele>238.77</ele>
        <time>2020-08-11T07:39:01.553Z</time>
      </trkpt>
      <trkpt lat="43.20396" lon="1.08763">
        <ele>235.8</ele>
        <time>2020-08-11T07:39:07.484Z</time>
      </trkpt>
      <trkpt lat="43.20385" lon="1.08845">
        <ele>234.84</ele>
        <time>2020-08-11T07:39:16.014Z</time>
      </trkpt>
      <trkpt lat="43.20377" lon="1.08861">
        <ele>237.18</ele>
        <time>2020-08-11T07:39:27.001Z</time>
      </trkpt>
      <trkpt lat="43.20371" lon="1.08863">
        <ele>237.9</ele>
        <time>2020-08-11T07:39:30.859Z</time>
      </trkpt>
      <trkpt lat="43.20366" lon="1.08868">
        <ele>237.9</ele>
        <time>2020-08-11T07:39:32.105Z</time>
      </trkpt>
      <trkpt lat="43.20353" lon="1.08873">
        <ele>238.76</ele>
        <time>2020-08-11T07:39:37.329Z</time>
      </trkpt>
      <trkpt lat="43.20338" lon="1.08872">
        <ele>238.76</ele>
        <time>2020-08-11T07:39:40.353Z</time>
      </trkpt>
      <trkpt lat="43.20312" lon="1.08862">
        <ele>239</ele>
        <time>2020-08-11T07:39:46.274Z</time>
      </trkpt>
      <trkpt lat="43.2029" lon="1.08861">
        <ele>239.47</ele>
        <time>2020-08-11T07:39:51.785Z</time>
      </trkpt>
      <trkpt lat="43.20223" lon="1.08895">
        <ele>242.52</ele>
        <time>2020-08-11T07:40:15.413Z</time>
      </trkpt>
      <trkpt lat="43.20194" lon="1.08907">
        <ele>243.34</ele>
        <time>2020-08-11T07:40:23.526Z</time>
      </trkpt>
      <trkpt lat="43.2014" lon="1.0894">
        <ele>247.17</ele>
        <time>2020-08-11T07:40:46.578Z</time>
      </trkpt>
      <trkpt lat="43.20118" lon="1.08913">
        <ele>244.91</ele>
        <time>2020-08-11T07:40:49.357Z</time>
      </trkpt>
      <trkpt lat="43.20104" lon="1.08905">
        <ele>243.6</ele>
        <time>2020-08-11T07:40:50.784Z</time>
      </trkpt>
      <trkpt lat="43.2007" lon="1.08896">
        <ele>241.3</ele>
        <time>2020-08-11T07:40:53.776Z</time>
      </trkpt>
      <trkpt lat="43.20065" lon="1.0889">
        <ele>241.3</ele>
        <time>2020-08-11T07:40:55.114Z</time>
      </trkpt>
      <trkpt lat="43.20059" lon="1.0889">
        <ele>241.3</ele>
        <time>2020-08-11T07:40:56.322Z</time>
      </trkpt>
      <trkpt lat="43.20033" lon="1.08871">
        <ele>240.04</ele>
        <time>2020-08-11T07:40:59.424Z</time>
      </trkpt>
      <trkpt lat="43.20023" lon="1.08866">
        <ele>240.04</ele>
        <time>2020-08-11T07:41:01.568Z</time>
      </trkpt>
      <trkpt lat="43.19965" lon="1.0886">
        <ele>238.31</ele>
        <time>2020-08-11T07:41:08.533Z</time>
      </trkpt>
      <trkpt lat="43.19947" lon="1.08852">
        <ele>238.31</ele>
        <time>2020-08-11T07:41:12.344Z</time>
      </trkpt>
      <trkpt lat="43.19939" lon="1.08845">
        <ele>237.66</ele>
        <time>2020-08-11T07:41:13.237Z</time>
      </trkpt>
      <trkpt lat="43.19925" lon="1.08825">
        <ele>237.49</ele>
        <time>2020-08-11T07:41:16.358Z</time>
      </trkpt>
      <trkpt lat="43.1992" lon="1.08813">
        <ele>237.49</ele>
        <time>2020-08-11T07:41:18.387Z</time>
      </trkpt>
      <trkpt lat="43.19915" lon="1.08794">
        <ele>237.33</ele>
        <time>2020-08-11T07:41:20.588Z</time>
      </trkpt>
      <trkpt lat="43.19913" lon="1.08758">
        <ele>237.33</ele>
        <time>2020-08-11T07:41:25.889Z</time>
      </trkpt>
      <trkpt lat="43.19915" lon="1.08719">
        <ele>237.42</ele>
        <time>2020-08-11T07:41:31.800Z</time>
      </trkpt>
      <trkpt lat="43.19916" lon="1.08672">
        <ele>237.28</ele>
        <time>2020-08-11T07:41:38.297Z</time>
      </trkpt>
      <trkpt lat="43.19909" lon="1.08644">
        <ele>237.36</ele>
        <time>2020-08-11T07:41:42.796Z</time>
      </trkpt>
      <trkpt lat="43.19868" lon="1.08562">
        <ele>237.65</ele>
        <time>2020-08-11T07:41:57.950Z</time>
      </trkpt>
      <trkpt lat="43.19861" lon="1.08541">
        <ele>237.65</ele>
        <time>2020-08-11T07:42:01.340Z</time>
      </trkpt>
      <trkpt lat="43.19855" lon="1.08488">
        <ele>237.73</ele>
        <time>2020-08-11T07:42:09.366Z</time>
      </trkpt>
      <trkpt lat="43.19866" lon="1.08397">
        <ele>237.76</ele>
        <time>2020-08-11T07:42:22.965Z</time>
      </trkpt>
      <trkpt lat="43.19884" lon="1.08317">
        <ele>237.19</ele>
        <time>2020-08-11T07:42:32.272Z</time>
      </trkpt>
      <trkpt lat="43.19886" lon="1.08268">
        <ele>235.95</ele>
        <time>2020-08-11T07:42:36.345Z</time>
      </trkpt>
      <trkpt lat="43.19883" lon="1.08227">
        <ele>235.79</ele>
        <time>2020-08-11T07:42:41.938Z</time>
      </trkpt>
      <trkpt lat="43.19872" lon="1.08191">
        <ele>236.33</ele>
        <time>2020-08-11T07:42:48.875Z</time>
      </trkpt>
      <trkpt lat="43.1986" lon="1.08164">
        <ele>237.21</ele>
        <time>2020-08-11T07:42:56.014Z</time>
      </trkpt>
      <trkpt lat="43.19821" lon="1.0809">
        <ele>237.76</ele>
        <time>2020-08-11T07:43:10.519Z</time>
      </trkpt>
      <trkpt lat="43.19797" lon="1.08011">
        <ele>237.76</ele>
        <time>2020-08-11T07:43:23.085Z</time>
      </trkpt>
      <trkpt lat="43.19773" lon="1.07932">
        <ele>237.75</ele>
        <time>2020-08-11T07:43:35.620Z</time>
      </trkpt>
      <trkpt lat="43.1976" lon="1.07882">
        <ele>237.75</ele>
        <time>2020-08-11T07:43:43.414Z</time>
      </trkpt>
      <trkpt lat="43.19745" lon="1.07792">
        <ele>238.96</ele>
        <time>2020-08-11T07:43:59.642Z</time>
      </trkpt>
      <trkpt lat="43.1973" lon="1.07701">
        <ele>239.93</ele>
        <time>2020-08-11T07:44:15.399Z</time>
      </trkpt>
      <trkpt lat="43.19723" lon="1.07644">
        <ele>239.93</ele>
        <time>2020-08-11T07:44:23.886Z</time>
      </trkpt>
      <trkpt lat="43.19722" lon="1.07576">
        <ele>239.94</ele>
        <time>2020-08-11T07:44:33.890Z</time>
      </trkpt>
      <trkpt lat="43.19727" lon="1.0754">
        <ele>239.94</ele>
        <time>2020-08-11T07:44:39.271Z</time>
      </trkpt>
      <trkpt lat="43.19741" lon="1.07486">
        <ele>239.72</ele>
        <time>2020-08-11T07:44:47.058Z</time>
      </trkpt>
      <trkpt lat="43.19756" lon="1.07415">
        <ele>239.77</ele>
        <time>2020-08-11T07:44:58.005Z</time>
      </trkpt>
      <trkpt lat="43.1977" lon="1.07327">
        <ele>240.23</ele>
        <time>2020-08-11T07:45:12.136Z</time>
      </trkpt>
      <trkpt lat="43.19784" lon="1.07238">
        <ele>240.27</ele>
        <time>2020-08-11T07:45:25.579Z</time>
      </trkpt>
      <trkpt lat="43.19789" lon="1.07184">
        <ele>240.7</ele>
        <time>2020-08-11T07:45:34.451Z</time>
      </trkpt>
      <trkpt lat="43.19788" lon="1.07136">
        <ele>241.31</ele>
        <time>2020-08-11T07:45:42.841Z</time>
      </trkpt>
      <trkpt lat="43.19777" lon="1.07051">
        <ele>240.27</ele>
        <time>2020-08-11T07:45:51.595Z</time>
      </trkpt>
      <trkpt lat="43.19765" lon="1.06992">
        <ele>240.03</ele>
        <time>2020-08-11T07:45:59.904Z</time>
      </trkpt>
      <trkpt lat="43.1974" lon="1.06924">
        <ele>239.88</ele>
        <time>2020-08-11T07:46:10.641Z</time>
      </trkpt>
      <trkpt lat="43.19714" lon="1.06855">
        <ele>239.75</ele>
        <time>2020-08-11T07:46:21.658Z</time>
      </trkpt>
      <trkpt lat="43.197" lon="1.0681">
        <ele>239.88</ele>
        <time>2020-08-11T07:46:29.090Z</time>
      </trkpt>
      <trkpt lat="43.19685" lon="1.06715">
        <ele>239.92</ele>
        <time>2020-08-11T07:46:43.436Z</time>
      </trkpt>
      <trkpt lat="43.19669" lon="1.06619">
        <ele>239.97</ele>
        <time>2020-08-11T07:46:57.988Z</time>
      </trkpt>
      <trkpt lat="43.19653" lon="1.0653">
        <ele>239.63</ele>
        <time>2020-08-11T07:47:10.474Z</time>
      </trkpt>
      <trkpt lat="43.19641" lon="1.06442">
        <ele>239.63</ele>
        <time>2020-08-11T07:47:23.619Z</time>
      </trkpt>
      <trkpt lat="43.19632" lon="1.06379">
        <ele>239.72</ele>
        <time>2020-08-11T07:47:33.214Z</time>
      </trkpt>
      <trkpt lat="43.19622" lon="1.06316">
        <ele>239.74</ele>
        <time>2020-08-11T07:47:42.718Z</time>
      </trkpt>
      <trkpt lat="43.19615" lon="1.06289">
        <ele>239.82</ele>
        <time>2020-08-11T07:47:47.078Z</time>
      </trkpt>
      <trkpt lat="43.19586" lon="1.06201">
        <ele>239.86</ele>
        <time>2020-08-11T07:48:01.332Z</time>
      </trkpt>
      <trkpt lat="43.19556" lon="1.06113">
        <ele>240.15</ele>
        <time>2020-08-11T07:48:16.152Z</time>
      </trkpt>
      <trkpt lat="43.19527" lon="1.06025">
        <ele>241.48</ele>
        <time>2020-08-11T07:48:33.299Z</time>
      </trkpt>
      <trkpt lat="43.19522" lon="1.06003">
        <ele>241.86</ele>
        <time>2020-08-11T07:48:37.567Z</time>
      </trkpt>
      <trkpt lat="43.19515" lon="1.05916">
        <ele>242.64</ele>
        <time>2020-08-11T07:48:52.039Z</time>
      </trkpt>
      <trkpt lat="43.19501" lon="1.05858">
        <ele>243.37</ele>
        <time>2020-08-11T07:49:02.594Z</time>
      </trkpt>
      <trkpt lat="43.19494" lon="1.05821">
        <ele>243.37</ele>
        <time>2020-08-11T07:49:08.207Z</time>
      </trkpt>
      <trkpt lat="43.19491" lon="1.05766">
        <ele>243.08</ele>
        <time>2020-08-11T07:49:15.499Z</time>
      </trkpt>
      <trkpt lat="43.19492" lon="1.05654">
        <ele>241.97</ele>
        <time>2020-08-11T07:49:27.280Z</time>
      </trkpt>
      <trkpt lat="43.19491" lon="1.05561">
        <ele>242.23</ele>
        <time>2020-08-11T07:49:41.434Z</time>
      </trkpt>
      <trkpt lat="43.19489" lon="1.05468">
        <ele>242.21</ele>
        <time>2020-08-11T07:49:55.034Z</time>
      </trkpt>
      <trkpt lat="43.19494" lon="1.0535">
        <ele>242.58</ele>
        <time>2020-08-11T07:50:13.099Z</time>
      </trkpt>
      <trkpt lat="43.19502" lon="1.05233">
        <ele>244.27</ele>
        <time>2020-08-11T07:50:34.159Z</time>
      </trkpt>
      <trkpt lat="43.19509" lon="1.0517">
        <ele>244.48</ele>
        <time>2020-08-11T07:50:43.921Z</time>
      </trkpt>
      <trkpt lat="43.19515" lon="1.05143">
        <ele>244.95</ele>
        <time>2020-08-11T07:50:49.162Z</time>
      </trkpt>
      <trkpt lat="43.19538" lon="1.05066">
        <ele>243.79</ele>
        <time>2020-08-11T07:50:57.340Z</time>
      </trkpt>
      <trkpt lat="43.1956" lon="1.04988">
        <ele>243.52</ele>
        <time>2020-08-11T07:51:08.840Z</time>
      </trkpt>
      <trkpt lat="43.19563" lon="1.04943">
        <ele>243.55</ele>
        <time>2020-08-11T07:51:15.531Z</time>
      </trkpt>
      <trkpt lat="43.19558" lon="1.04829">
        <ele>245.2</ele>
        <time>2020-08-11T07:51:36.019Z</time>
      </trkpt>
      <trkpt lat="43.19552" lon="1.04714">
        <ele>246.56</ele>
        <time>2020-08-11T07:51:55.893Z</time>
      </trkpt>
      <trkpt lat="43.19558" lon="1.04629">
        <ele>247.27</ele>
        <time>2020-08-11T07:52:09.894Z</time>
      </trkpt>
      <trkpt lat="43.19556" lon="1.04559">
        <ele>247.6</ele>
        <time>2020-08-11T07:52:20.827Z</time>
      </trkpt>
      <trkpt lat="43.19554" lon="1.04538">
        <ele>248.26</ele>
        <time>2020-08-11T07:52:25.938Z</time>
      </trkpt>
      <trkpt lat="43.19549" lon="1.0452">
        <ele>248.21</ele>
        <time>2020-08-11T07:52:28.620Z</time>
      </trkpt>
      <trkpt lat="43.19538" lon="1.04501">
        <ele>248.23</ele>
        <time>2020-08-11T07:52:32.220Z</time>
      </trkpt>
      <trkpt lat="43.195" lon="1.04443">
        <ele>250.8</ele>
        <time>2020-08-11T07:52:51.631Z</time>
      </trkpt>
      <trkpt lat="43.19482" lon="1.04404">
        <ele>253.54</ele>
        <time>2020-08-11T07:53:06.555Z</time>
      </trkpt>
      <trkpt lat="43.19462" lon="1.04344">
        <ele>256.67</ele>
        <time>2020-08-11T07:53:25.350Z</time>
      </trkpt>
      <trkpt lat="43.19452" lon="1.04279">
        <ele>258.56</ele>
        <time>2020-08-11T07:53:40.531Z</time>
      </trkpt>
      <trkpt lat="43.19441" lon="1.04214">
        <ele>259.07</ele>
        <time>2020-08-11T07:53:51.369Z</time>
      </trkpt>
      <trkpt lat="43.19431" lon="1.04163">
        <ele>259.07</ele>
        <time>2020-08-11T07:53:59.124Z</time>
      </trkpt>
      <trkpt lat="43.19409" lon="1.0411">
        <ele>260.64</ele>
        <time>2020-08-11T07:54:12.360Z</time>
      </trkpt>
      <trkpt lat="43.19381" lon="1.04058">
        <ele>260.64</ele>
        <time>2020-08-11T07:54:21.852Z</time>
      </trkpt>
      <trkpt lat="43.1935" lon="1.04026">
        <ele>259.38</ele>
        <time>2020-08-11T07:54:26.368Z</time>
      </trkpt>
      <trkpt lat="43.19333" lon="1.04012">
        <ele>258.26</ele>
        <time>2020-08-11T07:54:28.221Z</time>
      </trkpt>
      <trkpt lat="43.19302" lon="1.04007">
        <ele>255.3</ele>
        <time>2020-08-11T07:54:31.159Z</time>
      </trkpt>
      <trkpt lat="43.19294" lon="1.04003">
        <ele>254.11</ele>
        <time>2020-08-11T07:54:31.960Z</time>
      </trkpt>
      <trkpt lat="43.19278" lon="1.03986">
        <ele>252.84</ele>
        <time>2020-08-11T07:54:33.759Z</time>
      </trkpt>
      <trkpt lat="43.19269" lon="1.03983">
        <ele>252.84</ele>
        <time>2020-08-11T07:54:35.625Z</time>
      </trkpt>
      <trkpt lat="43.19261" lon="1.03985">
        <ele>251.46</ele>
        <time>2020-08-11T07:54:36.390Z</time>
      </trkpt>
      <trkpt lat="43.19251" lon="1.03991">
        <ele>250.76</ele>
        <time>2020-08-11T07:54:37.350Z</time>
      </trkpt>
      <trkpt lat="43.19243" lon="1.03992">
        <ele>250.15</ele>
        <time>2020-08-11T07:54:38.106Z</time>
      </trkpt>
      <trkpt lat="43.19236" lon="1.0399">
        <ele>249.17</ele>
        <time>2020-08-11T07:54:38.779Z</time>
      </trkpt>
      <trkpt lat="43.19231" lon="1.03984">
        <ele>248.82</ele>
        <time>2020-08-11T07:54:39.420Z</time>
      </trkpt>
      <trkpt lat="43.19221" lon="1.03951">
        <ele>248.06</ele>
        <time>2020-08-11T07:54:42.558Z</time>
      </trkpt>
      <trkpt lat="43.19215" lon="1.03938">
        <ele>248.06</ele>
        <time>2020-08-11T07:54:44.818Z</time>
      </trkpt>
      <trkpt lat="43.19207" lon="1.03929">
        <ele>247.5</ele>
        <time>2020-08-11T07:54:45.804Z</time>
      </trkpt>
      <trkpt lat="43.19193" lon="1.03919">
        <ele>247.5</ele>
        <time>2020-08-11T07:54:48.983Z</time>
      </trkpt>
      <trkpt lat="43.19148" lon="1.03897">
        <ele>246.78</ele>
        <time>2020-08-11T07:54:55.748Z</time>
      </trkpt>
      <trkpt lat="43.19112" lon="1.03877">
        <ele>245.68</ele>
        <time>2020-08-11T07:55:00.470Z</time>
      </trkpt>
      <trkpt lat="43.19092" lon="1.03863">
        <ele>244.27</ele>
        <time>2020-08-11T07:55:02.464Z</time>
      </trkpt>
      <trkpt lat="43.19076" lon="1.03849">
        <ele>243.84</ele>
        <time>2020-08-11T07:55:04.920Z</time>
      </trkpt>
      <trkpt lat="43.19068" lon="1.03838">
        <ele>243.84</ele>
        <time>2020-08-11T07:55:07.201Z</time>
      </trkpt>
      <trkpt lat="43.19061" lon="1.03823">
        <ele>243.39</ele>
        <time>2020-08-11T07:55:08.680Z</time>
      </trkpt>
      <trkpt lat="43.19056" lon="1.03805">
        <ele>243.15</ele>
        <time>2020-08-11T07:55:10.620Z</time>
      </trkpt>
      <trkpt lat="43.19053" lon="1.03782">
        <ele>242.99</ele>
        <time>2020-08-11T07:55:13.216Z</time>
      </trkpt>
      <trkpt lat="43.19044" lon="1.03756">
        <ele>242.92</ele>
        <time>2020-08-11T07:55:17.237Z</time>
      </trkpt>
      <trkpt lat="43.19029" lon="1.03733">
        <ele>248.44</ele>
        <time>2020-08-11T07:55:34.715Z</time>
      </trkpt>
      <trkpt lat="43.19019" lon="1.03713">
        <ele>248.2</ele>
        <time>2020-08-11T07:55:37.266Z</time>
      </trkpt>
      <trkpt lat="43.19013" lon="1.0369">
        <ele>248.02</ele>
        <time>2020-08-11T07:55:39.955Z</time>
      </trkpt>
      <trkpt lat="43.19013" lon="1.03666">
        <ele>247.91</ele>
        <time>2020-08-11T07:55:43.169Z</time>
      </trkpt>
      <trkpt lat="43.19023" lon="1.03606">
        <ele>247.85</ele>
        <time>2020-08-11T07:55:52.026Z</time>
      </trkpt>
      <trkpt lat="43.1904" lon="1.03545">
        <ele>247.85</ele>
        <time>2020-08-11T07:56:01.615Z</time>
      </trkpt>
      <trkpt lat="43.19057" lon="1.03484">
        <ele>247.85</ele>
        <time>2020-08-11T07:56:11.204Z</time>
      </trkpt>
      <trkpt lat="43.19084" lon="1.03414">
        <ele>247.85</ele>
        <time>2020-08-11T07:56:22.833Z</time>
      </trkpt>
      <trkpt lat="43.19123" lon="1.03347">
        <ele>247.85</ele>
        <time>2020-08-11T07:56:35.423Z</time>
      </trkpt>
      <trkpt lat="43.19157" lon="1.03285">
        <ele>246.72</ele>
        <time>2020-08-11T07:56:42.971Z</time>
      </trkpt>
      <trkpt lat="43.19179" lon="1.03237">
        <ele>246.72</ele>
        <time>2020-08-11T07:56:51.297Z</time>
      </trkpt>
      <trkpt lat="43.19188" lon="1.03204">
        <ele>245.32</ele>
        <time>2020-08-11T07:56:53.737Z</time>
      </trkpt>
      <trkpt lat="43.19208" lon="1.03112">
        <ele>246.79</ele>
        <time>2020-08-11T07:57:11.192Z</time>
      </trkpt>
      <trkpt lat="43.19232" lon="1.03031">
        <ele>247.45</ele>
        <time>2020-08-11T07:57:25.375Z</time>
      </trkpt>
      <trkpt lat="43.19235" lon="1.02986">
        <ele>248.01</ele>
        <time>2020-08-11T07:57:33.234Z</time>
      </trkpt>
      <trkpt lat="43.19228" lon="1.02956">
        <ele>248.84</ele>
        <time>2020-08-11T07:57:40.148Z</time>
      </trkpt>
      <trkpt lat="43.19217" lon="1.02932">
        <ele>251.57</ele>
        <time>2020-08-11T07:57:55.898Z</time>
      </trkpt>
      <trkpt lat="43.19196" lon="1.02897">
        <ele>253.75</ele>
        <time>2020-08-11T07:58:08.896Z</time>
      </trkpt>
      <trkpt lat="43.19182" lon="1.02882">
        <ele>254.25</ele>
        <time>2020-08-11T07:58:13.717Z</time>
      </trkpt>
      <trkpt lat="43.19148" lon="1.02853">
        <ele>254.43</ele>
        <time>2020-08-11T07:58:22.127Z</time>
      </trkpt>
      <trkpt lat="43.19141" lon="1.02844">
        <ele>254.43</ele>
        <time>2020-08-11T07:58:24.060Z</time>
      </trkpt>
      <trkpt lat="43.19094" lon="1.02839">
        <ele>252.41</ele>
        <time>2020-08-11T07:58:29.020Z</time>
      </trkpt>
      <trkpt lat="43.19047" lon="1.02833">
        <ele>251.04</ele>
        <time>2020-08-11T07:58:34.716Z</time>
      </trkpt>
      <trkpt lat="43.19041" lon="1.02831">
        <ele>251.04</ele>
        <time>2020-08-11T07:58:35.959Z</time>
      </trkpt>
      <trkpt lat="43.19031" lon="1.02823">
        <ele>250.79</ele>
        <time>2020-08-11T07:58:37.475Z</time>
      </trkpt>
      <trkpt lat="43.19023" lon="1.02813">
        <ele>250.68</ele>
        <time>2020-08-11T07:58:39.108Z</time>
      </trkpt>
      <trkpt lat="43.19019" lon="1.02804">
        <ele>250.76</ele>
        <time>2020-08-11T07:58:40.819Z</time>
      </trkpt>
      <trkpt lat="43.19015" lon="1.02792">
        <ele>250.75</ele>
        <time>2020-08-11T07:58:42.726Z</time>
      </trkpt>
      <trkpt lat="43.19015" lon="1.02772">
        <ele>250.59</ele>
        <time>2020-08-11T07:58:44.902Z</time>
      </trkpt>
      <trkpt lat="43.19018" lon="1.02752">
        <ele>250.23</ele>
        <time>2020-08-11T07:58:46.796Z</time>
      </trkpt>
      <trkpt lat="43.19037" lon="1.02679">
        <ele>249.14</ele>
        <time>2020-08-11T07:58:54.399Z</time>
      </trkpt>
      <trkpt lat="43.1904" lon="1.0266">
        <ele>249.04</ele>
        <time>2020-08-11T07:58:56.976Z</time>
      </trkpt>
      <trkpt lat="43.19041" lon="1.02635">
        <ele>249.08</ele>
        <time>2020-08-11T07:59:00.727Z</time>
      </trkpt>
      <trkpt lat="43.19036" lon="1.02551">
        <ele>249.65</ele>
        <time>2020-08-11T07:59:14.252Z</time>
      </trkpt>
      <trkpt lat="43.19031" lon="1.02467">
        <ele>248.99</ele>
        <time>2020-08-11T07:59:23.450Z</time>
      </trkpt>
      <trkpt lat="43.1902" lon="1.02415">
        <ele>248.79</ele>
        <time>2020-08-11T07:59:30.828Z</time>
      </trkpt>
      <trkpt lat="43.18993" lon="1.02336">
        <ele>248.55</ele>
        <time>2020-08-11T07:59:42.939Z</time>
      </trkpt>
      <trkpt lat="43.18966" lon="1.02257">
        <ele>248.01</ele>
        <time>2020-08-11T07:59:52.752Z</time>
      </trkpt>
      <trkpt lat="43.18932" lon="1.02149">
        <ele>247.9</ele>
        <time>2020-08-11T08:00:09.693Z</time>
      </trkpt>
      <trkpt lat="43.18898" lon="1.02042">
        <ele>247.44</ele>
        <time>2020-08-11T08:00:25.522Z</time>
      </trkpt>
      <trkpt lat="43.18864" lon="1.01934">
        <ele>247.12</ele>
        <time>2020-08-11T08:00:41.863Z</time>
      </trkpt>
      <trkpt lat="43.18843" lon="1.01874">
        <ele>247.77</ele>
        <time>2020-08-11T08:00:53.003Z</time>
      </trkpt>
      <trkpt lat="43.18832" lon="1.01852">
        <ele>250.36</ele>
        <time>2020-08-11T08:01:08.054Z</time>
      </trkpt>
      <trkpt lat="43.18822" lon="1.01841">
        <ele>250.36</ele>
        <time>2020-08-11T08:01:10.636Z</time>
      </trkpt>
      <trkpt lat="43.1881" lon="1.01833">
        <ele>252.35</ele>
        <time>2020-08-11T08:01:21.001Z</time>
      </trkpt>
      <trkpt lat="43.18789" lon="1.01823">
        <ele>253.69</ele>
        <time>2020-08-11T08:01:29.395Z</time>
      </trkpt>
      <trkpt lat="43.18774" lon="1.01811">
        <ele>254.1</ele>
        <time>2020-08-11T08:01:33.857Z</time>
      </trkpt>
      <trkpt lat="43.18762" lon="1.01798">
        <ele>255.3</ele>
        <time>2020-08-11T08:01:40.478Z</time>
      </trkpt>
      <trkpt lat="43.18752" lon="1.01783">
        <ele>256.59</ele>
        <time>2020-08-11T08:01:47.370Z</time>
      </trkpt>
      <trkpt lat="43.18715" lon="1.01704">
        <ele>260.64</ele>
        <time>2020-08-11T08:02:13.019Z</time>
      </trkpt>
      <trkpt lat="43.18677" lon="1.01644">
        <ele>264.63</ele>
        <time>2020-08-11T08:02:36.302Z</time>
      </trkpt>
      <trkpt lat="43.18665" lon="1.01617">
        <ele>265.8</ele>
        <time>2020-08-11T08:02:44.462Z</time>
      </trkpt>
      <trkpt lat="43.18648" lon="1.01553">
        <ele>269.03</ele>
        <time>2020-08-11T08:03:03.864Z</time>
      </trkpt>
      <trkpt lat="43.18638" lon="1.01527">
        <ele>270.08</ele>
        <time>2020-08-11T08:03:11.362Z</time>
      </trkpt>
      <trkpt lat="43.18619" lon="1.01496">
        <ele>270.86</ele>
        <time>2020-08-11T08:03:19.208Z</time>
      </trkpt>
      <trkpt lat="43.18607" lon="1.01462">
        <ele>272.05</ele>
        <time>2020-08-11T08:03:28.388Z</time>
      </trkpt>
      <trkpt lat="43.18598" lon="1.01429">
        <ele>272.3</ele>
        <time>2020-08-11T08:03:34.068Z</time>
      </trkpt>
      <trkpt lat="43.18594" lon="1.01401">
        <ele>272.7</ele>
        <time>2020-08-11T08:03:39.154Z</time>
      </trkpt>
      <trkpt lat="43.18586" lon="1.01296">
        <ele>274.76</ele>
        <time>2020-08-11T08:03:59.692Z</time>
      </trkpt>
      <trkpt lat="43.18585" lon="1.01235">
        <ele>275.23</ele>
        <time>2020-08-11T08:04:09.612Z</time>
      </trkpt>
      <trkpt lat="43.18601" lon="1.01152">
        <ele>270.73</ele>
        <time>2020-08-11T08:04:15.505Z</time>
      </trkpt>
      <trkpt lat="43.18602" lon="1.0112">
        <ele>267.86</ele>
        <time>2020-08-11T08:04:17.703Z</time>
      </trkpt>
      <trkpt lat="43.18601" lon="1.01073">
        <ele>264.22</ele>
        <time>2020-08-11T08:04:20.930Z</time>
      </trkpt>
      <trkpt lat="43.18599" lon="1.01047">
        <ele>263.14</ele>
        <time>2020-08-11T08:04:22.709Z</time>
      </trkpt>
      <trkpt lat="43.18595" lon="1.01027">
        <ele>261.99</ele>
        <time>2020-08-11T08:04:24.132Z</time>
      </trkpt>
      <trkpt lat="43.1859" lon="1.01008">
        <ele>261.29</ele>
        <time>2020-08-11T08:04:25.618Z</time>
      </trkpt>
      <trkpt lat="43.18569" lon="1.00949">
        <ele>260.58</ele>
        <time>2020-08-11T08:04:32.417Z</time>
      </trkpt>
      <trkpt lat="43.18547" lon="1.00889">
        <ele>262.75</ele>
        <time>2020-08-11T08:04:49.018Z</time>
      </trkpt>
      <trkpt lat="43.18534" lon="1.00863">
        <ele>263.32</ele>
        <time>2020-08-11T08:04:55.009Z</time>
      </trkpt>
      <trkpt lat="43.18498" lon="1.00801">
        <ele>263.66</ele>
        <time>2020-08-11T08:05:07.311Z</time>
      </trkpt>
      <trkpt lat="43.18462" lon="1.00738">
        <ele>264.14</ele>
        <time>2020-08-11T08:05:20.023Z</time>
      </trkpt>
      <trkpt lat="43.18452" lon="1.00718">
        <ele>264.27</ele>
        <time>2020-08-11T08:05:23.841Z</time>
      </trkpt>
      <trkpt lat="43.18447" lon="1.00704">
        <ele>264.26</ele>
        <time>2020-08-11T08:05:26.100Z</time>
      </trkpt>
      <trkpt lat="43.18444" lon="1.00689">
        <ele>264.13</ele>
        <time>2020-08-11T08:05:27.782Z</time>
      </trkpt>
      <trkpt lat="43.18449" lon="1.00641">
        <ele>263.15</ele>
        <time>2020-08-11T08:05:32.108Z</time>
      </trkpt>
      <trkpt lat="43.18466" lon="1.00542">
        <ele>263.38</ele>
        <time>2020-08-11T08:05:47.481Z</time>
      </trkpt>
      <trkpt lat="43.18483" lon="1.00443">
        <ele>264.25</ele>
        <time>2020-08-11T08:06:04.216Z</time>
      </trkpt>
      <trkpt lat="43.18492" lon="1.00378">
        <ele>265.63</ele>
        <time>2020-08-11T08:06:17.382Z</time>
      </trkpt>
      <trkpt lat="43.1849" lon="1.00321">
        <ele>266.16</ele>
        <time>2020-08-11T08:06:26.869Z</time>
      </trkpt>
      <trkpt lat="43.18483" lon="1.0027">
        <ele>266.17</ele>
        <time>2020-08-11T08:06:34.509Z</time>
      </trkpt>
      <trkpt lat="43.18476" lon="1.00179">
        <ele>265.75</ele>
        <time>2020-08-11T08:06:46.765Z</time>
      </trkpt>
      <trkpt lat="43.18468" lon="1.00087">
        <ele>265.57</ele>
        <time>2020-08-11T08:06:59.837Z</time>
      </trkpt>
      <trkpt lat="43.18451" lon="0.99997">
        <ele>266.26</ele>
        <time>2020-08-11T08:07:14.895Z</time>
      </trkpt>
      <trkpt lat="43.18443" lon="0.99971">
        <ele>267.22</ele>
        <time>2020-08-11T08:07:21.986Z</time>
      </trkpt>
      <trkpt lat="43.18436" lon="0.99955">
        <ele>267.79</ele>
        <time>2020-08-11T08:07:26.432Z</time>
      </trkpt>
      <trkpt lat="43.18397" lon="0.99896">
        <ele>272.39</ele>
        <time>2020-08-11T08:07:51.724Z</time>
      </trkpt>
      <trkpt lat="43.18385" lon="0.99871">
        <ele>272.76</ele>
        <time>2020-08-11T08:07:56.927Z</time>
      </trkpt>
      <trkpt lat="43.18354" lon="0.99764">
        <ele>272.07</ele>
        <time>2020-08-11T08:08:09.925Z</time>
      </trkpt>
      <trkpt lat="43.18322" lon="0.99656">
        <ele>270.35</ele>
        <time>2020-08-11T08:08:21.235Z</time>
      </trkpt>
      <trkpt lat="43.18306" lon="0.99573">
        <ele>268.97</ele>
        <time>2020-08-11T08:08:29.392Z</time>
      </trkpt>
      <trkpt lat="43.183" lon="0.99551">
        <ele>269.2</ele>
        <time>2020-08-11T08:08:33.325Z</time>
      </trkpt>
      <trkpt lat="43.1829" lon="0.9953">
        <ele>269.39</ele>
        <time>2020-08-11T08:08:37.396Z</time>
      </trkpt>
      <trkpt lat="43.18269" lon="0.99493">
        <ele>270.59</ele>
        <time>2020-08-11T08:08:47.545Z</time>
      </trkpt>
      <trkpt lat="43.18257" lon="0.99477">
        <ele>271.15</ele>
        <time>2020-08-11T08:08:52.406Z</time>
      </trkpt>
      <trkpt lat="43.18201" lon="0.99413">
        <ele>273.05</ele>
        <time>2020-08-11T08:09:11.692Z</time>
      </trkpt>
      <trkpt lat="43.18162" lon="0.99371">
        <ele>275.41</ele>
        <time>2020-08-11T08:09:28.884Z</time>
      </trkpt>
      <trkpt lat="43.18123" lon="0.99329">
        <ele>277.16</ele>
        <time>2020-08-11T08:09:43.642Z</time>
      </trkpt>
      <trkpt lat="43.18112" lon="0.99313">
        <ele>277.49</ele>
        <time>2020-08-11T08:09:47.622Z</time>
      </trkpt>
      <trkpt lat="43.18105" lon="0.993">
        <ele>277.03</ele>
        <time>2020-08-11T08:09:48.907Z</time>
      </trkpt>
      <trkpt lat="43.18081" lon="0.99235">
        <ele>275.08</ele>
        <time>2020-08-11T08:09:54.834Z</time>
      </trkpt>
      <trkpt lat="43.18061" lon="0.99168">
        <ele>273.08</ele>
        <time>2020-08-11T08:10:00.657Z</time>
      </trkpt>
      <trkpt lat="43.1804" lon="0.991">
        <ele>270.26</ele>
        <time>2020-08-11T08:10:05.865Z</time>
      </trkpt>
      <trkpt lat="43.18031" lon="0.99077">
        <ele>269.84</ele>
        <time>2020-08-11T08:10:08.344Z</time>
      </trkpt>
      <trkpt lat="43.18016" lon="0.99046">
        <ele>269.04</ele>
        <time>2020-08-11T08:10:11.602Z</time>
      </trkpt>
      <trkpt lat="43.17973" lon="0.98966">
        <ele>268.93</ele>
        <time>2020-08-11T08:10:25.866Z</time>
      </trkpt>
      <trkpt lat="43.1793" lon="0.98886">
        <ele>268.91</ele>
        <time>2020-08-11T08:10:40.401Z</time>
      </trkpt>
      <trkpt lat="43.17884" lon="0.98823">
        <ele>268.51</ele>
        <time>2020-08-11T08:10:52.367Z</time>
      </trkpt>
      <trkpt lat="43.17864" lon="0.98792">
        <ele>267.65</ele>
        <time>2020-08-11T08:10:56.029Z</time>
      </trkpt>
      <trkpt lat="43.17826" lon="0.98727">
        <ele>267.21</ele>
        <time>2020-08-11T08:11:07.043Z</time>
      </trkpt>
      <trkpt lat="43.17787" lon="0.98661">
        <ele>267.01</ele>
        <time>2020-08-11T08:11:18.931Z</time>
      </trkpt>
      <trkpt lat="43.17741" lon="0.98571">
        <ele>267.27</ele>
        <time>2020-08-11T08:11:35.568Z</time>
      </trkpt>
      <trkpt lat="43.17727" lon="0.98539">
        <ele>267.63</ele>
        <time>2020-08-11T08:11:41.804Z</time>
      </trkpt>
      <trkpt lat="43.17715" lon="0.98497">
        <ele>267.74</ele>
        <time>2020-08-11T08:11:48.639Z</time>
      </trkpt>
      <trkpt lat="43.17698" lon="0.98406">
        <ele>267.63</ele>
        <time>2020-08-11T08:12:02.105Z</time>
      </trkpt>
      <trkpt lat="43.1768" lon="0.98314">
        <ele>266.73</ele>
        <time>2020-08-11T08:12:12.207Z</time>
      </trkpt>
      <trkpt lat="43.17669" lon="0.9827">
        <ele>267.15</ele>
        <time>2020-08-11T08:12:19.913Z</time>
      </trkpt>
      <trkpt lat="43.17658" lon="0.98243">
        <ele>267.57</ele>
        <time>2020-08-11T08:12:25.390Z</time>
      </trkpt>
      <trkpt lat="43.17613" lon="0.98153">
        <ele>268.72</ele>
        <time>2020-08-11T08:12:43.863Z</time>
      </trkpt>
      <trkpt lat="43.17568" lon="0.98063">
        <ele>268.74</ele>
        <time>2020-08-11T08:12:59.927Z</time>
      </trkpt>
      <trkpt lat="43.17538" lon="0.97995">
        <ele>268.78</ele>
        <time>2020-08-11T08:13:11.675Z</time>
      </trkpt>
      <trkpt lat="43.17508" lon="0.97926">
        <ele>270.16</ele>
        <time>2020-08-11T08:13:26.720Z</time>
      </trkpt>
      <trkpt lat="43.17497" lon="0.97905">
        <ele>270.25</ele>
        <time>2020-08-11T08:13:30.691Z</time>
      </trkpt>
      <trkpt lat="43.17489" lon="0.97893">
        <ele>270.27</ele>
        <time>2020-08-11T08:13:33.117Z</time>
      </trkpt>
      <trkpt lat="43.17456" lon="0.97861">
        <ele>269.9</ele>
        <time>2020-08-11T08:13:39.296Z</time>
      </trkpt>
      <trkpt lat="43.17404" lon="0.97819">
        <ele>270.34</ele>
        <time>2020-08-11T08:13:52.320Z</time>
      </trkpt>
      <trkpt lat="43.17352" lon="0.97777">
        <ele>270.25</ele>
        <time>2020-08-11T08:14:04.204Z</time>
      </trkpt>
      <trkpt lat="43.17296" lon="0.97729">
        <ele>270.2</ele>
        <time>2020-08-11T08:14:17.352Z</time>
      </trkpt>
      <trkpt lat="43.17255" lon="0.97698">
        <ele>270.24</ele>
        <time>2020-08-11T08:14:26.857Z</time>
      </trkpt>
      <trkpt lat="43.17226" lon="0.9768">
        <ele>271.28</ele>
        <time>2020-08-11T08:14:36.006Z</time>
      </trkpt>
      <trkpt lat="43.17145" lon="0.97639">
        <ele>270.53</ele>
        <time>2020-08-11T08:14:49.289Z</time>
      </trkpt>
      <trkpt lat="43.17064" lon="0.97597">
        <ele>271.35</ele>
        <time>2020-08-11T08:15:08.387Z</time>
      </trkpt>
      <trkpt lat="43.16993" lon="0.97559">
        <ele>272.09</ele>
        <time>2020-08-11T08:15:25.236Z</time>
      </trkpt>
      <trkpt lat="43.16922" lon="0.9752">
        <ele>274.35</ele>
        <time>2020-08-11T08:15:46.357Z</time>
      </trkpt>
      <trkpt lat="43.1685" lon="0.97482">
        <ele>278.05</ele>
        <time>2020-08-11T08:16:13.168Z</time>
      </trkpt>
      <trkpt lat="43.16779" lon="0.97443">
        <ele>283.03</ele>
        <time>2020-08-11T08:16:43.064Z</time>
      </trkpt>
      <trkpt lat="43.16757" lon="0.97426">
        <ele>283.63</ele>
        <time>2020-08-11T08:16:49.565Z</time>
      </trkpt>
      <trkpt lat="43.16738" lon="0.97403">
        <ele>283.62</ele>
        <time>2020-08-11T08:16:54.639Z</time>
      </trkpt>
      <trkpt lat="43.16704" lon="0.97356">
        <ele>283.23</ele>
        <time>2020-08-11T08:17:02.129Z</time>
      </trkpt>
      <trkpt lat="43.16683" lon="0.97337">
        <ele>282.64</ele>
        <time>2020-08-11T08:17:05.355Z</time>
      </trkpt>
      <trkpt lat="43.16657" lon="0.97325">
        <ele>280.8</ele>
        <time>2020-08-11T08:17:07.937Z</time>
      </trkpt>
      <trkpt lat="43.16632" lon="0.97319">
        <ele>278.29</ele>
        <time>2020-08-11T08:17:10.326Z</time>
      </trkpt>
      <trkpt lat="43.16581" lon="0.97317">
        <ele>275.75</ele>
        <time>2020-08-11T08:17:15.372Z</time>
      </trkpt>
      <trkpt lat="43.16529" lon="0.97314">
        <ele>275.03</ele>
        <time>2020-08-11T08:17:22.857Z</time>
      </trkpt>
      <trkpt lat="43.1651" lon="0.97322">
        <ele>274.74</ele>
        <time>2020-08-11T08:17:25.689Z</time>
      </trkpt>
      <trkpt lat="43.16479" lon="0.97345">
        <ele>274.63</ele>
        <time>2020-08-11T08:17:32.464Z</time>
      </trkpt>
      <trkpt lat="43.16434" lon="0.97276">
        <ele>272.39</ele>
        <time>2020-08-11T08:17:40.266Z</time>
      </trkpt>
      <trkpt lat="43.1639" lon="0.97207">
        <ele>271.81</ele>
        <time>2020-08-11T08:17:50.552Z</time>
      </trkpt>
      <trkpt lat="43.16345" lon="0.97138">
        <ele>269.75</ele>
        <time>2020-08-11T08:17:58.571Z</time>
      </trkpt>
      <trkpt lat="43.16324" lon="0.9712">
        <ele>269.73</ele>
        <time>2020-08-11T08:18:03.498Z</time>
      </trkpt>
      <trkpt lat="43.16261" lon="0.97083">
        <ele>269.38</ele>
        <time>2020-08-11T08:18:16.300Z</time>
      </trkpt>
      <trkpt lat="43.16198" lon="0.97045">
        <ele>269.25</ele>
        <time>2020-08-11T08:18:29.773Z</time>
      </trkpt>
      <trkpt lat="43.16135" lon="0.97008">
        <ele>269.07</ele>
        <time>2020-08-11T08:18:43.043Z</time>
      </trkpt>
      <trkpt lat="43.16052" lon="0.96978">
        <ele>268.14</ele>
        <time>2020-08-11T08:18:55.875Z</time>
      </trkpt>
      <trkpt lat="43.16019" lon="0.96964">
        <ele>267.03</ele>
        <time>2020-08-11T08:18:59.910Z</time>
      </trkpt>
      <trkpt lat="43.15971" lon="0.96947">
        <ele>266.8</ele>
        <time>2020-08-11T08:19:09.232Z</time>
      </trkpt>
      <trkpt lat="43.15923" lon="0.9693">
        <ele>267.17</ele>
        <time>2020-08-11T08:19:19.950Z</time>
      </trkpt>
      <trkpt lat="43.15896" lon="0.96924">
        <ele>267.17</ele>
        <time>2020-08-11T08:19:25.459Z</time>
      </trkpt>
      <trkpt lat="43.15862" lon="0.96912">
        <ele>267.01</ele>
        <time>2020-08-11T08:19:32.068Z</time>
      </trkpt>
      <trkpt lat="43.15817" lon="0.96874">
        <ele>267.39</ele>
        <time>2020-08-11T08:19:43.463Z</time>
      </trkpt>
      <trkpt lat="43.15772" lon="0.96835">
        <ele>269.99</ele>
        <time>2020-08-11T08:20:02.071Z</time>
      </trkpt>
      <trkpt lat="43.15727" lon="0.96802">
        <ele>273.02</ele>
        <time>2020-08-11T08:20:21.219Z</time>
      </trkpt>
      <trkpt lat="43.15695" lon="0.96885">
        <ele>273.36</ele>
        <time>2020-08-11T08:20:35.669Z</time>
      </trkpt>
      <trkpt lat="43.15664" lon="0.96968">
        <ele>273.55</ele>
        <time>2020-08-11T08:20:49.729Z</time>
      </trkpt>
      <trkpt lat="43.15632" lon="0.97051">
        <ele>273.38</ele>
        <time>2020-08-11T08:21:03.017Z</time>
      </trkpt>
      <trkpt lat="43.15585" lon="0.97127">
        <ele>273.05</ele>
        <time>2020-08-11T08:21:16.704Z</time>
      </trkpt>
      <trkpt lat="43.15544" lon="0.97177">
        <ele>272.42</ele>
        <time>2020-08-11T08:21:24.838Z</time>
      </trkpt>
      <trkpt lat="43.15503" lon="0.97226">
        <ele>272.69</ele>
        <time>2020-08-11T08:21:36.316Z</time>
      </trkpt>
      <trkpt lat="43.15453" lon="0.97276">
        <ele>273.89</ele>
        <time>2020-08-11T08:21:51.473Z</time>
      </trkpt>
      <trkpt lat="43.15396" lon="0.97305">
        <ele>275.88</ele>
        <time>2020-08-11T08:22:08.961Z</time>
      </trkpt>
      <trkpt lat="43.15319" lon="0.97328">
        <ele>277.72</ele>
        <time>2020-08-11T08:22:29.151Z</time>
      </trkpt>
      <trkpt lat="43.15259" lon="0.97329">
        <ele>279.54</ele>
        <time>2020-08-11T08:22:45.886Z</time>
      </trkpt>
      <trkpt lat="43.15198" lon="0.9733">
        <ele>280.5</ele>
        <time>2020-08-11T08:23:00.242Z</time>
      </trkpt>
      <trkpt lat="43.15124" lon="0.97341">
        <ele>281.06</ele>
        <time>2020-08-11T08:23:16.343Z</time>
      </trkpt>
      <trkpt lat="43.1505" lon="0.97352">
        <ele>281.87</ele>
        <time>2020-08-11T08:23:32.994Z</time>
      </trkpt>
      <trkpt lat="43.14974" lon="0.97366">
        <ele>282.9</ele>
        <time>2020-08-11T08:23:50.606Z</time>
      </trkpt>
      <trkpt lat="43.14899" lon="0.9738">
        <ele>284.54</ele>
        <time>2020-08-11T08:24:09.625Z</time>
      </trkpt>
      <trkpt lat="43.14823" lon="0.97394">
        <ele>284.58</ele>
        <time>2020-08-11T08:24:25.144Z</time>
      </trkpt>
      <trkpt lat="43.14752" lon="0.974">
        <ele>284.58</ele>
        <time>2020-08-11T08:24:39.471Z</time>
      </trkpt>
      <trkpt lat="43.1468" lon="0.97406">
        <ele>284.58</ele>
        <time>2020-08-11T08:24:53.999Z</time>
      </trkpt>
      <trkpt lat="43.14598" lon="0.97406">
        <ele>284.58</ele>
        <time>2020-08-11T08:25:10.514Z</time>
      </trkpt>
      <trkpt lat="43.14544" lon="0.97396">
        <ele>285.01</ele>
        <time>2020-08-11T08:25:22.344Z</time>
      </trkpt>
      <trkpt lat="43.14492" lon="0.97371">
        <ele>286.12</ele>
        <time>2020-08-11T08:25:35.954Z</time>
      </trkpt>
      <trkpt lat="43.14422" lon="0.97335">
        <ele>284.96</ele>
        <time>2020-08-11T08:25:46.484Z</time>
      </trkpt>
      <trkpt lat="43.14352" lon="0.97299">
        <ele>284.21</ele>
        <time>2020-08-11T08:25:57.780Z</time>
      </trkpt>
      <trkpt lat="43.1432" lon="0.9729">
        <ele>284.25</ele>
        <time>2020-08-11T08:26:04.434Z</time>
      </trkpt>
      <trkpt lat="43.14289" lon="0.97288">
        <ele>284.14</ele>
        <time>2020-08-11T08:26:10.362Z</time>
      </trkpt>
      <trkpt lat="43.14218" lon="0.97298">
        <ele>284.7</ele>
        <time>2020-08-11T08:26:25.851Z</time>
      </trkpt>
      <trkpt lat="43.14165" lon="0.97321">
        <ele>285.04</ele>
        <time>2020-08-11T08:26:37.712Z</time>
      </trkpt>
      <trkpt lat="43.14131" lon="0.97345">
        <ele>285.42</ele>
        <time>2020-08-11T08:26:46.186Z</time>
      </trkpt>
      <trkpt lat="43.14112" lon="0.97352">
        <ele>285.42</ele>
        <time>2020-08-11T08:26:50.149Z</time>
      </trkpt>
      <trkpt lat="43.14086" lon="0.97352">
        <ele>285.64</ele>
        <time>2020-08-11T08:26:55.825Z</time>
      </trkpt>
      <trkpt lat="43.1408" lon="0.97358">
        <ele>285.64</ele>
        <time>2020-08-11T08:26:57.321Z</time>
      </trkpt>
      <trkpt lat="43.14075" lon="0.97366">
        <ele>285.64</ele>
        <time>2020-08-11T08:26:58.869Z</time>
      </trkpt>
      <trkpt lat="43.14072" lon="0.97379">
        <ele>285.64</ele>
        <time>2020-08-11T08:27:00.873Z</time>
      </trkpt>
      <trkpt lat="43.14068" lon="0.97387">
        <ele>285.64</ele>
        <time>2020-08-11T08:27:02.298Z</time>
      </trkpt>
      <trkpt lat="43.14057" lon="0.97399">
        <ele>285.64</ele>
        <time>2020-08-11T08:27:05.130Z</time>
      </trkpt>
      <trkpt lat="43.14047" lon="0.97406">
        <ele>285.79</ele>
        <time>2020-08-11T08:27:07.707Z</time>
      </trkpt>
      <trkpt lat="43.14039" lon="0.97416">
        <ele>285.79</ele>
        <time>2020-08-11T08:27:09.888Z</time>
      </trkpt>
      <trkpt lat="43.13996" lon="0.97434">
        <ele>286.02</ele>
        <time>2020-08-11T08:27:19.388Z</time>
      </trkpt>
      <trkpt lat="43.13951" lon="0.97441">
        <ele>287.34</ele>
        <time>2020-08-11T08:27:31.832Z</time>
      </trkpt>
      <trkpt lat="43.13874" lon="0.97442">
        <ele>288.16</ele>
        <time>2020-08-11T08:27:49.017Z</time>
      </trkpt>
      <trkpt lat="43.13797" lon="0.97443">
        <ele>286.4</ele>
        <time>2020-08-11T08:27:58.958Z</time>
      </trkpt>
      <trkpt lat="43.13773" lon="0.97446">
        <ele>286.29</ele>
        <time>2020-08-11T08:28:03.495Z</time>
      </trkpt>
      <trkpt lat="43.13711" lon="0.97446">
        <ele>286.35</ele>
        <time>2020-08-11T08:28:16.094Z</time>
      </trkpt>
      <trkpt lat="43.13649" lon="0.97446">
        <ele>286.39</ele>
        <time>2020-08-11T08:28:28.655Z</time>
      </trkpt>
      <trkpt lat="43.13589" lon="0.9745">
        <ele>286.49</ele>
        <time>2020-08-11T08:28:40.941Z</time>
      </trkpt>
      <trkpt lat="43.13555" lon="0.97448">
        <ele>286.55</ele>
        <time>2020-08-11T08:28:47.908Z</time>
      </trkpt>
      <trkpt lat="43.13468" lon="0.97426">
        <ele>286.14</ele>
        <time>2020-08-11T08:29:04.545Z</time>
      </trkpt>
      <trkpt lat="43.1338" lon="0.97405">
        <ele>285.8</ele>
        <time>2020-08-11T08:29:21.544Z</time>
      </trkpt>
      <trkpt lat="43.13293" lon="0.97383">
        <ele>286.16</ele>
        <time>2020-08-11T08:29:40.052Z</time>
      </trkpt>
      <trkpt lat="43.13306" lon="0.97304">
        <ele>288.04</ele>
        <time>2020-08-11T08:29:56.849Z</time>
      </trkpt>
      <trkpt lat="43.13319" lon="0.97225">
        <ele>288.87</ele>
        <time>2020-08-11T08:30:10.510Z</time>
      </trkpt>
      <trkpt lat="43.13259" lon="0.97205">
        <ele>289.97</ele>
        <time>2020-08-11T08:30:25.372Z</time>
      </trkpt>
      <trkpt lat="43.13199" lon="0.97185">
        <ele>288.55</ele>
        <time>2020-08-11T08:30:33.331Z</time>
      </trkpt>
      <trkpt lat="43.13189" lon="0.97176">
        <ele>288.01</ele>
        <time>2020-08-11T08:30:34.564Z</time>
      </trkpt>
      <trkpt lat="43.13176" lon="0.97152">
        <ele>288.7</ele>
        <time>2020-08-11T08:30:40.749Z</time>
      </trkpt>
      <trkpt lat="43.13162" lon="0.97129">
        <ele>290.1</ele>
        <time>2020-08-11T08:30:49.227Z</time>
      </trkpt>
      <trkpt lat="43.13145" lon="0.97108">
        <ele>291.52</ele>
        <time>2020-08-11T08:30:57.978Z</time>
      </trkpt>
      <trkpt lat="43.13118" lon="0.97079">
        <ele>294.34</ele>
        <time>2020-08-11T08:31:13.290Z</time>
      </trkpt>
      <trkpt lat="43.13068" lon="0.97048">
        <ele>297.54</ele>
        <time>2020-08-11T08:31:33.730Z</time>
      </trkpt>
      <trkpt lat="43.13018" lon="0.97016">
        <ele>301.18</ele>
        <time>2020-08-11T08:31:55.435Z</time>
      </trkpt>
      <trkpt lat="43.12994" lon="0.96999">
        <ele>303.51</ele>
        <time>2020-08-11T08:32:07.912Z</time>
      </trkpt>
      <trkpt lat="43.12988" lon="0.96988">
        <ele>304.32</ele>
        <time>2020-08-11T08:32:12.335Z</time>
      </trkpt>
      <trkpt lat="43.12987" lon="0.96975">
        <ele>304.86</ele>
        <time>2020-08-11T08:32:15.846Z</time>
      </trkpt>
      <trkpt lat="43.12993" lon="0.96964">
        <ele>305.69</ele>
        <time>2020-08-11T08:32:20.343Z</time>
      </trkpt>
      <trkpt lat="43.13002" lon="0.96957">
        <ele>306.57</ele>
        <time>2020-08-11T08:32:25.073Z</time>
      </trkpt>
      <trkpt lat="43.13016" lon="0.96952">
        <ele>308.77</ele>
        <time>2020-08-11T08:32:36.312Z</time>
      </trkpt>
      <trkpt lat="43.13021" lon="0.96947">
        <ele>309.78</ele>
        <time>2020-08-11T08:32:41.121Z</time>
      </trkpt>
      <trkpt lat="43.13021" lon="0.96942">
        <ele>309.78</ele>
        <time>2020-08-11T08:32:41.856Z</time>
      </trkpt>
      <trkpt lat="43.13019" lon="0.96937">
        <ele>311.98</ele>
        <time>2020-08-11T08:32:45.089Z</time>
      </trkpt>
      <trkpt lat="43.13014" lon="0.96935">
        <ele>311.98</ele>
        <time>2020-08-11T08:32:46.138Z</time>
      </trkpt>
      <trkpt lat="43.13003" lon="0.96941">
        <ele>313.73</ele>
        <time>2020-08-11T08:32:55.335Z</time>
      </trkpt>
      <trkpt lat="43.12995" lon="0.96942">
        <ele>313.73</ele>
        <time>2020-08-11T08:32:56.953Z</time>
      </trkpt>
      <trkpt lat="43.12987" lon="0.9694">
        <ele>313.73</ele>
        <time>2020-08-11T08:32:58.591Z</time>
      </trkpt>
      <trkpt lat="43.12978" lon="0.96931">
        <ele>315.87</ele>
        <time>2020-08-11T08:33:07.247Z</time>
      </trkpt>
      <trkpt lat="43.12973" lon="0.96916">
        <ele>315.87</ele>
        <time>2020-08-11T08:33:09.671Z</time>
      </trkpt>
      <trkpt lat="43.12971" lon="0.96896">
        <ele>317.3</ele>
        <time>2020-08-11T08:33:17.172Z</time>
      </trkpt>
      <trkpt lat="43.12972" lon="0.96855">
        <ele>320.39</ele>
        <time>2020-08-11T08:33:33.359Z</time>
      </trkpt>
      <trkpt lat="43.1297" lon="0.96835">
        <ele>321.31</ele>
        <time>2020-08-11T08:33:39.009Z</time>
      </trkpt>
      <trkpt lat="43.12951" lon="0.96751">
        <ele>324.44</ele>
        <time>2020-08-11T08:34:01.430Z</time>
      </trkpt>
      <trkpt lat="43.12932" lon="0.96668">
        <ele>329.38</ele>
        <time>2020-08-11T08:34:28.770Z</time>
      </trkpt>
      <trkpt lat="43.12913" lon="0.96584">
        <ele>331.27</ele>
        <time>2020-08-11T08:34:46.471Z</time>
      </trkpt>
      <trkpt lat="43.12866" lon="0.96504">
        <ele>333.42</ele>
        <time>2020-08-11T08:35:06.947Z</time>
      </trkpt>
      <trkpt lat="43.12818" lon="0.96423">
        <ele>334.29</ele>
        <time>2020-08-11T08:35:24.077Z</time>
      </trkpt>
      <trkpt lat="43.12771" lon="0.96343">
        <ele>336.03</ele>
        <time>2020-08-11T08:35:43.250Z</time>
      </trkpt>
      <trkpt lat="43.12735" lon="0.96282">
        <ele>336.21</ele>
        <time>2020-08-11T08:35:55.123Z</time>
      </trkpt>
      <trkpt lat="43.12698" lon="0.96221">
        <ele>336.23</ele>
        <time>2020-08-11T08:36:06.819Z</time>
      </trkpt>
      <trkpt lat="43.12671" lon="0.96162">
        <ele>336.28</ele>
        <time>2020-08-11T08:36:17.149Z</time>
      </trkpt>
      <trkpt lat="43.12644" lon="0.96102">
        <ele>336.33</ele>
        <time>2020-08-11T08:36:27.603Z</time>
      </trkpt>
      <trkpt lat="43.12612" lon="0.96043">
        <ele>337.27</ele>
        <time>2020-08-11T08:36:40.474Z</time>
      </trkpt>
      <trkpt lat="43.12586" lon="0.95959">
        <ele>336.63</ele>
        <time>2020-08-11T08:36:50.592Z</time>
      </trkpt>
      <trkpt lat="43.12572" lon="0.95844">
        <ele>337.42</ele>
        <time>2020-08-11T08:37:09.323Z</time>
      </trkpt>
      <trkpt lat="43.12558" lon="0.95729">
        <ele>337.73</ele>
        <time>2020-08-11T08:37:27.053Z</time>
      </trkpt>
      <trkpt lat="43.12544" lon="0.95614">
        <ele>337.62</ele>
        <time>2020-08-11T08:37:43.859Z</time>
      </trkpt>
      <trkpt lat="43.12521" lon="0.95506">
        <ele>337.73</ele>
        <time>2020-08-11T08:38:00.602Z</time>
      </trkpt>
      <trkpt lat="43.12498" lon="0.95399">
        <ele>338.65</ele>
        <time>2020-08-11T08:38:18.892Z</time>
      </trkpt>
      <trkpt lat="43.12475" lon="0.95291">
        <ele>339.68</ele>
        <time>2020-08-11T08:38:37.577Z</time>
      </trkpt>
      <trkpt lat="43.12449" lon="0.95189">
        <ele>339.78</ele>
        <time>2020-08-11T08:38:53.646Z</time>
      </trkpt>
      <trkpt lat="43.12422" lon="0.95087">
        <ele>340.56</ele>
        <time>2020-08-11T08:39:11.177Z</time>
      </trkpt>
      <trkpt lat="43.1239" lon="0.94994">
        <ele>340.61</ele>
        <time>2020-08-11T08:39:26.384Z</time>
      </trkpt>
      <trkpt lat="43.12358" lon="0.94901">
        <ele>339.91</ele>
        <time>2020-08-11T08:39:37.830Z</time>
      </trkpt>
      <trkpt lat="43.12326" lon="0.94808">
        <ele>338.18</ele>
        <time>2020-08-11T08:39:47.496Z</time>
      </trkpt>
      <trkpt lat="43.12331" lon="0.94823">
        <ele>338.76</ele>
        <time>2020-08-11T08:39:51.685Z</time>
      </trkpt>
      <trkpt lat="43.12302" lon="0.94737">
        <ele>338.01</ele>
        <time>2020-08-11T08:40:02.020Z</time>
      </trkpt>
      <trkpt lat="43.12267" lon="0.94675">
        <ele>338.98</ele>
        <time>2020-08-11T08:40:15.661Z</time>
      </trkpt>
      <trkpt lat="43.1222" lon="0.94634">
        <ele>340.06</ele>
        <time>2020-08-11T08:40:29.306Z</time>
      </trkpt>
      <trkpt lat="43.12172" lon="0.94593">
        <ele>339.2</ele>
        <time>2020-08-11T08:40:37.303Z</time>
      </trkpt>
      <trkpt lat="43.12096" lon="0.94537">
        <ele>335.13</ele>
        <time>2020-08-11T08:40:46.035Z</time>
      </trkpt>
      <trkpt lat="43.1205" lon="0.94446">
        <ele>334.04</ele>
        <time>2020-08-11T08:40:57.706Z</time>
      </trkpt>
      <trkpt lat="43.12004" lon="0.94355">
        <ele>334.54</ele>
        <time>2020-08-11T08:41:14.957Z</time>
      </trkpt>
      <trkpt lat="43.11958" lon="0.94264">
        <ele>336.12</ele>
        <time>2020-08-11T08:41:34.781Z</time>
      </trkpt>
      <trkpt lat="43.11906" lon="0.94225">
        <ele>336.17</ele>
        <time>2020-08-11T08:41:46.813Z</time>
      </trkpt>
      <trkpt lat="43.1187" lon="0.94169">
        <ele>335.83</ele>
        <time>2020-08-11T08:41:56.826Z</time>
      </trkpt>
      <trkpt lat="43.11833" lon="0.94112">
        <ele>336.85</ele>
        <time>2020-08-11T08:42:10.301Z</time>
      </trkpt>
      <trkpt lat="43.11784" lon="0.94049">
        <ele>339.54</ele>
        <time>2020-08-11T08:42:31.672Z</time>
      </trkpt>
      <trkpt lat="43.11717" lon="0.93986">
        <ele>342.81</ele>
        <time>2020-08-11T08:42:57.593Z</time>
      </trkpt>
      <trkpt lat="43.11701" lon="0.9396">
        <ele>342.84</ele>
        <time>2020-08-11T08:43:02.648Z</time>
      </trkpt>
      <trkpt lat="43.11671" lon="0.93873">
        <ele>342.41</ele>
        <time>2020-08-11T08:43:15.581Z</time>
      </trkpt>
      <trkpt lat="43.1164" lon="0.93785">
        <ele>338.97</ele>
        <time>2020-08-11T08:43:22.731Z</time>
      </trkpt>
      <trkpt lat="43.11624" lon="0.93723">
        <ele>337.4</ele>
        <time>2020-08-11T08:43:28.305Z</time>
      </trkpt>
      <trkpt lat="43.11607" lon="0.93661">
        <ele>335.45</ele>
        <time>2020-08-11T08:43:33.513Z</time>
      </trkpt>
      <trkpt lat="43.11552" lon="0.93644">
        <ele>336.56</ele>
        <time>2020-08-11T08:43:47.367Z</time>
      </trkpt>
      <trkpt lat="43.11496" lon="0.93626">
        <ele>339.12</ele>
        <time>2020-08-11T08:44:06.921Z</time>
      </trkpt>
      <trkpt lat="43.11496" lon="0.93613">
        <ele>339.81</ele>
        <time>2020-08-11T08:44:10.847Z</time>
      </trkpt>
      <trkpt lat="43.11492" lon="0.93588">
        <ele>341.61</ele>
        <time>2020-08-11T08:44:20.296Z</time>
      </trkpt>
      <trkpt lat="43.11479" lon="0.93555">
        <ele>343.46</ele>
        <time>2020-08-11T08:44:31.191Z</time>
      </trkpt>
      <trkpt lat="43.1146" lon="0.93528">
        <ele>344.31</ele>
        <time>2020-08-11T08:44:38.896Z</time>
      </trkpt>
      <trkpt lat="43.11416" lon="0.93486">
        <ele>344.42</ele>
        <time>2020-08-11T08:44:49.904Z</time>
      </trkpt>
      <trkpt lat="43.11371" lon="0.93444">
        <ele>342.92</ele>
        <time>2020-08-11T08:44:56.579Z</time>
      </trkpt>
      <trkpt lat="43.11326" lon="0.93412">
        <ele>340.56</ele>
        <time>2020-08-11T08:45:01.738Z</time>
      </trkpt>
      <trkpt lat="43.11279" lon="0.93392">
        <ele>340.22</ele>
        <time>2020-08-11T08:45:10.701Z</time>
      </trkpt>
      <trkpt lat="43.1128" lon="0.93385">
        <ele>339.87</ele>
        <time>2020-08-11T08:45:11.191Z</time>
      </trkpt>
      <trkpt lat="43.11278" lon="0.93376">
        <ele>339.87</ele>
        <time>2020-08-11T08:45:12.574Z</time>
      </trkpt>
      <trkpt lat="43.11274" lon="0.93369">
        <ele>339.89</ele>
        <time>2020-08-11T08:45:13.919Z</time>
      </trkpt>
      <trkpt lat="43.11266" lon="0.93364">
        <ele>339.89</ele>
        <time>2020-08-11T08:45:15.690Z</time>
      </trkpt>
      <trkpt lat="43.11259" lon="0.93365">
        <ele>339.89</ele>
        <time>2020-08-11T08:45:17.108Z</time>
      </trkpt>
      <trkpt lat="43.11252" lon="0.93371">
        <ele>340.26</ele>
        <time>2020-08-11T08:45:19.920Z</time>
      </trkpt>
      <trkpt lat="43.11248" lon="0.93384">
        <ele>340.26</ele>
        <time>2020-08-11T08:45:21.995Z</time>
      </trkpt>
      <trkpt lat="43.11173" lon="0.93363">
        <ele>340.53</ele>
        <time>2020-08-11T08:45:37.927Z</time>
      </trkpt>
      <trkpt lat="43.11162" lon="0.93358">
        <ele>340.53</ele>
        <time>2020-08-11T08:45:40.261Z</time>
      </trkpt>
      <trkpt lat="43.11127" lon="0.93309">
        <ele>340.92</ele>
        <time>2020-08-11T08:45:51.116Z</time>
      </trkpt>
      <trkpt lat="43.11091" lon="0.93259">
        <ele>341.43</ele>
        <time>2020-08-11T08:46:02.477Z</time>
      </trkpt>
      <trkpt lat="43.11076" lon="0.9324">
        <ele>341.53</ele>
        <time>2020-08-11T08:46:06.784Z</time>
      </trkpt>
      <trkpt lat="43.11046" lon="0.93217">
        <ele>342.38</ele>
        <time>2020-08-11T08:46:15.736Z</time>
      </trkpt>
      <trkpt lat="43.10997" lon="0.93177">
        <ele>343.17</ele>
        <time>2020-08-11T08:46:28.894Z</time>
      </trkpt>
      <trkpt lat="43.10947" lon="0.93136">
        <ele>343.2</ele>
        <time>2020-08-11T08:46:40.686Z</time>
      </trkpt>
      <trkpt lat="43.10892" lon="0.93075">
        <ele>339.15</ele>
        <time>2020-08-11T08:46:47.259Z</time>
      </trkpt>
      <trkpt lat="43.10837" lon="0.93013">
        <ele>335.76</ele>
        <time>2020-08-11T08:46:54.439Z</time>
      </trkpt>
      <trkpt lat="43.10809" lon="0.9297">
        <ele>333.11</ele>
        <time>2020-08-11T08:46:58.170Z</time>
      </trkpt>
      <trkpt lat="43.10791" lon="0.92935">
        <ele>331.44</ele>
        <time>2020-08-11T08:47:01.166Z</time>
      </trkpt>
      <trkpt lat="43.10769" lon="0.9288">
        <ele>328.95</ele>
        <time>2020-08-11T08:47:05.520Z</time>
      </trkpt>
      <trkpt lat="43.10746" lon="0.92825">
        <ele>328.53</ele>
        <time>2020-08-11T08:47:12.601Z</time>
      </trkpt>
      <trkpt lat="43.10728" lon="0.92774">
        <ele>329.59</ele>
        <time>2020-08-11T08:47:23.486Z</time>
      </trkpt>
      <trkpt lat="43.10706" lon="0.92703">
        <ele>333.61</ele>
        <time>2020-08-11T08:47:46.549Z</time>
      </trkpt>
      <trkpt lat="43.10684" lon="0.92632">
        <ele>336.97</ele>
        <time>2020-08-11T08:48:07.722Z</time>
      </trkpt>
      <trkpt lat="43.1065" lon="0.9257">
        <ele>340</ele>
        <time>2020-08-11T08:48:28.130Z</time>
      </trkpt>
      <trkpt lat="43.10616" lon="0.92525">
        <ele>341.86</ele>
        <time>2020-08-11T08:48:43.017Z</time>
      </trkpt>
      <trkpt lat="43.1055" lon="0.92448">
        <ele>345.75</ele>
        <time>2020-08-11T08:49:12.556Z</time>
      </trkpt>
      <trkpt lat="43.10484" lon="0.9237">
        <ele>347.23</ele>
        <time>2020-08-11T08:49:33.346Z</time>
      </trkpt>
      <trkpt lat="43.10418" lon="0.92293">
        <ele>348.33</ele>
        <time>2020-08-11T08:49:53.104Z</time>
      </trkpt>
      <trkpt lat="43.10352" lon="0.92215">
        <ele>349.08</ele>
        <time>2020-08-11T08:50:12.163Z</time>
      </trkpt>
      <trkpt lat="43.10325" lon="0.9219">
        <ele>348.73</ele>
        <time>2020-08-11T08:50:17.041Z</time>
      </trkpt>
      <trkpt lat="43.10258" lon="0.92147">
        <ele>346.93</ele>
        <time>2020-08-11T08:50:26.437Z</time>
      </trkpt>
      <trkpt lat="43.10191" lon="0.92103">
        <ele>343.56</ele>
        <time>2020-08-11T08:50:34.079Z</time>
      </trkpt>
      <trkpt lat="43.10124" lon="0.9206">
        <ele>343.29</ele>
        <time>2020-08-11T08:50:48.192Z</time>
      </trkpt>
      <trkpt lat="43.10084" lon="0.92019">
        <ele>344.2</ele>
        <time>2020-08-11T08:51:00.269Z</time>
      </trkpt>
      <trkpt lat="43.10034" lon="0.9195">
        <ele>345.29</ele>
        <time>2020-08-11T08:51:16.905Z</time>
      </trkpt>
      <trkpt lat="43.09984" lon="0.9188">
        <ele>347.39</ele>
        <time>2020-08-11T08:51:36.606Z</time>
      </trkpt>
      <trkpt lat="43.09934" lon="0.91811">
        <ele>349.07</ele>
        <time>2020-08-11T08:51:54.859Z</time>
      </trkpt>
      <trkpt lat="43.09888" lon="0.91744">
        <ele>351.29</ele>
        <time>2020-08-11T08:52:14.259Z</time>
      </trkpt>
      <trkpt lat="43.09888" lon="0.91745">
        <ele>351.28</ele>
        <time>2020-08-11T08:52:14.364Z</time>
      </trkpt>
      <trkpt lat="43.09864" lon="0.91717">
        <ele>352.07</ele>
        <time>2020-08-11T08:52:22.605Z</time>
      </trkpt>
      <trkpt lat="43.09814" lon="0.9167">
        <ele>353.92</ele>
        <time>2020-08-11T08:52:39.556Z</time>
      </trkpt>
      <trkpt lat="43.09764" lon="0.91622">
        <ele>354.26</ele>
        <time>2020-08-11T08:52:52.515Z</time>
      </trkpt>
      <trkpt lat="43.09726" lon="0.91588">
        <ele>354.66</ele>
        <time>2020-08-11T08:53:02.460Z</time>
      </trkpt>
      <trkpt lat="43.09687" lon="0.91553">
        <ele>355.28</ele>
        <time>2020-08-11T08:53:13.153Z</time>
      </trkpt>
      <trkpt lat="43.09643" lon="0.91522">
        <ele>355.28</ele>
        <time>2020-08-11T08:53:23.119Z</time>
      </trkpt>
      <trkpt lat="43.09598" lon="0.9149">
        <ele>355.36</ele>
        <time>2020-08-11T08:53:33.481Z</time>
      </trkpt>
      <trkpt lat="43.0958" lon="0.91474">
        <ele>355.42</ele>
        <time>2020-08-11T08:53:37.917Z</time>
      </trkpt>
      <trkpt lat="43.09537" lon="0.91429">
        <ele>357.07</ele>
        <time>2020-08-11T08:53:53.040Z</time>
      </trkpt>
      <trkpt lat="43.09513" lon="0.91398">
        <ele>357.35</ele>
        <time>2020-08-11T08:54:00.245Z</time>
      </trkpt>
      <trkpt lat="43.09479" lon="0.91349">
        <ele>358.34</ele>
        <time>2020-08-11T08:54:12.423Z</time>
      </trkpt>
      <trkpt lat="43.09434" lon="0.91294">
        <ele>359.61</ele>
        <time>2020-08-11T08:54:27.474Z</time>
      </trkpt>
      <trkpt lat="43.09389" lon="0.91239">
        <ele>360.36</ele>
        <time>2020-08-11T08:54:41.184Z</time>
      </trkpt>
      <trkpt lat="43.09371" lon="0.91225">
        <ele>360.51</ele>
        <time>2020-08-11T08:54:45.650Z</time>
      </trkpt>
      <trkpt lat="43.09358" lon="0.91217">
        <ele>360.86</ele>
        <time>2020-08-11T08:54:49.353Z</time>
      </trkpt>
      <trkpt lat="43.09343" lon="0.91211">
        <ele>361.18</ele>
        <time>2020-08-11T08:54:53.227Z</time>
      </trkpt>
      <trkpt lat="43.09281" lon="0.91202">
        <ele>362.56</ele>
        <time>2020-08-11T08:55:08.978Z</time>
      </trkpt>
      <trkpt lat="43.09263" lon="0.91196">
        <ele>363</ele>
        <time>2020-08-11T08:55:13.746Z</time>
      </trkpt>
      <trkpt lat="43.09229" lon="0.91175">
        <ele>364.93</ele>
        <time>2020-08-11T08:55:27.033Z</time>
      </trkpt>
      <trkpt lat="43.09195" lon="0.9115">
        <ele>365.71</ele>
        <time>2020-08-11T08:55:36.572Z</time>
      </trkpt>
      <trkpt lat="43.09151" lon="0.91105">
        <ele>368.23</ele>
        <time>2020-08-11T08:55:55.405Z</time>
      </trkpt>
      <trkpt lat="43.09109" lon="0.91042">
        <ele>369.72</ele>
        <time>2020-08-11T08:56:11.471Z</time>
      </trkpt>
      <trkpt lat="43.09078" lon="0.91005">
        <ele>371.19</ele>
        <time>2020-08-11T08:56:23.786Z</time>
      </trkpt>
      <trkpt lat="43.09027" lon="0.90954">
        <ele>375.73</ele>
        <time>2020-08-11T08:56:49.750Z</time>
      </trkpt>
      <trkpt lat="43.08975" lon="0.90902">
        <ele>379.15</ele>
        <time>2020-08-11T08:57:12.899Z</time>
      </trkpt>
      <trkpt lat="43.08937" lon="0.9086">
        <ele>380.19</ele>
        <time>2020-08-11T08:57:25.118Z</time>
      </trkpt>
      <trkpt lat="43.08912" lon="0.90815">
        <ele>382.6</ele>
        <time>2020-08-11T08:57:40.503Z</time>
      </trkpt>
      <trkpt lat="43.08878" lon="0.90728">
        <ele>387.15</ele>
        <time>2020-08-11T08:58:08.271Z</time>
      </trkpt>
      <trkpt lat="43.08848" lon="0.90673">
        <ele>387.56</ele>
        <time>2020-08-11T08:58:19.186Z</time>
      </trkpt>
      <trkpt lat="43.08813" lon="0.9062">
        <ele>389.74</ele>
        <time>2020-08-11T08:58:36.211Z</time>
      </trkpt>
      <trkpt lat="43.08763" lon="0.90567">
        <ele>391.93</ele>
        <time>2020-08-11T08:58:54.863Z</time>
      </trkpt>
      <trkpt lat="43.08741" lon="0.90552">
        <ele>393.18</ele>
        <time>2020-08-11T08:59:03.568Z</time>
      </trkpt>
      <trkpt lat="43.0872" lon="0.90542">
        <ele>393.94</ele>
        <time>2020-08-11T08:59:10.087Z</time>
      </trkpt>
      <trkpt lat="43.08681" lon="0.90515">
        <ele>394.97</ele>
        <time>2020-08-11T08:59:21.312Z</time>
      </trkpt>
      <trkpt lat="43.08656" lon="0.90465">
        <ele>396.62</ele>
        <time>2020-08-11T08:59:34.848Z</time>
      </trkpt>
      <trkpt lat="43.08632" lon="0.90381">
        <ele>394.1</ele>
        <time>2020-08-11T08:59:42.087Z</time>
      </trkpt>
      <trkpt lat="43.08607" lon="0.90297">
        <ele>394.8</ele>
        <time>2020-08-11T08:59:56.859Z</time>
      </trkpt>
      <trkpt lat="43.08588" lon="0.90245">
        <ele>395.74</ele>
        <time>2020-08-11T09:00:07.587Z</time>
      </trkpt>
      <trkpt lat="43.08563" lon="0.90168">
        <ele>396.41</ele>
        <time>2020-08-11T09:00:21.355Z</time>
      </trkpt>
      <trkpt lat="43.08537" lon="0.90091">
        <ele>396.44</ele>
        <time>2020-08-11T09:00:33.889Z</time>
      </trkpt>
      <trkpt lat="43.08526" lon="0.90051">
        <ele>396.08</ele>
        <time>2020-08-11T09:00:38.513Z</time>
      </trkpt>
      <trkpt lat="43.085" lon="0.89934">
        <ele>397.94</ele>
        <time>2020-08-11T09:01:00.743Z</time>
      </trkpt>
      <trkpt lat="43.08481" lon="0.89864">
        <ele>398.19</ele>
        <time>2020-08-11T09:01:12.209Z</time>
      </trkpt>
      <trkpt lat="43.08461" lon="0.89801">
        <ele>397.55</ele>
        <time>2020-08-11T09:01:19.524Z</time>
      </trkpt>
      <trkpt lat="43.0844" lon="0.89737">
        <ele>397.42</ele>
        <time>2020-08-11T09:01:29.459Z</time>
      </trkpt>
      <trkpt lat="43.08421" lon="0.89697">
        <ele>398.08</ele>
        <time>2020-08-11T09:01:37.951Z</time>
      </trkpt>
      <trkpt lat="43.08398" lon="0.89675">
        <ele>399.45</ele>
        <time>2020-08-11T09:01:47.756Z</time>
      </trkpt>
      <trkpt lat="43.08378" lon="0.89661">
        <ele>399.45</ele>
        <time>2020-08-11T09:01:52.281Z</time>
      </trkpt>
      <trkpt lat="43.08308" lon="0.89621">
        <ele>404.54</ele>
        <time>2020-08-11T09:02:22.365Z</time>
      </trkpt>
      <trkpt lat="43.08252" lon="0.89603">
        <ele>406.68</ele>
        <time>2020-08-11T09:02:39.939Z</time>
      </trkpt>
      <trkpt lat="43.08195" lon="0.89585">
        <ele>408.53</ele>
        <time>2020-08-11T09:02:56.525Z</time>
      </trkpt>
      <trkpt lat="43.08171" lon="0.89576">
        <ele>408.84</ele>
        <time>2020-08-11T09:03:02.183Z</time>
      </trkpt>
      <trkpt lat="43.08144" lon="0.89575">
        <ele>409.3</ele>
        <time>2020-08-11T09:03:08.628Z</time>
      </trkpt>
      <trkpt lat="43.08121" lon="0.8958">
        <ele>409.47</ele>
        <time>2020-08-11T09:03:13.655Z</time>
      </trkpt>
      <trkpt lat="43.08099" lon="0.8958">
        <ele>409.7</ele>
        <time>2020-08-11T09:03:18.555Z</time>
      </trkpt>
      <trkpt lat="43.08078" lon="0.89577">
        <ele>410.12</ele>
        <time>2020-08-11T09:03:23.755Z</time>
      </trkpt>
      <trkpt lat="43.08056" lon="0.89569">
        <ele>410.78</ele>
        <time>2020-08-11T09:03:29.997Z</time>
      </trkpt>
      <trkpt lat="43.08037" lon="0.89556">
        <ele>411.64</ele>
        <time>2020-08-11T09:03:36.797Z</time>
      </trkpt>
      <trkpt lat="43.08" lon="0.89524">
        <ele>414.63</ele>
        <time>2020-08-11T09:03:54.312Z</time>
      </trkpt>
      <trkpt lat="43.0797" lon="0.8949">
        <ele>415.66</ele>
        <time>2020-08-11T09:04:04.664Z</time>
      </trkpt>
      <trkpt lat="43.07963" lon="0.89477">
        <ele>415.35</ele>
        <time>2020-08-11T09:04:06.130Z</time>
      </trkpt>
      <trkpt lat="43.07947" lon="0.89441">
        <ele>415.95</ele>
        <time>2020-08-11T09:04:13.676Z</time>
      </trkpt>
      <trkpt lat="43.07915" lon="0.89328">
        <ele>415.55</ele>
        <time>2020-08-11T09:04:30.351Z</time>
      </trkpt>
      <trkpt lat="43.07893" lon="0.89258">
        <ele>416.07</ele>
        <time>2020-08-11T09:04:42.611Z</time>
      </trkpt>
      <trkpt lat="43.0787" lon="0.89187">
        <ele>418.23</ele>
        <time>2020-08-11T09:05:00.155Z</time>
      </trkpt>
      <trkpt lat="43.07851" lon="0.8915">
        <ele>418.51</ele>
        <time>2020-08-11T09:05:07.369Z</time>
      </trkpt>
      <trkpt lat="43.07822" lon="0.89103">
        <ele>419.58</ele>
        <time>2020-08-11T09:05:18.945Z</time>
      </trkpt>
      <trkpt lat="43.07783" lon="0.89022">
        <ele>422.93</ele>
        <time>2020-08-11T09:05:43.462Z</time>
      </trkpt>
      <trkpt lat="43.07749" lon="0.88967">
        <ele>425.02</ele>
        <time>2020-08-11T09:06:00.122Z</time>
      </trkpt>
      <trkpt lat="43.0772" lon="0.88933">
        <ele>425.51</ele>
        <time>2020-08-11T09:06:08.837Z</time>
      </trkpt>
      <trkpt lat="43.07676" lon="0.88886">
        <ele>425.41</ele>
        <time>2020-08-11T09:06:19.777Z</time>
      </trkpt>
      <trkpt lat="43.07631" lon="0.88838">
        <ele>426.18</ele>
        <time>2020-08-11T09:06:32.887Z</time>
      </trkpt>
      <trkpt lat="43.07595" lon="0.88786">
        <ele>425.14</ele>
        <time>2020-08-11T09:06:39.880Z</time>
      </trkpt>
      <trkpt lat="43.07566" lon="0.88724">
        <ele>423.77</ele>
        <time>2020-08-11T09:06:46.622Z</time>
      </trkpt>
      <trkpt lat="43.07536" lon="0.88661">
        <ele>424.11</ele>
        <time>2020-08-11T09:06:58.351Z</time>
      </trkpt>
      <trkpt lat="43.07526" lon="0.88632">
        <ele>425</ele>
        <time>2020-08-11T09:07:05.587Z</time>
      </trkpt>
      <trkpt lat="43.07516" lon="0.88566">
        <ele>426.92</ele>
        <time>2020-08-11T09:07:21.014Z</time>
      </trkpt>
      <trkpt lat="43.07513" lon="0.88528">
        <ele>426.96</ele>
        <time>2020-08-11T09:07:26.712Z</time>
      </trkpt>
      <trkpt lat="43.07515" lon="0.88459">
        <ele>430.95</ele>
        <time>2020-08-11T09:07:48.661Z</time>
      </trkpt>
      <trkpt lat="43.07525" lon="0.88386">
        <ele>434.01</ele>
        <time>2020-08-11T09:08:08.604Z</time>
      </trkpt>
      <trkpt lat="43.07534" lon="0.88312">
        <ele>434.75</ele>
        <time>2020-08-11T09:08:21.199Z</time>
      </trkpt>
      <trkpt lat="43.07535" lon="0.88225">
        <ele>434.95</ele>
        <time>2020-08-11T09:08:34.380Z</time>
      </trkpt>
      <trkpt lat="43.07538" lon="0.88152">
        <ele>435.51</ele>
        <time>2020-08-11T09:08:46.279Z</time>
      </trkpt>
      <trkpt lat="43.0754" lon="0.88078">
        <ele>437.42</ele>
        <time>2020-08-11T09:09:02.382Z</time>
      </trkpt>
      <trkpt lat="43.07538" lon="0.8803">
        <ele>438.01</ele>
        <time>2020-08-11T09:09:10.741Z</time>
      </trkpt>
      <trkpt lat="43.07529" lon="0.88001">
        <ele>437.84</ele>
        <time>2020-08-11T09:09:14.345Z</time>
      </trkpt>
      <trkpt lat="43.07509" lon="0.87968">
        <ele>437.7</ele>
        <time>2020-08-11T09:09:20.249Z</time>
      </trkpt>
      <trkpt lat="43.07474" lon="0.87933">
        <ele>436.53</ele>
        <time>2020-08-11T09:09:25.594Z</time>
      </trkpt>
      <trkpt lat="43.07446" lon="0.87911">
        <ele>432.81</ele>
        <time>2020-08-11T09:09:28.633Z</time>
      </trkpt>
      <trkpt lat="43.07422" lon="0.87896">
        <ele>432.81</ele>
        <time>2020-08-11T09:09:33.947Z</time>
      </trkpt>
      <trkpt lat="43.07406" lon="0.87881">
        <ele>432.23</ele>
        <time>2020-08-11T09:09:36.265Z</time>
      </trkpt>
      <trkpt lat="43.07393" lon="0.87858">
        <ele>430.51</ele>
        <time>2020-08-11T09:09:38.264Z</time>
      </trkpt>
      <trkpt lat="43.0738" lon="0.87807">
        <ele>428.74</ele>
        <time>2020-08-11T09:09:42.340Z</time>
      </trkpt>
      <trkpt lat="43.07364" lon="0.87732">
        <ele>427.63</ele>
        <time>2020-08-11T09:09:50.005Z</time>
      </trkpt>
      <trkpt lat="43.07357" lon="0.87672">
        <ele>427.28</ele>
        <time>2020-08-11T09:09:56.908Z</time>
      </trkpt>
      <trkpt lat="43.07351" lon="0.87597">
        <ele>427.17</ele>
        <time>2020-08-11T09:10:07.679Z</time>
      </trkpt>
      <trkpt lat="43.07336" lon="0.87476">
        <ele>433.56</ele>
        <time>2020-08-11T09:10:44.366Z</time>
      </trkpt>
      <trkpt lat="43.07318" lon="0.87384">
        <ele>437.62</ele>
        <time>2020-08-11T09:11:10.286Z</time>
      </trkpt>
      <trkpt lat="43.07299" lon="0.87292">
        <ele>440.59</ele>
        <time>2020-08-11T09:11:33.328Z</time>
      </trkpt>
      <trkpt lat="43.07282" lon="0.87174">
        <ele>442.2</ele>
        <time>2020-08-11T09:11:54.592Z</time>
      </trkpt>
      <trkpt lat="43.07265" lon="0.87056">
        <ele>444.16</ele>
        <time>2020-08-11T09:12:16.832Z</time>
      </trkpt>
      <trkpt lat="43.07258" lon="0.8699">
        <ele>444.13</ele>
        <time>2020-08-11T09:12:26.552Z</time>
      </trkpt>
      <trkpt lat="43.07251" lon="0.86924">
        <ele>443.2</ele>
        <time>2020-08-11T09:12:33.123Z</time>
      </trkpt>
      <trkpt lat="43.07241" lon="0.86839">
        <ele>442.3</ele>
        <time>2020-08-11T09:12:42.114Z</time>
      </trkpt>
      <trkpt lat="43.0723" lon="0.86753">
        <ele>441.7</ele>
        <time>2020-08-11T09:12:51.831Z</time>
      </trkpt>
      <trkpt lat="43.0722" lon="0.86668">
        <ele>439.38</ele>
        <time>2020-08-11T09:12:58.835Z</time>
      </trkpt>
      <trkpt lat="43.07219" lon="0.86602">
        <ele>437.34</ele>
        <time>2020-08-11T09:13:03.935Z</time>
      </trkpt>
      <trkpt lat="43.07218" lon="0.86536">
        <ele>436.46</ele>
        <time>2020-08-11T09:13:10.504Z</time>
      </trkpt>
      <trkpt lat="43.07208" lon="0.86476">
        <ele>436.21</ele>
        <time>2020-08-11T09:13:18.848Z</time>
      </trkpt>
      <trkpt lat="43.07163" lon="0.86381">
        <ele>437.43</ele>
        <time>2020-08-11T09:13:38.108Z</time>
      </trkpt>
      <trkpt lat="43.07139" lon="0.86307">
        <ele>439.02</ele>
        <time>2020-08-11T09:13:53.912Z</time>
      </trkpt>
      <trkpt lat="43.07114" lon="0.86233">
        <ele>440.13</ele>
        <time>2020-08-11T09:14:08.377Z</time>
      </trkpt>
      <trkpt lat="43.07101" lon="0.86186">
        <ele>439.17</ele>
        <time>2020-08-11T09:14:12.946Z</time>
      </trkpt>
      <trkpt lat="43.07075" lon="0.86124">
        <ele>436.93</ele>
        <time>2020-08-11T09:14:18.439Z</time>
      </trkpt>
      <trkpt lat="43.07048" lon="0.86062">
        <ele>435.98</ele>
        <time>2020-08-11T09:14:25.642Z</time>
      </trkpt>
      <trkpt lat="43.07028" lon="0.8601">
        <ele>435.5</ele>
        <time>2020-08-11T09:14:32.031Z</time>
      </trkpt>
      <trkpt lat="43.07027" lon="0.86008">
        <ele>435.48</ele>
        <time>2020-08-11T09:14:32.294Z</time>
      </trkpt>
      <trkpt lat="43.07021" lon="0.8599">
        <ele>435.27</ele>
        <time>2020-08-11T09:14:34.355Z</time>
      </trkpt>
      <trkpt lat="43.07002" lon="0.85953">
        <ele>434.44</ele>
        <time>2020-08-11T09:14:38.513Z</time>
      </trkpt>
      <trkpt lat="43.06987" lon="0.85917">
        <ele>433.69</ele>
        <time>2020-08-11T09:14:42.339Z</time>
      </trkpt>
      <trkpt lat="43.06955" lon="0.85874">
        <ele>430.67</ele>
        <time>2020-08-11T09:14:46.559Z</time>
      </trkpt>
      <trkpt lat="43.06922" lon="0.85831">
        <ele>427.47</ele>
        <time>2020-08-11T09:14:50.848Z</time>
      </trkpt>
      <trkpt lat="43.06906" lon="0.85792">
        <ele>425.27</ele>
        <time>2020-08-11T09:14:53.924Z</time>
      </trkpt>
      <trkpt lat="43.06881" lon="0.85704">
        <ele>420.84</ele>
        <time>2020-08-11T09:14:59.984Z</time>
      </trkpt>
      <trkpt lat="43.06873" lon="0.85667">
        <ele>420.48</ele>
        <time>2020-08-11T09:15:04.093Z</time>
      </trkpt>
      <trkpt lat="43.06868" lon="0.85586">
        <ele>419.93</ele>
        <time>2020-08-11T09:15:13.158Z</time>
      </trkpt>
      <trkpt lat="43.06865" lon="0.85512">
        <ele>419.88</ele>
        <time>2020-08-11T09:15:23.911Z</time>
      </trkpt>
      <trkpt lat="43.06862" lon="0.85438">
        <ele>421.02</ele>
        <time>2020-08-11T09:15:37.421Z</time>
      </trkpt>
      <trkpt lat="43.06856" lon="0.85377">
        <ele>420.95</ele>
        <time>2020-08-11T09:15:46.267Z</time>
      </trkpt>
      <trkpt lat="43.06849" lon="0.85316">
        <ele>420.27</ele>
        <time>2020-08-11T09:15:52.654Z</time>
      </trkpt>
      <trkpt lat="43.06829" lon="0.85218">
        <ele>420.31</ele>
        <time>2020-08-11T09:16:07.700Z</time>
      </trkpt>
      <trkpt lat="43.06807" lon="0.85149">
        <ele>421.42</ele>
        <time>2020-08-11T09:16:21.289Z</time>
      </trkpt>
      <trkpt lat="43.0678" lon="0.85071">
        <ele>423.45</ele>
        <time>2020-08-11T09:16:39.300Z</time>
      </trkpt>
      <trkpt lat="43.06753" lon="0.84994">
        <ele>426.37</ele>
        <time>2020-08-11T09:17:00.823Z</time>
      </trkpt>
      <trkpt lat="43.06726" lon="0.84916">
        <ele>429.19</ele>
        <time>2020-08-11T09:17:22.287Z</time>
      </trkpt>
      <trkpt lat="43.06684" lon="0.84839">
        <ele>429.79</ele>
        <time>2020-08-11T09:17:37.627Z</time>
      </trkpt>
      <trkpt lat="43.06645" lon="0.84739">
        <ele>430.96</ele>
        <time>2020-08-11T09:17:56.786Z</time>
      </trkpt>
      <trkpt lat="43.06606" lon="0.84638">
        <ele>434.87</ele>
        <time>2020-08-11T09:18:25.583Z</time>
      </trkpt>
      <trkpt lat="43.06567" lon="0.84543">
        <ele>436.55</ele>
        <time>2020-08-11T09:18:45.459Z</time>
      </trkpt>
      <trkpt lat="43.06527" lon="0.84448">
        <ele>437.06</ele>
        <time>2020-08-11T09:19:02.592Z</time>
      </trkpt>
      <trkpt lat="43.06517" lon="0.84429">
        <ele>436.92</ele>
        <time>2020-08-11T09:19:05.242Z</time>
      </trkpt>
      <trkpt lat="43.06494" lon="0.84397">
        <ele>435.78</ele>
        <time>2020-08-11T09:19:08.972Z</time>
      </trkpt>
      <trkpt lat="43.06479" lon="0.84383">
        <ele>434.52</ele>
        <time>2020-08-11T09:19:10.681Z</time>
      </trkpt>
      <trkpt lat="43.06484" lon="0.84358">
        <ele>433.94</ele>
        <time>2020-08-11T09:19:12.928Z</time>
      </trkpt>
      <trkpt lat="43.06475" lon="0.84282">
        <ele>433.22</ele>
        <time>2020-08-11T09:19:21.125Z</time>
      </trkpt>
      <trkpt lat="43.06471" lon="0.84163">
        <ele>433.24</ele>
        <time>2020-08-11T09:19:38.691Z</time>
      </trkpt>
      <trkpt lat="43.06466" lon="0.84044">
        <ele>433.35</ele>
        <time>2020-08-11T09:19:56.435Z</time>
      </trkpt>
      <trkpt lat="43.06469" lon="0.83955">
        <ele>433.07</ele>
        <time>2020-08-11T09:20:08.734Z</time>
      </trkpt>
      <trkpt lat="43.06472" lon="0.83865">
        <ele>431.85</ele>
        <time>2020-08-11T09:20:17.670Z</time>
      </trkpt>
      <trkpt lat="43.06465" lon="0.83758">
        <ele>427.78</ele>
        <time>2020-08-11T09:20:25.294Z</time>
      </trkpt>
      <trkpt lat="43.06462" lon="0.8365">
        <ele>422.94</ele>
        <time>2020-08-11T09:20:32.391Z</time>
      </trkpt>
      <trkpt lat="43.06468" lon="0.83555">
        <ele>416.25</ele>
        <time>2020-08-11T09:20:38.949Z</time>
      </trkpt>
      <trkpt lat="43.06482" lon="0.83493">
        <ele>410.66</ele>
        <time>2020-08-11T09:20:43.412Z</time>
      </trkpt>
      <trkpt lat="43.06495" lon="0.8343">
        <ele>405.69</ele>
        <time>2020-08-11T09:20:47.913Z</time>
      </trkpt>
      <trkpt lat="43.06496" lon="0.83382">
        <ele>403.28</ele>
        <time>2020-08-11T09:20:51.216Z</time>
      </trkpt>
      <trkpt lat="43.06489" lon="0.83331">
        <ele>399.8</ele>
        <time>2020-08-11T09:20:54.784Z</time>
      </trkpt>
      <trkpt lat="43.06499" lon="0.83276">
        <ele>396.23</ele>
        <time>2020-08-11T09:20:58.682Z</time>
      </trkpt>
      <trkpt lat="43.06503" lon="0.83239">
        <ele>394.36</ele>
        <time>2020-08-11T09:21:01.254Z</time>
      </trkpt>
      <trkpt lat="43.06505" lon="0.83181">
        <ele>392.06</ele>
        <time>2020-08-11T09:21:05.293Z</time>
      </trkpt>
      <trkpt lat="43.06502" lon="0.83162">
        <ele>391.36</ele>
        <time>2020-08-11T09:21:06.703Z</time>
      </trkpt>
      <trkpt lat="43.06492" lon="0.83145">
        <ele>390.28</ele>
        <time>2020-08-11T09:21:08.204Z</time>
      </trkpt>
      <trkpt lat="43.06447" lon="0.83102">
        <ele>389.41</ele>
        <time>2020-08-11T09:21:15.901Z</time>
      </trkpt>
      <trkpt lat="43.06408" lon="0.83037">
        <ele>390.12</ele>
        <time>2020-08-11T09:21:29.743Z</time>
      </trkpt>
      <trkpt lat="43.06367" lon="0.82981">
        <ele>393.41</ele>
        <time>2020-08-11T09:21:51.092Z</time>
      </trkpt>
      <trkpt lat="43.06335" lon="0.82929">
        <ele>394.08</ele>
        <time>2020-08-11T09:22:02.507Z</time>
      </trkpt>
      <trkpt lat="43.06297" lon="0.82859">
        <ele>390.99</ele>
        <time>2020-08-11T09:22:08.878Z</time>
      </trkpt>
      <trkpt lat="43.0626" lon="0.82802">
        <ele>388.47</ele>
        <time>2020-08-11T09:22:14.614Z</time>
      </trkpt>
      <trkpt lat="43.06246" lon="0.82771">
        <ele>387.65</ele>
        <time>2020-08-11T09:22:17.767Z</time>
      </trkpt>
      <trkpt lat="43.06237" lon="0.82741">
        <ele>386.23</ele>
        <time>2020-08-11T09:22:19.920Z</time>
      </trkpt>
      <trkpt lat="43.06232" lon="0.82711">
        <ele>384.88</ele>
        <time>2020-08-11T09:22:21.961Z</time>
      </trkpt>
      <trkpt lat="43.06228" lon="0.82657">
        <ele>384.01</ele>
        <time>2020-08-11T09:22:27.135Z</time>
      </trkpt>
      <trkpt lat="43.06235" lon="0.82615">
        <ele>383.73</ele>
        <time>2020-08-11T09:22:31.963Z</time>
      </trkpt>
      <trkpt lat="43.06236" lon="0.82569">
        <ele>383.67</ele>
        <time>2020-08-11T09:22:38.554Z</time>
      </trkpt>
      <trkpt lat="43.06232" lon="0.82509">
        <ele>383.52</ele>
        <time>2020-08-11T09:22:46.980Z</time>
      </trkpt>
      <trkpt lat="43.06234" lon="0.8245">
        <ele>383.51</ele>
        <time>2020-08-11T09:22:55.641Z</time>
      </trkpt>
      <trkpt lat="43.06248" lon="0.82384">
        <ele>381.94</ele>
        <time>2020-08-11T09:23:01.558Z</time>
      </trkpt>
      <trkpt lat="43.06268" lon="0.82305">
        <ele>379.71</ele>
        <time>2020-08-11T09:23:08.387Z</time>
      </trkpt>
      <trkpt lat="43.06286" lon="0.82205">
        <ele>372.08</ele>
        <time>2020-08-11T09:23:15.469Z</time>
      </trkpt>
      <trkpt lat="43.0629" lon="0.82145">
        <ele>369.23</ele>
        <time>2020-08-11T09:23:19.321Z</time>
      </trkpt>
      <trkpt lat="43.06278" lon="0.82109">
        <ele>368.58</ele>
        <time>2020-08-11T09:23:23.069Z</time>
      </trkpt>
      <trkpt lat="43.06265" lon="0.82075">
        <ele>368.59</ele>
        <time>2020-08-11T09:23:28.735Z</time>
      </trkpt>
      <trkpt lat="43.06243" lon="0.82042">
        <ele>368.59</ele>
        <time>2020-08-11T09:23:35.308Z</time>
      </trkpt>
      <trkpt lat="43.0618" lon="0.81984">
        <ele>369.57</ele>
        <time>2020-08-11T09:23:52.651Z</time>
      </trkpt>
      <trkpt lat="43.06116" lon="0.81925">
        <ele>371.88</ele>
        <time>2020-08-11T09:24:14.063Z</time>
      </trkpt>
      <trkpt lat="43.0609" lon="0.81884">
        <ele>373.77</ele>
        <time>2020-08-11T09:24:27.820Z</time>
      </trkpt>
      <trkpt lat="43.06074" lon="0.81809">
        <ele>375.48</ele>
        <time>2020-08-11T09:24:43.665Z</time>
      </trkpt>
      <trkpt lat="43.06046" lon="0.81713">
        <ele>377.67</ele>
        <time>2020-08-11T09:25:04.378Z</time>
      </trkpt>
      <trkpt lat="43.06017" lon="0.81617">
        <ele>380.19</ele>
        <time>2020-08-11T09:25:26.345Z</time>
      </trkpt>
      <trkpt lat="43.05995" lon="0.81553">
        <ele>381.46</ele>
        <time>2020-08-11T09:25:39.777Z</time>
      </trkpt>
      <trkpt lat="43.05978" lon="0.81478">
        <ele>384.85</ele>
        <time>2020-08-11T09:26:01.261Z</time>
      </trkpt>
      <trkpt lat="43.0596" lon="0.81403">
        <ele>390.03</ele>
        <time>2020-08-11T09:26:28.742Z</time>
      </trkpt>
      <trkpt lat="43.0594" lon="0.81307">
        <ele>394.05</ele>
        <time>2020-08-11T09:26:55.319Z</time>
      </trkpt>
      <trkpt lat="43.05919" lon="0.81211">
        <ele>399.67</ele>
        <time>2020-08-11T09:27:26.586Z</time>
      </trkpt>
      <trkpt lat="43.05907" lon="0.81163">
        <ele>401.8</ele>
        <time>2020-08-11T09:27:40.311Z</time>
      </trkpt>
      <trkpt lat="43.05907" lon="0.81094">
        <ele>405.1</ele>
        <time>2020-08-11T09:28:00.067Z</time>
      </trkpt>
      <trkpt lat="43.05916" lon="0.81025">
        <ele>409.86</ele>
        <time>2020-08-11T09:28:25.164Z</time>
      </trkpt>
      <trkpt lat="43.05922" lon="0.80954">
        <ele>412.35</ele>
        <time>2020-08-11T09:28:43.280Z</time>
      </trkpt>
      <trkpt lat="43.05935" lon="0.80905">
        <ele>413.75</ele>
        <time>2020-08-11T09:28:54.845Z</time>
      </trkpt>
      <trkpt lat="43.05958" lon="0.80865">
        <ele>416.96</ele>
        <time>2020-08-11T09:29:12.032Z</time>
      </trkpt>
      <trkpt lat="43.05974" lon="0.80829">
        <ele>419.19</ele>
        <time>2020-08-11T09:29:24.742Z</time>
      </trkpt>
      <trkpt lat="43.05991" lon="0.80777">
        <ele>421.91</ele>
        <time>2020-08-11T09:29:41.040Z</time>
      </trkpt>
      <trkpt lat="43.05987" lon="0.8075">
        <ele>421.91</ele>
        <time>2020-08-11T09:29:45.094Z</time>
      </trkpt>
      <trkpt lat="43.05953" lon="0.80664">
        <ele>422.8</ele>
        <time>2020-08-11T09:30:01.336Z</time>
      </trkpt>
      <trkpt lat="43.05919" lon="0.80577">
        <ele>422.16</ele>
        <time>2020-08-11T09:30:12.398Z</time>
      </trkpt>
      <trkpt lat="43.05881" lon="0.80486">
        <ele>421.74</ele>
        <time>2020-08-11T09:30:26.626Z</time>
      </trkpt>
      <trkpt lat="43.05843" lon="0.80395">
        <ele>422.31</ele>
        <time>2020-08-11T09:30:43.179Z</time>
      </trkpt>
      <trkpt lat="43.05804" lon="0.80303">
        <ele>423.49</ele>
        <time>2020-08-11T09:31:01.360Z</time>
      </trkpt>
      <trkpt lat="43.05766" lon="0.80212">
        <ele>426</ele>
        <time>2020-08-11T09:31:23.401Z</time>
      </trkpt>
      <trkpt lat="43.05747" lon="0.80157">
        <ele>426.98</ele>
        <time>2020-08-11T09:31:34.619Z</time>
      </trkpt>
      <trkpt lat="43.05708" lon="0.80087">
        <ele>424.85</ele>
        <time>2020-08-11T09:31:42.057Z</time>
      </trkpt>
      <trkpt lat="43.05668" lon="0.80016">
        <ele>421.44</ele>
        <time>2020-08-11T09:31:48.410Z</time>
      </trkpt>
      <trkpt lat="43.05628" lon="0.79948">
        <ele>418.97</ele>
        <time>2020-08-11T09:31:55.388Z</time>
      </trkpt>
      <trkpt lat="43.05587" lon="0.79879">
        <ele>418.82</ele>
        <time>2020-08-11T09:32:08.029Z</time>
      </trkpt>
      <trkpt lat="43.05529" lon="0.79792">
        <ele>420.69</ele>
        <time>2020-08-11T09:32:29.668Z</time>
      </trkpt>
      <trkpt lat="43.05471" lon="0.79705">
        <ele>420.89</ele>
        <time>2020-08-11T09:32:47.377Z</time>
      </trkpt>
      <trkpt lat="43.05421" lon="0.79622">
        <ele>421.06</ele>
        <time>2020-08-11T09:33:03.528Z</time>
      </trkpt>
      <trkpt lat="43.0537" lon="0.79539">
        <ele>421.94</ele>
        <time>2020-08-11T09:33:21.295Z</time>
      </trkpt>
      <trkpt lat="43.05327" lon="0.79485">
        <ele>422.06</ele>
        <time>2020-08-11T09:33:33.275Z</time>
      </trkpt>
      <trkpt lat="43.05284" lon="0.79431">
        <ele>421.71</ele>
        <time>2020-08-11T09:33:44.040Z</time>
      </trkpt>
      <trkpt lat="43.05239" lon="0.79359">
        <ele>420.54</ele>
        <time>2020-08-11T09:33:53.626Z</time>
      </trkpt>
      <trkpt lat="43.05202" lon="0.79284">
        <ele>420.26</ele>
        <time>2020-08-11T09:34:06.133Z</time>
      </trkpt>
      <trkpt lat="43.0516" lon="0.79185">
        <ele>421.24</ele>
        <time>2020-08-11T09:34:25.006Z</time>
      </trkpt>
      <trkpt lat="43.05118" lon="0.79085">
        <ele>423.82</ele>
        <time>2020-08-11T09:34:48.595Z</time>
      </trkpt>
      <trkpt lat="43.05087" lon="0.79003">
        <ele>424.37</ele>
        <time>2020-08-11T09:35:03.280Z</time>
      </trkpt>
      <trkpt lat="43.05055" lon="0.78921">
        <ele>425.38</ele>
        <time>2020-08-11T09:35:19.119Z</time>
      </trkpt>
      <trkpt lat="43.05031" lon="0.78846">
        <ele>421.72</ele>
        <time>2020-08-11T09:35:24.502Z</time>
      </trkpt>
      <trkpt lat="43.05006" lon="0.7877">
        <ele>421.9</ele>
        <time>2020-08-11T09:35:37.110Z</time>
      </trkpt>
      <trkpt lat="43.04992" lon="0.78698">
        <ele>422.22</ele>
        <time>2020-08-11T09:35:48.700Z</time>
      </trkpt>
      <trkpt lat="43.04978" lon="0.78625">
        <ele>422.03</ele>
        <time>2020-08-11T09:35:59.251Z</time>
      </trkpt>
      <trkpt lat="43.04972" lon="0.78564">
        <ele>421.38</ele>
        <time>2020-08-11T09:36:05.670Z</time>
      </trkpt>
      <trkpt lat="43.04965" lon="0.78503">
        <ele>420.85</ele>
        <time>2020-08-11T09:36:12.336Z</time>
      </trkpt>
      <trkpt lat="43.04956" lon="0.78399">
        <ele>420.02</ele>
        <time>2020-08-11T09:36:23.775Z</time>
      </trkpt>
      <trkpt lat="43.04953" lon="0.78343">
        <ele>419.11</ele>
        <time>2020-08-11T09:36:29.113Z</time>
      </trkpt>
      <trkpt lat="43.04963" lon="0.7833">
        <ele>418.64</ele>
        <time>2020-08-11T09:36:30.693Z</time>
      </trkpt>
      <trkpt lat="43.04993" lon="0.78306">
        <ele>416.16</ele>
        <time>2020-08-11T09:36:33.964Z</time>
      </trkpt>
      <trkpt lat="43.05004" lon="0.78293">
        <ele>414.51</ele>
        <time>2020-08-11T09:36:35.332Z</time>
      </trkpt>
      <trkpt lat="43.05012" lon="0.7827">
        <ele>411.86</ele>
        <time>2020-08-11T09:36:37.084Z</time>
      </trkpt>
      <trkpt lat="43.05015" lon="0.78247">
        <ele>410</ele>
        <time>2020-08-11T09:36:38.691Z</time>
      </trkpt>
      <trkpt lat="43.05006" lon="0.78225">
        <ele>408.91</ele>
        <time>2020-08-11T09:36:40.376Z</time>
      </trkpt>
      <trkpt lat="43.04993" lon="0.78204">
        <ele>407.73</ele>
        <time>2020-08-11T09:36:42.222Z</time>
      </trkpt>
      <trkpt lat="43.04964" lon="0.78174">
        <ele>404.78</ele>
        <time>2020-08-11T09:36:45.644Z</time>
      </trkpt>
      <trkpt lat="43.04935" lon="0.7815">
        <ele>403.86</ele>
        <time>2020-08-11T09:36:49.816Z</time>
      </trkpt>
      <trkpt lat="43.04911" lon="0.78128">
        <ele>401.81</ele>
        <time>2020-08-11T09:36:52.535Z</time>
      </trkpt>
      <trkpt lat="43.04888" lon="0.78111">
        <ele>398.38</ele>
        <time>2020-08-11T09:36:54.996Z</time>
      </trkpt>
      <trkpt lat="43.04867" lon="0.78103">
        <ele>397.96</ele>
        <time>2020-08-11T09:36:57.930Z</time>
      </trkpt>
      <trkpt lat="43.0482" lon="0.78092">
        <ele>395.85</ele>
        <time>2020-08-11T09:37:02.883Z</time>
      </trkpt>
      <trkpt lat="43.04812" lon="0.78089">
        <ele>395.85</ele>
        <time>2020-08-11T09:37:04.554Z</time>
      </trkpt>
      <trkpt lat="43.04803" lon="0.78082">
        <ele>394.11</ele>
        <time>2020-08-11T09:37:05.528Z</time>
      </trkpt>
      <trkpt lat="43.04787" lon="0.78061">
        <ele>394.11</ele>
        <time>2020-08-11T09:37:09.993Z</time>
      </trkpt>
      <trkpt lat="43.04764" lon="0.78049">
        <ele>392.66</ele>
        <time>2020-08-11T09:37:12.248Z</time>
      </trkpt>
      <trkpt lat="43.04755" lon="0.77983">
        <ele>388.76</ele>
        <time>2020-08-11T09:37:16.867Z</time>
      </trkpt>
      <trkpt lat="43.04746" lon="0.77917">
        <ele>388.94</ele>
        <time>2020-08-11T09:37:27.092Z</time>
      </trkpt>
      <trkpt lat="43.04747" lon="0.77844">
        <ele>388.9</ele>
        <time>2020-08-11T09:37:37.717Z</time>
      </trkpt>
      <trkpt lat="43.04747" lon="0.77771">
        <ele>389.04</ele>
        <time>2020-08-11T09:37:48.726Z</time>
      </trkpt>
      <trkpt lat="43.04741" lon="0.77725">
        <ele>389.28</ele>
        <time>2020-08-11T09:37:56.077Z</time>
      </trkpt>
      <trkpt lat="43.04741" lon="0.77706">
        <ele>389.4</ele>
        <time>2020-08-11T09:37:59.114Z</time>
      </trkpt>
      <trkpt lat="43.04745" lon="0.77689">
        <ele>389.25</ele>
        <time>2020-08-11T09:38:01.048Z</time>
      </trkpt>
      <trkpt lat="43.0475" lon="0.77682">
        <ele>389.39</ele>
        <time>2020-08-11T09:38:02.803Z</time>
      </trkpt>
      <trkpt lat="43.04751" lon="0.77672">
        <ele>389.39</ele>
        <time>2020-08-11T09:38:04.289Z</time>
      </trkpt>
      <trkpt lat="43.04748" lon="0.77661">
        <ele>389.68</ele>
        <time>2020-08-11T09:38:06.792Z</time>
      </trkpt>
      <trkpt lat="43.04733" lon="0.77649">
        <ele>389.68</ele>
        <time>2020-08-11T09:38:10.292Z</time>
      </trkpt>
      <trkpt lat="43.04725" lon="0.77622">
        <ele>389.74</ele>
        <time>2020-08-11T09:38:14.693Z</time>
      </trkpt>
      <trkpt lat="43.04712" lon="0.77511">
        <ele>390.19</ele>
        <time>2020-08-11T09:38:32.114Z</time>
      </trkpt>
      <trkpt lat="43.04712" lon="0.77486">
        <ele>390.19</ele>
        <time>2020-08-11T09:38:35.793Z</time>
      </trkpt>
      <trkpt lat="43.04717" lon="0.77443">
        <ele>390.26</ele>
        <time>2020-08-11T09:38:42.334Z</time>
      </trkpt>
      <trkpt lat="43.0473" lon="0.77394">
        <ele>389.99</ele>
        <time>2020-08-11T09:38:49.255Z</time>
      </trkpt>
      <trkpt lat="43.0474" lon="0.77334">
        <ele>389.71</ele>
        <time>2020-08-11T09:38:57.524Z</time>
      </trkpt>
      <trkpt lat="43.0475" lon="0.77218">
        <ele>389.28</ele>
        <time>2020-08-11T09:39:13.484Z</time>
      </trkpt>
      <trkpt lat="43.04759" lon="0.77103">
        <ele>389.03</ele>
        <time>2020-08-11T09:39:29.769Z</time>
      </trkpt>
      <trkpt lat="43.04769" lon="0.76987">
        <ele>389.46</ele>
        <time>2020-08-11T09:39:47.793Z</time>
      </trkpt>
      <trkpt lat="43.04774" lon="0.76908">
        <ele>389.89</ele>
        <time>2020-08-11T09:40:00.315Z</time>
      </trkpt>
      <trkpt lat="43.04778" lon="0.76829">
        <ele>390.44</ele>
        <time>2020-08-11T09:40:13.082Z</time>
      </trkpt>
      <trkpt lat="43.04783" lon="0.76782">
        <ele>391.03</ele>
        <time>2020-08-11T09:40:21.362Z</time>
      </trkpt>
      <trkpt lat="43.04788" lon="0.76751">
        <ele>391.34</ele>
        <time>2020-08-11T09:40:26.686Z</time>
      </trkpt>
      <trkpt lat="43.048" lon="0.76713">
        <ele>392.03</ele>
        <time>2020-08-11T09:40:34.388Z</time>
      </trkpt>
      <trkpt lat="43.04833" lon="0.76639">
        <ele>393.19</ele>
        <time>2020-08-11T09:40:49.718Z</time>
      </trkpt>
      <trkpt lat="43.04865" lon="0.76565">
        <ele>393.64</ele>
        <time>2020-08-11T09:41:03.262Z</time>
      </trkpt>
      <trkpt lat="43.04884" lon="0.76513">
        <ele>394.35</ele>
        <time>2020-08-11T09:41:13.366Z</time>
      </trkpt>
      <trkpt lat="43.04914" lon="0.76445">
        <ele>398.14</ele>
        <time>2020-08-11T09:41:36.084Z</time>
      </trkpt>
      <trkpt lat="43.04941" lon="0.76389">
        <ele>402.2</ele>
        <time>2020-08-11T09:41:58.079Z</time>
      </trkpt>
      <trkpt lat="43.04967" lon="0.76333">
        <ele>404.02</ele>
        <time>2020-08-11T09:42:12.961Z</time>
      </trkpt>
      <trkpt lat="43.04981" lon="0.76296">
        <ele>404.49</ele>
        <time>2020-08-11T09:42:20.103Z</time>
      </trkpt>
      <trkpt lat="43.04989" lon="0.76269">
        <ele>404.5</ele>
        <time>2020-08-11T09:42:24.410Z</time>
      </trkpt>
      <trkpt lat="43.04997" lon="0.76174">
        <ele>403.96</ele>
        <time>2020-08-11T09:42:35.301Z</time>
      </trkpt>
      <trkpt lat="43.05004" lon="0.76078">
        <ele>403.48</ele>
        <time>2020-08-11T09:42:48.159Z</time>
      </trkpt>
      <trkpt lat="43.05013" lon="0.76002">
        <ele>401.96</ele>
        <time>2020-08-11T09:42:55.096Z</time>
      </trkpt>
      <trkpt lat="43.05021" lon="0.75926">
        <ele>400.8</ele>
        <time>2020-08-11T09:43:02.524Z</time>
      </trkpt>
      <trkpt lat="43.05024" lon="0.75829">
        <ele>398.63</ele>
        <time>2020-08-11T09:43:10.944Z</time>
      </trkpt>
      <trkpt lat="43.05026" lon="0.75731">
        <ele>394.46</ele>
        <time>2020-08-11T09:43:17.545Z</time>
      </trkpt>
      <trkpt lat="43.05044" lon="0.75651">
        <ele>392.06</ele>
        <time>2020-08-11T09:43:24.204Z</time>
      </trkpt>
      <trkpt lat="43.05062" lon="0.75571">
        <ele>391.27</ele>
        <time>2020-08-11T09:43:33.106Z</time>
      </trkpt>
      <trkpt lat="43.05061" lon="0.75471">
        <ele>390.24</ele>
        <time>2020-08-11T09:43:43.582Z</time>
      </trkpt>
      <trkpt lat="43.0506" lon="0.75371">
        <ele>388.55</ele>
        <time>2020-08-11T09:43:52.989Z</time>
      </trkpt>
      <trkpt lat="43.0507" lon="0.75271">
        <ele>387.51</ele>
        <time>2020-08-11T09:44:03.561Z</time>
      </trkpt>
      <trkpt lat="43.0508" lon="0.7517">
        <ele>386.86</ele>
        <time>2020-08-11T09:44:15.013Z</time>
      </trkpt>
      <trkpt lat="43.05083" lon="0.75073">
        <ele>386.27</ele>
        <time>2020-08-11T09:44:25.982Z</time>
      </trkpt>
      <trkpt lat="43.05085" lon="0.74976">
        <ele>386.08</ele>
        <time>2020-08-11T09:44:39.700Z</time>
      </trkpt>
      <trkpt lat="43.05086" lon="0.74896">
        <ele>386.13</ele>
        <time>2020-08-11T09:44:51.569Z</time>
      </trkpt>
      <trkpt lat="43.05086" lon="0.74815">
        <ele>385.31</ele>
        <time>2020-08-11T09:45:00.080Z</time>
      </trkpt>
      <trkpt lat="43.05082" lon="0.74772">
        <ele>384.89</ele>
        <time>2020-08-11T09:45:04.669Z</time>
      </trkpt>
      <trkpt lat="43.05063" lon="0.74662">
        <ele>384.02</ele>
        <time>2020-08-11T09:45:17.067Z</time>
      </trkpt>
      <trkpt lat="43.05037" lon="0.74572">
        <ele>382.78</ele>
        <time>2020-08-11T09:45:26.784Z</time>
      </trkpt>
      <trkpt lat="43.0501" lon="0.74481">
        <ele>381.23</ele>
        <time>2020-08-11T09:45:36.184Z</time>
      </trkpt>
      <trkpt lat="43.05003" lon="0.74463">
        <ele>380.78</ele>
        <time>2020-08-11T09:45:37.959Z</time>
      </trkpt>
      <trkpt lat="43.04973" lon="0.74409">
        <ele>380.82</ele>
        <time>2020-08-11T09:45:48.017Z</time>
      </trkpt>
      <trkpt lat="43.04947" lon="0.74375">
        <ele>381.08</ele>
        <time>2020-08-11T09:45:55.774Z</time>
      </trkpt>
      <trkpt lat="43.04915" lon="0.74345">
        <ele>381.43</ele>
        <time>2020-08-11T09:46:04.290Z</time>
      </trkpt>
      <trkpt lat="43.04873" lon="0.7431">
        <ele>381.24</ele>
        <time>2020-08-11T09:46:13.641Z</time>
      </trkpt>
      <trkpt lat="43.04856" lon="0.74287">
        <ele>381.48</ele>
        <time>2020-08-11T09:46:18.944Z</time>
      </trkpt>
      <trkpt lat="43.04854" lon="0.74277">
        <ele>380.61</ele>
        <time>2020-08-11T09:46:19.657Z</time>
      </trkpt>
      <trkpt lat="43.04854" lon="0.74259">
        <ele>380.19</ele>
        <time>2020-08-11T09:46:21.196Z</time>
      </trkpt>
      <trkpt lat="43.04864" lon="0.74219">
        <ele>379.36</ele>
        <time>2020-08-11T09:46:25.011Z</time>
      </trkpt>
      <trkpt lat="43.04878" lon="0.74177">
        <ele>378.96</ele>
        <time>2020-08-11T09:46:29.988Z</time>
      </trkpt>
      <trkpt lat="43.04891" lon="0.74116">
        <ele>378.66</ele>
        <time>2020-08-11T09:46:38.497Z</time>
      </trkpt>
      <trkpt lat="43.04903" lon="0.74055">
        <ele>377.94</ele>
        <time>2020-08-11T09:46:44.992Z</time>
      </trkpt>
      <trkpt lat="43.04907" lon="0.74031">
        <ele>378.82</ele>
        <time>2020-08-11T09:46:51.283Z</time>
      </trkpt>
      <trkpt lat="43.04909" lon="0.73987">
        <ele>380.84</ele>
        <time>2020-08-11T09:47:03.658Z</time>
      </trkpt>
      <trkpt lat="43.04905" lon="0.73886">
        <ele>384.74</ele>
        <time>2020-08-11T09:47:30.169Z</time>
      </trkpt>
      <trkpt lat="43.0487" lon="0.73902">
        <ele>385.55</ele>
        <time>2020-08-11T09:47:39.472Z</time>
      </trkpt>
      <trkpt lat="43.04819" lon="0.73917">
        <ele>385.67</ele>
        <time>2020-08-11T09:47:50.204Z</time>
      </trkpt>
      <trkpt lat="43.04767" lon="0.73932">
        <ele>386.04</ele>
        <time>2020-08-11T09:48:01.637Z</time>
      </trkpt>
      <trkpt lat="43.0473" lon="0.73946">
        <ele>387.51</ele>
        <time>2020-08-11T09:48:13.545Z</time>
      </trkpt>
      <trkpt lat="43.04702" lon="0.73951">
        <ele>388.17</ele>
        <time>2020-08-11T09:48:20.782Z</time>
      </trkpt>
      <trkpt lat="43.04657" lon="0.73953">
        <ele>389.98</ele>
        <time>2020-08-11T09:48:35.135Z</time>
      </trkpt>
      <trkpt lat="43.04583" lon="0.73936">
        <ele>392.79</ele>
        <time>2020-08-11T09:48:58.139Z</time>
      </trkpt>
      <trkpt lat="43.04538" lon="0.7394">
        <ele>393.69</ele>
        <time>2020-08-11T09:49:09.253Z</time>
      </trkpt>
      <trkpt lat="43.04493" lon="0.73944">
        <ele>392.99</ele>
        <time>2020-08-11T09:49:15.603Z</time>
      </trkpt>
      <trkpt lat="43.04474" lon="0.73941">
        <ele>392.99</ele>
        <time>2020-08-11T09:49:19.455Z</time>
      </trkpt>
      <trkpt lat="43.04437" lon="0.73921">
        <ele>394.8</ele>
        <time>2020-08-11T09:49:33.064Z</time>
      </trkpt>
      <trkpt lat="43.04356" lon="0.7387">
        <ele>397.87</ele>
        <time>2020-08-11T09:49:59.295Z</time>
      </trkpt>
      <trkpt lat="43.04275" lon="0.73818">
        <ele>403.36</ele>
        <time>2020-08-11T09:50:33.338Z</time>
      </trkpt>
      <trkpt lat="43.04249" lon="0.73797">
        <ele>405.63</ele>
        <time>2020-08-11T09:50:46.072Z</time>
      </trkpt>
      <trkpt lat="43.04197" lon="0.73731">
        <ele>410.04</ele>
        <time>2020-08-11T09:51:13.217Z</time>
      </trkpt>
      <trkpt lat="43.04145" lon="0.73664">
        <ele>412.41</ele>
        <time>2020-08-11T09:51:33.884Z</time>
      </trkpt>
      <trkpt lat="43.04117" lon="0.73624">
        <ele>413</ele>
        <time>2020-08-11T09:51:43.293Z</time>
      </trkpt>
      <trkpt lat="43.04091" lon="0.73595">
        <ele>414.61</ele>
        <time>2020-08-11T09:51:54.953Z</time>
      </trkpt>
      <trkpt lat="43.04051" lon="0.73566">
        <ele>414.91</ele>
        <time>2020-08-11T09:52:04.660Z</time>
      </trkpt>
      <trkpt lat="43.04007" lon="0.7354">
        <ele>416.58</ele>
        <time>2020-08-11T09:52:18.838Z</time>
      </trkpt>
      <trkpt lat="43.03962" lon="0.73513">
        <ele>419.5</ele>
        <time>2020-08-11T09:52:37.282Z</time>
      </trkpt>
      <trkpt lat="43.0392" lon="0.73475">
        <ele>424.1</ele>
        <time>2020-08-11T09:53:01.605Z</time>
      </trkpt>
      <trkpt lat="43.03877" lon="0.73436">
        <ele>429.2</ele>
        <time>2020-08-11T09:53:28.328Z</time>
      </trkpt>
      <trkpt lat="43.03841" lon="0.73391">
        <ele>432.21</ele>
        <time>2020-08-11T09:53:46.930Z</time>
      </trkpt>
      <trkpt lat="43.03819" lon="0.7335">
        <ele>433.33</ele>
        <time>2020-08-11T09:53:57.271Z</time>
      </trkpt>
      <trkpt lat="43.03808" lon="0.73313">
        <ele>433.71</ele>
        <time>2020-08-11T09:54:03.947Z</time>
      </trkpt>
      <trkpt lat="43.03788" lon="0.73215">
        <ele>431.19</ele>
        <time>2020-08-11T09:54:12.480Z</time>
      </trkpt>
      <trkpt lat="43.03753" lon="0.73168">
        <ele>429.18</ele>
        <time>2020-08-11T09:54:17.731Z</time>
      </trkpt>
      <trkpt lat="43.03729" lon="0.73069">
        <ele>429.55</ele>
        <time>2020-08-11T09:54:33.800Z</time>
      </trkpt>
      <trkpt lat="43.03723" lon="0.7303">
        <ele>429.62</ele>
        <time>2020-08-11T09:54:39.799Z</time>
      </trkpt>
      <trkpt lat="43.03719" lon="0.72972">
        <ele>429.12</ele>
        <time>2020-08-11T09:54:46.090Z</time>
      </trkpt>
      <trkpt lat="43.0371" lon="0.72935">
        <ele>426.84</ele>
        <time>2020-08-11T09:54:48.773Z</time>
      </trkpt>
      <trkpt lat="43.03699" lon="0.72912">
        <ele>424.06</ele>
        <time>2020-08-11T09:54:50.664Z</time>
      </trkpt>
      <trkpt lat="43.03684" lon="0.72896">
        <ele>422.48</ele>
        <time>2020-08-11T09:54:52.454Z</time>
      </trkpt>
      <trkpt lat="43.03653" lon="0.72852">
        <ele>418.97</ele>
        <time>2020-08-11T09:54:56.659Z</time>
      </trkpt>
      <trkpt lat="43.03621" lon="0.72828">
        <ele>417.31</ele>
        <time>2020-08-11T09:55:00.407Z</time>
      </trkpt>
      <trkpt lat="43.03598" lon="0.72803">
        <ele>416.82</ele>
        <time>2020-08-11T09:55:04.485Z</time>
      </trkpt>
      <trkpt lat="43.03584" lon="0.72779">
        <ele>417.31</ele>
        <time>2020-08-11T09:55:10.136Z</time>
      </trkpt>
      <trkpt lat="43.03568" lon="0.7274">
        <ele>418.27</ele>
        <time>2020-08-11T09:55:19.142Z</time>
      </trkpt>
      <trkpt lat="43.03542" lon="0.72657">
        <ele>421.94</ele>
        <time>2020-08-11T09:55:43.273Z</time>
      </trkpt>
      <trkpt lat="43.03516" lon="0.72574">
        <ele>425.45</ele>
        <time>2020-08-11T09:56:07.012Z</time>
      </trkpt>
      <trkpt lat="43.03501" lon="0.72486">
        <ele>428.78</ele>
        <time>2020-08-11T09:56:30.336Z</time>
      </trkpt>
      <trkpt lat="43.03486" lon="0.72398">
        <ele>431.29</ele>
        <time>2020-08-11T09:56:50.742Z</time>
      </trkpt>
      <trkpt lat="43.03471" lon="0.7231">
        <ele>434.74</ele>
        <time>2020-08-11T09:57:14.348Z</time>
      </trkpt>
      <trkpt lat="43.03464" lon="0.72249">
        <ele>436.75</ele>
        <time>2020-08-11T09:57:29.693Z</time>
      </trkpt>
      <trkpt lat="43.03468" lon="0.72188">
        <ele>436.07</ele>
        <time>2020-08-11T09:57:36.023Z</time>
      </trkpt>
      <trkpt lat="43.03461" lon="0.72149">
        <ele>433.02</ele>
        <time>2020-08-11T09:57:38.786Z</time>
      </trkpt>
      <trkpt lat="43.03437" lon="0.72098">
        <ele>430.51</ele>
        <time>2020-08-11T09:57:42.924Z</time>
      </trkpt>
      <trkpt lat="43.03428" lon="0.72037">
        <ele>426.64</ele>
        <time>2020-08-11T09:57:47.206Z</time>
      </trkpt>
      <trkpt lat="43.03419" lon="0.71976">
        <ele>422.08</ele>
        <time>2020-08-11T09:57:51.488Z</time>
      </trkpt>
      <trkpt lat="43.0342" lon="0.71894">
        <ele>417.36</ele>
        <time>2020-08-11T09:57:57.130Z</time>
      </trkpt>
      <trkpt lat="43.03432" lon="0.71793">
        <ele>411.38</ele>
        <time>2020-08-11T09:58:04.171Z</time>
      </trkpt>
      <trkpt lat="43.03431" lon="0.71743">
        <ele>408.25</ele>
        <time>2020-08-11T09:58:07.612Z</time>
      </trkpt>
      <trkpt lat="43.03396" lon="0.7164">
        <ele>408.94</ele>
        <time>2020-08-11T09:58:25.712Z</time>
      </trkpt>
      <trkpt lat="43.034" lon="0.71563">
        <ele>413.05</ele>
        <time>2020-08-11T09:58:49.080Z</time>
      </trkpt>
      <trkpt lat="43.03412" lon="0.71497">
        <ele>417.72</ele>
        <time>2020-08-11T09:59:13.666Z</time>
      </trkpt>
      <trkpt lat="43.03411" lon="0.71482">
        <ele>418.73</ele>
        <time>2020-08-11T09:59:19.002Z</time>
      </trkpt>
      <trkpt lat="43.03391" lon="0.71462">
        <ele>419.27</ele>
        <time>2020-08-11T09:59:25.237Z</time>
      </trkpt>
      <trkpt lat="43.03381" lon="0.71438">
        <ele>419.39</ele>
        <time>2020-08-11T09:59:29.538Z</time>
      </trkpt>
      <trkpt lat="43.03378" lon="0.71406">
        <ele>419.75</ele>
        <time>2020-08-11T09:59:35.059Z</time>
      </trkpt>
      <trkpt lat="43.03376" lon="0.71326">
        <ele>420.06</ele>
        <time>2020-08-11T09:59:47.445Z</time>
      </trkpt>
      <trkpt lat="43.0338" lon="0.71263">
        <ele>420.37</ele>
        <time>2020-08-11T09:59:57.364Z</time>
      </trkpt>
      <trkpt lat="43.03384" lon="0.712">
        <ele>420.76</ele>
        <time>2020-08-11T10:00:07.453Z</time>
      </trkpt>
      <trkpt lat="43.03375" lon="0.71147">
        <ele>421.75</ele>
        <time>2020-08-11T10:00:17.829Z</time>
      </trkpt>
      <trkpt lat="43.03371" lon="0.71115">
        <ele>422.16</ele>
        <time>2020-08-11T10:00:23.507Z</time>
      </trkpt>
      <trkpt lat="43.03368" lon="0.71053">
        <ele>422.43</ele>
        <time>2020-08-11T10:00:33.182Z</time>
      </trkpt>
      <trkpt lat="43.03364" lon="0.71013">
        <ele>422.28</ele>
        <time>2020-08-11T10:00:38.696Z</time>
      </trkpt>
      <trkpt lat="43.03359" lon="0.7092">
        <ele>421.94</ele>
        <time>2020-08-11T10:00:51.449Z</time>
      </trkpt>
      <trkpt lat="43.03358" lon="0.70864">
        <ele>422.03</ele>
        <time>2020-08-11T10:00:59.866Z</time>
      </trkpt>
      <trkpt lat="43.03362" lon="0.70808">
        <ele>422.39</ele>
        <time>2020-08-11T10:01:08.871Z</time>
      </trkpt>
      <trkpt lat="43.03377" lon="0.70735">
        <ele>422.19</ele>
        <time>2020-08-11T10:01:19.450Z</time>
      </trkpt>
      <trkpt lat="43.03389" lon="0.70701">
        <ele>421.87</ele>
        <time>2020-08-11T10:01:23.535Z</time>
      </trkpt>
      <trkpt lat="43.03404" lon="0.70648">
        <ele>421.99</ele>
        <time>2020-08-11T10:01:32.129Z</time>
      </trkpt>
      <trkpt lat="43.03419" lon="0.70588">
        <ele>422.84</ele>
        <time>2020-08-11T10:01:43.349Z</time>
      </trkpt>
      <trkpt lat="43.03434" lon="0.70528">
        <ele>423.27</ele>
        <time>2020-08-11T10:01:53.552Z</time>
      </trkpt>
      <trkpt lat="43.03437" lon="0.70477">
        <ele>423.61</ele>
        <time>2020-08-11T10:02:01.768Z</time>
      </trkpt>
      <trkpt lat="43.03434" lon="0.70434">
        <ele>423.67</ele>
        <time>2020-08-11T10:02:08.240Z</time>
      </trkpt>
      <trkpt lat="43.03429" lon="0.70399">
        <ele>423.87</ele>
        <time>2020-08-11T10:02:13.887Z</time>
      </trkpt>
      <trkpt lat="43.0343" lon="0.70334">
        <ele>424.22</ele>
        <time>2020-08-11T10:02:24.151Z</time>
      </trkpt>
      <trkpt lat="43.03433" lon="0.70308">
        <ele>424.22</ele>
        <time>2020-08-11T10:02:28.026Z</time>
      </trkpt>
      <trkpt lat="43.03461" lon="0.70223">
        <ele>422.74</ele>
        <time>2020-08-11T10:02:36.939Z</time>
      </trkpt>
      <trkpt lat="43.03467" lon="0.70189">
        <ele>421.81</ele>
        <time>2020-08-11T10:02:39.800Z</time>
      </trkpt>
      <trkpt lat="43.03467" lon="0.70139">
        <ele>420.91</ele>
        <time>2020-08-11T10:02:44.426Z</time>
      </trkpt>
      <trkpt lat="43.0346" lon="0.70091">
        <ele>419.71</ele>
        <time>2020-08-11T10:02:48.545Z</time>
      </trkpt>
      <trkpt lat="43.03438" lon="0.70024">
        <ele>419.36</ele>
        <time>2020-08-11T10:02:58.376Z</time>
      </trkpt>
      <trkpt lat="43.0343" lon="0.69978">
        <ele>419.5</ele>
        <time>2020-08-11T10:03:05.605Z</time>
      </trkpt>
      <trkpt lat="43.0343" lon="0.69882">
        <ele>419.44</ele>
        <time>2020-08-11T10:03:19.556Z</time>
      </trkpt>
      <trkpt lat="43.03427" lon="0.69811">
        <ele>418.82</ele>
        <time>2020-08-11T10:03:27.217Z</time>
      </trkpt>
      <trkpt lat="43.0342" lon="0.69767">
        <ele>418.63</ele>
        <time>2020-08-11T10:03:33.307Z</time>
      </trkpt>
      <trkpt lat="43.03397" lon="0.69654">
        <ele>417.78</ele>
        <time>2020-08-11T10:03:46.282Z</time>
      </trkpt>
      <trkpt lat="43.03391" lon="0.69602">
        <ele>417.63</ele>
        <time>2020-08-11T10:03:53.595Z</time>
      </trkpt>
      <trkpt lat="43.03387" lon="0.69515">
        <ele>417.89</ele>
        <time>2020-08-11T10:04:06.927Z</time>
      </trkpt>
      <trkpt lat="43.03399" lon="0.69438">
        <ele>419.14</ele>
        <time>2020-08-11T10:04:21.396Z</time>
      </trkpt>
      <trkpt lat="43.034" lon="0.69415">
        <ele>419.35</ele>
        <time>2020-08-11T10:04:25.226Z</time>
      </trkpt>
      <trkpt lat="43.03389" lon="0.6939">
        <ele>419.42</ele>
        <time>2020-08-11T10:04:29.655Z</time>
      </trkpt>
      <trkpt lat="43.03355" lon="0.69296">
        <ele>422.67</ele>
        <time>2020-08-11T10:04:54.897Z</time>
      </trkpt>
      <trkpt lat="43.03339" lon="0.6921">
        <ele>423.65</ele>
        <time>2020-08-11T10:05:10.060Z</time>
      </trkpt>
      <trkpt lat="43.03333" lon="0.69167">
        <ele>423.69</ele>
        <time>2020-08-11T10:05:16.579Z</time>
      </trkpt>
      <trkpt lat="43.03331" lon="0.69133">
        <ele>423.68</ele>
        <time>2020-08-11T10:05:21.570Z</time>
      </trkpt>
      <trkpt lat="43.03341" lon="0.69089">
        <ele>423.84</ele>
        <time>2020-08-11T10:05:28.662Z</time>
      </trkpt>
      <trkpt lat="43.03342" lon="0.69044">
        <ele>423.85</ele>
        <time>2020-08-11T10:05:35.309Z</time>
      </trkpt>
      <trkpt lat="43.0334" lon="0.68966">
        <ele>423.63</ele>
        <time>2020-08-11T10:05:46.158Z</time>
      </trkpt>
      <trkpt lat="43.03329" lon="0.68875">
        <ele>422.4</ele>
        <time>2020-08-11T10:05:55.343Z</time>
      </trkpt>
      <trkpt lat="43.03318" lon="0.68783">
        <ele>422.01</ele>
        <time>2020-08-11T10:06:07.961Z</time>
      </trkpt>
      <trkpt lat="43.03315" lon="0.68747">
        <ele>422.04</ele>
        <time>2020-08-11T10:06:13.351Z</time>
      </trkpt>
      <trkpt lat="43.03318" lon="0.68719">
        <ele>422.04</ele>
        <time>2020-08-11T10:06:17.517Z</time>
      </trkpt>
      <trkpt lat="43.03332" lon="0.68687">
        <ele>422.11</ele>
        <time>2020-08-11T10:06:23.140Z</time>
      </trkpt>
      <trkpt lat="43.03366" lon="0.68625">
        <ele>423.34</ele>
        <time>2020-08-11T10:06:37.383Z</time>
      </trkpt>
      <trkpt lat="43.03399" lon="0.68562">
        <ele>424.19</ele>
        <time>2020-08-11T10:06:50.611Z</time>
      </trkpt>
      <trkpt lat="43.03395" lon="0.68526">
        <ele>424.34</ele>
        <time>2020-08-11T10:06:56.264Z</time>
      </trkpt>
      <trkpt lat="43.03388" lon="0.685">
        <ele>424.43</ele>
        <time>2020-08-11T10:07:00.516Z</time>
      </trkpt>
      <trkpt lat="43.03369" lon="0.68479">
        <ele>424.61</ele>
        <time>2020-08-11T10:07:05.791Z</time>
      </trkpt>
      <trkpt lat="43.0331" lon="0.68427">
        <ele>425.64</ele>
        <time>2020-08-11T10:07:22.122Z</time>
      </trkpt>
      <trkpt lat="43.0326" lon="0.68367">
        <ele>426</ele>
        <time>2020-08-11T10:07:36.216Z</time>
      </trkpt>
      <trkpt lat="43.03209" lon="0.68307">
        <ele>427.61</ele>
        <time>2020-08-11T10:07:53.568Z</time>
      </trkpt>
      <trkpt lat="43.03182" lon="0.68261">
        <ele>427.98</ele>
        <time>2020-08-11T10:08:02.994Z</time>
      </trkpt>
      <trkpt lat="43.03135" lon="0.68172">
        <ele>429.68</ele>
        <time>2020-08-11T10:08:23.050Z</time>
      </trkpt>
      <trkpt lat="43.03111" lon="0.68118">
        <ele>431.57</ele>
        <time>2020-08-11T10:08:37.931Z</time>
      </trkpt>
      <trkpt lat="43.03103" lon="0.68075">
        <ele>432.95</ele>
        <time>2020-08-11T10:08:48.635Z</time>
      </trkpt>
      <trkpt lat="43.03084" lon="0.68014">
        <ele>437.84</ele>
        <time>2020-08-11T10:09:14.243Z</time>
      </trkpt>
      <trkpt lat="43.03074" lon="0.67978">
        <ele>439.32</ele>
        <time>2020-08-11T10:09:24.327Z</time>
      </trkpt>
      <trkpt lat="43.03054" lon="0.6797">
        <ele>438.81</ele>
        <time>2020-08-11T10:09:26.969Z</time>
      </trkpt>
      <trkpt lat="43.03044" lon="0.6796">
        <ele>438.81</ele>
        <time>2020-08-11T10:09:29.463Z</time>
      </trkpt>
      <trkpt lat="43.03028" lon="0.67922">
        <ele>438.27</ele>
        <time>2020-08-11T10:09:33.905Z</time>
      </trkpt>
      <trkpt lat="43.03008" lon="0.67834">
        <ele>435.99</ele>
        <time>2020-08-11T10:09:41.637Z</time>
      </trkpt>
      <trkpt lat="43.02986" lon="0.6777">
        <ele>433.98</ele>
        <time>2020-08-11T10:09:47.285Z</time>
      </trkpt>
      <trkpt lat="43.02973" lon="0.67737">
        <ele>434.42</ele>
        <time>2020-08-11T10:09:53.756Z</time>
      </trkpt>
      <trkpt lat="43.02963" lon="0.67721">
        <ele>434.75</ele>
        <time>2020-08-11T10:09:57.613Z</time>
      </trkpt>
      <trkpt lat="43.02977" lon="0.67748">
        <ele>434.22</ele>
        <time>2020-08-11T10:10:00.771Z</time>
      </trkpt>
      <trkpt lat="43.02973" lon="0.67737">
        <ele>434.42</ele>
        <time>2020-08-11T10:10:03.043Z</time>
      </trkpt>
      <trkpt lat="43.0293" lon="0.67665">
        <ele>436.2</ele>
        <time>2020-08-11T10:10:21.052Z</time>
      </trkpt>
      <trkpt lat="43.02871" lon="0.67576">
        <ele>436.62</ele>
        <time>2020-08-11T10:10:39.551Z</time>
      </trkpt>
      <trkpt lat="43.0286" lon="0.6757">
        <ele>436.62</ele>
        <time>2020-08-11T10:10:41.936Z</time>
      </trkpt>
      <trkpt lat="43.02815" lon="0.67558">
        <ele>439.26</ele>
        <time>2020-08-11T10:10:58.927Z</time>
      </trkpt>
      <trkpt lat="43.0277" lon="0.67545">
        <ele>442.55</ele>
        <time>2020-08-11T10:11:17.784Z</time>
      </trkpt>
      <trkpt lat="43.02758" lon="0.67543">
        <ele>443</ele>
        <time>2020-08-11T10:11:21.479Z</time>
      </trkpt>
      <trkpt lat="43.02746" lon="0.67546">
        <ele>444.08</ele>
        <time>2020-08-11T10:11:27.226Z</time>
      </trkpt>
      <trkpt lat="43.02719" lon="0.67575">
        <ele>446.71</ele>
        <time>2020-08-11T10:11:41.869Z</time>
      </trkpt>
      <trkpt lat="43.02712" lon="0.67585">
        <ele>448.25</ele>
        <time>2020-08-11T10:11:49.731Z</time>
      </trkpt>
      <trkpt lat="43.02701" lon="0.67595">
        <ele>449.02</ele>
        <time>2020-08-11T10:11:54.650Z</time>
      </trkpt>
      <trkpt lat="43.02681" lon="0.67603">
        <ele>449.71</ele>
        <time>2020-08-11T10:12:00.674Z</time>
      </trkpt>
      <trkpt lat="43.02624" lon="0.67604">
        <ele>451.01</ele>
        <time>2020-08-11T10:12:15.187Z</time>
      </trkpt>
      <trkpt lat="43.02574" lon="0.67614">
        <ele>450.28</ele>
        <time>2020-08-11T10:12:22.399Z</time>
      </trkpt>
      <trkpt lat="43.0253" lon="0.67647">
        <ele>448.14</ele>
        <time>2020-08-11T10:12:27.689Z</time>
      </trkpt>
      <trkpt lat="43.02486" lon="0.67679">
        <ele>447.59</ele>
        <time>2020-08-11T10:12:35.119Z</time>
      </trkpt>
      <trkpt lat="43.0247" lon="0.67688">
        <ele>447.61</ele>
        <time>2020-08-11T10:12:38.641Z</time>
      </trkpt>
      <trkpt lat="43.02393" lon="0.67707">
        <ele>447.84</ele>
        <time>2020-08-11T10:12:54.835Z</time>
      </trkpt>
      <trkpt lat="43.02375" lon="0.67719">
        <ele>448.71</ele>
        <time>2020-08-11T10:13:01.534Z</time>
      </trkpt>
      <trkpt lat="43.02337" lon="0.67762">
        <ele>450.41</ele>
        <time>2020-08-11T10:13:16.050Z</time>
      </trkpt>
      <trkpt lat="43.02299" lon="0.67804">
        <ele>451.34</ele>
        <time>2020-08-11T10:13:27.968Z</time>
      </trkpt>
      <trkpt lat="43.02287" lon="0.67822">
        <ele>452.42</ele>
        <time>2020-08-11T10:13:34.710Z</time>
      </trkpt>
      <trkpt lat="43.02247" lon="0.67909">
        <ele>453.61</ele>
        <time>2020-08-11T10:13:52.411Z</time>
      </trkpt>
      <trkpt lat="43.02235" lon="0.67919">
        <ele>452.79</ele>
        <time>2020-08-11T10:13:53.704Z</time>
      </trkpt>
      <trkpt lat="43.0218" lon="0.67943">
        <ele>450.36</ele>
        <time>2020-08-11T10:13:59.822Z</time>
      </trkpt>
      <trkpt lat="43.0217" lon="0.67945">
        <ele>450.27</ele>
        <time>2020-08-11T10:14:01.372Z</time>
      </trkpt>
      <trkpt lat="43.0211" lon="0.67939">
        <ele>449.18</ele>
        <time>2020-08-11T10:14:09.580Z</time>
      </trkpt>
      <trkpt lat="43.02104" lon="0.67935">
        <ele>449.18</ele>
        <time>2020-08-11T10:14:10.925Z</time>
      </trkpt>
      <trkpt lat="43.02099" lon="0.67926">
        <ele>449.18</ele>
        <time>2020-08-11T10:14:12.589Z</time>
      </trkpt>
      <trkpt lat="43.02094" lon="0.67864">
        <ele>450.27</ele>
        <time>2020-08-11T10:14:24.348Z</time>
      </trkpt>
      <trkpt lat="43.02088" lon="0.67801">
        <ele>452.49</ele>
        <time>2020-08-11T10:14:40.473Z</time>
      </trkpt>
      <trkpt lat="43.02084" lon="0.67792">
        <ele>452.91</ele>
        <time>2020-08-11T10:14:43.268Z</time>
      </trkpt>
      <trkpt lat="43.02079" lon="0.67787">
        <ele>452.91</ele>
        <time>2020-08-11T10:14:44.516Z</time>
      </trkpt>
      <trkpt lat="43.02065" lon="0.67784">
        <ele>454.18</ele>
        <time>2020-08-11T10:14:51.256Z</time>
      </trkpt>
      <trkpt lat="43.02057" lon="0.67766">
        <ele>455.36</ele>
        <time>2020-08-11T10:14:57.826Z</time>
      </trkpt>
      <trkpt lat="43.02037" lon="0.67779">
        <ele>456.82</ele>
        <time>2020-08-11T10:15:06.533Z</time>
      </trkpt>
      <trkpt lat="43.01985" lon="0.67788">
        <ele>458.35</ele>
        <time>2020-08-11T10:15:20.942Z</time>
      </trkpt>
      <trkpt lat="43.01933" lon="0.67796">
        <ele>460.04</ele>
        <time>2020-08-11T10:15:35.909Z</time>
      </trkpt>
      <trkpt lat="43.019" lon="0.67812">
        <ele>461.55</ele>
        <time>2020-08-11T10:15:47.566Z</time>
      </trkpt>
      <trkpt lat="43.01849" lon="0.67861">
        <ele>463.62</ele>
        <time>2020-08-11T10:16:05.607Z</time>
      </trkpt>
      <trkpt lat="43.01828" lon="0.67874">
        <ele>465.09</ele>
        <time>2020-08-11T10:16:14.530Z</time>
      </trkpt>
      <trkpt lat="43.01748" lon="0.67901">
        <ele>469.63</ele>
        <time>2020-08-11T10:16:44.551Z</time>
      </trkpt>
      <trkpt lat="43.01704" lon="0.67914">
        <ele>473.3</ele>
        <time>2020-08-11T10:17:04.532Z</time>
      </trkpt>
      <trkpt lat="43.01675" lon="0.67917">
        <ele>476.15</ele>
        <time>2020-08-11T10:17:19.472Z</time>
      </trkpt>
      <trkpt lat="43.0162" lon="0.67909">
        <ele>480.92</ele>
        <time>2020-08-11T10:17:45.017Z</time>
      </trkpt>
      <trkpt lat="43.01596" lon="0.67912">
        <ele>483.83</ele>
        <time>2020-08-11T10:18:00.838Z</time>
      </trkpt>
      <trkpt lat="43.01559" lon="0.67924">
        <ele>486.97</ele>
        <time>2020-08-11T10:18:17.863Z</time>
      </trkpt>
      <trkpt lat="43.01541" lon="0.6794">
        <ele>488.95</ele>
        <time>2020-08-11T10:18:28.316Z</time>
      </trkpt>
      <trkpt lat="43.01522" lon="0.67963">
        <ele>491.35</ele>
        <time>2020-08-11T10:18:40.940Z</time>
      </trkpt>
      <trkpt lat="43.01511" lon="0.67986">
        <ele>493.13</ele>
        <time>2020-08-11T10:18:50.410Z</time>
      </trkpt>
      <trkpt lat="43.01505" lon="0.68015">
        <ele>494.96</ele>
        <time>2020-08-11T10:19:00.316Z</time>
      </trkpt>
      <trkpt lat="43.01502" lon="0.68088">
        <ele>499.7</ele>
        <time>2020-08-11T10:19:25.530Z</time>
      </trkpt>
      <trkpt lat="43.01494" lon="0.68112">
        <ele>501.77</ele>
        <time>2020-08-11T10:19:36.409Z</time>
      </trkpt>
      <trkpt lat="43.0144" lon="0.68186">
        <ele>508.73</ele>
        <time>2020-08-11T10:20:13.234Z</time>
      </trkpt>
      <trkpt lat="43.01384" lon="0.68241">
        <ele>513.38</ele>
        <time>2020-08-11T10:20:40.648Z</time>
      </trkpt>
      <trkpt lat="43.01369" lon="0.68249">
        <ele>514.96</ele>
        <time>2020-08-11T10:20:48.930Z</time>
      </trkpt>
      <trkpt lat="43.01338" lon="0.68256">
        <ele>516.53</ele>
        <time>2020-08-11T10:20:59.993Z</time>
      </trkpt>
      <trkpt lat="43.01314" lon="0.68266">
        <ele>518.71</ele>
        <time>2020-08-11T10:21:11.645Z</time>
      </trkpt>
      <trkpt lat="43.01287" lon="0.68287">
        <ele>521.28</ele>
        <time>2020-08-11T10:21:25.571Z</time>
      </trkpt>
      <trkpt lat="43.01264" lon="0.68316">
        <ele>524.33</ele>
        <time>2020-08-11T10:21:41.566Z</time>
      </trkpt>
      <trkpt lat="43.01244" lon="0.68334">
        <ele>526.41</ele>
        <time>2020-08-11T10:21:52.684Z</time>
      </trkpt>
      <trkpt lat="43.01214" lon="0.68347">
        <ele>529.23</ele>
        <time>2020-08-11T10:22:07.651Z</time>
      </trkpt>
      <trkpt lat="43.01173" lon="0.68363">
        <ele>539.36</ele>
        <time>2020-08-11T10:22:40.773Z</time>
      </trkpt>
      <trkpt lat="43.01147" lon="0.68367">
        <ele>540.09</ele>
        <time>2020-08-11T10:22:47.852Z</time>
      </trkpt>
      <trkpt lat="43.01095" lon="0.68363">
        <ele>541.34</ele>
        <time>2020-08-11T10:23:01.298Z</time>
      </trkpt>
      <trkpt lat="43.01067" lon="0.68358">
        <ele>542.14</ele>
        <time>2020-08-11T10:23:08.978Z</time>
      </trkpt>
      <trkpt lat="43.00998" lon="0.68361">
        <ele>540.76</ele>
        <time>2020-08-11T10:23:18.190Z</time>
      </trkpt>
      <trkpt lat="43.0096" lon="0.68349">
        <ele>540.79</ele>
        <time>2020-08-11T10:23:26.101Z</time>
      </trkpt>
      <trkpt lat="43.00895" lon="0.68313">
        <ele>541.97</ele>
        <time>2020-08-11T10:23:42.799Z</time>
      </trkpt>
      <trkpt lat="43.00878" lon="0.68307">
        <ele>542.06</ele>
        <time>2020-08-11T10:23:46.509Z</time>
      </trkpt>
      <trkpt lat="43.00847" lon="0.68291">
        <ele>541.59</ele>
        <time>2020-08-11T10:23:51.253Z</time>
      </trkpt>
      <trkpt lat="43.00818" lon="0.68254">
        <ele>539.75</ele>
        <time>2020-08-11T10:23:55.294Z</time>
      </trkpt>
      <trkpt lat="43.00777" lon="0.68171">
        <ele>537.05</ele>
        <time>2020-08-11T10:24:03.454Z</time>
      </trkpt>
      <trkpt lat="43.00736" lon="0.68087">
        <ele>535.27</ele>
        <time>2020-08-11T10:24:12.855Z</time>
      </trkpt>
      <trkpt lat="43.00695" lon="0.68004">
        <ele>530.56</ele>
        <time>2020-08-11T10:24:19.286Z</time>
      </trkpt>
      <trkpt lat="43.00675" lon="0.67969">
        <ele>528.97</ele>
        <time>2020-08-11T10:24:22.522Z</time>
      </trkpt>
      <trkpt lat="43.00661" lon="0.67951">
        <ele>528.41</ele>
        <time>2020-08-11T10:24:24.837Z</time>
      </trkpt>
      <trkpt lat="43.00642" lon="0.67936">
        <ele>528.07</ele>
        <time>2020-08-11T10:24:27.928Z</time>
      </trkpt>
      <trkpt lat="43.00574" lon="0.67903">
        <ele>529.81</ele>
        <time>2020-08-11T10:24:46.581Z</time>
      </trkpt>
      <trkpt lat="43.00505" lon="0.6787">
        <ele>532.34</ele>
        <time>2020-08-11T10:25:08.137Z</time>
      </trkpt>
      <trkpt lat="43.00441" lon="0.67861">
        <ele>534.72</ele>
        <time>2020-08-11T10:25:27.736Z</time>
      </trkpt>
      <trkpt lat="43.004" lon="0.67849">
        <ele>537.19</ele>
        <time>2020-08-11T10:25:43.417Z</time>
      </trkpt>
      <trkpt lat="43.00372" lon="0.6783">
        <ele>539.21</ele>
        <time>2020-08-11T10:25:55.592Z</time>
      </trkpt>
      <trkpt lat="43.00342" lon="0.67779">
        <ele>540.98</ele>
        <time>2020-08-11T10:26:10.170Z</time>
      </trkpt>
      <trkpt lat="43.0031" lon="0.67718">
        <ele>542.89</ele>
        <time>2020-08-11T10:26:26.399Z</time>
      </trkpt>
      <trkpt lat="43.00277" lon="0.67656">
        <ele>542.77</ele>
        <time>2020-08-11T10:26:37.336Z</time>
      </trkpt>
      <trkpt lat="43.00247" lon="0.67615">
        <ele>542.01</ele>
        <time>2020-08-11T10:26:43.137Z</time>
      </trkpt>
      <trkpt lat="43.00197" lon="0.67567">
        <ele>542.51</ele>
        <time>2020-08-11T10:26:56.438Z</time>
      </trkpt>
      <trkpt lat="43.00165" lon="0.67486">
        <ele>543.96</ele>
        <time>2020-08-11T10:27:13.331Z</time>
      </trkpt>
      <trkpt lat="43.00133" lon="0.67404">
        <ele>545.6</ele>
        <time>2020-08-11T10:27:30.905Z</time>
      </trkpt>
      <trkpt lat="43.00121" lon="0.67378">
        <ele>546.51</ele>
        <time>2020-08-11T10:27:38.101Z</time>
      </trkpt>
      <trkpt lat="43.00065" lon="0.67345">
        <ele>547.99</ele>
        <time>2020-08-11T10:27:53.894Z</time>
      </trkpt>
      <trkpt lat="43.00008" lon="0.67312">
        <ele>546.42</ele>
        <time>2020-08-11T10:28:01.664Z</time>
      </trkpt>
      <trkpt lat="42.99962" lon="0.67277">
        <ele>543.94</ele>
        <time>2020-08-11T10:28:06.993Z</time>
      </trkpt>
      <trkpt lat="42.99933" lon="0.6727">
        <ele>540.83</ele>
        <time>2020-08-11T10:28:09.765Z</time>
      </trkpt>
      <trkpt lat="42.99907" lon="0.67256">
        <ele>538.54</ele>
        <time>2020-08-11T10:28:12.396Z</time>
      </trkpt>
      <trkpt lat="42.9989" lon="0.67223">
        <ele>540.27</ele>
        <time>2020-08-11T10:28:23.413Z</time>
      </trkpt>
      <trkpt lat="42.99864" lon="0.67165">
        <ele>543.33</ele>
        <time>2020-08-11T10:28:42.363Z</time>
      </trkpt>
      <trkpt lat="42.99837" lon="0.67106">
        <ele>549.18</ele>
        <time>2020-08-11T10:29:13.561Z</time>
      </trkpt>
      <trkpt lat="42.99815" lon="0.6705">
        <ele>553.45</ele>
        <time>2020-08-11T10:29:36.119Z</time>
      </trkpt>
      <trkpt lat="42.99773" lon="0.66957">
        <ele>559.28</ele>
        <time>2020-08-11T10:30:09.249Z</time>
      </trkpt>
      <trkpt lat="42.99754" lon="0.66896">
        <ele>562.69</ele>
        <time>2020-08-11T10:30:28.949Z</time>
      </trkpt>
      <trkpt lat="42.99734" lon="0.66834">
        <ele>564.21</ele>
        <time>2020-08-11T10:30:42.831Z</time>
      </trkpt>
      <trkpt lat="42.99724" lon="0.66811">
        <ele>566.38</ele>
        <time>2020-08-11T10:30:54.297Z</time>
      </trkpt>
      <trkpt lat="42.99712" lon="0.66795">
        <ele>568.44</ele>
        <time>2020-08-11T10:31:05.598Z</time>
      </trkpt>
      <trkpt lat="42.99697" lon="0.66784">
        <ele>569.31</ele>
        <time>2020-08-11T10:31:11.636Z</time>
      </trkpt>
      <trkpt lat="42.99683" lon="0.66779">
        <ele>570.08</ele>
        <time>2020-08-11T10:31:16.842Z</time>
      </trkpt>
      <trkpt lat="42.99664" lon="0.6678">
        <ele>570.79</ele>
        <time>2020-08-11T10:31:22.662Z</time>
      </trkpt>
      <trkpt lat="42.99631" lon="0.6679">
        <ele>572.48</ele>
        <time>2020-08-11T10:31:34.565Z</time>
      </trkpt>
      <trkpt lat="42.99593" lon="0.66805">
        <ele>575.07</ele>
        <time>2020-08-11T10:31:50.067Z</time>
      </trkpt>
      <trkpt lat="42.99533" lon="0.66853">
        <ele>580.22</ele>
        <time>2020-08-11T10:32:19.136Z</time>
      </trkpt>
      <trkpt lat="42.99511" lon="0.66886">
        <ele>581.8</ele>
        <time>2020-08-11T10:32:30.516Z</time>
      </trkpt>
      <trkpt lat="42.99494" lon="0.66904">
        <ele>583.26</ele>
        <time>2020-08-11T10:32:39.095Z</time>
      </trkpt>
      <trkpt lat="42.99463" lon="0.66923">
        <ele>585.91</ele>
        <time>2020-08-11T10:32:53.747Z</time>
      </trkpt>
      <trkpt lat="42.99438" lon="0.66945">
        <ele>588.02</ele>
        <time>2020-08-11T10:33:05.886Z</time>
      </trkpt>
      <trkpt lat="42.99428" lon="0.66964">
        <ele>588.6</ele>
        <time>2020-08-11T10:33:10.885Z</time>
      </trkpt>
      <trkpt lat="42.99422" lon="0.66995">
        <ele>589.86</ele>
        <time>2020-08-11T10:33:19.352Z</time>
      </trkpt>
      <trkpt lat="42.9941" lon="0.67024">
        <ele>592.63</ele>
        <time>2020-08-11T10:33:34.076Z</time>
      </trkpt>
      <trkpt lat="42.99386" lon="0.67119">
        <ele>599.54</ele>
        <time>2020-08-11T10:34:10.451Z</time>
      </trkpt>
      <trkpt lat="42.99372" lon="0.67158">
        <ele>600.72</ele>
        <time>2020-08-11T10:34:20.150Z</time>
      </trkpt>
      <trkpt lat="42.99333" lon="0.67242">
        <ele>607.44</ele>
        <time>2020-08-11T10:34:55.619Z</time>
      </trkpt>
      <trkpt lat="42.99302" lon="0.6729">
        <ele>611.18</ele>
        <time>2020-08-11T10:35:16.124Z</time>
      </trkpt>
      <trkpt lat="42.99248" lon="0.67349">
        <ele>617.69</ele>
        <time>2020-08-11T10:35:50.385Z</time>
      </trkpt>
      <trkpt lat="42.99217" lon="0.6738">
        <ele>618.83</ele>
        <time>2020-08-11T10:36:01.009Z</time>
      </trkpt>
      <trkpt lat="42.99185" lon="0.67418">
        <ele>618.7</ele>
        <time>2020-08-11T10:36:09.162Z</time>
      </trkpt>
      <trkpt lat="42.99158" lon="0.67431">
        <ele>617.56</ele>
        <time>2020-08-11T10:36:12.261Z</time>
      </trkpt>
      <trkpt lat="42.99104" lon="0.67418">
        <ele>612.49</ele>
        <time>2020-08-11T10:36:17.423Z</time>
      </trkpt>
      <trkpt lat="42.9905" lon="0.67405">
        <ele>609.08</ele>
        <time>2020-08-11T10:36:22.317Z</time>
      </trkpt>
      <trkpt lat="42.99019" lon="0.67346">
        <ele>608.79</ele>
        <time>2020-08-11T10:36:32.193Z</time>
      </trkpt>
      <trkpt lat="42.98987" lon="0.67287">
        <ele>608.76</ele>
        <time>2020-08-11T10:36:42.922Z</time>
      </trkpt>
      <trkpt lat="42.98961" lon="0.67247">
        <ele>608.67</ele>
        <time>2020-08-11T10:36:50.537Z</time>
      </trkpt>
      <trkpt lat="42.98938" lon="0.67216">
        <ele>608.38</ele>
        <time>2020-08-11T10:36:55.486Z</time>
      </trkpt>
      <trkpt lat="42.9892" lon="0.67201">
        <ele>607.98</ele>
        <time>2020-08-11T10:36:58.333Z</time>
      </trkpt>
      <trkpt lat="42.98903" lon="0.67204">
        <ele>607.78</ele>
        <time>2020-08-11T10:37:00.868Z</time>
      </trkpt>
      <trkpt lat="42.98886" lon="0.67201">
        <ele>607.75</ele>
        <time>2020-08-11T10:37:04.230Z</time>
      </trkpt>
      <trkpt lat="42.98858" lon="0.67203">
        <ele>607.75</ele>
        <time>2020-08-11T10:37:09.877Z</time>
      </trkpt>
      <trkpt lat="42.98794" lon="0.67212">
        <ele>608.35</ele>
        <time>2020-08-11T10:37:24.045Z</time>
      </trkpt>
      <trkpt lat="42.98706" lon="0.67236">
        <ele>608.71</ele>
        <time>2020-08-11T10:37:42.808Z</time>
      </trkpt>
      <trkpt lat="42.9865" lon="0.67246">
        <ele>606.33</ele>
        <time>2020-08-11T10:37:48.790Z</time>
      </trkpt>
      <trkpt lat="42.9861" lon="0.67246">
        <ele>605.46</ele>
        <time>2020-08-11T10:37:54.020Z</time>
      </trkpt>
      <trkpt lat="42.98564" lon="0.67237">
        <ele>603.69</ele>
        <time>2020-08-11T10:37:59.135Z</time>
      </trkpt>
      <trkpt lat="42.98505" lon="0.67213">
        <ele>602.24</ele>
        <time>2020-08-11T10:38:07.019Z</time>
      </trkpt>
      <trkpt lat="42.98467" lon="0.67189">
        <ele>601.12</ele>
        <time>2020-08-11T10:38:12.194Z</time>
      </trkpt>
      <trkpt lat="42.98446" lon="0.67153">
        <ele>601.25</ele>
        <time>2020-08-11T10:38:19.227Z</time>
      </trkpt>
      <trkpt lat="42.98389" lon="0.67088">
        <ele>600.82</ele>
        <time>2020-08-11T10:38:32.958Z</time>
      </trkpt>
      <trkpt lat="42.98367" lon="0.6707">
        <ele>596.91</ele>
        <time>2020-08-11T10:38:35.372Z</time>
      </trkpt>
      <trkpt lat="42.98352" lon="0.67047">
        <ele>594.47</ele>
        <time>2020-08-11T10:38:37.494Z</time>
      </trkpt>
      <trkpt lat="42.98332" lon="0.66989">
        <ele>591.61</ele>
        <time>2020-08-11T10:38:41.721Z</time>
      </trkpt>
      <trkpt lat="42.98324" lon="0.66961">
        <ele>591.57</ele>
        <time>2020-08-11T10:38:46.030Z</time>
      </trkpt>
      <trkpt lat="42.98317" lon="0.66944">
        <ele>591.62</ele>
        <time>2020-08-11T10:38:48.999Z</time>
      </trkpt>
      <trkpt lat="42.98306" lon="0.66931">
        <ele>590.49</ele>
        <time>2020-08-11T10:38:50.368Z</time>
      </trkpt>
      <trkpt lat="42.9826" lon="0.66904">
        <ele>585.65</ele>
        <time>2020-08-11T10:38:55.080Z</time>
      </trkpt>
      <trkpt lat="42.98217" lon="0.66884">
        <ele>583.4</ele>
        <time>2020-08-11T10:38:59.582Z</time>
      </trkpt>
      <trkpt lat="42.98193" lon="0.66869">
        <ele>582.92</ele>
        <time>2020-08-11T10:39:03.179Z</time>
      </trkpt>
      <trkpt lat="42.98172" lon="0.66849">
        <ele>582.22</ele>
        <time>2020-08-11T10:39:06.323Z</time>
      </trkpt>
      <trkpt lat="42.98157" lon="0.66828">
        <ele>581.69</ele>
        <time>2020-08-11T10:39:09.039Z</time>
      </trkpt>
      <trkpt lat="42.98136" lon="0.66769">
        <ele>579.2</ele>
        <time>2020-08-11T10:39:13.700Z</time>
      </trkpt>
      <trkpt lat="42.98114" lon="0.66712">
        <ele>578.18</ele>
        <time>2020-08-11T10:39:19.873Z</time>
      </trkpt>
      <trkpt lat="42.98091" lon="0.66654">
        <ele>577.32</ele>
        <time>2020-08-11T10:39:26.482Z</time>
      </trkpt>
      <trkpt lat="42.98054" lon="0.66575">
        <ele>579.86</ele>
        <time>2020-08-11T10:39:47.392Z</time>
      </trkpt>
      <trkpt lat="42.98017" lon="0.66495">
        <ele>580.54</ele>
        <time>2020-08-11T10:40:02.717Z</time>
      </trkpt>
      <trkpt lat="42.97988" lon="0.66421">
        <ele>580.96</ele>
        <time>2020-08-11T10:40:15.913Z</time>
      </trkpt>
      <trkpt lat="42.97958" lon="0.66353">
        <ele>581.07</ele>
        <time>2020-08-11T10:40:27.820Z</time>
      </trkpt>
      <trkpt lat="42.97947" lon="0.66312">
        <ele>581.51</ele>
        <time>2020-08-11T10:40:35.183Z</time>
      </trkpt>
      <trkpt lat="42.97925" lon="0.66266">
        <ele>581.73</ele>
        <time>2020-08-11T10:40:43.709Z</time>
      </trkpt>
      <trkpt lat="42.9789" lon="0.66229">
        <ele>581.68</ele>
        <time>2020-08-11T10:40:52.468Z</time>
      </trkpt>
      <trkpt lat="42.97826" lon="0.66171">
        <ele>581.9</ele>
        <time>2020-08-11T10:41:08.351Z</time>
      </trkpt>
      <trkpt lat="42.97761" lon="0.66112">
        <ele>581.63</ele>
        <time>2020-08-11T10:41:23.275Z</time>
      </trkpt>
      <trkpt lat="42.97751" lon="0.66084">
        <ele>580.42</ele>
        <time>2020-08-11T10:41:25.466Z</time>
      </trkpt>
      <trkpt lat="42.97721" lon="0.66068">
        <ele>578.82</ele>
        <time>2020-08-11T10:41:28.654Z</time>
      </trkpt>
      <trkpt lat="42.977" lon="0.66066">
        <ele>578.23</ele>
        <time>2020-08-11T10:41:31.221Z</time>
      </trkpt>
      <trkpt lat="42.97669" lon="0.66074">
        <ele>576.6</ele>
        <time>2020-08-11T10:41:34.290Z</time>
      </trkpt>
      <trkpt lat="42.97643" lon="0.66092">
        <ele>575.48</ele>
        <time>2020-08-11T10:41:37.488Z</time>
      </trkpt>
      <trkpt lat="42.97628" lon="0.66121">
        <ele>574.26</ele>
        <time>2020-08-11T10:41:40.122Z</time>
      </trkpt>
      <trkpt lat="42.97599" lon="0.66135">
        <ele>572.7</ele>
        <time>2020-08-11T10:41:43.139Z</time>
      </trkpt>
      <trkpt lat="42.9757" lon="0.66126">
        <ele>571.36</ele>
        <time>2020-08-11T10:41:46.205Z</time>
      </trkpt>
      <trkpt lat="42.9754" lon="0.66121">
        <ele>570.07</ele>
        <time>2020-08-11T10:41:49.390Z</time>
      </trkpt>
      <trkpt lat="42.97485" lon="0.66132">
        <ele>567.84</ele>
        <time>2020-08-11T10:41:55.391Z</time>
      </trkpt>
      <trkpt lat="42.9746" lon="0.66132">
        <ele>566.61</ele>
        <time>2020-08-11T10:41:57.876Z</time>
      </trkpt>
      <trkpt lat="42.97443" lon="0.66123">
        <ele>566.31</ele>
        <time>2020-08-11T10:42:00.414Z</time>
      </trkpt>
      <trkpt lat="42.97433" lon="0.66108">
        <ele>565.44</ele>
        <time>2020-08-11T10:42:01.777Z</time>
      </trkpt>
      <trkpt lat="42.97432" lon="0.66091">
        <ele>564.95</ele>
        <time>2020-08-11T10:42:03.135Z</time>
      </trkpt>
      <trkpt lat="42.97439" lon="0.66075">
        <ele>564.47</ele>
        <time>2020-08-11T10:42:04.680Z</time>
      </trkpt>
      <trkpt lat="42.97458" lon="0.66061">
        <ele>563.78</ele>
        <time>2020-08-11T10:42:07.206Z</time>
      </trkpt>
      <trkpt lat="42.97503" lon="0.66048">
        <ele>561.47</ele>
        <time>2020-08-11T10:42:11.737Z</time>
      </trkpt>
      <trkpt lat="42.97547" lon="0.66035">
        <ele>559.61</ele>
        <time>2020-08-11T10:42:16.542Z</time>
      </trkpt>
      <trkpt lat="42.97566" lon="0.66026">
        <ele>558.66</ele>
        <time>2020-08-11T10:42:18.575Z</time>
      </trkpt>
      <trkpt lat="42.97586" lon="0.66008">
        <ele>557.5</ele>
        <time>2020-08-11T10:42:20.971Z</time>
      </trkpt>
      <trkpt lat="42.9759" lon="0.65996">
        <ele>557.5</ele>
        <time>2020-08-11T10:42:22.914Z</time>
      </trkpt>
      <trkpt lat="42.97587" lon="0.65965">
        <ele>556.15</ele>
        <time>2020-08-11T10:42:25.008Z</time>
      </trkpt>
      <trkpt lat="42.97587" lon="0.65934">
        <ele>555.31</ele>
        <time>2020-08-11T10:42:27.531Z</time>
      </trkpt>
      <trkpt lat="42.97609" lon="0.65893">
        <ele>553.96</ele>
        <time>2020-08-11T10:42:31.698Z</time>
      </trkpt>
      <trkpt lat="42.97612" lon="0.65875">
        <ele>552.87</ele>
        <time>2020-08-11T10:42:32.969Z</time>
      </trkpt>
      <trkpt lat="42.97605" lon="0.65859">
        <ele>552.87</ele>
        <time>2020-08-11T10:42:35.716Z</time>
      </trkpt>
      <trkpt lat="42.97592" lon="0.65849">
        <ele>552.57</ele>
        <time>2020-08-11T10:42:37.704Z</time>
      </trkpt>
      <trkpt lat="42.97579" lon="0.65848">
        <ele>551.23</ele>
        <time>2020-08-11T10:42:38.930Z</time>
      </trkpt>
      <trkpt lat="42.97563" lon="0.65858">
        <ele>550.92</ele>
        <time>2020-08-11T10:42:41.345Z</time>
      </trkpt>
      <trkpt lat="42.97521" lon="0.65895">
        <ele>548.28</ele>
        <time>2020-08-11T10:42:46.158Z</time>
      </trkpt>
      <trkpt lat="42.97478" lon="0.65931">
        <ele>546.09</ele>
        <time>2020-08-11T10:42:51.436Z</time>
      </trkpt>
      <trkpt lat="42.97462" lon="0.65939">
        <ele>544.16</ele>
        <time>2020-08-11T10:42:53.040Z</time>
      </trkpt>
      <trkpt lat="42.97423" lon="0.65951">
        <ele>542.33</ele>
        <time>2020-08-11T10:42:57.135Z</time>
      </trkpt>
      <trkpt lat="42.97378" lon="0.65954">
        <ele>539.13</ele>
        <time>2020-08-11T10:43:01.376Z</time>
      </trkpt>
      <trkpt lat="42.97332" lon="0.65957">
        <ele>536.96</ele>
        <time>2020-08-11T10:43:06.038Z</time>
      </trkpt>
      <trkpt lat="42.97299" lon="0.65963">
        <ele>535.32</ele>
        <time>2020-08-11T10:43:09.345Z</time>
      </trkpt>
      <trkpt lat="42.97286" lon="0.65973">
        <ele>534.31</ele>
        <time>2020-08-11T10:43:10.749Z</time>
      </trkpt>
      <trkpt lat="42.97279" lon="0.6599">
        <ele>534.31</ele>
        <time>2020-08-11T10:43:13.624Z</time>
      </trkpt>
      <trkpt lat="42.9728" lon="0.66048">
        <ele>530.93</ele>
        <time>2020-08-11T10:43:17.619Z</time>
      </trkpt>
      <trkpt lat="42.97272" lon="0.66067">
        <ele>530.04</ele>
        <time>2020-08-11T10:43:19.131Z</time>
      </trkpt>
      <trkpt lat="42.97264" lon="0.6608">
        <ele>529.73</ele>
        <time>2020-08-11T10:43:20.698Z</time>
      </trkpt>
      <trkpt lat="42.97253" lon="0.66088">
        <ele>529.27</ele>
        <time>2020-08-11T10:43:22.085Z</time>
      </trkpt>
      <trkpt lat="42.97234" lon="0.66092">
        <ele>527.98</ele>
        <time>2020-08-11T10:43:23.895Z</time>
      </trkpt>
      <trkpt lat="42.97186" lon="0.66095">
        <ele>524.64</ele>
        <time>2020-08-11T10:43:28.418Z</time>
      </trkpt>
      <trkpt lat="42.97164" lon="0.66101">
        <ele>524.11</ele>
        <time>2020-08-11T10:43:31.289Z</time>
      </trkpt>
      <trkpt lat="42.9714" lon="0.6611">
        <ele>523.14</ele>
        <time>2020-08-11T10:43:34.005Z</time>
      </trkpt>
      <trkpt lat="42.97107" lon="0.66115">
        <ele>520.62</ele>
        <time>2020-08-11T10:43:37.130Z</time>
      </trkpt>
      <trkpt lat="42.97086" lon="0.66113">
        <ele>519.61</ele>
        <time>2020-08-11T10:43:39.245Z</time>
      </trkpt>
      <trkpt lat="42.97052" lon="0.66103">
        <ele>517.87</ele>
        <time>2020-08-11T10:43:42.677Z</time>
      </trkpt>
      <trkpt lat="42.97009" lon="0.66095">
        <ele>514.1</ele>
        <time>2020-08-11T10:43:46.762Z</time>
      </trkpt>
      <trkpt lat="42.96978" lon="0.66098">
        <ele>512.26</ele>
        <time>2020-08-11T10:43:49.602Z</time>
      </trkpt>
      <trkpt lat="42.96916" lon="0.6611">
        <ele>508.4</ele>
        <time>2020-08-11T10:43:55.216Z</time>
      </trkpt>
      <trkpt lat="42.96892" lon="0.66107">
        <ele>507.83</ele>
        <time>2020-08-11T10:43:58.299Z</time>
      </trkpt>
      <trkpt lat="42.96874" lon="0.66099">
        <ele>506.83</ele>
        <time>2020-08-11T10:44:00.123Z</time>
      </trkpt>
      <trkpt lat="42.96844" lon="0.66073">
        <ele>505.81</ele>
        <time>2020-08-11T10:44:04.423Z</time>
      </trkpt>
      <trkpt lat="42.96824" lon="0.6607">
        <ele>505.26</ele>
        <time>2020-08-11T10:44:06.895Z</time>
      </trkpt>
      <trkpt lat="42.96779" lon="0.66079">
        <ele>503.61</ele>
        <time>2020-08-11T10:44:11.990Z</time>
      </trkpt>
      <trkpt lat="42.96734" lon="0.66088">
        <ele>501.1</ele>
        <time>2020-08-11T10:44:16.285Z</time>
      </trkpt>
      <trkpt lat="42.96693" lon="0.66072">
        <ele>498.9</ele>
        <time>2020-08-11T10:44:20.436Z</time>
      </trkpt>
      <trkpt lat="42.96608" lon="0.66091">
        <ele>494.52</ele>
        <time>2020-08-11T10:44:28.875Z</time>
      </trkpt>
      <trkpt lat="42.96564" lon="0.66074">
        <ele>491.96</ele>
        <time>2020-08-11T10:44:33.165Z</time>
      </trkpt>
      <trkpt lat="42.96513" lon="0.6605">
        <ele>487.11</ele>
        <time>2020-08-11T10:44:38.242Z</time>
      </trkpt>
      <trkpt lat="42.9643" lon="0.66009">
        <ele>483.19</ele>
        <time>2020-08-11T10:44:47.397Z</time>
      </trkpt>
      <trkpt lat="42.96346" lon="0.65968">
        <ele>478.69</ele>
        <time>2020-08-11T10:44:56.166Z</time>
      </trkpt>
      <trkpt lat="42.96293" lon="0.65912">
        <ele>474.7</ele>
        <time>2020-08-11T10:45:02.272Z</time>
      </trkpt>
      <trkpt lat="42.96239" lon="0.65856">
        <ele>470.31</ele>
        <time>2020-08-11T10:45:08.204Z</time>
      </trkpt>
      <trkpt lat="42.96232" lon="0.65848">
        <ele>469.84</ele>
        <time>2020-08-11T10:45:09.093Z</time>
      </trkpt>
      <trkpt lat="42.96162" lon="0.65774">
        <ele>466.83</ele>
        <time>2020-08-11T10:45:19.235Z</time>
      </trkpt>
      <trkpt lat="42.96091" lon="0.65701">
        <ele>465.31</ele>
        <time>2020-08-11T10:45:31.506Z</time>
      </trkpt>
      <trkpt lat="42.96021" lon="0.65627">
        <ele>464.44</ele>
        <time>2020-08-11T10:45:44.914Z</time>
      </trkpt>
      <trkpt lat="42.95951" lon="0.65554">
        <ele>464.41</ele>
        <time>2020-08-11T10:46:02.557Z</time>
      </trkpt>
      <trkpt lat="42.9588" lon="0.6548">
        <ele>464.79</ele>
        <time>2020-08-11T10:46:21.272Z</time>
      </trkpt>
      <trkpt lat="42.9581" lon="0.65407">
        <ele>465.4</ele>
        <time>2020-08-11T10:46:40.209Z</time>
      </trkpt>
      <trkpt lat="42.9574" lon="0.65333">
        <ele>465.57</ele>
        <time>2020-08-11T10:46:58.353Z</time>
      </trkpt>
      <trkpt lat="42.95669" lon="0.65259">
        <ele>466.1</ele>
        <time>2020-08-11T10:47:17.373Z</time>
      </trkpt>
      <trkpt lat="42.95599" lon="0.65186">
        <ele>467.27</ele>
        <time>2020-08-11T10:47:37.566Z</time>
      </trkpt>
      <trkpt lat="42.95529" lon="0.65112">
        <ele>467.28</ele>
        <time>2020-08-11T10:47:55.410Z</time>
      </trkpt>
      <trkpt lat="42.95458" lon="0.65039">
        <ele>467.25</ele>
        <time>2020-08-11T10:48:13.214Z</time>
      </trkpt>
      <trkpt lat="42.95388" lon="0.64965">
        <ele>467.87</ele>
        <time>2020-08-11T10:48:32.262Z</time>
      </trkpt>
      <trkpt lat="42.95381" lon="0.64949">
        <ele>468</ele>
        <time>2020-08-11T10:48:35.273Z</time>
      </trkpt>
      <trkpt lat="42.95349" lon="0.64925">
        <ele>468.83</ele>
        <time>2020-08-11T10:48:44.559Z</time>
      </trkpt>
      <trkpt lat="42.95279" lon="0.64896">
        <ele>469.06</ele>
        <time>2020-08-11T10:48:59.728Z</time>
      </trkpt>
      <trkpt lat="42.9521" lon="0.64866">
        <ele>468.77</ele>
        <time>2020-08-11T10:49:13.469Z</time>
      </trkpt>
      <trkpt lat="42.9514" lon="0.64837">
        <ele>469.28</ele>
        <time>2020-08-11T10:49:29.206Z</time>
      </trkpt>
      <trkpt lat="42.95074" lon="0.64834">
        <ele>469.48</ele>
        <time>2020-08-11T10:49:42.886Z</time>
      </trkpt>
      <trkpt lat="42.95008" lon="0.64832">
        <ele>470.26</ele>
        <time>2020-08-11T10:49:57.796Z</time>
      </trkpt>
      <trkpt lat="42.94942" lon="0.64829">
        <ele>471.3</ele>
        <time>2020-08-11T10:50:13.338Z</time>
      </trkpt>
      <trkpt lat="42.94921" lon="0.6483">
        <ele>471.3</ele>
        <time>2020-08-11T10:50:17.570Z</time>
      </trkpt>
      <trkpt lat="42.94882" lon="0.6483">
        <ele>470.3</ele>
        <time>2020-08-11T10:50:22.451Z</time>
      </trkpt>
      <trkpt lat="42.94853" lon="0.64832">
        <ele>469.77</ele>
        <time>2020-08-11T10:50:26.406Z</time>
      </trkpt>
      <trkpt lat="42.94773" lon="0.64852">
        <ele>468.67</ele>
        <time>2020-08-11T10:50:38.149Z</time>
      </trkpt>
      <trkpt lat="42.94694" lon="0.64873">
        <ele>469.01</ele>
        <time>2020-08-11T10:50:55.011Z</time>
      </trkpt>
      <trkpt lat="42.94614" lon="0.64893">
        <ele>470.6</ele>
        <time>2020-08-11T10:51:14.964Z</time>
      </trkpt>
      <trkpt lat="42.94537" lon="0.64913">
        <ele>470.84</ele>
        <time>2020-08-11T10:51:31.206Z</time>
      </trkpt>
      <trkpt lat="42.94459" lon="0.64932">
        <ele>471.15</ele>
        <time>2020-08-11T10:51:47.757Z</time>
      </trkpt>
      <trkpt lat="42.94373" lon="0.6496">
        <ele>471.42</ele>
        <time>2020-08-11T10:52:06.075Z</time>
      </trkpt>
      <trkpt lat="42.94289" lon="0.64995">
        <ele>471.62</ele>
        <time>2020-08-11T10:52:24.140Z</time>
      </trkpt>
      <trkpt lat="42.94205" lon="0.65031">
        <ele>471.81</ele>
        <time>2020-08-11T10:52:42.228Z</time>
      </trkpt>
      <trkpt lat="42.94122" lon="0.65066">
        <ele>472.04</ele>
        <time>2020-08-11T10:53:00.158Z</time>
      </trkpt>
      <trkpt lat="42.94038" lon="0.65102">
        <ele>472.74</ele>
        <time>2020-08-11T10:53:19.283Z</time>
      </trkpt>
      <trkpt lat="42.93954" lon="0.65137">
        <ele>473.19</ele>
        <time>2020-08-11T10:53:37.841Z</time>
      </trkpt>
      <trkpt lat="42.93933" lon="0.65135">
        <ele>473.39</ele>
        <time>2020-08-11T10:53:42.485Z</time>
      </trkpt>
      <trkpt lat="42.9392" lon="0.65129">
        <ele>473.39</ele>
        <time>2020-08-11T10:53:45.249Z</time>
      </trkpt>
      <trkpt lat="42.93922" lon="0.65102">
        <ele>472.38</ele>
        <time>2020-08-11T10:53:47.196Z</time>
      </trkpt>
      <trkpt lat="42.93918" lon="0.65069">
        <ele>472.38</ele>
        <time>2020-08-11T10:53:52.128Z</time>
      </trkpt>
      <trkpt lat="42.93903" lon="0.64978">
        <ele>472.53</ele>
        <time>2020-08-11T10:54:06.163Z</time>
      </trkpt>
      <trkpt lat="42.93888" lon="0.64887">
        <ele>473.1</ele>
        <time>2020-08-11T10:54:21.056Z</time>
      </trkpt>
      <trkpt lat="42.93901" lon="0.64875">
        <ele>472.21</ele>
        <time>2020-08-11T10:54:22.519Z</time>
      </trkpt>
      <trkpt lat="42.93905" lon="0.6486">
        <ele>472.21</ele>
        <time>2020-08-11T10:54:24.873Z</time>
      </trkpt>
      <trkpt lat="42.93905" lon="0.64853">
        <ele>471.94</ele>
        <time>2020-08-11T10:54:25.367Z</time>
      </trkpt>
      <trkpt lat="42.93901" lon="0.6484">
        <ele>471.94</ele>
        <time>2020-08-11T10:54:27.446Z</time>
      </trkpt>
      <trkpt lat="42.93893" lon="0.64831">
        <ele>471.89</ele>
        <time>2020-08-11T10:54:29.390Z</time>
      </trkpt>
      <trkpt lat="42.93887" lon="0.64829">
        <ele>471.89</ele>
        <time>2020-08-11T10:54:30.634Z</time>
      </trkpt>
      <trkpt lat="42.93882" lon="0.64821">
        <ele>471.89</ele>
        <time>2020-08-11T10:54:32.185Z</time>
      </trkpt>
      <trkpt lat="42.93873" lon="0.64799">
        <ele>471.96</ele>
        <time>2020-08-11T10:54:36.034Z</time>
      </trkpt>
      <trkpt lat="42.93859" lon="0.64709">
        <ele>472.55</ele>
        <time>2020-08-11T10:54:50.784Z</time>
      </trkpt>
      <trkpt lat="42.93844" lon="0.64619">
        <ele>472.61</ele>
        <time>2020-08-11T10:55:04.506Z</time>
      </trkpt>
      <trkpt lat="42.9383" lon="0.64529">
        <ele>471.85</ele>
        <time>2020-08-11T10:55:14.516Z</time>
      </trkpt>
      <trkpt lat="42.93796" lon="0.64538">
        <ele>472.03</ele>
        <time>2020-08-11T10:55:21.840Z</time>
      </trkpt>
      <trkpt lat="42.9376" lon="0.6456">
        <ele>472.26</ele>
        <time>2020-08-11T10:55:30.232Z</time>
      </trkpt>
      <trkpt lat="42.93704" lon="0.64609">
        <ele>472.76</ele>
        <time>2020-08-11T10:55:44.617Z</time>
      </trkpt>
      <trkpt lat="42.93649" lon="0.64665">
        <ele>474.03</ele>
        <time>2020-08-11T10:56:01.255Z</time>
      </trkpt>
      <trkpt lat="42.93595" lon="0.6472">
        <ele>475.05</ele>
        <time>2020-08-11T10:56:17.006Z</time>
      </trkpt>
      <trkpt lat="42.9354" lon="0.64776">
        <ele>475.51</ele>
        <time>2020-08-11T10:56:31.727Z</time>
      </trkpt>
      <trkpt lat="42.93486" lon="0.64826">
        <ele>476.47</ele>
        <time>2020-08-11T10:56:46.913Z</time>
      </trkpt>
      <trkpt lat="42.93416" lon="0.64878">
        <ele>477.25</ele>
        <time>2020-08-11T10:57:04.542Z</time>
      </trkpt>
      <trkpt lat="42.93349" lon="0.64919">
        <ele>477.57</ele>
        <time>2020-08-11T10:57:19.944Z</time>
      </trkpt>
      <trkpt lat="42.93291" lon="0.64947">
        <ele>477.91</ele>
        <time>2020-08-11T10:57:32.995Z</time>
      </trkpt>
      <trkpt lat="42.93208" lon="0.64981">
        <ele>479.08</ele>
        <time>2020-08-11T10:57:52.910Z</time>
      </trkpt>
      <trkpt lat="42.93125" lon="0.65015">
        <ele>480.66</ele>
        <time>2020-08-11T10:58:13.862Z</time>
      </trkpt>
      <trkpt lat="42.93056" lon="0.65042">
        <ele>477.64</ele>
        <time>2020-08-11T10:58:21.469Z</time>
      </trkpt>
      <trkpt lat="42.92987" lon="0.65069">
        <ele>478.39</ele>
        <time>2020-08-11T10:58:37.455Z</time>
      </trkpt>
      <trkpt lat="42.92918" lon="0.65096">
        <ele>479.3</ele>
        <time>2020-08-11T10:58:53.811Z</time>
      </trkpt>
      <trkpt lat="42.92874" lon="0.65101">
        <ele>478.23</ele>
        <time>2020-08-11T10:58:59.423Z</time>
      </trkpt>
      <trkpt lat="42.92845" lon="0.65101">
        <ele>477.57</ele>
        <time>2020-08-11T10:59:03.171Z</time>
      </trkpt>
      <trkpt lat="42.92787" lon="0.6509">
        <ele>478.3</ele>
        <time>2020-08-11T10:59:16.485Z</time>
      </trkpt>
      <trkpt lat="42.9273" lon="0.65066">
        <ele>478.34</ele>
        <time>2020-08-11T10:59:28.573Z</time>
      </trkpt>
      <trkpt lat="42.92673" lon="0.65042">
        <ele>478.34</ele>
        <time>2020-08-11T10:59:40.586Z</time>
      </trkpt>
      <trkpt lat="42.92607" lon="0.6501">
        <ele>478.34</ele>
        <time>2020-08-11T10:59:54.692Z</time>
      </trkpt>
      <trkpt lat="42.92541" lon="0.64979">
        <ele>478.41</ele>
        <time>2020-08-11T11:00:08.879Z</time>
      </trkpt>
      <trkpt lat="42.92475" lon="0.64947">
        <ele>478.41</ele>
        <time>2020-08-11T11:00:22.985Z</time>
      </trkpt>
      <trkpt lat="42.92437" lon="0.64925">
        <ele>478.41</ele>
        <time>2020-08-11T11:00:31.298Z</time>
      </trkpt>
      <trkpt lat="42.92388" lon="0.64892">
        <ele>478.67</ele>
        <time>2020-08-11T11:00:42.803Z</time>
      </trkpt>
      <trkpt lat="42.92324" lon="0.64852">
        <ele>479.55</ele>
        <time>2020-08-11T11:00:58.812Z</time>
      </trkpt>
      <trkpt lat="42.9226" lon="0.64811">
        <ele>480.41</ele>
        <time>2020-08-11T11:01:14.836Z</time>
      </trkpt>
      <trkpt lat="42.92196" lon="0.64771">
        <ele>480.51</ele>
        <time>2020-08-11T11:01:29.199Z</time>
      </trkpt>
      <trkpt lat="42.92161" lon="0.64752">
        <ele>481.31</ele>
        <time>2020-08-11T11:01:38.617Z</time>
      </trkpt>
      <trkpt lat="42.92117" lon="0.64731">
        <ele>481.68</ele>
        <time>2020-08-11T11:01:48.741Z</time>
      </trkpt>
      <trkpt lat="42.92076" lon="0.64717">
        <ele>482.39</ele>
        <time>2020-08-11T11:01:58.801Z</time>
      </trkpt>
      <trkpt lat="42.92037" lon="0.6471">
        <ele>482.88</ele>
        <time>2020-08-11T11:02:07.743Z</time>
      </trkpt>
      <trkpt lat="42.91986" lon="0.64709">
        <ele>483.48</ele>
        <time>2020-08-11T11:02:19.257Z</time>
      </trkpt>
      <trkpt lat="42.919" lon="0.64715">
        <ele>484.69</ele>
        <time>2020-08-11T11:02:39.162Z</time>
      </trkpt>
      <trkpt lat="42.91815" lon="0.6472">
        <ele>485.6</ele>
        <time>2020-08-11T11:02:58.159Z</time>
      </trkpt>
      <trkpt lat="42.91729" lon="0.64726">
        <ele>487.9</ele>
        <time>2020-08-11T11:03:21.120Z</time>
      </trkpt>
      <trkpt lat="42.91643" lon="0.64732">
        <ele>486.34</ele>
        <time>2020-08-11T11:03:32.869Z</time>
      </trkpt>
      <trkpt lat="42.91558" lon="0.64737">
        <ele>484.65</ele>
        <time>2020-08-11T11:03:44.239Z</time>
      </trkpt>
      <trkpt lat="42.91472" lon="0.64743">
        <ele>484.48</ele>
        <time>2020-08-11T11:04:01.073Z</time>
      </trkpt>
      <trkpt lat="42.91449" lon="0.64739">
        <ele>484.94</ele>
        <time>2020-08-11T11:04:06.780Z</time>
      </trkpt>
      <trkpt lat="42.91448" lon="0.64753">
        <ele>484.58</ele>
        <time>2020-08-11T11:04:07.950Z</time>
      </trkpt>
      <trkpt lat="42.91449" lon="0.64739">
        <ele>484.94</ele>
        <time>2020-08-11T11:04:11.001Z</time>
      </trkpt>
      <trkpt lat="42.91443" lon="0.6473">
        <ele>485.28</ele>
        <time>2020-08-11T11:04:13.761Z</time>
      </trkpt>
      <trkpt lat="42.91439" lon="0.64727">
        <ele>485.28</ele>
        <time>2020-08-11T11:04:14.680Z</time>
      </trkpt>
      <trkpt lat="42.91434" lon="0.64727">
        <ele>485.55</ele>
        <time>2020-08-11T11:04:16.488Z</time>
      </trkpt>
      <trkpt lat="42.91426" lon="0.64735">
        <ele>485.36</ele>
        <time>2020-08-11T11:04:17.824Z</time>
      </trkpt>
      <trkpt lat="42.91389" lon="0.64724">
        <ele>485.86</ele>
        <time>2020-08-11T11:04:26.500Z</time>
      </trkpt>
      <trkpt lat="42.9136" lon="0.64707">
        <ele>485.85</ele>
        <time>2020-08-11T11:04:32.826Z</time>
      </trkpt>
      <trkpt lat="42.91329" lon="0.64679">
        <ele>485.71</ele>
        <time>2020-08-11T11:04:39.903Z</time>
      </trkpt>
      <trkpt lat="42.91294" lon="0.64631">
        <ele>486.13</ele>
        <time>2020-08-11T11:04:50.735Z</time>
      </trkpt>
      <trkpt lat="42.91276" lon="0.64594">
        <ele>486.99</ele>
        <time>2020-08-11T11:04:59.380Z</time>
      </trkpt>
      <trkpt lat="42.91259" lon="0.64538">
        <ele>487.77</ele>
        <time>2020-08-11T11:05:10.037Z</time>
      </trkpt>
      <trkpt lat="42.91249" lon="0.64475">
        <ele>488.39</ele>
        <time>2020-08-11T11:05:20.846Z</time>
      </trkpt>
      <trkpt lat="42.91238" lon="0.64412">
        <ele>488.39</ele>
        <time>2020-08-11T11:05:30.400Z</time>
      </trkpt>
      <trkpt lat="42.91224" lon="0.6435">
        <ele>490.05</ele>
        <time>2020-08-11T11:05:44.474Z</time>
      </trkpt>
      <trkpt lat="42.91197" lon="0.64259">
        <ele>491.75</ele>
        <time>2020-08-11T11:06:02.960Z</time>
      </trkpt>
      <trkpt lat="42.9117" lon="0.64168">
        <ele>492.89</ele>
        <time>2020-08-11T11:06:19.903Z</time>
      </trkpt>
      <trkpt lat="42.91143" lon="0.64083">
        <ele>493.74</ele>
        <time>2020-08-11T11:06:35.342Z</time>
      </trkpt>
      <trkpt lat="42.91101" lon="0.63982">
        <ele>495.9</ele>
        <time>2020-08-11T11:06:57.667Z</time>
      </trkpt>
      <trkpt lat="42.91059" lon="0.63903">
        <ele>497.65</ele>
        <time>2020-08-11T11:07:16.228Z</time>
      </trkpt>
      <trkpt lat="42.91002" lon="0.63827">
        <ele>499.08</ele>
        <time>2020-08-11T11:07:35.432Z</time>
      </trkpt>
      <trkpt lat="42.90966" lon="0.6379">
        <ele>500.08</ele>
        <time>2020-08-11T11:07:46.823Z</time>
      </trkpt>
      <trkpt lat="42.90929" lon="0.63752">
        <ele>500.82</ele>
        <time>2020-08-11T11:07:57.747Z</time>
      </trkpt>
      <trkpt lat="42.90855" lon="0.63698">
        <ele>503.21</ele>
        <time>2020-08-11T11:08:20.612Z</time>
      </trkpt>
      <trkpt lat="42.90783" lon="0.63658">
        <ele>505.35</ele>
        <time>2020-08-11T11:08:41.547Z</time>
      </trkpt>
      <trkpt lat="42.9071" lon="0.63618">
        <ele>506.65</ele>
        <time>2020-08-11T11:09:00.216Z</time>
      </trkpt>
      <trkpt lat="42.90638" lon="0.63572">
        <ele>507.88</ele>
        <time>2020-08-11T11:09:18.870Z</time>
      </trkpt>
      <trkpt lat="42.90563" lon="0.63513">
        <ele>510.59</ele>
        <time>2020-08-11T11:09:43.314Z</time>
      </trkpt>
      <trkpt lat="42.90542" lon="0.63492">
        <ele>511.81</ele>
        <time>2020-08-11T11:09:52.297Z</time>
      </trkpt>
      <trkpt lat="42.90522" lon="0.63468">
        <ele>513.38</ele>
        <time>2020-08-11T11:10:02.259Z</time>
      </trkpt>
      <trkpt lat="42.905" lon="0.63435">
        <ele>515.86</ele>
        <time>2020-08-11T11:10:16.120Z</time>
      </trkpt>
      <trkpt lat="42.90471" lon="0.63378">
        <ele>517.29</ele>
        <time>2020-08-11T11:10:29.912Z</time>
      </trkpt>
      <trkpt lat="42.90441" lon="0.63321">
        <ele>517.62</ele>
        <time>2020-08-11T11:10:40.914Z</time>
      </trkpt>
      <trkpt lat="42.90426" lon="0.63306">
        <ele>518.11</ele>
        <time>2020-08-11T11:10:45.850Z</time>
      </trkpt>
      <trkpt lat="42.90409" lon="0.63292">
        <ele>519.02</ele>
        <time>2020-08-11T11:10:52.656Z</time>
      </trkpt>
      <trkpt lat="42.90394" lon="0.63284">
        <ele>519.72</ele>
        <time>2020-08-11T11:10:58.045Z</time>
      </trkpt>
      <trkpt lat="42.90362" lon="0.63279">
        <ele>520.75</ele>
        <time>2020-08-11T11:11:07.220Z</time>
      </trkpt>
      <trkpt lat="42.90343" lon="0.63283">
        <ele>521.96</ele>
        <time>2020-08-11T11:11:14.617Z</time>
      </trkpt>
      <trkpt lat="42.90324" lon="0.63291">
        <ele>522.93</ele>
        <time>2020-08-11T11:11:21.564Z</time>
      </trkpt>
      <trkpt lat="42.9031" lon="0.633">
        <ele>523.71</ele>
        <time>2020-08-11T11:11:27.028Z</time>
      </trkpt>
      <trkpt lat="42.90297" lon="0.63313">
        <ele>524.51</ele>
        <time>2020-08-11T11:11:32.690Z</time>
      </trkpt>
      <trkpt lat="42.90274" lon="0.63342">
        <ele>525.7</ele>
        <time>2020-08-11T11:11:42.364Z</time>
      </trkpt>
      <trkpt lat="42.90235" lon="0.63385">
        <ele>528.32</ele>
        <time>2020-08-11T11:12:00.285Z</time>
      </trkpt>
      <trkpt lat="42.90209" lon="0.63396">
        <ele>529.18</ele>
        <time>2020-08-11T11:12:07.999Z</time>
      </trkpt>
      <trkpt lat="42.90196" lon="0.63397">
        <ele>529.87</ele>
        <time>2020-08-11T11:12:12.677Z</time>
      </trkpt>
      <trkpt lat="42.9018" lon="0.63395">
        <ele>529.87</ele>
        <time>2020-08-11T11:12:15.913Z</time>
      </trkpt>
      <trkpt lat="42.90168" lon="0.6339">
        <ele>530.23</ele>
        <time>2020-08-11T11:12:19.341Z</time>
      </trkpt>
      <trkpt lat="42.90104" lon="0.63354">
        <ele>532.5</ele>
        <time>2020-08-11T11:12:39.268Z</time>
      </trkpt>
      <trkpt lat="42.90032" lon="0.63325">
        <ele>536.02</ele>
        <time>2020-08-11T11:13:05.177Z</time>
      </trkpt>
      <trkpt lat="42.90007" lon="0.6332">
        <ele>536.13</ele>
        <time>2020-08-11T11:13:10.477Z</time>
      </trkpt>
      <trkpt lat="42.8999" lon="0.63313">
        <ele>536.02</ele>
        <time>2020-08-11T11:13:13.743Z</time>
      </trkpt>
      <trkpt lat="42.89966" lon="0.63298">
        <ele>535.36</ele>
        <time>2020-08-11T11:13:17.070Z</time>
      </trkpt>
      <trkpt lat="42.89949" lon="0.63284">
        <ele>534.45</ele>
        <time>2020-08-11T11:13:19.103Z</time>
      </trkpt>
      <trkpt lat="42.89939" lon="0.6327">
        <ele>534.21</ele>
        <time>2020-08-11T11:13:21.090Z</time>
      </trkpt>
      <trkpt lat="42.89934" lon="0.63257">
        <ele>534.38</ele>
        <time>2020-08-11T11:13:23.623Z</time>
      </trkpt>
      <trkpt lat="42.89924" lon="0.63209">
        <ele>534.59</ele>
        <time>2020-08-11T11:13:31.395Z</time>
      </trkpt>
      <trkpt lat="42.89922" lon="0.6314">
        <ele>534.89</ele>
        <time>2020-08-11T11:13:42.168Z</time>
      </trkpt>
      <trkpt lat="42.8992" lon="0.63071">
        <ele>534.27</ele>
        <time>2020-08-11T11:13:49.592Z</time>
      </trkpt>
      <trkpt lat="42.89921" lon="0.63061">
        <ele>534.27</ele>
        <time>2020-08-11T11:13:51.081Z</time>
      </trkpt>
      <trkpt lat="42.89941" lon="0.63032">
        <ele>536.68</ele>
        <time>2020-08-11T11:14:04.147Z</time>
      </trkpt>
      <trkpt lat="42.89946" lon="0.63019">
        <ele>536.92</ele>
        <time>2020-08-11T11:14:06.870Z</time>
      </trkpt>
      <trkpt lat="42.89947" lon="0.63007">
        <ele>537.11</ele>
        <time>2020-08-11T11:14:09.088Z</time>
      </trkpt>
      <trkpt lat="42.89943" lon="0.62978">
        <ele>537.34</ele>
        <time>2020-08-11T11:14:13.912Z</time>
      </trkpt>
      <trkpt lat="42.89925" lon="0.62927">
        <ele>538</ele>
        <time>2020-08-11T11:14:23.690Z</time>
      </trkpt>
      <trkpt lat="42.8991" lon="0.62869">
        <ele>538.26</ele>
        <time>2020-08-11T11:14:33.271Z</time>
      </trkpt>
      <trkpt lat="42.89895" lon="0.62811">
        <ele>539.11</ele>
        <time>2020-08-11T11:14:44.242Z</time>
      </trkpt>
      <trkpt lat="42.89866" lon="0.62712">
        <ele>540.61</ele>
        <time>2020-08-11T11:15:03.331Z</time>
      </trkpt>
      <trkpt lat="42.89851" lon="0.62673">
        <ele>541.6</ele>
        <time>2020-08-11T11:15:12.370Z</time>
      </trkpt>
      <trkpt lat="42.89833" lon="0.62633">
        <ele>541.82</ele>
        <time>2020-08-11T11:15:19.728Z</time>
      </trkpt>
      <trkpt lat="42.89798" lon="0.62583">
        <ele>543.27</ele>
        <time>2020-08-11T11:15:33.557Z</time>
      </trkpt>
      <trkpt lat="42.89792" lon="0.62572">
        <ele>543.52</ele>
        <time>2020-08-11T11:15:36.178Z</time>
      </trkpt>
      <trkpt lat="42.89787" lon="0.62527">
        <ele>544.39</ele>
        <time>2020-08-11T11:15:45.002Z</time>
      </trkpt>
      <trkpt lat="42.89784" lon="0.62515">
        <ele>544.54</ele>
        <time>2020-08-11T11:15:47.198Z</time>
      </trkpt>
      <trkpt lat="42.8975" lon="0.62476">
        <ele>545.68</ele>
        <time>2020-08-11T11:15:58.892Z</time>
      </trkpt>
      <trkpt lat="42.89695" lon="0.62426">
        <ele>547.24</ele>
        <time>2020-08-11T11:16:15.873Z</time>
      </trkpt>
      <trkpt lat="42.89641" lon="0.62376">
        <ele>548.61</ele>
        <time>2020-08-11T11:16:32.144Z</time>
      </trkpt>
      <trkpt lat="42.89586" lon="0.62326">
        <ele>549.98</ele>
        <time>2020-08-11T11:16:48.573Z</time>
      </trkpt>
      <trkpt lat="42.89533" lon="0.62268">
        <ele>552.12</ele>
        <time>2020-08-11T11:17:07.804Z</time>
      </trkpt>
      <trkpt lat="42.89499" lon="0.62219">
        <ele>555.75</ele>
        <time>2020-08-11T11:17:28.372Z</time>
      </trkpt>
      <trkpt lat="42.89467" lon="0.62187">
        <ele>558.31</ele>
        <time>2020-08-11T11:17:43.813Z</time>
      </trkpt>
      <trkpt lat="42.89419" lon="0.62156">
        <ele>560.97</ele>
        <time>2020-08-11T11:18:02.525Z</time>
      </trkpt>
      <trkpt lat="42.89371" lon="0.62124">
        <ele>563.33</ele>
        <time>2020-08-11T11:18:20.597Z</time>
      </trkpt>
      <trkpt lat="42.89313" lon="0.62081">
        <ele>566.09</ele>
        <time>2020-08-11T11:18:42.144Z</time>
      </trkpt>
      <trkpt lat="42.893" lon="0.6208">
        <ele>566.09</ele>
        <time>2020-08-11T11:18:44.766Z</time>
      </trkpt>
      <trkpt lat="42.8929" lon="0.62083">
        <ele>568.61</ele>
        <time>2020-08-11T11:18:52.720Z</time>
      </trkpt>
      <trkpt lat="42.89263" lon="0.62102">
        <ele>568.72</ele>
        <time>2020-08-11T11:18:59.048Z</time>
      </trkpt>
      <trkpt lat="42.8923" lon="0.62118">
        <ele>568.57</ele>
        <time>2020-08-11T11:19:05.667Z</time>
      </trkpt>
      <trkpt lat="42.89183" lon="0.62148">
        <ele>567.3</ele>
        <time>2020-08-11T11:19:12.244Z</time>
      </trkpt>
      <trkpt lat="42.89161" lon="0.62153">
        <ele>567.3</ele>
        <time>2020-08-11T11:19:16.736Z</time>
      </trkpt>
      <trkpt lat="42.89139" lon="0.62147">
        <ele>566.48</ele>
        <time>2020-08-11T11:19:19.243Z</time>
      </trkpt>
      <trkpt lat="42.89129" lon="0.62137">
        <ele>566.48</ele>
        <time>2020-08-11T11:19:21.740Z</time>
      </trkpt>
      <trkpt lat="42.8912" lon="0.62124">
        <ele>566.22</ele>
        <time>2020-08-11T11:19:23.492Z</time>
      </trkpt>
      <trkpt lat="42.891" lon="0.62068">
        <ele>565.58</ele>
        <time>2020-08-11T11:19:30.041Z</time>
      </trkpt>
      <trkpt lat="42.8908" lon="0.62012">
        <ele>565.75</ele>
        <time>2020-08-11T11:19:39.559Z</time>
      </trkpt>
      <trkpt lat="42.89066" lon="0.61995">
        <ele>566.37</ele>
        <time>2020-08-11T11:19:44.974Z</time>
      </trkpt>
      <trkpt lat="42.89054" lon="0.61988">
        <ele>566.96</ele>
        <time>2020-08-11T11:19:49.430Z</time>
      </trkpt>
      <trkpt lat="42.89044" lon="0.61991">
        <ele>567.39</ele>
        <time>2020-08-11T11:19:52.781Z</time>
      </trkpt>
      <trkpt lat="42.89017" lon="0.62007">
        <ele>562.51</ele>
        <time>2020-08-11T11:19:55.552Z</time>
      </trkpt>
      <trkpt lat="42.89012" lon="0.62009">
        <ele>562.51</ele>
        <time>2020-08-11T11:19:56.601Z</time>
      </trkpt>
      <trkpt lat="42.88932" lon="0.62005">
        <ele>560.11</ele>
        <time>2020-08-11T11:20:06.163Z</time>
      </trkpt>
      <trkpt lat="42.8887" lon="0.61989">
        <ele>558.24</ele>
        <time>2020-08-11T11:20:13.727Z</time>
      </trkpt>
      <trkpt lat="42.88808" lon="0.61974">
        <ele>557.41</ele>
        <time>2020-08-11T11:20:22.859Z</time>
      </trkpt>
      <trkpt lat="42.88746" lon="0.61958">
        <ele>558.1</ele>
        <time>2020-08-11T11:20:36.982Z</time>
      </trkpt>
      <trkpt lat="42.8874" lon="0.61954">
        <ele>558.1</ele>
        <time>2020-08-11T11:20:38.327Z</time>
      </trkpt>
      <trkpt lat="42.88703" lon="0.61916">
        <ele>562.06</ele>
        <time>2020-08-11T11:20:59.581Z</time>
      </trkpt>
      <trkpt lat="42.88665" lon="0.61877">
        <ele>563.78</ele>
        <time>2020-08-11T11:21:13.902Z</time>
      </trkpt>
      <trkpt lat="42.88597" lon="0.61824">
        <ele>567.17</ele>
        <time>2020-08-11T11:21:40.037Z</time>
      </trkpt>
      <trkpt lat="42.88587" lon="0.61813">
        <ele>567.37</ele>
        <time>2020-08-11T11:21:43.055Z</time>
      </trkpt>
      <trkpt lat="42.88572" lon="0.61794">
        <ele>567.37</ele>
        <time>2020-08-11T11:21:47.176Z</time>
      </trkpt>
      <trkpt lat="42.8853" lon="0.61718">
        <ele>567.93</ele>
        <time>2020-08-11T11:22:02.339Z</time>
      </trkpt>
      <trkpt lat="42.88508" lon="0.61689">
        <ele>568.77</ele>
        <time>2020-08-11T11:22:10.570Z</time>
      </trkpt>
      <trkpt lat="42.88487" lon="0.61674">
        <ele>569.86</ele>
        <time>2020-08-11T11:22:18.704Z</time>
      </trkpt>
      <trkpt lat="42.8844" lon="0.61646">
        <ele>572.72</ele>
        <time>2020-08-11T11:22:37.473Z</time>
      </trkpt>
      <trkpt lat="42.88419" lon="0.61628">
        <ele>573.61</ele>
        <time>2020-08-11T11:22:44.914Z</time>
      </trkpt>
      <trkpt lat="42.88381" lon="0.61575">
        <ele>573.05</ele>
        <time>2020-08-11T11:22:53.093Z</time>
      </trkpt>
      <trkpt lat="42.88339" lon="0.61483">
        <ele>571.59</ele>
        <time>2020-08-11T11:23:03.896Z</time>
      </trkpt>
      <trkpt lat="42.88307" lon="0.6143">
        <ele>570.68</ele>
        <time>2020-08-11T11:23:10.764Z</time>
      </trkpt>
      <trkpt lat="42.88298" lon="0.61418">
        <ele>570.61</ele>
        <time>2020-08-11T11:23:13.099Z</time>
      </trkpt>
      <trkpt lat="42.88281" lon="0.61404">
        <ele>570.64</ele>
        <time>2020-08-11T11:23:17.154Z</time>
      </trkpt>
      <trkpt lat="42.88252" lon="0.61388">
        <ele>570.82</ele>
        <time>2020-08-11T11:23:23.805Z</time>
      </trkpt>
      <trkpt lat="42.88214" lon="0.6138">
        <ele>570.57</ele>
        <time>2020-08-11T11:23:30.847Z</time>
      </trkpt>
      <trkpt lat="42.88147" lon="0.61369">
        <ele>569.66</ele>
        <time>2020-08-11T11:23:40.596Z</time>
      </trkpt>
      <trkpt lat="42.8808" lon="0.61359">
        <ele>571.58</ele>
        <time>2020-08-11T11:23:58.964Z</time>
      </trkpt>
      <trkpt lat="42.88013" lon="0.61348">
        <ele>573.97</ele>
        <time>2020-08-11T11:24:19.081Z</time>
      </trkpt>
      <trkpt lat="42.87988" lon="0.61349">
        <ele>576.96</ele>
        <time>2020-08-11T11:24:35.264Z</time>
      </trkpt>
      <trkpt lat="42.87914" lon="0.61374">
        <ele>579.17</ele>
        <time>2020-08-11T11:24:56.169Z</time>
      </trkpt>
      <trkpt lat="42.87854" lon="0.61399">
        <ele>580.96</ele>
        <time>2020-08-11T11:25:13.275Z</time>
      </trkpt>
      <trkpt lat="42.87822" lon="0.61409">
        <ele>581.1</ele>
        <time>2020-08-11T11:25:20.155Z</time>
      </trkpt>
      <trkpt lat="42.87797" lon="0.61411">
        <ele>581.09</ele>
        <time>2020-08-11T11:25:25.168Z</time>
      </trkpt>
      <trkpt lat="42.87765" lon="0.61408">
        <ele>580.87</ele>
        <time>2020-08-11T11:25:31.014Z</time>
      </trkpt>
      <trkpt lat="42.87691" lon="0.61379">
        <ele>586.44</ele>
        <time>2020-08-11T11:26:02.779Z</time>
      </trkpt>
      <trkpt lat="42.87609" lon="0.61341">
        <ele>592.71</ele>
        <time>2020-08-11T11:26:38.523Z</time>
      </trkpt>
      <trkpt lat="42.87528" lon="0.61303">
        <ele>592.31</ele>
        <time>2020-08-11T11:26:54.623Z</time>
      </trkpt>
      <trkpt lat="42.87446" lon="0.61265">
        <ele>590.69</ele>
        <time>2020-08-11T11:27:06.355Z</time>
      </trkpt>
      <trkpt lat="42.87364" lon="0.61227">
        <ele>591.69</ele>
        <time>2020-08-11T11:27:25.860Z</time>
      </trkpt>
      <trkpt lat="42.87336" lon="0.61209">
        <ele>591.69</ele>
        <time>2020-08-11T11:27:32.094Z</time>
      </trkpt>
      <trkpt lat="42.87286" lon="0.61173">
        <ele>593.22</ele>
        <time>2020-08-11T11:27:47.233Z</time>
      </trkpt>
      <trkpt lat="42.87236" lon="0.61136">
        <ele>594.18</ele>
        <time>2020-08-11T11:28:00.784Z</time>
      </trkpt>
      <trkpt lat="42.87208" lon="0.61122">
        <ele>594.71</ele>
        <time>2020-08-11T11:28:07.958Z</time>
      </trkpt>
      <trkpt lat="42.8716" lon="0.61104">
        <ele>595.3</ele>
        <time>2020-08-11T11:28:19.205Z</time>
      </trkpt>
      <trkpt lat="42.87112" lon="0.61085">
        <ele>594.75</ele>
        <time>2020-08-11T11:28:26.660Z</time>
      </trkpt>
      <trkpt lat="42.87084" lon="0.61069">
        <ele>595.28</ele>
        <time>2020-08-11T11:28:33.938Z</time>
      </trkpt>
      <trkpt lat="42.87042" lon="0.61038">
        <ele>596.18</ele>
        <time>2020-08-11T11:28:45.562Z</time>
      </trkpt>
      <trkpt lat="42.86999" lon="0.61007">
        <ele>596.97</ele>
        <time>2020-08-11T11:28:57.069Z</time>
      </trkpt>
      <trkpt lat="42.86958" lon="0.60988">
        <ele>598.01</ele>
        <time>2020-08-11T11:29:08.250Z</time>
      </trkpt>
      <trkpt lat="42.86883" lon="0.60966">
        <ele>598.89</ele>
        <time>2020-08-11T11:29:25.515Z</time>
      </trkpt>
      <trkpt lat="42.86836" lon="0.60945">
        <ele>598.89</ele>
        <time>2020-08-11T11:29:35.476Z</time>
      </trkpt>
      <trkpt lat="42.86811" lon="0.60928">
        <ele>599.91</ele>
        <time>2020-08-11T11:29:43.929Z</time>
      </trkpt>
      <trkpt lat="42.86796" lon="0.60915">
        <ele>599.97</ele>
        <time>2020-08-11T11:29:47.622Z</time>
      </trkpt>
      <trkpt lat="42.86759" lon="0.60867">
        <ele>600.7</ele>
        <time>2020-08-11T11:29:59.455Z</time>
      </trkpt>
      <trkpt lat="42.86721" lon="0.60818">
        <ele>602.5</ele>
        <time>2020-08-11T11:30:14.836Z</time>
      </trkpt>
      <trkpt lat="42.86676" lon="0.60766">
        <ele>602.77</ele>
        <time>2020-08-11T11:30:27.233Z</time>
      </trkpt>
      <trkpt lat="42.8662" lon="0.60714">
        <ele>603.39</ele>
        <time>2020-08-11T11:30:42.124Z</time>
      </trkpt>
      <trkpt lat="42.86564" lon="0.60662">
        <ele>604.27</ele>
        <time>2020-08-11T11:30:57.610Z</time>
      </trkpt>
      <trkpt lat="42.86508" lon="0.6061">
        <ele>604.28</ele>
        <time>2020-08-11T11:31:11.272Z</time>
      </trkpt>
      <trkpt lat="42.86452" lon="0.60558">
        <ele>602.16</ele>
        <time>2020-08-11T11:31:19.253Z</time>
      </trkpt>
      <trkpt lat="42.86444" lon="0.60551">
        <ele>602.16</ele>
        <time>2020-08-11T11:31:21.167Z</time>
      </trkpt>
      <trkpt lat="42.86408" lon="0.60531">
        <ele>601.8</ele>
        <time>2020-08-11T11:31:27.100Z</time>
      </trkpt>
      <trkpt lat="42.86368" lon="0.60518">
        <ele>601.18</ele>
        <time>2020-08-11T11:31:32.923Z</time>
      </trkpt>
      <trkpt lat="42.86319" lon="0.60512">
        <ele>601.16</ele>
        <time>2020-08-11T11:31:42.770Z</time>
      </trkpt>
      <trkpt lat="42.86289" lon="0.60513">
        <ele>601.16</ele>
        <time>2020-08-11T11:31:48.814Z</time>
      </trkpt>
      <trkpt lat="42.86215" lon="0.60535">
        <ele>601.51</ele>
        <time>2020-08-11T11:32:04.742Z</time>
      </trkpt>
      <trkpt lat="42.86141" lon="0.60557">
        <ele>601.51</ele>
        <time>2020-08-11T11:32:19.996Z</time>
      </trkpt>
      <trkpt lat="42.86067" lon="0.60579">
        <ele>601.76</ele>
        <time>2020-08-11T11:32:35.726Z</time>
      </trkpt>
      <trkpt lat="42.86036" lon="0.60585">
        <ele>601.67</ele>
        <time>2020-08-11T11:32:41.766Z</time>
      </trkpt>
      <trkpt lat="42.86007" lon="0.60585">
        <ele>602.09</ele>
        <time>2020-08-11T11:32:48.500Z</time>
      </trkpt>
      <trkpt lat="42.85978" lon="0.60579">
        <ele>603.76</ele>
        <time>2020-08-11T11:32:59.321Z</time>
      </trkpt>
      <trkpt lat="42.85944" lon="0.60565">
        <ele>605.19</ele>
        <time>2020-08-11T11:33:10.654Z</time>
      </trkpt>
      <trkpt lat="42.85924" lon="0.6056">
        <ele>605.62</ele>
        <time>2020-08-11T11:33:15.733Z</time>
      </trkpt>
      <trkpt lat="42.85859" lon="0.60556">
        <ele>606.17</ele>
        <time>2020-08-11T11:33:29.937Z</time>
      </trkpt>
      <trkpt lat="42.85832" lon="0.60557">
        <ele>606.39</ele>
        <time>2020-08-11T11:33:35.816Z</time>
      </trkpt>
      <trkpt lat="42.8575" lon="0.60587">
        <ele>606.68</ele>
        <time>2020-08-11T11:33:53.467Z</time>
      </trkpt>
      <trkpt lat="42.85718" lon="0.60596">
        <ele>606.8</ele>
        <time>2020-08-11T11:34:00.277Z</time>
      </trkpt>
      <trkpt lat="42.85684" lon="0.606">
        <ele>606.8</ele>
        <time>2020-08-11T11:34:07.150Z</time>
      </trkpt>
      <trkpt lat="42.85658" lon="0.60601">
        <ele>607.05</ele>
        <time>2020-08-11T11:34:12.895Z</time>
      </trkpt>
      <trkpt lat="42.85641" lon="0.60598">
        <ele>607.05</ele>
        <time>2020-08-11T11:34:16.347Z</time>
      </trkpt>
      <trkpt lat="42.85621" lon="0.60591">
        <ele>607.09</ele>
        <time>2020-08-11T11:34:20.581Z</time>
      </trkpt>
      <trkpt lat="42.85582" lon="0.60573">
        <ele>607.42</ele>
        <time>2020-08-11T11:34:29.530Z</time>
      </trkpt>
      <trkpt lat="42.85506" lon="0.60528">
        <ele>603.76</ele>
        <time>2020-08-11T11:34:38.143Z</time>
      </trkpt>
      <trkpt lat="42.85429" lon="0.60483">
        <ele>601.57</ele>
        <time>2020-08-11T11:34:48.568Z</time>
      </trkpt>
      <trkpt lat="42.85406" lon="0.6046">
        <ele>601.1</ele>
        <time>2020-08-11T11:34:52.537Z</time>
      </trkpt>
      <trkpt lat="42.85357" lon="0.60396">
        <ele>600.1</ele>
        <time>2020-08-11T11:35:02.184Z</time>
      </trkpt>
      <trkpt lat="42.85307" lon="0.60331">
        <ele>599.14</ele>
        <time>2020-08-11T11:35:12.110Z</time>
      </trkpt>
      <trkpt lat="42.85291" lon="0.60314">
        <ele>598.79</ele>
        <time>2020-08-11T11:35:14.906Z</time>
      </trkpt>
      <trkpt lat="42.85275" lon="0.603">
        <ele>598.6</ele>
        <time>2020-08-11T11:35:17.779Z</time>
      </trkpt>
      <trkpt lat="42.85257" lon="0.60288">
        <ele>598.42</ele>
        <time>2020-08-11T11:35:20.849Z</time>
      </trkpt>
      <trkpt lat="42.8523" lon="0.60273">
        <ele>598.57</ele>
        <time>2020-08-11T11:35:27.011Z</time>
      </trkpt>
      <trkpt lat="42.8521" lon="0.60265">
        <ele>599.01</ele>
        <time>2020-08-11T11:35:32.215Z</time>
      </trkpt>
      <trkpt lat="42.85189" lon="0.60259">
        <ele>599.01</ele>
        <time>2020-08-11T11:35:36.536Z</time>
      </trkpt>
      <trkpt lat="42.85131" lon="0.60251">
        <ele>598.74</ele>
        <time>2020-08-11T11:35:47.500Z</time>
      </trkpt>
      <trkpt lat="42.85072" lon="0.60252">
        <ele>598.48</ele>
        <time>2020-08-11T11:35:58.632Z</time>
      </trkpt>
      <trkpt lat="42.85012" lon="0.60252">
        <ele>598.41</ele>
        <time>2020-08-11T11:36:10.504Z</time>
      </trkpt>
      <trkpt lat="42.84959" lon="0.60259">
        <ele>598.24</ele>
        <time>2020-08-11T11:36:20.728Z</time>
      </trkpt>
      <trkpt lat="42.84882" lon="0.60278">
        <ele>597.1</ele>
        <time>2020-08-11T11:36:31.879Z</time>
      </trkpt>
      <trkpt lat="42.84805" lon="0.60297">
        <ele>595.21</ele>
        <time>2020-08-11T11:36:41.835Z</time>
      </trkpt>
      <trkpt lat="42.84728" lon="0.60316">
        <ele>594.58</ele>
        <time>2020-08-11T11:36:53.977Z</time>
      </trkpt>
      <trkpt lat="42.84651" lon="0.60335">
        <ele>596.83</ele>
        <time>2020-08-11T11:37:15.372Z</time>
      </trkpt>
      <trkpt lat="42.84574" lon="0.60354">
        <ele>598.48</ele>
        <time>2020-08-11T11:37:34.905Z</time>
      </trkpt>
      <trkpt lat="42.84497" lon="0.60373">
        <ele>598.17</ele>
        <time>2020-08-11T11:37:49.763Z</time>
      </trkpt>
      <trkpt lat="42.84421" lon="0.60389">
        <ele>597.95</ele>
        <time>2020-08-11T11:38:04.601Z</time>
      </trkpt>
      <trkpt lat="42.84366" lon="0.60397">
        <ele>596.74</ele>
        <time>2020-08-11T11:38:11.822Z</time>
      </trkpt>
      <trkpt lat="42.84311" lon="0.60405">
        <ele>595.96</ele>
        <time>2020-08-11T11:38:19.750Z</time>
      </trkpt>
      <trkpt lat="42.84249" lon="0.60419">
        <ele>595.15</ele>
        <time>2020-08-11T11:38:28.898Z</time>
      </trkpt>
      <trkpt lat="42.84218" lon="0.60431">
        <ele>595.17</ele>
        <time>2020-08-11T11:38:35.426Z</time>
      </trkpt>
      <trkpt lat="42.84176" lon="0.60451">
        <ele>595.43</ele>
        <time>2020-08-11T11:38:44.892Z</time>
      </trkpt>
      <trkpt lat="42.84144" lon="0.6046">
        <ele>595.58</ele>
        <time>2020-08-11T11:38:51.762Z</time>
      </trkpt>
      <trkpt lat="42.8412" lon="0.60464">
        <ele>596.03</ele>
        <time>2020-08-11T11:38:57.632Z</time>
      </trkpt>
      <trkpt lat="42.84093" lon="0.60465">
        <ele>597.15</ele>
        <time>2020-08-11T11:39:06.404Z</time>
      </trkpt>
      <trkpt lat="42.84059" lon="0.6046">
        <ele>599</ele>
        <time>2020-08-11T11:39:18.780Z</time>
      </trkpt>
      <trkpt lat="42.83984" lon="0.60442">
        <ele>602.37</ele>
        <time>2020-08-11T11:39:44.572Z</time>
      </trkpt>
      <trkpt lat="42.83905" lon="0.60419">
        <ele>604.17</ele>
        <time>2020-08-11T11:40:05.014Z</time>
      </trkpt>
      <trkpt lat="42.83825" lon="0.60395">
        <ele>604.16</ele>
        <time>2020-08-11T11:40:21.481Z</time>
      </trkpt>
      <trkpt lat="42.83746" lon="0.60372">
        <ele>602.14</ele>
        <time>2020-08-11T11:40:31.662Z</time>
      </trkpt>
      <trkpt lat="42.83666" lon="0.60348">
        <ele>598.67</ele>
        <time>2020-08-11T11:40:40.320Z</time>
      </trkpt>
      <trkpt lat="42.83627" lon="0.60336">
        <ele>597.21</ele>
        <time>2020-08-11T11:40:44.789Z</time>
      </trkpt>
      <trkpt lat="42.83552" lon="0.60315">
        <ele>596.97</ele>
        <time>2020-08-11T11:40:59.503Z</time>
      </trkpt>
      <trkpt lat="42.83477" lon="0.60294">
        <ele>597.23</ele>
        <time>2020-08-11T11:41:15.418Z</time>
      </trkpt>
      <trkpt lat="42.83402" lon="0.60273">
        <ele>597.32</ele>
        <time>2020-08-11T11:41:31.007Z</time>
      </trkpt>
      <trkpt lat="42.83326" lon="0.60251">
        <ele>598.57</ele>
        <time>2020-08-11T11:41:49.360Z</time>
      </trkpt>
      <trkpt lat="42.83251" lon="0.6023">
        <ele>600.32</ele>
        <time>2020-08-11T11:42:08.864Z</time>
      </trkpt>
      <trkpt lat="42.83176" lon="0.60209">
        <ele>600.79</ele>
        <time>2020-08-11T11:42:25.203Z</time>
      </trkpt>
      <trkpt lat="42.83114" lon="0.60193">
        <ele>599.44</ele>
        <time>2020-08-11T11:42:33.487Z</time>
      </trkpt>
      <trkpt lat="42.83053" lon="0.60178">
        <ele>599.34</ele>
        <time>2020-08-11T11:42:45.670Z</time>
      </trkpt>
      <trkpt lat="42.82991" lon="0.60162">
        <ele>598.46</ele>
        <time>2020-08-11T11:42:54.732Z</time>
      </trkpt>
      <trkpt lat="42.82956" lon="0.6016">
        <ele>598.92</ele>
        <time>2020-08-11T11:43:02.752Z</time>
      </trkpt>
      <trkpt lat="42.82917" lon="0.60166">
        <ele>599.15</ele>
        <time>2020-08-11T11:43:11.105Z</time>
      </trkpt>
      <trkpt lat="42.82915" lon="0.60159">
        <ele>599.73</ele>
        <time>2020-08-11T11:43:14.147Z</time>
      </trkpt>
      <trkpt lat="42.82911" lon="0.60154">
        <ele>599.73</ele>
        <time>2020-08-11T11:43:15.240Z</time>
      </trkpt>
      <trkpt lat="42.82906" lon="0.60151">
        <ele>599.73</ele>
        <time>2020-08-11T11:43:16.341Z</time>
      </trkpt>
      <trkpt lat="42.82896" lon="0.60154">
        <ele>599.01</ele>
        <time>2020-08-11T11:43:17.304Z</time>
      </trkpt>
      <trkpt lat="42.8289" lon="0.60165">
        <ele>599.01</ele>
        <time>2020-08-11T11:43:19.329Z</time>
      </trkpt>
      <trkpt lat="42.82891" lon="0.60172">
        <ele>599.01</ele>
        <time>2020-08-11T11:43:20.383Z</time>
      </trkpt>
      <trkpt lat="42.82829" lon="0.60184">
        <ele>598.82</ele>
        <time>2020-08-11T11:43:32.435Z</time>
      </trkpt>
      <trkpt lat="42.82766" lon="0.60196">
        <ele>599.7</ele>
        <time>2020-08-11T11:43:47.106Z</time>
      </trkpt>
      <trkpt lat="42.82705" lon="0.60211">
        <ele>600.05</ele>
        <time>2020-08-11T11:44:00.271Z</time>
      </trkpt>
      <trkpt lat="42.82648" lon="0.60235">
        <ele>601.04</ele>
        <time>2020-08-11T11:44:14.439Z</time>
      </trkpt>
      <trkpt lat="42.82568" lon="0.60272">
        <ele>601.39</ele>
        <time>2020-08-11T11:44:32.125Z</time>
      </trkpt>
      <trkpt lat="42.82489" lon="0.60308">
        <ele>601.7</ele>
        <time>2020-08-11T11:44:49.493Z</time>
      </trkpt>
      <trkpt lat="42.82409" lon="0.60345">
        <ele>601.99</ele>
        <time>2020-08-11T11:45:07.060Z</time>
      </trkpt>
      <trkpt lat="42.82357" lon="0.60361">
        <ele>602.53</ele>
        <time>2020-08-11T11:45:18.895Z</time>
      </trkpt>
      <trkpt lat="42.82305" lon="0.60376">
        <ele>602.82</ele>
        <time>2020-08-11T11:45:30.163Z</time>
      </trkpt>
      <trkpt lat="42.82265" lon="0.60381">
        <ele>603.06</ele>
        <time>2020-08-11T11:45:38.721Z</time>
      </trkpt>
      <trkpt lat="42.82218" lon="0.60381">
        <ele>603.26</ele>
        <time>2020-08-11T11:45:48.571Z</time>
      </trkpt>
      <trkpt lat="42.8217" lon="0.6038">
        <ele>603.96</ele>
        <time>2020-08-11T11:45:59.730Z</time>
      </trkpt>
      <trkpt lat="42.82109" lon="0.60371">
        <ele>603.98</ele>
        <time>2020-08-11T11:46:12.125Z</time>
      </trkpt>
      <trkpt lat="42.82023" lon="0.60351">
        <ele>604.92</ele>
        <time>2020-08-11T11:46:31.620Z</time>
      </trkpt>
      <trkpt lat="42.81936" lon="0.60332">
        <ele>605.83</ele>
        <time>2020-08-11T11:46:51.220Z</time>
      </trkpt>
      <trkpt lat="42.8185" lon="0.60312">
        <ele>605.89</ele>
        <time>2020-08-11T11:47:08.903Z</time>
      </trkpt>
      <trkpt lat="42.81764" lon="0.60292">
        <ele>606.86</ele>
        <time>2020-08-11T11:47:28.466Z</time>
      </trkpt>
      <trkpt lat="42.81677" lon="0.60273">
        <ele>606.98</ele>
        <time>2020-08-11T11:47:46.436Z</time>
      </trkpt>
      <trkpt lat="42.81591" lon="0.60253">
        <ele>607</ele>
        <time>2020-08-11T11:48:04.044Z</time>
      </trkpt>
      <trkpt lat="42.81505" lon="0.60233">
        <ele>607</ele>
        <time>2020-08-11T11:48:21.615Z</time>
      </trkpt>
      <trkpt lat="42.81418" lon="0.60214">
        <ele>607.2</ele>
        <time>2020-08-11T11:48:39.738Z</time>
      </trkpt>
      <trkpt lat="42.81332" lon="0.60194">
        <ele>609.65</ele>
        <time>2020-08-11T11:49:03.394Z</time>
      </trkpt>
      <trkpt lat="42.81253" lon="0.60177">
        <ele>610.48</ele>
        <time>2020-08-11T11:49:21.195Z</time>
      </trkpt>
      <trkpt lat="42.81173" lon="0.60159">
        <ele>610.51</ele>
        <time>2020-08-11T11:49:37.581Z</time>
      </trkpt>
      <trkpt lat="42.81094" lon="0.60142">
        <ele>611.32</ele>
        <time>2020-08-11T11:49:55.336Z</time>
      </trkpt>
      <trkpt lat="42.81015" lon="0.60124">
        <ele>611.49</ele>
        <time>2020-08-11T11:50:11.788Z</time>
      </trkpt>
      <trkpt lat="42.80935" lon="0.60107">
        <ele>612.08</ele>
        <time>2020-08-11T11:50:29.261Z</time>
      </trkpt>
      <trkpt lat="42.80856" lon="0.60089">
        <ele>612.36</ele>
        <time>2020-08-11T11:50:45.927Z</time>
      </trkpt>
      <trkpt lat="42.80776" lon="0.60072">
        <ele>612.8</ele>
        <time>2020-08-11T11:51:03.088Z</time>
      </trkpt>
      <trkpt lat="42.80697" lon="0.60054">
        <ele>613.1</ele>
        <time>2020-08-11T11:51:19.793Z</time>
      </trkpt>
      <trkpt lat="42.80618" lon="0.60033">
        <ele>612.54</ele>
        <time>2020-08-11T11:51:34.442Z</time>
      </trkpt>
      <trkpt lat="42.80574" lon="0.60019">
        <ele>613.12</ele>
        <time>2020-08-11T11:51:44.755Z</time>
      </trkpt>
      <trkpt lat="42.80549" lon="0.60017">
        <ele>613.27</ele>
        <time>2020-08-11T11:51:50.092Z</time>
      </trkpt>
      <trkpt lat="42.80536" lon="0.6">
        <ele>612.97</ele>
        <time>2020-08-11T11:51:52.594Z</time>
      </trkpt>
      <trkpt lat="42.80528" lon="0.59997">
        <ele>612.97</ele>
        <time>2020-08-11T11:51:54.265Z</time>
      </trkpt>
      <trkpt lat="42.8052" lon="0.60001">
        <ele>612.97</ele>
        <time>2020-08-11T11:51:55.981Z</time>
      </trkpt>
      <trkpt lat="42.80457" lon="0.59951">
        <ele>612.66</ele>
        <time>2020-08-11T11:52:09.766Z</time>
      </trkpt>
      <trkpt lat="42.80394" lon="0.59901">
        <ele>614.48</ele>
        <time>2020-08-11T11:52:28.802Z</time>
      </trkpt>
      <trkpt lat="42.80331" lon="0.5985">
        <ele>615.45</ele>
        <time>2020-08-11T11:52:45.596Z</time>
      </trkpt>
      <trkpt lat="42.80268" lon="0.598">
        <ele>616.03</ele>
        <time>2020-08-11T11:53:01.433Z</time>
      </trkpt>
      <trkpt lat="42.80239" lon="0.59782">
        <ele>616.76</ele>
        <time>2020-08-11T11:53:09.556Z</time>
      </trkpt>
      <trkpt lat="42.80184" lon="0.59754">
        <ele>617.6</ele>
        <time>2020-08-11T11:53:23.164Z</time>
      </trkpt>
      <trkpt lat="42.80146" lon="0.59743">
        <ele>618.03</ele>
        <time>2020-08-11T11:53:31.871Z</time>
      </trkpt>
      <trkpt lat="42.80101" lon="0.59737">
        <ele>618.89</ele>
        <time>2020-08-11T11:53:42.899Z</time>
      </trkpt>
      <trkpt lat="42.80044" lon="0.59735">
        <ele>619.23</ele>
        <time>2020-08-11T11:53:55.046Z</time>
      </trkpt>
      <trkpt lat="42.79987" lon="0.59733">
        <ele>619.81</ele>
        <time>2020-08-11T11:54:07.710Z</time>
      </trkpt>
      <trkpt lat="42.79931" lon="0.59728">
        <ele>619.89</ele>
        <time>2020-08-11T11:54:19.163Z</time>
      </trkpt>
      <trkpt lat="42.79851" lon="0.59717">
        <ele>620.21</ele>
        <time>2020-08-11T11:54:35.970Z</time>
      </trkpt>
      <trkpt lat="42.7977" lon="0.59705">
        <ele>621.9</ele>
        <time>2020-08-11T11:54:56.229Z</time>
      </trkpt>
      <trkpt lat="42.79692" lon="0.59695">
        <ele>623.27</ele>
        <time>2020-08-11T11:55:15.017Z</time>
      </trkpt>
      <trkpt lat="42.79613" lon="0.59685">
        <ele>624.44</ele>
        <time>2020-08-11T11:55:33.492Z</time>
      </trkpt>
      <trkpt lat="42.79536" lon="0.59674">
        <ele>625.56</ele>
        <time>2020-08-11T11:55:51.468Z</time>
      </trkpt>
      <trkpt lat="42.79529" lon="0.59657">
        <ele>625.56</ele>
        <time>2020-08-11T11:55:54.349Z</time>
      </trkpt>
      <trkpt lat="42.79525" lon="0.5964">
        <ele>625.62</ele>
        <time>2020-08-11T11:55:57.102Z</time>
      </trkpt>
      <trkpt lat="42.79519" lon="0.59548">
        <ele>626.87</ele>
        <time>2020-08-11T11:56:13.528Z</time>
      </trkpt>
      <trkpt lat="42.79512" lon="0.59456">
        <ele>631.47</ele>
        <time>2020-08-11T11:56:40.580Z</time>
      </trkpt>
      <trkpt lat="42.79515" lon="0.59451">
        <ele>631.47</ele>
        <time>2020-08-11T11:56:41.535Z</time>
      </trkpt>
      <trkpt lat="42.79515" lon="0.59437">
        <ele>632.6</ele>
        <time>2020-08-11T11:56:47.496Z</time>
      </trkpt>
      <trkpt lat="42.79505" lon="0.59418">
        <ele>634.89</ele>
        <time>2020-08-11T11:57:00.825Z</time>
      </trkpt>
      <trkpt lat="42.79503" lon="0.59399">
        <ele>634.89</ele>
        <time>2020-08-11T11:57:03.662Z</time>
      </trkpt>
      <trkpt lat="42.7947" lon="0.59327">
        <ele>639.93</ele>
        <time>2020-08-11T11:57:31.170Z</time>
      </trkpt>
      <trkpt lat="42.79432" lon="0.59264">
        <ele>641.86</ele>
        <time>2020-08-11T11:57:48.276Z</time>
      </trkpt>
      <trkpt lat="42.79396" lon="0.59197">
        <ele>642.97</ele>
        <time>2020-08-11T11:58:03.007Z</time>
      </trkpt>
      <trkpt lat="42.79379" lon="0.59159">
        <ele>642.35</ele>
        <time>2020-08-11T11:58:07.417Z</time>
      </trkpt>
      <trkpt lat="42.79375" lon="0.59138">
        <ele>641.46</ele>
        <time>2020-08-11T11:58:08.912Z</time>
      </trkpt>
      <trkpt lat="42.79374" lon="0.59115">
        <ele>641.46</ele>
        <time>2020-08-11T11:58:12.317Z</time>
      </trkpt>
      <trkpt lat="42.79381" lon="0.59045">
        <ele>643.25</ele>
        <time>2020-08-11T11:58:27.588Z</time>
      </trkpt>
      <trkpt lat="42.79378" lon="0.59006">
        <ele>644.49</ele>
        <time>2020-08-11T11:58:37.163Z</time>
      </trkpt>
      <trkpt lat="42.79368" lon="0.58937">
        <ele>645.66</ele>
        <time>2020-08-11T11:58:50.282Z</time>
      </trkpt>
      <trkpt lat="42.79357" lon="0.58867">
        <ele>646.11</ele>
        <time>2020-08-11T11:59:01.763Z</time>
      </trkpt>
      <trkpt lat="42.79346" lon="0.58779">
        <ele>649.15</ele>
        <time>2020-08-11T11:59:24.301Z</time>
      </trkpt>
      <trkpt lat="42.79341" lon="0.58717">
        <ele>650.92</ele>
        <time>2020-08-11T11:59:38.576Z</time>
      </trkpt>
      <trkpt lat="42.79336" lon="0.58654">
        <ele>651.84</ele>
        <time>2020-08-11T11:59:50.014Z</time>
      </trkpt>
      <trkpt lat="42.79345" lon="0.58606">
        <ele>653.83</ele>
        <time>2020-08-11T12:00:03.228Z</time>
      </trkpt>
      <trkpt lat="42.79373" lon="0.58528">
        <ele>658.77</ele>
        <time>2020-08-11T12:00:30.606Z</time>
      </trkpt>
      <trkpt lat="42.79388" lon="0.58477">
        <ele>663.5</ele>
        <time>2020-08-11T12:00:56.009Z</time>
      </trkpt>
      <trkpt lat="42.79398" lon="0.58424">
        <ele>666.23</ele>
        <time>2020-08-11T12:01:12.040Z</time>
      </trkpt>
      <trkpt lat="42.79403" lon="0.58366">
        <ele>669.81</ele>
        <time>2020-08-11T12:01:31.383Z</time>
      </trkpt>
      <trkpt lat="42.79407" lon="0.58339">
        <ele>671.37</ele>
        <time>2020-08-11T12:01:40.043Z</time>
      </trkpt>
      <trkpt lat="42.79418" lon="0.583">
        <ele>674.3</ele>
        <time>2020-08-11T12:01:55.436Z</time>
      </trkpt>
      <trkpt lat="42.79424" lon="0.58261">
        <ele>678.58</ele>
        <time>2020-08-11T12:02:18.152Z</time>
      </trkpt>
      <trkpt lat="42.79422" lon="0.58149">
        <ele>682.89</ele>
        <time>2020-08-11T12:02:47.571Z</time>
      </trkpt>
      <trkpt lat="42.79423" lon="0.5809">
        <ele>686.86</ele>
        <time>2020-08-11T12:03:08.551Z</time>
      </trkpt>
      <trkpt lat="42.7943" lon="0.58041">
        <ele>687.72</ele>
        <time>2020-08-11T12:03:17.950Z</time>
      </trkpt>
      <trkpt lat="42.79453" lon="0.57936">
        <ele>687.78</ele>
        <time>2020-08-11T12:03:34.256Z</time>
      </trkpt>
      <trkpt lat="42.79463" lon="0.57916">
        <ele>688.66</ele>
        <time>2020-08-11T12:03:40.492Z</time>
      </trkpt>
      <trkpt lat="42.79485" lon="0.5789">
        <ele>692.86</ele>
        <time>2020-08-11T12:04:03.114Z</time>
      </trkpt>
      <trkpt lat="42.79501" lon="0.57866">
        <ele>694.41</ele>
        <time>2020-08-11T12:04:12.417Z</time>
      </trkpt>
      <trkpt lat="42.79531" lon="0.57812">
        <ele>700.71</ele>
        <time>2020-08-11T12:04:47.630Z</time>
      </trkpt>
      <trkpt lat="42.79561" lon="0.57757">
        <ele>708.68</ele>
        <time>2020-08-11T12:05:26.696Z</time>
      </trkpt>
      <trkpt lat="42.79573" lon="0.57731">
        <ele>711.47</ele>
        <time>2020-08-11T12:05:42.062Z</time>
      </trkpt>
      <trkpt lat="42.7958" lon="0.57691">
        <ele>716.06</ele>
        <time>2020-08-11T12:06:05.504Z</time>
      </trkpt>
      <trkpt lat="42.79585" lon="0.57616">
        <ele>723.98</ele>
        <time>2020-08-11T12:06:48.433Z</time>
      </trkpt>
      <trkpt lat="42.79582" lon="0.57575">
        <ele>727.77</ele>
        <time>2020-08-11T12:07:09.464Z</time>
      </trkpt>
      <trkpt lat="42.79602" lon="0.57484">
        <ele>735.23</ele>
        <time>2020-08-11T12:07:48.655Z</time>
      </trkpt>
      <trkpt lat="42.79631" lon="0.57374">
        <ele>741.04</ele>
        <time>2020-08-11T12:08:22.832Z</time>
      </trkpt>
      <trkpt lat="42.79642" lon="0.57319">
        <ele>745.07</ele>
        <time>2020-08-11T12:08:43.987Z</time>
      </trkpt>
      <trkpt lat="42.79653" lon="0.57237">
        <ele>749.59</ele>
        <time>2020-08-11T12:09:09.527Z</time>
      </trkpt>
      <trkpt lat="42.79655" lon="0.57207">
        <ele>751.11</ele>
        <time>2020-08-11T12:09:18.403Z</time>
      </trkpt>
      <trkpt lat="42.79653" lon="0.57179">
        <ele>752.08</ele>
        <time>2020-08-11T12:09:25.532Z</time>
      </trkpt>
      <trkpt lat="42.79645" lon="0.57138">
        <ele>754.45</ele>
        <time>2020-08-11T12:09:38.760Z</time>
      </trkpt>
      <trkpt lat="42.7962" lon="0.57056">
        <ele>757.53</ele>
        <time>2020-08-11T12:10:01.303Z</time>
      </trkpt>
      <trkpt lat="42.7962" lon="0.57038">
        <ele>757.98</ele>
        <time>2020-08-11T12:10:05.170Z</time>
      </trkpt>
      <trkpt lat="42.79644" lon="0.56959">
        <ele>763.85</ele>
        <time>2020-08-11T12:10:36.090Z</time>
      </trkpt>
      <trkpt lat="42.79667" lon="0.56879">
        <ele>764.76</ele>
        <time>2020-08-11T12:10:50.723Z</time>
      </trkpt>
      <trkpt lat="42.79678" lon="0.5685">
        <ele>765.84</ele>
        <time>2020-08-11T12:10:58.896Z</time>
      </trkpt>
      <trkpt lat="42.79689" lon="0.56828">
        <ele>767.07</ele>
        <time>2020-08-11T12:11:06.414Z</time>
      </trkpt>
      <trkpt lat="42.79725" lon="0.56767">
        <ele>769.48</ele>
        <time>2020-08-11T12:11:25.204Z</time>
      </trkpt>
      <trkpt lat="42.79752" lon="0.56684">
        <ele>773.46</ele>
        <time>2020-08-11T12:11:50.265Z</time>
      </trkpt>
      <trkpt lat="42.79777" lon="0.56662">
        <ele>774.58</ele>
        <time>2020-08-11T12:11:59.412Z</time>
      </trkpt>
      <trkpt lat="42.79791" lon="0.56657">
        <ele>775.26</ele>
        <time>2020-08-11T12:12:04.410Z</time>
      </trkpt>
      <trkpt lat="42.79838" lon="0.5666">
        <ele>776.95</ele>
        <time>2020-08-11T12:12:18.533Z</time>
      </trkpt>
      <trkpt lat="42.79891" lon="0.56651">
        <ele>777.55</ele>
        <time>2020-08-11T12:12:30.524Z</time>
      </trkpt>
      <trkpt lat="42.79909" lon="0.56645">
        <ele>777.98</ele>
        <time>2020-08-11T12:12:35.264Z</time>
      </trkpt>
      <trkpt lat="42.79923" lon="0.56635">
        <ele>778.16</ele>
        <time>2020-08-11T12:12:38.818Z</time>
      </trkpt>
      <trkpt lat="42.7997" lon="0.56594">
        <ele>777.46</ele>
        <time>2020-08-11T12:12:46.977Z</time>
      </trkpt>
      <trkpt lat="42.80016" lon="0.56552">
        <ele>776.88</ele>
        <time>2020-08-11T12:12:55.293Z</time>
      </trkpt>
      <trkpt lat="42.80094" lon="0.56511">
        <ele>777.96</ele>
        <time>2020-08-11T12:13:14.391Z</time>
      </trkpt>
      <trkpt lat="42.80111" lon="0.56498">
        <ele>777.96</ele>
        <time>2020-08-11T12:13:18.317Z</time>
      </trkpt>
      <trkpt lat="42.80131" lon="0.5648">
        <ele>777.39</ele>
        <time>2020-08-11T12:13:21.379Z</time>
      </trkpt>
      <trkpt lat="42.80153" lon="0.56454">
        <ele>776.94</ele>
        <time>2020-08-11T12:13:25.483Z</time>
      </trkpt>
      <trkpt lat="42.80215" lon="0.56374">
        <ele>775.64</ele>
        <time>2020-08-11T12:13:37.550Z</time>
      </trkpt>
      <trkpt lat="42.80276" lon="0.56294">
        <ele>778.09</ele>
        <time>2020-08-11T12:14:00.750Z</time>
      </trkpt>
      <trkpt lat="42.80287" lon="0.56277">
        <ele>779.03</ele>
        <time>2020-08-11T12:14:06.868Z</time>
      </trkpt>
      <trkpt lat="42.80308" lon="0.5623">
        <ele>781.98</ele>
        <time>2020-08-11T12:14:23.619Z</time>
      </trkpt>
      <trkpt lat="42.80318" lon="0.56214">
        <ele>782.76</ele>
        <time>2020-08-11T12:14:29.070Z</time>
      </trkpt>
      <trkpt lat="42.80329" lon="0.56203">
        <ele>784.48</ele>
        <time>2020-08-11T12:14:38.649Z</time>
      </trkpt>
      <trkpt lat="42.80341" lon="0.56199">
        <ele>785.23</ele>
        <time>2020-08-11T12:14:43.328Z</time>
      </trkpt>
      <trkpt lat="42.80355" lon="0.56197">
        <ele>786.95</ele>
        <time>2020-08-11T12:14:52.735Z</time>
      </trkpt>
      <trkpt lat="42.80369" lon="0.56198">
        <ele>790.01</ele>
        <time>2020-08-11T12:15:03.626Z</time>
      </trkpt>
      <trkpt lat="42.80394" lon="0.56196">
        <ele>791.7</ele>
        <time>2020-08-11T12:15:13.586Z</time>
      </trkpt>
      <trkpt lat="42.80445" lon="0.56176">
        <ele>798.68</ele>
        <time>2020-08-11T12:15:53.707Z</time>
      </trkpt>
      <trkpt lat="42.80494" lon="0.56145">
        <ele>805.07</ele>
        <time>2020-08-11T12:16:28.137Z</time>
      </trkpt>
      <trkpt lat="42.80543" lon="0.56113">
        <ele>812.98</ele>
        <time>2020-08-11T12:17:10.346Z</time>
      </trkpt>
      <trkpt lat="42.80577" lon="0.56104">
        <ele>816.96</ele>
        <time>2020-08-11T12:17:31.571Z</time>
      </trkpt>
      <trkpt lat="42.80613" lon="0.56102">
        <ele>822.39</ele>
        <time>2020-08-11T12:17:59.561Z</time>
      </trkpt>
      <trkpt lat="42.80623" lon="0.56097">
        <ele>822.39</ele>
        <time>2020-08-11T12:18:01.706Z</time>
      </trkpt>
      <trkpt lat="42.8063" lon="0.56086">
        <ele>824.95</ele>
        <time>2020-08-11T12:18:10.005Z</time>
      </trkpt>
      <trkpt lat="42.80634" lon="0.56075">
        <ele>824.95</ele>
        <time>2020-08-11T12:18:11.819Z</time>
      </trkpt>
      <trkpt lat="42.80632" lon="0.56053">
        <ele>825.16</ele>
        <time>2020-08-11T12:18:15.534Z</time>
      </trkpt>
      <trkpt lat="42.80625" lon="0.56041">
        <ele>825.5</ele>
        <time>2020-08-11T12:18:18.667Z</time>
      </trkpt>
      <trkpt lat="42.80615" lon="0.56031">
        <ele>826.19</ele>
        <time>2020-08-11T12:18:23.202Z</time>
      </trkpt>
      <trkpt lat="42.80601" lon="0.56021">
        <ele>827.28</ele>
        <time>2020-08-11T12:18:29.558Z</time>
      </trkpt>
      <trkpt lat="42.80582" lon="0.56013">
        <ele>828.66</ele>
        <time>2020-08-11T12:18:37.581Z</time>
      </trkpt>
      <trkpt lat="42.80531" lon="0.56003">
        <ele>831.28</ele>
        <time>2020-08-11T12:18:55.828Z</time>
      </trkpt>
      <trkpt lat="42.80509" lon="0.56006">
        <ele>831.91</ele>
        <time>2020-08-11T12:19:01.854Z</time>
      </trkpt>
      <trkpt lat="42.805" lon="0.56012">
        <ele>832.8</ele>
        <time>2020-08-11T12:19:06.587Z</time>
      </trkpt>
      <trkpt lat="42.8049" lon="0.56023">
        <ele>833.53</ele>
        <time>2020-08-11T12:19:11.323Z</time>
      </trkpt>
      <trkpt lat="42.80479" lon="0.5603">
        <ele>833.53</ele>
        <time>2020-08-11T12:19:13.768Z</time>
      </trkpt>
      <trkpt lat="42.80471" lon="0.56031">
        <ele>834.16</ele>
        <time>2020-08-11T12:19:17.245Z</time>
      </trkpt>
      <trkpt lat="42.80464" lon="0.56027">
        <ele>834.16</ele>
        <time>2020-08-11T12:19:18.774Z</time>
      </trkpt>
      <trkpt lat="42.8046" lon="0.56021">
        <ele>834.78</ele>
        <time>2020-08-11T12:19:22.023Z</time>
      </trkpt>
      <trkpt lat="42.80458" lon="0.56013">
        <ele>835.09</ele>
        <time>2020-08-11T12:19:24.207Z</time>
      </trkpt>
      <trkpt lat="42.80462" lon="0.56">
        <ele>836</ele>
        <time>2020-08-11T12:19:29.056Z</time>
      </trkpt>
      <trkpt lat="42.80466" lon="0.55995">
        <ele>836</ele>
        <time>2020-08-11T12:19:30.149Z</time>
      </trkpt>
      <trkpt lat="42.80473" lon="0.55992">
        <ele>836.44</ele>
        <time>2020-08-11T12:19:32.914Z</time>
      </trkpt>
      <trkpt lat="42.80492" lon="0.55991">
        <ele>837.96</ele>
        <time>2020-08-11T12:19:41.244Z</time>
      </trkpt>
      <trkpt lat="42.805" lon="0.55987">
        <ele>838.54</ele>
        <time>2020-08-11T12:19:44.648Z</time>
      </trkpt>
      <trkpt lat="42.8052" lon="0.55972">
        <ele>840.41</ele>
        <time>2020-08-11T12:19:54.813Z</time>
      </trkpt>
      <trkpt lat="42.80532" lon="0.55966">
        <ele>841.55</ele>
        <time>2020-08-11T12:20:00.870Z</time>
      </trkpt>
      <trkpt lat="42.80548" lon="0.55964">
        <ele>842.38</ele>
        <time>2020-08-11T12:20:06.590Z</time>
      </trkpt>
      <trkpt lat="42.80589" lon="0.55963">
        <ele>845.35</ele>
        <time>2020-08-11T12:20:23.519Z</time>
      </trkpt>
      <trkpt lat="42.8061" lon="0.55967">
        <ele>847.22</ele>
        <time>2020-08-11T12:20:33.479Z</time>
      </trkpt>
      <trkpt lat="42.80633" lon="0.55983">
        <ele>849.75</ele>
        <time>2020-08-11T12:20:46.742Z</time>
      </trkpt>
      <trkpt lat="42.80645" lon="0.55987">
        <ele>850.33</ele>
        <time>2020-08-11T12:20:51.008Z</time>
      </trkpt>
      <trkpt lat="42.80651" lon="0.55986">
        <ele>850.33</ele>
        <time>2020-08-11T12:20:52.225Z</time>
      </trkpt>
      <trkpt lat="42.80655" lon="0.55982">
        <ele>850.33</ele>
        <time>2020-08-11T12:20:53.224Z</time>
      </trkpt>
      <trkpt lat="42.8066" lon="0.55971">
        <ele>851.02</ele>
        <time>2020-08-11T12:20:57.151Z</time>
      </trkpt>
      <trkpt lat="42.8066" lon="0.55962">
        <ele>851.02</ele>
        <time>2020-08-11T12:20:58.481Z</time>
      </trkpt>
      <trkpt lat="42.80657" lon="0.55953">
        <ele>851.02</ele>
        <time>2020-08-11T12:20:59.942Z</time>
      </trkpt>
      <trkpt lat="42.80652" lon="0.55946">
        <ele>851.81</ele>
        <time>2020-08-11T12:21:04.111Z</time>
      </trkpt>
      <trkpt lat="42.80606" lon="0.55935">
        <ele>854.91</ele>
        <time>2020-08-11T12:21:22.535Z</time>
      </trkpt>
      <trkpt lat="42.8058" lon="0.5592">
        <ele>857.93</ele>
        <time>2020-08-11T12:21:38.400Z</time>
      </trkpt>
      <trkpt lat="42.80556" lon="0.55896">
        <ele>862.2</ele>
        <time>2020-08-11T12:22:01.524Z</time>
      </trkpt>
      <trkpt lat="42.80551" lon="0.55888">
        <ele>862.2</ele>
        <time>2020-08-11T12:22:03.077Z</time>
      </trkpt>
      <trkpt lat="42.80546" lon="0.55871">
        <ele>863.25</ele>
        <time>2020-08-11T12:22:08.879Z</time>
      </trkpt>
      <trkpt lat="42.80547" lon="0.5584">
        <ele>865.91</ele>
        <time>2020-08-11T12:22:23.143Z</time>
      </trkpt>
      <trkpt lat="42.80569" lon="0.55764">
        <ele>871</ele>
        <time>2020-08-11T12:22:50.515Z</time>
      </trkpt>
      <trkpt lat="42.80591" lon="0.55687">
        <ele>874.85</ele>
        <time>2020-08-11T12:23:13.938Z</time>
      </trkpt>
      <trkpt lat="42.80599" lon="0.55613">
        <ele>879.51</ele>
        <time>2020-08-11T12:23:38.997Z</time>
      </trkpt>
      <trkpt lat="42.80608" lon="0.55572">
        <ele>879.51</ele>
        <time>2020-08-11T12:23:45.321Z</time>
      </trkpt>
      <trkpt lat="42.8061" lon="0.55534">
        <ele>881.97</ele>
        <time>2020-08-11T12:23:58.429Z</time>
      </trkpt>
      <trkpt lat="42.80609" lon="0.55482">
        <ele>886.69</ele>
        <time>2020-08-11T12:24:24.413Z</time>
      </trkpt>
      <trkpt lat="42.80604" lon="0.55414">
        <ele>889.23</ele>
        <time>2020-08-11T12:24:42.147Z</time>
      </trkpt>
      <trkpt lat="42.80594" lon="0.55345">
        <ele>896.24</ele>
        <time>2020-08-11T12:25:22.233Z</time>
      </trkpt>
      <trkpt lat="42.80593" lon="0.55295">
        <ele>898.89</ele>
        <time>2020-08-11T12:25:37.358Z</time>
      </trkpt>
      <trkpt lat="42.80594" lon="0.55253">
        <ele>900.63</ele>
        <time>2020-08-11T12:25:48.694Z</time>
      </trkpt>
      <trkpt lat="42.80597" lon="0.55218">
        <ele>905.39</ele>
        <time>2020-08-11T12:26:08.777Z</time>
      </trkpt>
      <trkpt lat="42.80612" lon="0.55118">
        <ele>912.01</ele>
        <time>2020-08-11T12:26:44.016Z</time>
      </trkpt>
      <trkpt lat="42.80627" lon="0.55018">
        <ele>919.92</ele>
        <time>2020-08-11T12:27:25.514Z</time>
      </trkpt>
      <trkpt lat="42.80631" lon="0.54981">
        <ele>920.38</ele>
        <time>2020-08-11T12:27:32.043Z</time>
      </trkpt>
      <trkpt lat="42.80631" lon="0.54949">
        <ele>920.38</ele>
        <time>2020-08-11T12:27:36.771Z</time>
      </trkpt>
      <trkpt lat="42.80627" lon="0.54865">
        <ele>922.04</ele>
        <time>2020-08-11T12:27:53.272Z</time>
      </trkpt>
      <trkpt lat="42.80631" lon="0.54837">
        <ele>925.49</ele>
        <time>2020-08-11T12:28:09.530Z</time>
      </trkpt>
      <trkpt lat="42.80651" lon="0.54778">
        <ele>933.11</ele>
        <time>2020-08-11T12:28:46.573Z</time>
      </trkpt>
      <trkpt lat="42.80657" lon="0.5471">
        <ele>937.36</ele>
        <time>2020-08-11T12:29:09.453Z</time>
      </trkpt>
      <trkpt lat="42.80659" lon="0.54661">
        <ele>937.33</ele>
        <time>2020-08-11T12:29:16.613Z</time>
      </trkpt>
      <trkpt lat="42.80645" lon="0.54551">
        <ele>939.45</ele>
        <time>2020-08-11T12:29:38.236Z</time>
      </trkpt>
      <trkpt lat="42.80646" lon="0.54483">
        <ele>943.5</ele>
        <time>2020-08-11T12:30:00.318Z</time>
      </trkpt>
      <trkpt lat="42.80642" lon="0.54435">
        <ele>945.29</ele>
        <time>2020-08-11T12:30:12.841Z</time>
      </trkpt>
      <trkpt lat="42.8064" lon="0.54415">
        <ele>945.29</ele>
        <time>2020-08-11T12:30:15.823Z</time>
      </trkpt>
      <trkpt lat="42.80622" lon="0.54329">
        <ele>948.67</ele>
        <time>2020-08-11T12:30:39.162Z</time>
      </trkpt>
      <trkpt lat="42.80617" lon="0.54231">
        <ele>952</ele>
        <time>2020-08-11T12:31:03.927Z</time>
      </trkpt>
      <trkpt lat="42.80617" lon="0.54141">
        <ele>952.68</ele>
        <time>2020-08-11T12:31:18.611Z</time>
      </trkpt>
      <trkpt lat="42.80625" lon="0.54042">
        <ele>958.73</ele>
        <time>2020-08-11T12:31:51.388Z</time>
      </trkpt>
      <trkpt lat="42.80639" lon="0.53947">
        <ele>962.45</ele>
        <time>2020-08-11T12:32:16.811Z</time>
      </trkpt>
      <trkpt lat="42.80652" lon="0.53852">
        <ele>965.6</ele>
        <time>2020-08-11T12:32:40.890Z</time>
      </trkpt>
      <trkpt lat="42.8066" lon="0.53773">
        <ele>967.11</ele>
        <time>2020-08-11T12:32:56.322Z</time>
      </trkpt>
      <trkpt lat="42.8066" lon="0.53689">
        <ele>969.67</ele>
        <time>2020-08-11T12:33:16.358Z</time>
      </trkpt>
      <trkpt lat="42.8066" lon="0.53604">
        <ele>971.47</ele>
        <time>2020-08-11T12:33:33.432Z</time>
      </trkpt>
      <trkpt lat="42.80672" lon="0.5352">
        <ele>974.21</ele>
        <time>2020-08-11T12:33:54.498Z</time>
      </trkpt>
      <trkpt lat="42.80681" lon="0.53479">
        <ele>977.13</ele>
        <time>2020-08-11T12:34:09.893Z</time>
      </trkpt>
      <trkpt lat="42.80685" lon="0.53451">
        <ele>977.73</ele>
        <time>2020-08-11T12:34:15.609Z</time>
      </trkpt>
      <trkpt lat="42.80686" lon="0.53425">
        <ele>977.59</ele>
        <time>2020-08-11T12:34:18.602Z</time>
      </trkpt>
      <trkpt lat="42.8068" lon="0.53345">
        <ele>978.82</ele>
        <time>2020-08-11T12:34:33.289Z</time>
      </trkpt>
      <trkpt lat="42.80683" lon="0.5331">
        <ele>980.05</ele>
        <time>2020-08-11T12:34:42.252Z</time>
      </trkpt>
      <trkpt lat="42.80688" lon="0.5328">
        <ele>981.29</ele>
        <time>2020-08-11T12:34:50.466Z</time>
      </trkpt>
      <trkpt lat="42.80695" lon="0.53253">
        <ele>983.91</ele>
        <time>2020-08-11T12:35:04.959Z</time>
      </trkpt>
      <trkpt lat="42.80715" lon="0.5316">
        <ele>991.92</ele>
        <time>2020-08-11T12:35:47.438Z</time>
      </trkpt>
      <trkpt lat="42.80735" lon="0.53067">
        <ele>1001.28</ele>
        <time>2020-08-11T12:36:41.281Z</time>
      </trkpt>
      <trkpt lat="42.80737" lon="0.53033">
        <ele>1001.28</ele>
        <time>2020-08-11T12:36:46.321Z</time>
      </trkpt>
      <trkpt lat="42.8073" lon="0.52962">
        <ele>1010.06</ele>
        <time>2020-08-11T12:37:27.150Z</time>
      </trkpt>
      <trkpt lat="42.80723" lon="0.52921">
        <ele>1013.26</ele>
        <time>2020-08-11T12:37:43.916Z</time>
      </trkpt>
      <trkpt lat="42.80704" lon="0.52861">
        <ele>1016.2</ele>
        <time>2020-08-11T12:38:02.153Z</time>
      </trkpt>
      <trkpt lat="42.80671" lon="0.52786">
        <ele>1023.45</ele>
        <time>2020-08-11T12:38:40.632Z</time>
      </trkpt>
      <trkpt lat="42.80656" lon="0.52736">
        <ele>1026.76</ele>
        <time>2020-08-11T12:38:58.516Z</time>
      </trkpt>
      <trkpt lat="42.80631" lon="0.52624">
        <ele>1035.43</ele>
        <time>2020-08-11T12:39:43.919Z</time>
      </trkpt>
      <trkpt lat="42.80606" lon="0.52511">
        <ele>1046.06</ele>
        <time>2020-08-11T12:40:42.198Z</time>
      </trkpt>
      <trkpt lat="42.80603" lon="0.52455">
        <ele>1048.24</ele>
        <time>2020-08-11T12:40:56.988Z</time>
      </trkpt>
      <trkpt lat="42.80605" lon="0.5239">
        <ele>1054.37</ele>
        <time>2020-08-11T12:41:31.567Z</time>
      </trkpt>
      <trkpt lat="42.80604" lon="0.52337">
        <ele>1056.37</ele>
        <time>2020-08-11T12:41:45.394Z</time>
      </trkpt>
      <trkpt lat="42.80595" lon="0.5222">
        <ele>1068.39</ele>
        <time>2020-08-11T12:42:52.443Z</time>
      </trkpt>
      <trkpt lat="42.80595" lon="0.52203">
        <ele>1068.39</ele>
        <time>2020-08-11T12:42:54.955Z</time>
      </trkpt>
      <trkpt lat="42.80597" lon="0.52186">
        <ele>1074.36</ele>
        <time>2020-08-11T12:43:04.768Z</time>
      </trkpt>
      <trkpt lat="42.80603" lon="0.52166">
        <ele>1074.36</ele>
        <time>2020-08-11T12:43:07.961Z</time>
      </trkpt>
      <trkpt lat="42.80635" lon="0.52083">
        <ele>1081.61</ele>
        <time>2020-08-11T12:43:45.989Z</time>
      </trkpt>
      <trkpt lat="42.80662" lon="0.52001">
        <ele>1087.85</ele>
        <time>2020-08-11T12:44:18.808Z</time>
      </trkpt>
      <trkpt lat="42.80673" lon="0.51983">
        <ele>1089.55</ele>
        <time>2020-08-11T12:44:27.716Z</time>
      </trkpt>
      <trkpt lat="42.80689" lon="0.51967">
        <ele>1092.97</ele>
        <time>2020-08-11T12:44:43.132Z</time>
      </trkpt>
      <trkpt lat="42.80712" lon="0.51953">
        <ele>1096.16</ele>
        <time>2020-08-11T12:45:00.951Z</time>
      </trkpt>
      <trkpt lat="42.80731" lon="0.51951">
        <ele>1096.16</ele>
        <time>2020-08-11T12:45:04.789Z</time>
      </trkpt>
      <trkpt lat="42.80789" lon="0.51951">
        <ele>1103.28</ele>
        <time>2020-08-11T12:45:43.824Z</time>
      </trkpt>
      <trkpt lat="42.80816" lon="0.51948">
        <ele>1105.27</ele>
        <time>2020-08-11T12:45:55.097Z</time>
      </trkpt>
      <trkpt lat="42.80825" lon="0.51942">
        <ele>1105.98</ele>
        <time>2020-08-11T12:45:59.184Z</time>
      </trkpt>
      <trkpt lat="42.80838" lon="0.51932">
        <ele>1107.13</ele>
        <time>2020-08-11T12:46:05.573Z</time>
      </trkpt>
      <trkpt lat="42.80869" lon="0.51884">
        <ele>1112.71</ele>
        <time>2020-08-11T12:46:35.706Z</time>
      </trkpt>
      <trkpt lat="42.80878" lon="0.51825">
        <ele>1115.3</ele>
        <time>2020-08-11T12:46:52.203Z</time>
      </trkpt>
      <trkpt lat="42.80884" lon="0.51761">
        <ele>1118.66</ele>
        <time>2020-08-11T12:47:11.530Z</time>
      </trkpt>
      <trkpt lat="42.80876" lon="0.51652">
        <ele>1125.28</ele>
        <time>2020-08-11T12:47:47.452Z</time>
      </trkpt>
      <trkpt lat="42.80867" lon="0.51542">
        <ele>1129.37</ele>
        <time>2020-08-11T12:48:16.117Z</time>
      </trkpt>
      <trkpt lat="42.80864" lon="0.51518">
        <ele>1129.37</ele>
        <time>2020-08-11T12:48:19.715Z</time>
      </trkpt>
      <trkpt lat="42.8086" lon="0.5151">
        <ele>1126</ele>
        <time>2020-08-11T12:48:20.383Z</time>
      </trkpt>
      <trkpt lat="42.80853" lon="0.51505">
        <ele>1126</ele>
        <time>2020-08-11T12:48:21.975Z</time>
      </trkpt>
      <trkpt lat="42.8083" lon="0.51499">
        <ele>1127.27</ele>
        <time>2020-08-11T12:48:30.457Z</time>
      </trkpt>
      <trkpt lat="42.80819" lon="0.51487">
        <ele>1128.1</ele>
        <time>2020-08-11T12:48:35.726Z</time>
      </trkpt>
      <trkpt lat="42.80813" lon="0.51474">
        <ele>1128.69</ele>
        <time>2020-08-11T12:48:39.757Z</time>
      </trkpt>
      <trkpt lat="42.80806" lon="0.51442">
        <ele>1129.94</ele>
        <time>2020-08-11T12:48:48.443Z</time>
      </trkpt>
      <trkpt lat="42.80803" lon="0.51408">
        <ele>1131.63</ele>
        <time>2020-08-11T12:48:58.419Z</time>
      </trkpt>
      <trkpt lat="42.80813" lon="0.51314">
        <ele>1136.93</ele>
        <time>2020-08-11T12:49:28.012Z</time>
      </trkpt>
      <trkpt lat="42.80823" lon="0.51219">
        <ele>1141.3</ele>
        <time>2020-08-11T12:49:54.937Z</time>
      </trkpt>
      <trkpt lat="42.80821" lon="0.512">
        <ele>1142.61</ele>
        <time>2020-08-11T12:50:01.843Z</time>
      </trkpt>
      <trkpt lat="42.80813" lon="0.51158">
        <ele>1143.38</ele>
        <time>2020-08-11T12:50:10.079Z</time>
      </trkpt>
      <trkpt lat="42.80804" lon="0.51084">
        <ele>1148.21</ele>
        <time>2020-08-11T12:50:35.833Z</time>
      </trkpt>
      <trkpt lat="42.80775" lon="0.50972">
        <ele>1153.03</ele>
        <time>2020-08-11T12:51:07.627Z</time>
      </trkpt>
      <trkpt lat="42.80747" lon="0.50861">
        <ele>1159.68</ele>
        <time>2020-08-11T12:51:44.537Z</time>
      </trkpt>
      <trkpt lat="42.80718" lon="0.50749">
        <ele>1168.81</ele>
        <time>2020-08-11T12:52:32.404Z</time>
      </trkpt>
      <trkpt lat="42.80706" lon="0.50664">
        <ele>1176.75</ele>
        <time>2020-08-11T12:53:16.395Z</time>
      </trkpt>
      <trkpt lat="42.80694" lon="0.50578">
        <ele>1179.61</ele>
        <time>2020-08-11T12:53:38.231Z</time>
      </trkpt>
      <trkpt lat="42.80682" lon="0.50493">
        <ele>1183.98</ele>
        <time>2020-08-11T12:54:03.740Z</time>
      </trkpt>
      <trkpt lat="42.80673" lon="0.50412">
        <ele>1191.28</ele>
        <time>2020-08-11T12:54:43.542Z</time>
      </trkpt>
      <trkpt lat="42.80665" lon="0.50381">
        <ele>1193.35</ele>
        <time>2020-08-11T12:54:54.640Z</time>
      </trkpt>
      <trkpt lat="42.80654" lon="0.50358">
        <ele>1195.98</ele>
        <time>2020-08-11T12:55:09.665Z</time>
      </trkpt>
      <trkpt lat="42.80609" lon="0.50311">
        <ele>1201.36</ele>
        <time>2020-08-11T12:55:37.952Z</time>
      </trkpt>
      <trkpt lat="42.80564" lon="0.50263">
        <ele>1208.09</ele>
        <time>2020-08-11T12:56:14.151Z</time>
      </trkpt>
      <trkpt lat="42.80556" lon="0.50252">
        <ele>1209.72</ele>
        <time>2020-08-11T12:56:22.979Z</time>
      </trkpt>
      <trkpt lat="42.80548" lon="0.50232">
        <ele>1212.25</ele>
        <time>2020-08-11T12:56:35.962Z</time>
      </trkpt>
      <trkpt lat="42.80546" lon="0.50208">
        <ele>1214.75</ele>
        <time>2020-08-11T12:56:49.729Z</time>
      </trkpt>
      <trkpt lat="42.80547" lon="0.50194">
        <ele>1216.29</ele>
        <time>2020-08-11T12:56:57.746Z</time>
      </trkpt>
      <trkpt lat="42.80556" lon="0.50157">
        <ele>1219.27</ele>
        <time>2020-08-11T12:57:13.364Z</time>
      </trkpt>
      <trkpt lat="42.80589" lon="0.50081">
        <ele>1225.88</ele>
        <time>2020-08-11T12:57:47.980Z</time>
      </trkpt>
      <trkpt lat="42.80622" lon="0.50005">
        <ele>1230.75</ele>
        <time>2020-08-11T12:58:15.303Z</time>
      </trkpt>
      <trkpt lat="42.80655" lon="0.49929">
        <ele>1236.52</ele>
        <time>2020-08-11T12:58:45.967Z</time>
      </trkpt>
      <trkpt lat="42.80661" lon="0.49903">
        <ele>1238.7</ele>
        <time>2020-08-11T12:58:57.450Z</time>
      </trkpt>
      <trkpt lat="42.80663" lon="0.49807">
        <ele>1242.82</ele>
        <time>2020-08-11T12:59:23.722Z</time>
      </trkpt>
      <trkpt lat="42.80662" lon="0.4979">
        <ele>1244.6</ele>
        <time>2020-08-11T12:59:33.442Z</time>
      </trkpt>
      <trkpt lat="42.80659" lon="0.49774">
        <ele>1245.66</ele>
        <time>2020-08-11T12:59:39.098Z</time>
      </trkpt>
      <trkpt lat="42.80636" lon="0.49723">
        <ele>1248.55</ele>
        <time>2020-08-11T12:59:56.352Z</time>
      </trkpt>
      <trkpt lat="42.8063" lon="0.49703">
        <ele>1249.8</ele>
        <time>2020-08-11T13:00:03.236Z</time>
      </trkpt>
      <trkpt lat="42.80627" lon="0.49682">
        <ele>1250.79</ele>
        <time>2020-08-11T13:00:09.282Z</time>
      </trkpt>
      <trkpt lat="42.80628" lon="0.49656">
        <ele>1253.45</ele>
        <time>2020-08-11T13:00:24.121Z</time>
      </trkpt>
      <trkpt lat="42.80633" lon="0.49589">
        <ele>1257.95</ele>
        <time>2020-08-11T13:00:47.929Z</time>
      </trkpt>
      <trkpt lat="42.80638" lon="0.49522">
        <ele>1261.5</ele>
        <time>2020-08-11T13:01:08.236Z</time>
      </trkpt>
      <trkpt lat="42.80656" lon="0.49435">
        <ele>1269.05</ele>
        <time>2020-08-11T13:01:48.388Z</time>
      </trkpt>
      <trkpt lat="42.8067" lon="0.49344">
        <ele>1275.8</ele>
        <time>2020-08-11T13:02:23.755Z</time>
      </trkpt>
      <trkpt lat="42.80685" lon="0.49252">
        <ele>1283.09</ele>
        <time>2020-08-11T13:03:01.994Z</time>
      </trkpt>
      <trkpt lat="42.80699" lon="0.49161">
        <ele>1290.29</ele>
        <time>2020-08-11T13:03:39.764Z</time>
      </trkpt>
      <trkpt lat="42.80713" lon="0.49069">
        <ele>1295.94</ele>
        <time>2020-08-11T13:04:10.471Z</time>
      </trkpt>
      <trkpt lat="42.80738" lon="0.48954">
        <ele>1303.48</ele>
        <time>2020-08-11T13:04:50.918Z</time>
      </trkpt>
      <trkpt lat="42.80743" lon="0.48908">
        <ele>1305.53</ele>
        <time>2020-08-11T13:05:03.783Z</time>
      </trkpt>
      <trkpt lat="42.80755" lon="0.48841">
        <ele>1310.24</ele>
        <time>2020-08-11T13:05:28.612Z</time>
      </trkpt>
      <trkpt lat="42.8076" lon="0.4879">
        <ele>1312.73</ele>
        <time>2020-08-11T13:05:43.458Z</time>
      </trkpt>
      <trkpt lat="42.8076" lon="0.4872">
        <ele>1316.47</ele>
        <time>2020-08-11T13:06:04.725Z</time>
      </trkpt>
      <trkpt lat="42.80759" lon="0.48649">
        <ele>1321.28</ele>
        <time>2020-08-11T13:06:30.113Z</time>
      </trkpt>
      <trkpt lat="42.80763" lon="0.48541">
        <ele>1328.73</ele>
        <time>2020-08-11T13:07:09.336Z</time>
      </trkpt>
      <trkpt lat="42.80763" lon="0.48449">
        <ele>1333.4</ele>
        <time>2020-08-11T13:07:36.524Z</time>
      </trkpt>
      <trkpt lat="42.80759" lon="0.48416">
        <ele>1335.45</ele>
        <time>2020-08-11T13:07:47.600Z</time>
      </trkpt>
      <trkpt lat="42.80745" lon="0.48352">
        <ele>1338.79</ele>
        <time>2020-08-11T13:08:07.187Z</time>
      </trkpt>
      <trkpt lat="42.80732" lon="0.4832">
        <ele>1340.6</ele>
        <time>2020-08-11T13:08:17.857Z</time>
      </trkpt>
      <trkpt lat="42.80721" lon="0.48301">
        <ele>1342.08</ele>
        <time>2020-08-11T13:08:25.859Z</time>
      </trkpt>
      <trkpt lat="42.80695" lon="0.48257">
        <ele>1345.27</ele>
        <time>2020-08-11T13:08:43.588Z</time>
      </trkpt>
      <trkpt lat="42.80674" lon="0.48226">
        <ele>1348.6</ele>
        <time>2020-08-11T13:09:01.093Z</time>
      </trkpt>
      <trkpt lat="42.80618" lon="0.48155">
        <ele>1354.28</ele>
        <time>2020-08-11T13:09:33.120Z</time>
      </trkpt>
      <trkpt lat="42.80572" lon="0.48088">
        <ele>1359.98</ele>
        <time>2020-08-11T13:10:03.797Z</time>
      </trkpt>
      <trkpt lat="42.80526" lon="0.48021">
        <ele>1365.93</ele>
        <time>2020-08-11T13:10:35.471Z</time>
      </trkpt>
      <trkpt lat="42.80519" lon="0.48003">
        <ele>1367.12</ele>
        <time>2020-08-11T13:10:42.002Z</time>
      </trkpt>
      <trkpt lat="42.80487" lon="0.47897">
        <ele>1373.21</ele>
        <time>2020-08-11T13:11:16.717Z</time>
      </trkpt>
      <trkpt lat="42.80463" lon="0.47787">
        <ele>1381.1</ele>
        <time>2020-08-11T13:11:58.269Z</time>
      </trkpt>
      <trkpt lat="42.80452" lon="0.47749">
        <ele>1383.26</ele>
        <time>2020-08-11T13:12:10.608Z</time>
      </trkpt>
      <trkpt lat="42.80431" lon="0.47694">
        <ele>1387.23</ele>
        <time>2020-08-11T13:12:31.805Z</time>
      </trkpt>
      <trkpt lat="42.8041" lon="0.47639">
        <ele>1391.89</ele>
        <time>2020-08-11T13:12:56.211Z</time>
      </trkpt>
      <trkpt lat="42.80389" lon="0.47592">
        <ele>1395.76</ele>
        <time>2020-08-11T13:13:16.536Z</time>
      </trkpt>
      <trkpt lat="42.8036" lon="0.47549">
        <ele>1398.71</ele>
        <time>2020-08-11T13:13:33.752Z</time>
      </trkpt>
      <trkpt lat="42.80301" lon="0.47485">
        <ele>1405.44</ele>
        <time>2020-08-11T13:14:09.502Z</time>
      </trkpt>
      <trkpt lat="42.80277" lon="0.47456">
        <ele>1407.44</ele>
        <time>2020-08-11T13:14:21.792Z</time>
      </trkpt>
      <trkpt lat="42.80243" lon="0.47396">
        <ele>1412.52</ele>
        <time>2020-08-11T13:14:48.656Z</time>
      </trkpt>
      <trkpt lat="42.80233" lon="0.47371">
        <ele>1415.2</ele>
        <time>2020-08-11T13:15:03.761Z</time>
      </trkpt>
      <trkpt lat="42.80222" lon="0.47332">
        <ele>1417.56</ele>
        <time>2020-08-11T13:15:16.875Z</time>
      </trkpt>
      <trkpt lat="42.80215" lon="0.47314">
        <ele>1418.15</ele>
        <time>2020-08-11T13:15:21.591Z</time>
      </trkpt>
      <trkpt lat="42.80208" lon="0.47302">
        <ele>1418.89</ele>
        <time>2020-08-11T13:15:26.009Z</time>
      </trkpt>
      <trkpt lat="42.80181" lon="0.47269">
        <ele>1421.6</ele>
        <time>2020-08-11T13:15:41.250Z</time>
      </trkpt>
      <trkpt lat="42.80154" lon="0.47226">
        <ele>1426.41</ele>
        <time>2020-08-11T13:16:06.967Z</time>
      </trkpt>
      <trkpt lat="42.80144" lon="0.47183">
        <ele>1430.5</ele>
        <time>2020-08-11T13:16:29.472Z</time>
      </trkpt>
      <trkpt lat="42.80143" lon="0.47129">
        <ele>1434.96</ele>
        <time>2020-08-11T13:16:53.118Z</time>
      </trkpt>
      <trkpt lat="42.80162" lon="0.47048">
        <ele>1441.77</ele>
        <time>2020-08-11T13:17:28.994Z</time>
      </trkpt>
      <trkpt lat="42.80168" lon="0.47009">
        <ele>1444.13</ele>
        <time>2020-08-11T13:17:41.885Z</time>
      </trkpt>
      <trkpt lat="42.80171" lon="0.46953">
        <ele>1450.56</ele>
        <time>2020-08-11T13:18:13.890Z</time>
      </trkpt>
      <trkpt lat="42.80178" lon="0.4693">
        <ele>1450.56</ele>
        <time>2020-08-11T13:18:17.569Z</time>
      </trkpt>
      <trkpt lat="42.80185" lon="0.46914">
        <ele>1452.56</ele>
        <time>2020-08-11T13:18:28.187Z</time>
      </trkpt>
      <trkpt lat="42.80199" lon="0.46905">
        <ele>1455.14</ele>
        <time>2020-08-11T13:18:40.212Z</time>
      </trkpt>
      <trkpt lat="42.80246" lon="0.46891">
        <ele>1459.98</ele>
        <time>2020-08-11T13:19:05.559Z</time>
      </trkpt>
      <trkpt lat="42.80275" lon="0.46891">
        <ele>1462.24</ele>
        <time>2020-08-11T13:19:18.060Z</time>
      </trkpt>
      <trkpt lat="42.80299" lon="0.46895">
        <ele>1463.91</ele>
        <time>2020-08-11T13:19:27.791Z</time>
      </trkpt>
      <trkpt lat="42.80342" lon="0.46913">
        <ele>1468.46</ele>
        <time>2020-08-11T13:19:51.618Z</time>
      </trkpt>
      <trkpt lat="42.80356" lon="0.46927">
        <ele>1470.24</ele>
        <time>2020-08-11T13:20:00.940Z</time>
      </trkpt>
      <trkpt lat="42.80372" lon="0.46957">
        <ele>1472.78</ele>
        <time>2020-08-11T13:20:14.324Z</time>
      </trkpt>
      <trkpt lat="42.80378" lon="0.46961">
        <ele>1474.87</ele>
        <time>2020-08-11T13:20:19.513Z</time>
      </trkpt>
      <trkpt lat="42.80383" lon="0.46962">
        <ele>1474.87</ele>
        <time>2020-08-11T13:20:20.531Z</time>
      </trkpt>
      <trkpt lat="42.80388" lon="0.46956">
        <ele>1476.16</ele>
        <time>2020-08-11T13:20:25.706Z</time>
      </trkpt>
      <trkpt lat="42.8039" lon="0.46948">
        <ele>1476.16</ele>
        <time>2020-08-11T13:20:26.955Z</time>
      </trkpt>
      <trkpt lat="42.80389" lon="0.4694">
        <ele>1476.75</ele>
        <time>2020-08-11T13:20:30.046Z</time>
      </trkpt>
      <trkpt lat="42.80336" lon="0.46875">
        <ele>1482.45</ele>
        <time>2020-08-11T13:21:01.284Z</time>
      </trkpt>
      <trkpt lat="42.80283" lon="0.4681">
        <ele>1491.85</ele>
        <time>2020-08-11T13:21:55.426Z</time>
      </trkpt>
      <trkpt lat="42.80257" lon="0.46772">
        <ele>1494.19</ele>
        <time>2020-08-11T13:22:09.934Z</time>
      </trkpt>
      <trkpt lat="42.80234" lon="0.4675">
        <ele>1499.27</ele>
        <time>2020-08-11T13:22:31.763Z</time>
      </trkpt>
      <trkpt lat="42.80218" lon="0.46739">
        <ele>1499.27</ele>
        <time>2020-08-11T13:22:35.372Z</time>
      </trkpt>
      <trkpt lat="42.80207" lon="0.46734">
        <ele>1501.14</ele>
        <time>2020-08-11T13:22:44.380Z</time>
      </trkpt>
      <trkpt lat="42.80188" lon="0.46733">
        <ele>1503.19</ele>
        <time>2020-08-11T13:22:55.160Z</time>
      </trkpt>
      <trkpt lat="42.80174" lon="0.46735">
        <ele>1504.06</ele>
        <time>2020-08-11T13:23:00.532Z</time>
      </trkpt>
      <trkpt lat="42.80168" lon="0.46733">
        <ele>1504.56</ele>
        <time>2020-08-11T13:23:03.261Z</time>
      </trkpt>
      <trkpt lat="42.80163" lon="0.46728">
        <ele>1504.94</ele>
        <time>2020-08-11T13:23:05.619Z</time>
      </trkpt>
      <trkpt lat="42.80161" lon="0.4672">
        <ele>1505.37</ele>
        <time>2020-08-11T13:23:08.120Z</time>
      </trkpt>
      <trkpt lat="42.80163" lon="0.46702">
        <ele>1505.75</ele>
        <time>2020-08-11T13:23:11.758Z</time>
      </trkpt>
      <trkpt lat="42.80172" lon="0.46696">
        <ele>1507.89</ele>
        <time>2020-08-11T13:23:19.542Z</time>
      </trkpt>
      <trkpt lat="42.80183" lon="0.46697">
        <ele>1507.89</ele>
        <time>2020-08-11T13:23:21.762Z</time>
      </trkpt>
      <trkpt lat="42.80229" lon="0.46712">
        <ele>1511.9</ele>
        <time>2020-08-11T13:23:43.336Z</time>
      </trkpt>
      <trkpt lat="42.80266" lon="0.46732">
        <ele>1512.51</ele>
        <time>2020-08-11T13:23:52.661Z</time>
      </trkpt>
      <trkpt lat="42.80318" lon="0.46768">
        <ele>1522.61</ele>
        <time>2020-08-11T13:24:37.970Z</time>
      </trkpt>
      <trkpt lat="42.80369" lon="0.46804">
        <ele>1526.78</ele>
        <time>2020-08-11T13:25:01.714Z</time>
      </trkpt>
      <trkpt lat="42.80421" lon="0.46844">
        <ele>1533.28</ele>
        <time>2020-08-11T13:25:35.942Z</time>
      </trkpt>
      <trkpt lat="42.80445" lon="0.46865">
        <ele>1536.98</ele>
        <time>2020-08-11T13:25:56.973Z</time>
      </trkpt>
      <trkpt lat="42.80462" lon="0.46889">
        <ele>1540.18</ele>
        <time>2020-08-11T13:26:15.275Z</time>
      </trkpt>
      <trkpt lat="42.80468" lon="0.4689">
        <ele>1540.18</ele>
        <time>2020-08-11T13:26:16.493Z</time>
      </trkpt>
      <trkpt lat="42.80473" lon="0.46887">
        <ele>1541.31</ele>
        <time>2020-08-11T13:26:20.737Z</time>
      </trkpt>
      <trkpt lat="42.80476" lon="0.46875">
        <ele>1541.82</ele>
        <time>2020-08-11T13:26:24.119Z</time>
      </trkpt>
      <trkpt lat="42.80473" lon="0.46868">
        <ele>1541.82</ele>
        <time>2020-08-11T13:26:25.317Z</time>
      </trkpt>
      <trkpt lat="42.80464" lon="0.46857">
        <ele>1542.8</ele>
        <time>2020-08-11T13:26:30.663Z</time>
      </trkpt>
      <trkpt lat="42.80449" lon="0.46845">
        <ele>1543.74</ele>
        <time>2020-08-11T13:26:36.955Z</time>
      </trkpt>
      <trkpt lat="42.80429" lon="0.46822">
        <ele>1545.74</ele>
        <time>2020-08-11T13:26:48.100Z</time>
      </trkpt>
      <trkpt lat="42.80386" lon="0.46763">
        <ele>1552.1</ele>
        <time>2020-08-11T13:27:21.434Z</time>
      </trkpt>
      <trkpt lat="42.80343" lon="0.46704">
        <ele>1559.32</ele>
        <time>2020-08-11T13:28:00.341Z</time>
      </trkpt>
      <trkpt lat="42.80317" lon="0.46667">
        <ele>1563.48</ele>
        <time>2020-08-11T13:28:22.313Z</time>
      </trkpt>
      <trkpt lat="42.80306" lon="0.46646">
        <ele>1564.81</ele>
        <time>2020-08-11T13:28:30.000Z</time>
      </trkpt>
      <trkpt lat="42.80297" lon="0.46622">
        <ele>1568.87</ele>
        <time>2020-08-11T13:28:45.363Z</time>
      </trkpt>
      <trkpt lat="42.80277" lon="0.46545">
        <ele>1573.25</ele>
        <time>2020-08-11T13:29:10.230Z</time>
      </trkpt>
      <trkpt lat="42.80256" lon="0.46467">
        <ele>1580.2</ele>
        <time>2020-08-11T13:29:47.206Z</time>
      </trkpt>
      <trkpt lat="42.80236" lon="0.4639">
        <ele>1584.22</ele>
        <time>2020-08-11T13:30:10.971Z</time>
      </trkpt>
      <trkpt lat="42.8023" lon="0.46363">
        <ele>1585.65</ele>
        <time>2020-08-11T13:30:19.302Z</time>
      </trkpt>
      <trkpt lat="42.80225" lon="0.46245">
        <ele>1581.8</ele>
        <time>2020-08-11T13:30:28.299Z</time>
      </trkpt>
      <trkpt lat="42.80213" lon="0.46138">
        <ele>1575.62</ele>
        <time>2020-08-11T13:30:35.774Z</time>
      </trkpt>
      <trkpt lat="42.80201" lon="0.46031">
        <ele>1569.51</ele>
        <time>2020-08-11T13:30:43.250Z</time>
      </trkpt>
      <trkpt lat="42.80189" lon="0.45924">
        <ele>1565.71</ele>
        <time>2020-08-11T13:30:51.238Z</time>
      </trkpt>
      <trkpt lat="42.80182" lon="0.45806">
        <ele>1559.85</ele>
        <time>2020-08-11T13:30:59.414Z</time>
      </trkpt>
      <trkpt lat="42.80171" lon="0.45737">
        <ele>1557.04</ele>
        <time>2020-08-11T13:31:04.346Z</time>
      </trkpt>
      <trkpt lat="42.80171" lon="0.45712">
        <ele>1556.31</ele>
        <time>2020-08-11T13:31:06.332Z</time>
      </trkpt>
      <trkpt lat="42.80185" lon="0.45606">
        <ele>1548.03</ele>
        <time>2020-08-11T13:31:13.770Z</time>
      </trkpt>
      <trkpt lat="42.8019" lon="0.45524">
        <ele>1539.82</ele>
        <time>2020-08-11T13:31:19.453Z</time>
      </trkpt>
      <trkpt lat="42.80202" lon="0.45457">
        <ele>1531.37</ele>
        <time>2020-08-11T13:31:24.216Z</time>
      </trkpt>
      <trkpt lat="42.80204" lon="0.4535">
        <ele>1520.68</ele>
        <time>2020-08-11T13:31:31.608Z</time>
      </trkpt>
      <trkpt lat="42.80209" lon="0.45324">
        <ele>1516.23</ele>
        <time>2020-08-11T13:31:33.464Z</time>
      </trkpt>
      <trkpt lat="42.80231" lon="0.45278">
        <ele>1511.72</ele>
        <time>2020-08-11T13:31:37.257Z</time>
      </trkpt>
      <trkpt lat="42.80234" lon="0.45263">
        <ele>1511.72</ele>
        <time>2020-08-11T13:31:39.554Z</time>
      </trkpt>
      <trkpt lat="42.80235" lon="0.45241">
        <ele>1507.16</ele>
        <time>2020-08-11T13:31:41.076Z</time>
      </trkpt>
      <trkpt lat="42.80231" lon="0.45211">
        <ele>1504.69</ele>
        <time>2020-08-11T13:31:43.182Z</time>
      </trkpt>
      <trkpt lat="42.80233" lon="0.45162">
        <ele>1499.2</ele>
        <time>2020-08-11T13:31:46.571Z</time>
      </trkpt>
      <trkpt lat="42.80231" lon="0.45133">
        <ele>1493.05</ele>
        <time>2020-08-11T13:31:48.583Z</time>
      </trkpt>
      <trkpt lat="42.80219" lon="0.45056">
        <ele>1484.65</ele>
        <time>2020-08-11T13:31:54.019Z</time>
      </trkpt>
      <trkpt lat="42.80191" lon="0.44968">
        <ele>1478.59</ele>
        <time>2020-08-11T13:32:00.644Z</time>
      </trkpt>
      <trkpt lat="42.80186" lon="0.44944">
        <ele>1476.62</ele>
        <time>2020-08-11T13:32:02.367Z</time>
      </trkpt>
      <trkpt lat="42.80182" lon="0.44912">
        <ele>1475.74</ele>
        <time>2020-08-11T13:32:05.018Z</time>
      </trkpt>
      <trkpt lat="42.80182" lon="0.44886">
        <ele>1474.82</ele>
        <time>2020-08-11T13:32:06.930Z</time>
      </trkpt>
      <trkpt lat="42.80189" lon="0.44785">
        <ele>1467.47</ele>
        <time>2020-08-11T13:32:13.936Z</time>
      </trkpt>
      <trkpt lat="42.80196" lon="0.44684">
        <ele>1459.91</ele>
        <time>2020-08-11T13:32:20.943Z</time>
      </trkpt>
      <trkpt lat="42.80198" lon="0.44612">
        <ele>1454.87</ele>
        <time>2020-08-11T13:32:25.919Z</time>
      </trkpt>
      <trkpt lat="42.80202" lon="0.44549">
        <ele>1450.05</ele>
        <time>2020-08-11T13:32:30.286Z</time>
      </trkpt>
      <trkpt lat="42.80203" lon="0.44472">
        <ele>1445.99</ele>
        <time>2020-08-11T13:32:35.605Z</time>
      </trkpt>
      <trkpt lat="42.80205" lon="0.44454">
        <ele>1445.39</ele>
        <time>2020-08-11T13:32:36.984Z</time>
      </trkpt>
      <trkpt lat="42.80212" lon="0.44425">
        <ele>1444.28</ele>
        <time>2020-08-11T13:32:39.203Z</time>
      </trkpt>
      <trkpt lat="42.80213" lon="0.44413">
        <ele>1444.28</ele>
        <time>2020-08-11T13:32:40.988Z</time>
      </trkpt>
      <trkpt lat="42.80207" lon="0.44392">
        <ele>1443.29</ele>
        <time>2020-08-11T13:32:42.491Z</time>
      </trkpt>
      <trkpt lat="42.80171" lon="0.44326">
        <ele>1434.74</ele>
        <time>2020-08-11T13:32:48.171Z</time>
      </trkpt>
      <trkpt lat="42.80166" lon="0.44313">
        <ele>1432.82</ele>
        <time>2020-08-11T13:32:49.185Z</time>
      </trkpt>
      <trkpt lat="42.80161" lon="0.44298">
        <ele>1431.07</ele>
        <time>2020-08-11T13:32:50.322Z</time>
      </trkpt>
      <trkpt lat="42.80156" lon="0.44272">
        <ele>1429.5</ele>
        <time>2020-08-11T13:32:52.179Z</time>
      </trkpt>
      <trkpt lat="42.80147" lon="0.44203">
        <ele>1425.56</ele>
        <time>2020-08-11T13:32:57.019Z</time>
      </trkpt>
      <trkpt lat="42.80142" lon="0.44184">
        <ele>1424.33</ele>
        <time>2020-08-11T13:32:58.413Z</time>
      </trkpt>
      <trkpt lat="42.80138" lon="0.44172">
        <ele>1423.13</ele>
        <time>2020-08-11T13:32:59.323Z</time>
      </trkpt>
      <trkpt lat="42.8012" lon="0.44142">
        <ele>1421.13</ele>
        <time>2020-08-11T13:33:02.000Z</time>
      </trkpt>
      <trkpt lat="42.80114" lon="0.44128">
        <ele>1421.13</ele>
        <time>2020-08-11T13:33:04.396Z</time>
      </trkpt>
      <trkpt lat="42.8011" lon="0.44109">
        <ele>1419.65</ele>
        <time>2020-08-11T13:33:05.761Z</time>
      </trkpt>
      <trkpt lat="42.80109" lon="0.44041">
        <ele>1414.85</ele>
        <time>2020-08-11T13:33:10.458Z</time>
      </trkpt>
      <trkpt lat="42.80107" lon="0.44018">
        <ele>1414.85</ele>
        <time>2020-08-11T13:33:13.881Z</time>
      </trkpt>
      <trkpt lat="42.80097" lon="0.43961">
        <ele>1411.37</ele>
        <time>2020-08-11T13:33:17.928Z</time>
      </trkpt>
      <trkpt lat="42.80091" lon="0.43871">
        <ele>1406.63</ele>
        <time>2020-08-11T13:33:24.170Z</time>
      </trkpt>
      <trkpt lat="42.8009" lon="0.43749">
        <ele>1402.21</ele>
        <time>2020-08-11T13:33:33.053Z</time>
      </trkpt>
      <trkpt lat="42.80085" lon="0.4367">
        <ele>1396.07</ele>
        <time>2020-08-11T13:33:38.530Z</time>
      </trkpt>
      <trkpt lat="42.80086" lon="0.43642">
        <ele>1395</ele>
        <time>2020-08-11T13:33:40.525Z</time>
      </trkpt>
      <trkpt lat="42.80107" lon="0.43531">
        <ele>1389.79</ele>
        <time>2020-08-11T13:33:48.047Z</time>
      </trkpt>
      <trkpt lat="42.80117" lon="0.43446">
        <ele>1385.58</ele>
        <time>2020-08-11T13:33:53.494Z</time>
      </trkpt>
      <trkpt lat="42.80129" lon="0.43377">
        <ele>1383.75</ele>
        <time>2020-08-11T13:33:59.387Z</time>
      </trkpt>
      <trkpt lat="42.80139" lon="0.4329">
        <ele>1380.26</ele>
        <time>2020-08-11T13:34:05.550Z</time>
      </trkpt>
      <trkpt lat="42.80139" lon="0.43179">
        <ele>1375.37</ele>
        <time>2020-08-11T13:34:12.944Z</time>
      </trkpt>
      <trkpt lat="42.80144" lon="0.43147">
        <ele>1375.04</ele>
        <time>2020-08-11T13:34:16.400Z</time>
      </trkpt>
      <trkpt lat="42.80159" lon="0.43098">
        <ele>1374.5</ele>
        <time>2020-08-11T13:34:22.001Z</time>
      </trkpt>
      <trkpt lat="42.80167" lon="0.43082">
        <ele>1374.16</ele>
        <time>2020-08-11T13:34:23.813Z</time>
      </trkpt>
      <trkpt lat="42.80178" lon="0.43039">
        <ele>1372.48</ele>
        <time>2020-08-11T13:34:27.103Z</time>
      </trkpt>
      <trkpt lat="42.8018" lon="0.43005">
        <ele>1370.36</ele>
        <time>2020-08-11T13:34:29.458Z</time>
      </trkpt>
      <trkpt lat="42.80177" lon="0.42959">
        <ele>1369.04</ele>
        <time>2020-08-11T13:34:33.157Z</time>
      </trkpt>
      <trkpt lat="42.80182" lon="0.42898">
        <ele>1367.63</ele>
        <time>2020-08-11T13:34:38.462Z</time>
      </trkpt>
      <trkpt lat="42.80189" lon="0.42855">
        <ele>1366.65</ele>
        <time>2020-08-11T13:34:42.308Z</time>
      </trkpt>
      <trkpt lat="42.80204" lon="0.42805">
        <ele>1364.48</ele>
        <time>2020-08-11T13:34:46.065Z</time>
      </trkpt>
      <trkpt lat="42.8021" lon="0.4277">
        <ele>1361.27</ele>
        <time>2020-08-11T13:34:48.547Z</time>
      </trkpt>
      <trkpt lat="42.80214" lon="0.42727">
        <ele>1356.98</ele>
        <time>2020-08-11T13:34:51.541Z</time>
      </trkpt>
      <trkpt lat="42.80221" lon="0.42688">
        <ele>1352.47</ele>
        <time>2020-08-11T13:34:54.314Z</time>
      </trkpt>
      <trkpt lat="42.80233" lon="0.42655">
        <ele>1349.06</ele>
        <time>2020-08-11T13:34:56.857Z</time>
      </trkpt>
      <trkpt lat="42.80253" lon="0.42577">
        <ele>1339.16</ele>
        <time>2020-08-11T13:35:02.564Z</time>
      </trkpt>
      <trkpt lat="42.80262" lon="0.42553">
        <ele>1336.33</ele>
        <time>2020-08-11T13:35:04.425Z</time>
      </trkpt>
      <trkpt lat="42.80339" lon="0.42493">
        <ele>1323.26</ele>
        <time>2020-08-11T13:35:12.774Z</time>
      </trkpt>
      <trkpt lat="42.8037" lon="0.42474">
        <ele>1316.53</ele>
        <time>2020-08-11T13:35:15.973Z</time>
      </trkpt>
      <trkpt lat="42.80388" lon="0.42466">
        <ele>1313.87</ele>
        <time>2020-08-11T13:35:17.755Z</time>
      </trkpt>
      <trkpt lat="42.80407" lon="0.4246">
        <ele>1310.61</ele>
        <time>2020-08-11T13:35:19.591Z</time>
      </trkpt>
      <trkpt lat="42.80424" lon="0.42459">
        <ele>1309.13</ele>
        <time>2020-08-11T13:35:21.193Z</time>
      </trkpt>
      <trkpt lat="42.80492" lon="0.42468">
        <ele>1300.75</ele>
        <time>2020-08-11T13:35:27.624Z</time>
      </trkpt>
      <trkpt lat="42.80537" lon="0.42471">
        <ele>1297.82</ele>
        <time>2020-08-11T13:35:31.558Z</time>
      </trkpt>
      <trkpt lat="42.80582" lon="0.42473">
        <ele>1293.63</ele>
        <time>2020-08-11T13:35:35.796Z</time>
      </trkpt>
      <trkpt lat="42.80636" lon="0.42481">
        <ele>1287.99</ele>
        <time>2020-08-11T13:35:40.908Z</time>
      </trkpt>
      <trkpt lat="42.80689" lon="0.42489">
        <ele>1284.33</ele>
        <time>2020-08-11T13:35:45.928Z</time>
      </trkpt>
      <trkpt lat="42.8071" lon="0.42494">
        <ele>1283.28</ele>
        <time>2020-08-11T13:35:48.046Z</time>
      </trkpt>
      <trkpt lat="42.80764" lon="0.42514">
        <ele>1278.44</ele>
        <time>2020-08-11T13:35:53.313Z</time>
      </trkpt>
      <trkpt lat="42.80817" lon="0.42533">
        <ele>1273.17</ele>
        <time>2020-08-11T13:35:58.471Z</time>
      </trkpt>
      <trkpt lat="42.80853" lon="0.42549">
        <ele>1270.11</ele>
        <time>2020-08-11T13:36:02.035Z</time>
      </trkpt>
      <trkpt lat="42.80873" lon="0.42565">
        <ele>1267.81</ele>
        <time>2020-08-11T13:36:04.218Z</time>
      </trkpt>
      <trkpt lat="42.80887" lon="0.42581">
        <ele>1266.44</ele>
        <time>2020-08-11T13:36:05.938Z</time>
      </trkpt>
      <trkpt lat="42.80907" lon="0.42614">
        <ele>1265.16</ele>
        <time>2020-08-11T13:36:09.307Z</time>
      </trkpt>
      <trkpt lat="42.8094" lon="0.42652">
        <ele>1261.72</ele>
        <time>2020-08-11T13:36:13.374Z</time>
      </trkpt>
      <trkpt lat="42.80971" lon="0.42669">
        <ele>1256.63</ele>
        <time>2020-08-11T13:36:16.519Z</time>
      </trkpt>
      <trkpt lat="42.81034" lon="0.42719">
        <ele>1250.06</ele>
        <time>2020-08-11T13:36:23.381Z</time>
      </trkpt>
      <trkpt lat="42.81089" lon="0.42738">
        <ele>1243.4</ele>
        <time>2020-08-11T13:36:28.722Z</time>
      </trkpt>
      <trkpt lat="42.81114" lon="0.42753">
        <ele>1240.98</ele>
        <time>2020-08-11T13:36:31.293Z</time>
      </trkpt>
      <trkpt lat="42.81155" lon="0.42788">
        <ele>1237.62</ele>
        <time>2020-08-11T13:36:35.846Z</time>
      </trkpt>
      <trkpt lat="42.81176" lon="0.42803">
        <ele>1236.7</ele>
        <time>2020-08-11T13:36:38.438Z</time>
      </trkpt>
      <trkpt lat="42.81217" lon="0.42825">
        <ele>1233.74</ele>
        <time>2020-08-11T13:36:42.586Z</time>
      </trkpt>
      <trkpt lat="42.81253" lon="0.42841">
        <ele>1230.13</ele>
        <time>2020-08-11T13:36:46.150Z</time>
      </trkpt>
      <trkpt lat="42.81297" lon="0.42843">
        <ele>1226.43</ele>
        <time>2020-08-11T13:36:50.294Z</time>
      </trkpt>
      <trkpt lat="42.81307" lon="0.42833">
        <ele>1225.24</ele>
        <time>2020-08-11T13:36:51.461Z</time>
      </trkpt>
      <trkpt lat="42.8131" lon="0.42817">
        <ele>1224.2</ele>
        <time>2020-08-11T13:36:52.602Z</time>
      </trkpt>
      <trkpt lat="42.81307" lon="0.42804">
        <ele>1224.2</ele>
        <time>2020-08-11T13:36:54.615Z</time>
      </trkpt>
      <trkpt lat="42.81299" lon="0.42794">
        <ele>1223.22</ele>
        <time>2020-08-11T13:36:55.637Z</time>
      </trkpt>
      <trkpt lat="42.81286" lon="0.42791">
        <ele>1221.88</ele>
        <time>2020-08-11T13:36:56.878Z</time>
      </trkpt>
      <trkpt lat="42.81271" lon="0.4279">
        <ele>1220.81</ele>
        <time>2020-08-11T13:36:58.291Z</time>
      </trkpt>
      <trkpt lat="42.81259" lon="0.42786">
        <ele>1219.87</ele>
        <time>2020-08-11T13:36:59.454Z</time>
      </trkpt>
      <trkpt lat="42.81247" lon="0.42777">
        <ele>1219.04</ele>
        <time>2020-08-11T13:37:00.692Z</time>
      </trkpt>
      <trkpt lat="42.81223" lon="0.42749">
        <ele>1216.09</ele>
        <time>2020-08-11T13:37:03.666Z</time>
      </trkpt>
      <trkpt lat="42.81197" lon="0.42707">
        <ele>1210.61</ele>
        <time>2020-08-11T13:37:07.461Z</time>
      </trkpt>
      <trkpt lat="42.81188" lon="0.42684">
        <ele>1210.61</ele>
        <time>2020-08-11T13:37:11.312Z</time>
      </trkpt>
      <trkpt lat="42.81172" lon="0.42603">
        <ele>1205.04</ele>
        <time>2020-08-11T13:37:17.104Z</time>
      </trkpt>
      <trkpt lat="42.8116" lon="0.42569">
        <ele>1202.56</ele>
        <time>2020-08-11T13:37:19.710Z</time>
      </trkpt>
      <trkpt lat="42.81149" lon="0.42546">
        <ele>1200.85</ele>
        <time>2020-08-11T13:37:21.606Z</time>
      </trkpt>
      <trkpt lat="42.81136" lon="0.42532">
        <ele>1199.54</ele>
        <time>2020-08-11T13:37:23.165Z</time>
      </trkpt>
      <trkpt lat="42.81124" lon="0.42524">
        <ele>1198.56</ele>
        <time>2020-08-11T13:37:24.423Z</time>
      </trkpt>
      <trkpt lat="42.81074" lon="0.42511">
        <ele>1195.07</ele>
        <time>2020-08-11T13:37:29.214Z</time>
      </trkpt>
      <trkpt lat="42.81069" lon="0.42505">
        <ele>1194.29</ele>
        <time>2020-08-11T13:37:29.841Z</time>
      </trkpt>
      <trkpt lat="42.81066" lon="0.42493">
        <ele>1193.61</ele>
        <time>2020-08-11T13:37:30.716Z</time>
      </trkpt>
      <trkpt lat="42.81066" lon="0.42461">
        <ele>1190.65</ele>
        <time>2020-08-11T13:37:32.926Z</time>
      </trkpt>
      <trkpt lat="42.81063" lon="0.42434">
        <ele>1189.11</ele>
        <time>2020-08-11T13:37:34.812Z</time>
      </trkpt>
      <trkpt lat="42.8105" lon="0.42402">
        <ele>1185.76</ele>
        <time>2020-08-11T13:37:37.338Z</time>
      </trkpt>
      <trkpt lat="42.81018" lon="0.42336">
        <ele>1181.3</ele>
        <time>2020-08-11T13:37:42.801Z</time>
      </trkpt>
      <trkpt lat="42.80985" lon="0.42269">
        <ele>1175.6</ele>
        <time>2020-08-11T13:37:48.373Z</time>
      </trkpt>
      <trkpt lat="42.80973" lon="0.42249">
        <ele>1174.25</ele>
        <time>2020-08-11T13:37:50.157Z</time>
      </trkpt>
      <trkpt lat="42.80946" lon="0.42227">
        <ele>1171.01</ele>
        <time>2020-08-11T13:37:53.118Z</time>
      </trkpt>
      <trkpt lat="42.80931" lon="0.42208">
        <ele>1168.53</ele>
        <time>2020-08-11T13:37:55.046Z</time>
      </trkpt>
      <trkpt lat="42.80889" lon="0.42174">
        <ele>1161.43</ele>
        <time>2020-08-11T13:37:59.644Z</time>
      </trkpt>
      <trkpt lat="42.80879" lon="0.4216">
        <ele>1158.77</ele>
        <time>2020-08-11T13:38:00.993Z</time>
      </trkpt>
      <trkpt lat="42.80876" lon="0.42145">
        <ele>1158.27</ele>
        <time>2020-08-11T13:38:02.182Z</time>
      </trkpt>
      <trkpt lat="42.8088" lon="0.42135">
        <ele>1157.79</ele>
        <time>2020-08-11T13:38:02.957Z</time>
      </trkpt>
      <trkpt lat="42.80884" lon="0.42132">
        <ele>1157.79</ele>
        <time>2020-08-11T13:38:03.877Z</time>
      </trkpt>
      <trkpt lat="42.80892" lon="0.42131">
        <ele>1157.26</ele>
        <time>2020-08-11T13:38:04.573Z</time>
      </trkpt>
      <trkpt lat="42.80918" lon="0.42173">
        <ele>1154.67</ele>
        <time>2020-08-11T13:38:08.115Z</time>
      </trkpt>
      <trkpt lat="42.80935" lon="0.42179">
        <ele>1153.99</ele>
        <time>2020-08-11T13:38:10.036Z</time>
      </trkpt>
      <trkpt lat="42.80972" lon="0.42179">
        <ele>1151.66</ele>
        <time>2020-08-11T13:38:13.318Z</time>
      </trkpt>
      <trkpt lat="42.80991" lon="0.42184">
        <ele>1150.96</ele>
        <time>2020-08-11T13:38:15.488Z</time>
      </trkpt>
      <trkpt lat="42.81028" lon="0.42206">
        <ele>1148.83</ele>
        <time>2020-08-11T13:38:19.379Z</time>
      </trkpt>
      <trkpt lat="42.81077" lon="0.42241">
        <ele>1143.77</ele>
        <time>2020-08-11T13:38:24.586Z</time>
      </trkpt>
      <trkpt lat="42.81125" lon="0.42275">
        <ele>1141.57</ele>
        <time>2020-08-11T13:38:30.396Z</time>
      </trkpt>
      <trkpt lat="42.81152" lon="0.42289">
        <ele>1138.2</ele>
        <time>2020-08-11T13:38:33.115Z</time>
      </trkpt>
      <trkpt lat="42.81197" lon="0.42309">
        <ele>1134.81</ele>
        <time>2020-08-11T13:38:37.570Z</time>
      </trkpt>
      <trkpt lat="42.81242" lon="0.42328">
        <ele>1131.79</ele>
        <time>2020-08-11T13:38:41.713Z</time>
      </trkpt>
      <trkpt lat="42.81294" lon="0.42357">
        <ele>1127.14</ele>
        <time>2020-08-11T13:38:47.001Z</time>
      </trkpt>
      <trkpt lat="42.8131" lon="0.42363">
        <ele>1125.41</ele>
        <time>2020-08-11T13:38:48.563Z</time>
      </trkpt>
      <trkpt lat="42.81321" lon="0.42363">
        <ele>1124.62</ele>
        <time>2020-08-11T13:38:49.599Z</time>
      </trkpt>
      <trkpt lat="42.81336" lon="0.42355">
        <ele>1123.07</ele>
        <time>2020-08-11T13:38:51.115Z</time>
      </trkpt>
      <trkpt lat="42.81345" lon="0.42346">
        <ele>1122.32</ele>
        <time>2020-08-11T13:38:52.165Z</time>
      </trkpt>
      <trkpt lat="42.81366" lon="0.42306">
        <ele>1116.9</ele>
        <time>2020-08-11T13:38:55.562Z</time>
      </trkpt>
      <trkpt lat="42.81412" lon="0.42209">
        <ele>1110.24</ele>
        <time>2020-08-11T13:39:03.537Z</time>
      </trkpt>
      <trkpt lat="42.81436" lon="0.42171">
        <ele>1106.55</ele>
        <time>2020-08-11T13:39:07.000Z</time>
      </trkpt>
      <trkpt lat="42.81464" lon="0.42145">
        <ele>1102.86</ele>
        <time>2020-08-11T13:39:10.189Z</time>
      </trkpt>
      <trkpt lat="42.81482" lon="0.42133">
        <ele>1101.8</ele>
        <time>2020-08-11T13:39:12.118Z</time>
      </trkpt>
      <trkpt lat="42.81564" lon="0.42095">
        <ele>1092.54</ele>
        <time>2020-08-11T13:39:20.270Z</time>
      </trkpt>
      <trkpt lat="42.81598" lon="0.42081">
        <ele>1088.43</ele>
        <time>2020-08-11T13:39:23.613Z</time>
      </trkpt>
      <trkpt lat="42.81627" lon="0.42045">
        <ele>1084.38</ele>
        <time>2020-08-11T13:39:27.305Z</time>
      </trkpt>
      <trkpt lat="42.81685" lon="0.41987">
        <ele>1077.03</ele>
        <time>2020-08-11T13:39:34.076Z</time>
      </trkpt>
      <trkpt lat="42.81703" lon="0.41975">
        <ele>1075.9</ele>
        <time>2020-08-11T13:39:35.950Z</time>
      </trkpt>
      <trkpt lat="42.81784" lon="0.41937">
        <ele>1066.9</ele>
        <time>2020-08-11T13:39:44.013Z</time>
      </trkpt>
      <trkpt lat="42.81828" lon="0.41919">
        <ele>1061.7</ele>
        <time>2020-08-11T13:39:48.337Z</time>
      </trkpt>
      <trkpt lat="42.81881" lon="0.41894">
        <ele>1057.52</ele>
        <time>2020-08-11T13:39:53.616Z</time>
      </trkpt>
      <trkpt lat="42.81915" lon="0.41869">
        <ele>1052.37</ele>
        <time>2020-08-11T13:39:57.252Z</time>
      </trkpt>
      <trkpt lat="42.8193" lon="0.41849">
        <ele>1050.82</ele>
        <time>2020-08-11T13:39:59.227Z</time>
      </trkpt>
      <trkpt lat="42.81943" lon="0.41835">
        <ele>1047.99</ele>
        <time>2020-08-11T13:40:00.786Z</time>
      </trkpt>
      <trkpt lat="42.82" lon="0.41796">
        <ele>1040.4</ele>
        <time>2020-08-11T13:40:06.790Z</time>
      </trkpt>
      <trkpt lat="42.82043" lon="0.4176">
        <ele>1034.94</ele>
        <time>2020-08-11T13:40:11.539Z</time>
      </trkpt>
      <trkpt lat="42.82092" lon="0.41732">
        <ele>1030.74</ele>
        <time>2020-08-11T13:40:16.540Z</time>
      </trkpt>
      <trkpt lat="42.82141" lon="0.41703">
        <ele>1026.03</ele>
        <time>2020-08-11T13:40:21.569Z</time>
      </trkpt>
      <trkpt lat="42.82207" lon="0.41658">
        <ele>1019.56</ele>
        <time>2020-08-11T13:40:28.515Z</time>
      </trkpt>
      <trkpt lat="42.82273" lon="0.41613">
        <ele>1009.01</ele>
        <time>2020-08-11T13:40:35.461Z</time>
      </trkpt>
      <trkpt lat="42.82325" lon="0.41575">
        <ele>1002.7</ele>
        <time>2020-08-11T13:40:41.014Z</time>
      </trkpt>
      <trkpt lat="42.82369" lon="0.41507">
        <ele>994.84</ele>
        <time>2020-08-11T13:40:47.274Z</time>
      </trkpt>
      <trkpt lat="42.82384" lon="0.41491">
        <ele>992.53</ele>
        <time>2020-08-11T13:40:49.067Z</time>
      </trkpt>
      <trkpt lat="42.82398" lon="0.41482">
        <ele>992.04</ele>
        <time>2020-08-11T13:40:50.884Z</time>
      </trkpt>
      <trkpt lat="42.82409" lon="0.41479">
        <ele>992.04</ele>
        <time>2020-08-11T13:40:53.143Z</time>
      </trkpt>
      <trkpt lat="42.82406" lon="0.41469">
        <ele>992.21</ele>
        <time>2020-08-11T13:40:55.130Z</time>
      </trkpt>
      <trkpt lat="42.824" lon="0.41462">
        <ele>992.21</ele>
        <time>2020-08-11T13:40:56.720Z</time>
      </trkpt>
      <trkpt lat="42.82393" lon="0.41461">
        <ele>992.27</ele>
        <time>2020-08-11T13:40:58.258Z</time>
      </trkpt>
      <trkpt lat="42.82387" lon="0.41463">
        <ele>992.23</ele>
        <time>2020-08-11T13:40:59.389Z</time>
      </trkpt>
      <trkpt lat="42.82379" lon="0.41469">
        <ele>992.18</ele>
        <time>2020-08-11T13:41:01.086Z</time>
      </trkpt>
      <trkpt lat="42.82354" lon="0.415">
        <ele>991.43</ele>
        <time>2020-08-11T13:41:05.482Z</time>
      </trkpt>
      <trkpt lat="42.82341" lon="0.41511">
        <ele>990.69</ele>
        <time>2020-08-11T13:41:07.014Z</time>
      </trkpt>
      <trkpt lat="42.82276" lon="0.41544">
        <ele>990.1</ele>
        <time>2020-08-11T13:41:17.710Z</time>
      </trkpt>
      <trkpt lat="42.82228" lon="0.4158">
        <ele>992.78</ele>
        <time>2020-08-11T13:41:36.867Z</time>
      </trkpt>
      <trkpt lat="42.82215" lon="0.41588">
        <ele>993.59</ele>
        <time>2020-08-11T13:41:42.124Z</time>
      </trkpt>
      <trkpt lat="42.82191" lon="0.41596">
        <ele>994.15</ele>
        <time>2020-08-11T13:41:48.404Z</time>
      </trkpt>
      <trkpt lat="42.82174" lon="0.41596">
        <ele>994.34</ele>
        <time>2020-08-11T13:41:52.219Z</time>
      </trkpt>
      <trkpt lat="42.82162" lon="0.41593">
        <ele>994.29</ele>
        <time>2020-08-11T13:41:54.531Z</time>
      </trkpt>
      <trkpt lat="42.82122" lon="0.41576">
        <ele>992.74</ele>
        <time>2020-08-11T13:41:59.192Z</time>
      </trkpt>
      <trkpt lat="42.82082" lon="0.41542">
        <ele>989.68</ele>
        <time>2020-08-11T13:42:03.311Z</time>
      </trkpt>
      <trkpt lat="42.8206" lon="0.41536">
        <ele>987.67</ele>
        <time>2020-08-11T13:42:05.423Z</time>
      </trkpt>
      <trkpt lat="42.82035" lon="0.41532">
        <ele>986.95</ele>
        <time>2020-08-11T13:42:08.474Z</time>
      </trkpt>
      <trkpt lat="42.8201" lon="0.41533">
        <ele>986.97</ele>
        <time>2020-08-11T13:42:13.548Z</time>
      </trkpt>
      <trkpt lat="42.81991" lon="0.41536">
        <ele>986.34</ele>
        <time>2020-08-11T13:42:15.764Z</time>
      </trkpt>
      <trkpt lat="42.81934" lon="0.4155">
        <ele>985.27</ele>
        <time>2020-08-11T13:42:23.633Z</time>
      </trkpt>
      <trkpt lat="42.81904" lon="0.41555">
        <ele>980.43</ele>
        <time>2020-08-11T13:42:26.478Z</time>
      </trkpt>
      <trkpt lat="42.81893" lon="0.41554">
        <ele>977.34</ele>
        <time>2020-08-11T13:42:27.515Z</time>
      </trkpt>
      <trkpt lat="42.81883" lon="0.41549">
        <ele>975.94</ele>
        <time>2020-08-11T13:42:28.518Z</time>
      </trkpt>
      <trkpt lat="42.81876" lon="0.4154">
        <ele>974.84</ele>
        <time>2020-08-11T13:42:29.424Z</time>
      </trkpt>
      <trkpt lat="42.81872" lon="0.41526">
        <ele>969.6</ele>
        <time>2020-08-11T13:42:30.461Z</time>
      </trkpt>
      <trkpt lat="42.81872" lon="0.41499">
        <ele>968.86</ele>
        <time>2020-08-11T13:42:32.656Z</time>
      </trkpt>
      <trkpt lat="42.81868" lon="0.4148">
        <ele>967.37</ele>
        <time>2020-08-11T13:42:34.021Z</time>
      </trkpt>
      <trkpt lat="42.81861" lon="0.41472">
        <ele>967.37</ele>
        <time>2020-08-11T13:42:35.861Z</time>
      </trkpt>
      <trkpt lat="42.81855" lon="0.41469">
        <ele>966.93</ele>
        <time>2020-08-11T13:42:36.462Z</time>
      </trkpt>
      <trkpt lat="42.81847" lon="0.4147">
        <ele>966.38</ele>
        <time>2020-08-11T13:42:37.218Z</time>
      </trkpt>
      <trkpt lat="42.81819" lon="0.41489">
        <ele>965.5</ele>
        <time>2020-08-11T13:42:41.028Z</time>
      </trkpt>
      <trkpt lat="42.81798" lon="0.41499">
        <ele>963.77</ele>
        <time>2020-08-11T13:42:43.122Z</time>
      </trkpt>
      <trkpt lat="42.81768" lon="0.41506">
        <ele>961.29</ele>
        <time>2020-08-11T13:42:45.987Z</time>
      </trkpt>
      <trkpt lat="42.81739" lon="0.4152">
        <ele>958.21</ele>
        <time>2020-08-11T13:42:48.883Z</time>
      </trkpt>
      <trkpt lat="42.81731" lon="0.41519">
        <ele>958.21</ele>
        <time>2020-08-11T13:42:50.501Z</time>
      </trkpt>
      <trkpt lat="42.81725" lon="0.41515">
        <ele>957.37</ele>
        <time>2020-08-11T13:42:51.129Z</time>
      </trkpt>
      <trkpt lat="42.81721" lon="0.41509">
        <ele>956.89</ele>
        <time>2020-08-11T13:42:51.689Z</time>
      </trkpt>
      <trkpt lat="42.81717" lon="0.415">
        <ele>956.19</ele>
        <time>2020-08-11T13:42:52.416Z</time>
      </trkpt>
      <trkpt lat="42.81715" lon="0.41489">
        <ele>956.19</ele>
        <time>2020-08-11T13:42:54.090Z</time>
      </trkpt>
      <trkpt lat="42.81722" lon="0.41401">
        <ele>951.88</ele>
        <time>2020-08-11T13:42:59.701Z</time>
      </trkpt>
      <trkpt lat="42.81721" lon="0.41382">
        <ele>951.49</ele>
        <time>2020-08-11T13:43:01.407Z</time>
      </trkpt>
      <trkpt lat="42.81719" lon="0.41373">
        <ele>951.12</ele>
        <time>2020-08-11T13:43:02.067Z</time>
      </trkpt>
      <trkpt lat="42.81714" lon="0.41365">
        <ele>950.66</ele>
        <time>2020-08-11T13:43:02.769Z</time>
      </trkpt>
      <trkpt lat="42.81707" lon="0.41363">
        <ele>950.66</ele>
        <time>2020-08-11T13:43:04.210Z</time>
      </trkpt>
      <trkpt lat="42.81702" lon="0.41364">
        <ele>949.74</ele>
        <time>2020-08-11T13:43:04.685Z</time>
      </trkpt>
      <trkpt lat="42.8168" lon="0.41376">
        <ele>949.08</ele>
        <time>2020-08-11T13:43:07.580Z</time>
      </trkpt>
      <trkpt lat="42.81668" lon="0.41376">
        <ele>947.57</ele>
        <time>2020-08-11T13:43:08.710Z</time>
      </trkpt>
      <trkpt lat="42.81645" lon="0.4137">
        <ele>946.38</ele>
        <time>2020-08-11T13:43:11.005Z</time>
      </trkpt>
      <trkpt lat="42.81637" lon="0.41363">
        <ele>944.88</ele>
        <time>2020-08-11T13:43:11.900Z</time>
      </trkpt>
      <trkpt lat="42.81623" lon="0.41325">
        <ele>942.84</ele>
        <time>2020-08-11T13:43:14.616Z</time>
      </trkpt>
      <trkpt lat="42.81617" lon="0.41317">
        <ele>942.84</ele>
        <time>2020-08-11T13:43:16.306Z</time>
      </trkpt>
      <trkpt lat="42.8161" lon="0.41315">
        <ele>942.87</ele>
        <time>2020-08-11T13:43:17.804Z</time>
      </trkpt>
      <trkpt lat="42.81573" lon="0.41316">
        <ele>943.15</ele>
        <time>2020-08-11T13:43:25.812Z</time>
      </trkpt>
      <trkpt lat="42.81551" lon="0.41325">
        <ele>943.7</ele>
        <time>2020-08-11T13:43:31.738Z</time>
      </trkpt>
      <trkpt lat="42.81542" lon="0.41333">
        <ele>943.7</ele>
        <time>2020-08-11T13:43:33.902Z</time>
      </trkpt>
      <trkpt lat="42.81524" lon="0.4136">
        <ele>944.79</ele>
        <time>2020-08-11T13:43:42.500Z</time>
      </trkpt>
      <trkpt lat="42.81509" lon="0.41378">
        <ele>945.19</ele>
        <time>2020-08-11T13:43:47.428Z</time>
      </trkpt>
      <trkpt lat="42.81497" lon="0.41386">
        <ele>945.14</ele>
        <time>2020-08-11T13:43:49.973Z</time>
      </trkpt>
      <trkpt lat="42.81476" lon="0.41392">
        <ele>945.14</ele>
        <time>2020-08-11T13:43:54.294Z</time>
      </trkpt>
      <trkpt lat="42.81417" lon="0.41391">
        <ele>945.34</ele>
        <time>2020-08-11T13:44:06.559Z</time>
      </trkpt>
      <trkpt lat="42.81398" lon="0.41386">
        <ele>945.52</ele>
        <time>2020-08-11T13:44:10.819Z</time>
      </trkpt>
      <trkpt lat="42.8137" lon="0.41375">
        <ele>944.52</ele>
        <time>2020-08-11T13:44:14.148Z</time>
      </trkpt>
      <trkpt lat="42.81367" lon="0.41372">
        <ele>943.94</ele>
        <time>2020-08-11T13:44:14.499Z</time>
      </trkpt>
      <trkpt lat="42.81361" lon="0.41365">
        <ele>943.94</ele>
        <time>2020-08-11T13:44:16.089Z</time>
      </trkpt>
      <trkpt lat="42.81348" lon="0.41341">
        <ele>943.38</ele>
        <time>2020-08-11T13:44:18.830Z</time>
      </trkpt>
      <trkpt lat="42.81342" lon="0.41315">
        <ele>942.97</ele>
        <time>2020-08-11T13:44:21.482Z</time>
      </trkpt>
      <trkpt lat="42.81344" lon="0.41265">
        <ele>942.88</ele>
        <time>2020-08-11T13:44:28.612Z</time>
      </trkpt>
      <trkpt lat="42.81343" lon="0.41249">
        <ele>942.88</ele>
        <time>2020-08-11T13:44:30.985Z</time>
      </trkpt>
      <trkpt lat="42.8133" lon="0.41164">
        <ele>941.77</ele>
        <time>2020-08-11T13:44:39.748Z</time>
      </trkpt>
      <trkpt lat="42.81321" lon="0.41058">
        <ele>940.77</ele>
        <time>2020-08-11T13:44:51.159Z</time>
      </trkpt>
      <trkpt lat="42.81311" lon="0.40976">
        <ele>940.63</ele>
        <time>2020-08-11T13:45:03.023Z</time>
      </trkpt>
      <trkpt lat="42.81306" lon="0.40967">
        <ele>940.73</ele>
        <time>2020-08-11T13:45:04.898Z</time>
      </trkpt>
      <trkpt lat="42.813" lon="0.40961">
        <ele>940.73</ele>
        <time>2020-08-11T13:45:06.397Z</time>
      </trkpt>
      <trkpt lat="42.8125" lon="0.4094">
        <ele>943.22</ele>
        <time>2020-08-11T13:45:24.536Z</time>
      </trkpt>
      <trkpt lat="42.81205" lon="0.40909">
        <ele>950.66</ele>
        <time>2020-08-11T13:46:03.705Z</time>
      </trkpt>
      <trkpt lat="42.81196" lon="0.40908">
        <ele>950.66</ele>
        <time>2020-08-11T13:46:05.524Z</time>
      </trkpt>
      <trkpt lat="42.81191" lon="0.4091">
        <ele>950.66</ele>
        <time>2020-08-11T13:46:06.573Z</time>
      </trkpt>
      <trkpt lat="42.81187" lon="0.40914">
        <ele>950.91</ele>
        <time>2020-08-11T13:46:08.325Z</time>
      </trkpt>
      <trkpt lat="42.81164" lon="0.40895">
        <ele>953.58</ele>
        <time>2020-08-11T13:46:22.313Z</time>
      </trkpt>
      <trkpt lat="42.81158" lon="0.40887">
        <ele>952.65</ele>
        <time>2020-08-11T13:46:23.103Z</time>
      </trkpt>
      <trkpt lat="42.81151" lon="0.40859">
        <ele>954.06</ele>
        <time>2020-08-11T13:46:31.576Z</time>
      </trkpt>
      <trkpt lat="42.81152" lon="0.40853">
        <ele>954.06</ele>
        <time>2020-08-11T13:46:32.485Z</time>
      </trkpt>
      <trkpt lat="42.81154" lon="0.40848">
        <ele>954.06</ele>
        <time>2020-08-11T13:46:33.327Z</time>
      </trkpt>
      <trkpt lat="42.81166" lon="0.40837">
        <ele>956</ele>
        <time>2020-08-11T13:46:44.561Z</time>
      </trkpt>
      <trkpt lat="42.81196" lon="0.40803">
        <ele>958.92</ele>
        <time>2020-08-11T13:47:00.972Z</time>
      </trkpt>
      <trkpt lat="42.81227" lon="0.40763">
        <ele>960.15</ele>
        <time>2020-08-11T13:47:12.652Z</time>
      </trkpt>
      <trkpt lat="42.8128" lon="0.40677">
        <ele>958.6</ele>
        <time>2020-08-11T13:47:23.801Z</time>
      </trkpt>
      <trkpt lat="42.81334" lon="0.40592">
        <ele>961.06</ele>
        <time>2020-08-11T13:47:46.658Z</time>
      </trkpt>
      <trkpt lat="42.81387" lon="0.40506">
        <ele>966.46</ele>
        <time>2020-08-11T13:48:18.965Z</time>
      </trkpt>
      <trkpt lat="42.81338" lon="0.40469">
        <ele>969.83</ele>
        <time>2020-08-11T13:48:40.099Z</time>
      </trkpt>
      <trkpt lat="42.81321" lon="0.40463">
        <ele>970.88</ele>
        <time>2020-08-11T13:48:46.707Z</time>
      </trkpt>
      <trkpt lat="42.81309" lon="0.40465">
        <ele>971.93</ele>
        <time>2020-08-11T13:48:52.320Z</time>
      </trkpt>
      <trkpt lat="42.81296" lon="0.40472">
        <ele>973</ele>
        <time>2020-08-11T13:48:58.279Z</time>
      </trkpt>
      <trkpt lat="42.81266" lon="0.40504">
        <ele>976.88</ele>
        <time>2020-08-11T13:49:18.598Z</time>
      </trkpt>
      <trkpt lat="42.81256" lon="0.4051">
        <ele>977.81</ele>
        <time>2020-08-11T13:49:23.596Z</time>
      </trkpt>
      <trkpt lat="42.81244" lon="0.40512">
        <ele>978.74</ele>
        <time>2020-08-11T13:49:28.765Z</time>
      </trkpt>
      <trkpt lat="42.81237" lon="0.4051">
        <ele>978.74</ele>
        <time>2020-08-11T13:49:30.206Z</time>
      </trkpt>
      <trkpt lat="42.81214" lon="0.40486">
        <ele>987.34</ele>
        <time>2020-08-11T13:49:52.707Z</time>
      </trkpt>
      <trkpt lat="42.81181" lon="0.40435">
        <ele>993.14</ele>
        <time>2020-08-11T13:50:23.757Z</time>
      </trkpt>
      <trkpt lat="42.81147" lon="0.40383">
        <ele>991.83</ele>
        <time>2020-08-11T13:50:30.152Z</time>
      </trkpt>
      <trkpt lat="42.81123" lon="0.40363">
        <ele>989.4</ele>
        <time>2020-08-11T13:50:32.800Z</time>
      </trkpt>
      <trkpt lat="42.81112" lon="0.40347">
        <ele>989.41</ele>
        <time>2020-08-11T13:50:36.058Z</time>
      </trkpt>
      <trkpt lat="42.81098" lon="0.40308">
        <ele>984.13</ele>
        <time>2020-08-11T13:50:39.056Z</time>
      </trkpt>
      <trkpt lat="42.81092" lon="0.40295">
        <ele>982.76</ele>
        <time>2020-08-11T13:50:40.117Z</time>
      </trkpt>
      <trkpt lat="42.81086" lon="0.40289">
        <ele>981.61</ele>
        <time>2020-08-11T13:50:40.817Z</time>
      </trkpt>
      <trkpt lat="42.81029" lon="0.40253">
        <ele>975.6</ele>
        <time>2020-08-11T13:50:46.730Z</time>
      </trkpt>
      <trkpt lat="42.80984" lon="0.40202">
        <ele>974.74</ele>
        <time>2020-08-11T13:50:55.057Z</time>
      </trkpt>
      <trkpt lat="42.80944" lon="0.4018">
        <ele>975.58</ele>
        <time>2020-08-11T13:51:05.630Z</time>
      </trkpt>
      <trkpt lat="42.80924" lon="0.40177">
        <ele>975.58</ele>
        <time>2020-08-11T13:51:09.683Z</time>
      </trkpt>
      <trkpt lat="42.80913" lon="0.40164">
        <ele>975.68</ele>
        <time>2020-08-11T13:51:12.812Z</time>
      </trkpt>
      <trkpt lat="42.80899" lon="0.40154">
        <ele>975.91</ele>
        <time>2020-08-11T13:51:16.485Z</time>
      </trkpt>
      <trkpt lat="42.8085" lon="0.4013">
        <ele>978.25</ele>
        <time>2020-08-11T13:51:34.233Z</time>
      </trkpt>
      <trkpt lat="42.80801" lon="0.40106">
        <ele>985.67</ele>
        <time>2020-08-11T13:52:14.682Z</time>
      </trkpt>
      <trkpt lat="42.80784" lon="0.40092">
        <ele>985.67</ele>
        <time>2020-08-11T13:52:18.682Z</time>
      </trkpt>
      <trkpt lat="42.80746" lon="0.40035">
        <ele>994.6</ele>
        <time>2020-08-11T13:53:02.578Z</time>
      </trkpt>
      <trkpt lat="42.80723" lon="0.40008">
        <ele>997.24</ele>
        <time>2020-08-11T13:53:16.685Z</time>
      </trkpt>
      <trkpt lat="42.80693" lon="0.39986">
        <ele>1002.28</ele>
        <time>2020-08-11T13:53:43.149Z</time>
      </trkpt>
      <trkpt lat="42.8067" lon="0.3998">
        <ele>1005.65</ele>
        <time>2020-08-11T13:54:01.341Z</time>
      </trkpt>
      <trkpt lat="42.80639" lon="0.39981">
        <ele>1008.09</ele>
        <time>2020-08-11T13:54:14.790Z</time>
      </trkpt>
      <trkpt lat="42.80605" lon="0.39975">
        <ele>1011.43</ele>
        <time>2020-08-11T13:54:32.306Z</time>
      </trkpt>
      <trkpt lat="42.80596" lon="0.39977">
        <ele>1011.43</ele>
        <time>2020-08-11T13:54:34.143Z</time>
      </trkpt>
      <trkpt lat="42.80589" lon="0.39981">
        <ele>1012.17</ele>
        <time>2020-08-11T13:54:38.023Z</time>
      </trkpt>
      <trkpt lat="42.80542" lon="0.40019">
        <ele>1018.47</ele>
        <time>2020-08-11T13:55:11.654Z</time>
      </trkpt>
      <trkpt lat="42.80494" lon="0.40056">
        <ele>1024.76</ele>
        <time>2020-08-11T13:55:45.124Z</time>
      </trkpt>
      <trkpt lat="42.80475" lon="0.40069">
        <ele>1026.02</ele>
        <time>2020-08-11T13:55:53.095Z</time>
      </trkpt>
      <trkpt lat="42.80454" lon="0.40073">
        <ele>1027.45</ele>
        <time>2020-08-11T13:56:01.525Z</time>
      </trkpt>
      <trkpt lat="42.80426" lon="0.40086">
        <ele>1031.92</ele>
        <time>2020-08-11T13:56:24.505Z</time>
      </trkpt>
      <trkpt lat="42.80417" lon="0.40088">
        <ele>1031.92</ele>
        <time>2020-08-11T13:56:26.341Z</time>
      </trkpt>
      <trkpt lat="42.80407" lon="0.40087">
        <ele>1033.31</ele>
        <time>2020-08-11T13:56:34.131Z</time>
      </trkpt>
      <trkpt lat="42.8038" lon="0.40077">
        <ele>1036.99</ele>
        <time>2020-08-11T13:56:55.283Z</time>
      </trkpt>
      <trkpt lat="42.80292" lon="0.40094">
        <ele>1045.61</ele>
        <time>2020-08-11T13:57:40.506Z</time>
      </trkpt>
      <trkpt lat="42.80227" lon="0.40104">
        <ele>1053.59</ele>
        <time>2020-08-11T13:58:24.112Z</time>
      </trkpt>
      <trkpt lat="42.80181" lon="0.40108">
        <ele>1058.96</ele>
        <time>2020-08-11T13:58:52.880Z</time>
      </trkpt>
      <trkpt lat="42.80177" lon="0.40107">
        <ele>1059.72</ele>
        <time>2020-08-11T13:58:56.040Z</time>
      </trkpt>
      <trkpt lat="42.80171" lon="0.40098">
        <ele>1059.72</ele>
        <time>2020-08-11T13:58:57.837Z</time>
      </trkpt>
      <trkpt lat="42.80171" lon="0.40092">
        <ele>1059.72</ele>
        <time>2020-08-11T13:58:58.723Z</time>
      </trkpt>
      <trkpt lat="42.80173" lon="0.40087">
        <ele>1062.43</ele>
        <time>2020-08-11T13:59:01.969Z</time>
      </trkpt>
      <trkpt lat="42.80179" lon="0.40081">
        <ele>1062.43</ele>
        <time>2020-08-11T13:59:03.468Z</time>
      </trkpt>
      <trkpt lat="42.80227" lon="0.40069">
        <ele>1067.13</ele>
        <time>2020-08-11T13:59:28.141Z</time>
      </trkpt>
      <trkpt lat="42.8027" lon="0.40051">
        <ele>1070.99</ele>
        <time>2020-08-11T13:59:48.839Z</time>
      </trkpt>
      <trkpt lat="42.80327" lon="0.40016">
        <ele>1076.15</ele>
        <time>2020-08-11T14:00:16.821Z</time>
      </trkpt>
      <trkpt lat="42.80384" lon="0.3998">
        <ele>1081.81</ele>
        <time>2020-08-11T14:00:46.828Z</time>
      </trkpt>
      <trkpt lat="42.8044" lon="0.39929">
        <ele>1089.92</ele>
        <time>2020-08-11T14:01:30.864Z</time>
      </trkpt>
      <trkpt lat="42.80442" lon="0.39919">
        <ele>1090.95</ele>
        <time>2020-08-11T14:01:36.771Z</time>
      </trkpt>
      <trkpt lat="42.80438" lon="0.39912">
        <ele>1090.95</ele>
        <time>2020-08-11T14:01:38.083Z</time>
      </trkpt>
      <trkpt lat="42.80435" lon="0.39911">
        <ele>1092.13</ele>
        <time>2020-08-11T14:01:40.482Z</time>
      </trkpt>
      <trkpt lat="42.80415" lon="0.39926">
        <ele>1093.39</ele>
        <time>2020-08-11T14:01:48.804Z</time>
      </trkpt>
      <trkpt lat="42.8039" lon="0.39939">
        <ele>1095.62</ele>
        <time>2020-08-11T14:02:00.862Z</time>
      </trkpt>
      <trkpt lat="42.80358" lon="0.39951">
        <ele>1097.74</ele>
        <time>2020-08-11T14:02:13.719Z</time>
      </trkpt>
      <trkpt lat="42.80307" lon="0.39955">
        <ele>1102.62</ele>
        <time>2020-08-11T14:02:39.357Z</time>
      </trkpt>
      <trkpt lat="42.80256" lon="0.39971">
        <ele>1108.53</ele>
        <time>2020-08-11T14:03:10.719Z</time>
      </trkpt>
      <trkpt lat="42.80205" lon="0.39986">
        <ele>1114.12</ele>
        <time>2020-08-11T14:03:40.089Z</time>
      </trkpt>
      <trkpt lat="42.80194" lon="0.39988">
        <ele>1115.26</ele>
        <time>2020-08-11T14:03:46.060Z</time>
      </trkpt>
      <trkpt lat="42.80188" lon="0.39986">
        <ele>1115.26</ele>
        <time>2020-08-11T14:03:47.304Z</time>
      </trkpt>
      <trkpt lat="42.80185" lon="0.39982">
        <ele>1116.67</ele>
        <time>2020-08-11T14:03:50.565Z</time>
      </trkpt>
      <trkpt lat="42.80183" lon="0.39972">
        <ele>1116.67</ele>
        <time>2020-08-11T14:03:52.096Z</time>
      </trkpt>
      <trkpt lat="42.80184" lon="0.39963">
        <ele>1116.67</ele>
        <time>2020-08-11T14:03:53.441Z</time>
      </trkpt>
      <trkpt lat="42.80189" lon="0.39956">
        <ele>1117.72</ele>
        <time>2020-08-11T14:03:59.010Z</time>
      </trkpt>
      <trkpt lat="42.8026" lon="0.39928">
        <ele>1124.64</ele>
        <time>2020-08-11T14:04:35.457Z</time>
      </trkpt>
      <trkpt lat="42.80321" lon="0.39891">
        <ele>1132.56</ele>
        <time>2020-08-11T14:05:18.179Z</time>
      </trkpt>
      <trkpt lat="42.80356" lon="0.39866">
        <ele>1137.33</ele>
        <time>2020-08-11T14:05:44.109Z</time>
      </trkpt>
      <trkpt lat="42.80362" lon="0.39859">
        <ele>1137.33</ele>
        <time>2020-08-11T14:05:45.700Z</time>
      </trkpt>
      <trkpt lat="42.80364" lon="0.39852">
        <ele>1138.46</ele>
        <time>2020-08-11T14:05:49.982Z</time>
      </trkpt>
      <trkpt lat="42.80363" lon="0.39844">
        <ele>1138.46</ele>
        <time>2020-08-11T14:05:51.181Z</time>
      </trkpt>
      <trkpt lat="42.80357" lon="0.39838">
        <ele>1139.76</ele>
        <time>2020-08-11T14:05:56.962Z</time>
      </trkpt>
      <trkpt lat="42.80348" lon="0.39842">
        <ele>1140.77</ele>
        <time>2020-08-11T14:06:02.266Z</time>
      </trkpt>
      <trkpt lat="42.80325" lon="0.39859">
        <ele>1143.22</ele>
        <time>2020-08-11T14:06:15.170Z</time>
      </trkpt>
      <trkpt lat="42.80271" lon="0.39872">
        <ele>1151.08</ele>
        <time>2020-08-11T14:06:57.769Z</time>
      </trkpt>
      <trkpt lat="42.80217" lon="0.39885">
        <ele>1157.02</ele>
        <time>2020-08-11T14:07:29.025Z</time>
      </trkpt>
      <trkpt lat="42.80181" lon="0.39896">
        <ele>1160.54</ele>
        <time>2020-08-11T14:07:47.521Z</time>
      </trkpt>
      <trkpt lat="42.80173" lon="0.39893">
        <ele>1161.59</ele>
        <time>2020-08-11T14:07:53.383Z</time>
      </trkpt>
      <trkpt lat="42.80169" lon="0.39889">
        <ele>1161.59</ele>
        <time>2020-08-11T14:07:54.382Z</time>
      </trkpt>
      <trkpt lat="42.80171" lon="0.39877">
        <ele>1164.58</ele>
        <time>2020-08-11T14:08:01.397Z</time>
      </trkpt>
      <trkpt lat="42.80179" lon="0.39872">
        <ele>1164.58</ele>
        <time>2020-08-11T14:08:03.169Z</time>
      </trkpt>
      <trkpt lat="42.802" lon="0.39867">
        <ele>1166.78</ele>
        <time>2020-08-11T14:08:14.694Z</time>
      </trkpt>
      <trkpt lat="42.80224" lon="0.39856">
        <ele>1168.97</ele>
        <time>2020-08-11T14:08:26.413Z</time>
      </trkpt>
      <trkpt lat="42.80258" lon="0.39834">
        <ele>1173.56</ele>
        <time>2020-08-11T14:08:51.491Z</time>
      </trkpt>
      <trkpt lat="42.80266" lon="0.39826">
        <ele>1173.56</ele>
        <time>2020-08-11T14:08:53.489Z</time>
      </trkpt>
      <trkpt lat="42.80271" lon="0.39817">
        <ele>1173.56</ele>
        <time>2020-08-11T14:08:55.157Z</time>
      </trkpt>
      <trkpt lat="42.80286" lon="0.39779">
        <ele>1177.99</ele>
        <time>2020-08-11T14:09:19.752Z</time>
      </trkpt>
      <trkpt lat="42.80296" lon="0.39762">
        <ele>1177.99</ele>
        <time>2020-08-11T14:09:22.972Z</time>
      </trkpt>
      <trkpt lat="42.80313" lon="0.39743">
        <ele>1180.31</ele>
        <time>2020-08-11T14:09:35.142Z</time>
      </trkpt>
      <trkpt lat="42.80357" lon="0.39686">
        <ele>1186.91</ele>
        <time>2020-08-11T14:10:09.890Z</time>
      </trkpt>
      <trkpt lat="42.80388" lon="0.39642">
        <ele>1191.35</ele>
        <time>2020-08-11T14:10:33.151Z</time>
      </trkpt>
      <trkpt lat="42.80423" lon="0.39607">
        <ele>1194.61</ele>
        <time>2020-08-11T14:10:51.448Z</time>
      </trkpt>
      <trkpt lat="42.80426" lon="0.396">
        <ele>1195.54</ele>
        <time>2020-08-11T14:10:56.068Z</time>
      </trkpt>
      <trkpt lat="42.80423" lon="0.39592">
        <ele>1195.54</ele>
        <time>2020-08-11T14:10:57.396Z</time>
      </trkpt>
      <trkpt lat="42.80414" lon="0.39594">
        <ele>1197.45</ele>
        <time>2020-08-11T14:11:04.480Z</time>
      </trkpt>
      <trkpt lat="42.80389" lon="0.39613">
        <ele>1199.61</ele>
        <time>2020-08-11T14:11:16.579Z</time>
      </trkpt>
      <trkpt lat="42.80362" lon="0.39625">
        <ele>1204.02</ele>
        <time>2020-08-11T14:11:38.641Z</time>
      </trkpt>
      <trkpt lat="42.80336" lon="0.3964">
        <ele>1206.1</ele>
        <time>2020-08-11T14:11:50.409Z</time>
      </trkpt>
      <trkpt lat="42.80295" lon="0.39655">
        <ele>1210.4</ele>
        <time>2020-08-11T14:12:12.927Z</time>
      </trkpt>
      <trkpt lat="42.80281" lon="0.39664">
        <ele>1212.51</ele>
        <time>2020-08-11T14:12:24.952Z</time>
      </trkpt>
      <trkpt lat="42.80256" lon="0.39689">
        <ele>1216.9</ele>
        <time>2020-08-11T14:12:49.040Z</time>
      </trkpt>
      <trkpt lat="42.80226" lon="0.397">
        <ele>1220.2</ele>
        <time>2020-08-11T14:13:06.362Z</time>
      </trkpt>
      <trkpt lat="42.80204" lon="0.39716">
        <ele>1222.28</ele>
        <time>2020-08-11T14:13:17.605Z</time>
      </trkpt>
      <trkpt lat="42.80171" lon="0.39746">
        <ele>1227.48</ele>
        <time>2020-08-11T14:13:47.411Z</time>
      </trkpt>
      <trkpt lat="42.8015" lon="0.39761">
        <ele>1229.65</ele>
        <time>2020-08-11T14:13:58.882Z</time>
      </trkpt>
      <trkpt lat="42.80135" lon="0.39766">
        <ele>1230.72</ele>
        <time>2020-08-11T14:14:05.107Z</time>
      </trkpt>
      <trkpt lat="42.80127" lon="0.39766">
        <ele>1231.78</ele>
        <time>2020-08-11T14:14:11.239Z</time>
      </trkpt>
      <trkpt lat="42.80122" lon="0.39758">
        <ele>1232.84</ele>
        <time>2020-08-11T14:14:17.229Z</time>
      </trkpt>
      <trkpt lat="42.80123" lon="0.39736">
        <ele>1233.91</ele>
        <time>2020-08-11T14:14:23.599Z</time>
      </trkpt>
      <trkpt lat="42.80129" lon="0.39721">
        <ele>1233.91</ele>
        <time>2020-08-11T14:14:26.124Z</time>
      </trkpt>
      <trkpt lat="42.80137" lon="0.39704">
        <ele>1237.11</ele>
        <time>2020-08-11T14:14:37.635Z</time>
      </trkpt>
      <trkpt lat="42.80152" lon="0.39679">
        <ele>1237.11</ele>
        <time>2020-08-11T14:14:42.408Z</time>
      </trkpt>
      <trkpt lat="42.80196" lon="0.39625">
        <ele>1243.59</ele>
        <time>2020-08-11T14:15:16.561Z</time>
      </trkpt>
      <trkpt lat="42.80229" lon="0.39561">
        <ele>1248.83</ele>
        <time>2020-08-11T14:15:44.272Z</time>
      </trkpt>
      <trkpt lat="42.80228" lon="0.3955">
        <ele>1248.83</ele>
        <time>2020-08-11T14:15:45.910Z</time>
      </trkpt>
      <trkpt lat="42.8022" lon="0.39544">
        <ele>1249.89</ele>
        <time>2020-08-11T14:15:51.582Z</time>
      </trkpt>
      <trkpt lat="42.80213" lon="0.39546">
        <ele>1250.9</ele>
        <time>2020-08-11T14:15:57.138Z</time>
      </trkpt>
      <trkpt lat="42.80195" lon="0.39562">
        <ele>1251.89</ele>
        <time>2020-08-11T14:16:04.516Z</time>
      </trkpt>
      <trkpt lat="42.80156" lon="0.39602">
        <ele>1256.23</ele>
        <time>2020-08-11T14:16:27.588Z</time>
      </trkpt>
      <trkpt lat="42.80109" lon="0.39631">
        <ele>1261.8</ele>
        <time>2020-08-11T14:16:56.883Z</time>
      </trkpt>
      <trkpt lat="42.80061" lon="0.39659">
        <ele>1266.96</ele>
        <time>2020-08-11T14:17:23.921Z</time>
      </trkpt>
      <trkpt lat="42.80054" lon="0.39658">
        <ele>1266.96</ele>
        <time>2020-08-11T14:17:25.338Z</time>
      </trkpt>
      <trkpt lat="42.8005" lon="0.39652">
        <ele>1266.96</ele>
        <time>2020-08-11T14:17:26.536Z</time>
      </trkpt>
      <trkpt lat="42.80049" lon="0.39643">
        <ele>1270.33</ele>
        <time>2020-08-11T14:17:31.725Z</time>
      </trkpt>
      <trkpt lat="42.80056" lon="0.39631">
        <ele>1270.33</ele>
        <time>2020-08-11T14:17:33.990Z</time>
      </trkpt>
      <trkpt lat="42.80087" lon="0.396">
        <ele>1274.45</ele>
        <time>2020-08-11T14:17:55.637Z</time>
      </trkpt>
      <trkpt lat="42.80098" lon="0.39577">
        <ele>1275.81</ele>
        <time>2020-08-11T14:18:03.651Z</time>
      </trkpt>
      <trkpt lat="42.80136" lon="0.39517">
        <ele>1278.99</ele>
        <time>2020-08-11T14:18:24.780Z</time>
      </trkpt>
      <trkpt lat="42.80156" lon="0.39505">
        <ele>1280.15</ele>
        <time>2020-08-11T14:18:32.634Z</time>
      </trkpt>
      <trkpt lat="42.80173" lon="0.39487">
        <ele>1282.82</ele>
        <time>2020-08-11T14:18:47.357Z</time>
      </trkpt>
      <trkpt lat="42.80198" lon="0.39452">
        <ele>1291.63</ele>
        <time>2020-08-11T14:19:15.198Z</time>
      </trkpt>
      <trkpt lat="42.80219" lon="0.39427">
        <ele>1296.2</ele>
        <time>2020-08-11T14:19:36.859Z</time>
      </trkpt>
      <trkpt lat="42.80219" lon="0.39418">
        <ele>1297.5</ele>
        <time>2020-08-11T14:19:41.989Z</time>
      </trkpt>
      <trkpt lat="42.80215" lon="0.39413">
        <ele>1299.08</ele>
        <time>2020-08-11T14:19:46.206Z</time>
      </trkpt>
      <trkpt lat="42.8021" lon="0.39411">
        <ele>1299.08</ele>
        <time>2020-08-11T14:19:47.255Z</time>
      </trkpt>
      <trkpt lat="42.80154" lon="0.39449">
        <ele>1304.82</ele>
        <time>2020-08-11T14:20:17.583Z</time>
      </trkpt>
      <trkpt lat="42.80084" lon="0.39485">
        <ele>1309.15</ele>
        <time>2020-08-11T14:20:45.365Z</time>
      </trkpt>
      <trkpt lat="42.80058" lon="0.39502">
        <ele>1311.55</ele>
        <time>2020-08-11T14:20:58.347Z</time>
      </trkpt>
      <trkpt lat="42.80037" lon="0.39511">
        <ele>1312.55</ele>
        <time>2020-08-11T14:21:05.874Z</time>
      </trkpt>
      <trkpt lat="42.80018" lon="0.39514">
        <ele>1313.58</ele>
        <time>2020-08-11T14:21:12.784Z</time>
      </trkpt>
      <trkpt lat="42.79979" lon="0.39514">
        <ele>1316.98</ele>
        <time>2020-08-11T14:21:30.943Z</time>
      </trkpt>
      <trkpt lat="42.79944" lon="0.39524">
        <ele>1321.21</ele>
        <time>2020-08-11T14:21:53.734Z</time>
      </trkpt>
      <trkpt lat="42.79922" lon="0.39524">
        <ele>1324.44</ele>
        <time>2020-08-11T14:22:10.824Z</time>
      </trkpt>
      <trkpt lat="42.79895" lon="0.39514">
        <ele>1328.33</ele>
        <time>2020-08-11T14:22:32.560Z</time>
      </trkpt>
      <trkpt lat="42.7988" lon="0.395">
        <ele>1329.73</ele>
        <time>2020-08-11T14:22:40.339Z</time>
      </trkpt>
      <trkpt lat="42.7987" lon="0.39474">
        <ele>1331.41</ele>
        <time>2020-08-11T14:22:49.629Z</time>
      </trkpt>
      <trkpt lat="42.7986" lon="0.39459">
        <ele>1334.18</ele>
        <time>2020-08-11T14:23:01.181Z</time>
      </trkpt>
      <trkpt lat="42.79851" lon="0.39451">
        <ele>1336.25</ele>
        <time>2020-08-11T14:23:09.529Z</time>
      </trkpt>
      <trkpt lat="42.79833" lon="0.39446">
        <ele>1336.25</ele>
        <time>2020-08-11T14:23:13.228Z</time>
      </trkpt>
      <trkpt lat="42.79815" lon="0.3945">
        <ele>1340.38</ele>
        <time>2020-08-11T14:23:27.396Z</time>
      </trkpt>
      <trkpt lat="42.79741" lon="0.3942">
        <ele>1349.9</ele>
        <time>2020-08-11T14:24:19.716Z</time>
      </trkpt>
      <trkpt lat="42.79734" lon="0.39414">
        <ele>1351.38</ele>
        <time>2020-08-11T14:24:26.141Z</time>
      </trkpt>
      <trkpt lat="42.79736" lon="0.39399">
        <ele>1352.19</ele>
        <time>2020-08-11T14:24:30.758Z</time>
      </trkpt>
      <trkpt lat="42.79745" lon="0.39396">
        <ele>1352.84</ele>
        <time>2020-08-11T14:24:34.518Z</time>
      </trkpt>
      <trkpt lat="42.79768" lon="0.39397">
        <ele>1353.82</ele>
        <time>2020-08-11T14:24:42.116Z</time>
      </trkpt>
      <trkpt lat="42.7979" lon="0.39389">
        <ele>1354.58</ele>
        <time>2020-08-11T14:24:48.722Z</time>
      </trkpt>
      <trkpt lat="42.798" lon="0.39377">
        <ele>1356.42</ele>
        <time>2020-08-11T14:24:59.073Z</time>
      </trkpt>
      <trkpt lat="42.79807" lon="0.39362">
        <ele>1356.42</ele>
        <time>2020-08-11T14:25:01.700Z</time>
      </trkpt>
      <trkpt lat="42.79811" lon="0.39304">
        <ele>1359.83</ele>
        <time>2020-08-11T14:25:20.402Z</time>
      </trkpt>
      <trkpt lat="42.79816" lon="0.39296">
        <ele>1359.83</ele>
        <time>2020-08-11T14:25:21.955Z</time>
      </trkpt>
      <trkpt lat="42.79829" lon="0.39288">
        <ele>1360.23</ele>
        <time>2020-08-11T14:25:25.821Z</time>
      </trkpt>
      <trkpt lat="42.79853" lon="0.39282">
        <ele>1361.24</ele>
        <time>2020-08-11T14:25:33.737Z</time>
      </trkpt>
      <trkpt lat="42.79921" lon="0.39245">
        <ele>1366.78</ele>
        <time>2020-08-11T14:26:04.734Z</time>
      </trkpt>
      <trkpt lat="42.79956" lon="0.39234">
        <ele>1370.08</ele>
        <time>2020-08-11T14:26:22.167Z</time>
      </trkpt>
      <trkpt lat="42.79974" lon="0.39224">
        <ele>1372.03</ele>
        <time>2020-08-11T14:26:32.379Z</time>
      </trkpt>
      <trkpt lat="42.79989" lon="0.39213">
        <ele>1373.4</ele>
        <time>2020-08-11T14:26:39.872Z</time>
      </trkpt>
      <trkpt lat="42.80045" lon="0.39164">
        <ele>1380.12</ele>
        <time>2020-08-11T14:27:15.063Z</time>
      </trkpt>
      <trkpt lat="42.80083" lon="0.39154">
        <ele>1383.27</ele>
        <time>2020-08-11T14:27:32.222Z</time>
      </trkpt>
      <trkpt lat="42.80094" lon="0.39144">
        <ele>1384.38</ele>
        <time>2020-08-11T14:27:38.210Z</time>
      </trkpt>
      <trkpt lat="42.801" lon="0.39128">
        <ele>1385.39</ele>
        <time>2020-08-11T14:27:43.834Z</time>
      </trkpt>
      <trkpt lat="42.8011" lon="0.39084">
        <ele>1387.02</ele>
        <time>2020-08-11T14:27:55.600Z</time>
      </trkpt>
      <trkpt lat="42.80124" lon="0.39062">
        <ele>1389.03</ele>
        <time>2020-08-11T14:28:06.179Z</time>
      </trkpt>
      <trkpt lat="42.80148" lon="0.39046">
        <ele>1391.61</ele>
        <time>2020-08-11T14:28:19.720Z</time>
      </trkpt>
      <trkpt lat="42.80172" lon="0.39022">
        <ele>1393.25</ele>
        <time>2020-08-11T14:28:30.565Z</time>
      </trkpt>
      <trkpt lat="42.80189" lon="0.38993">
        <ele>1395.81</ele>
        <time>2020-08-11T14:28:44.041Z</time>
      </trkpt>
      <trkpt lat="42.8023" lon="0.389">
        <ele>1404.32</ele>
        <time>2020-08-11T14:29:28.742Z</time>
      </trkpt>
      <trkpt lat="42.80248" lon="0.38872">
        <ele>1406.21</ele>
        <time>2020-08-11T14:29:39.745Z</time>
      </trkpt>
      <trkpt lat="42.80272" lon="0.38842">
        <ele>1409.9</ele>
        <time>2020-08-11T14:29:59.343Z</time>
      </trkpt>
      <trkpt lat="42.80305" lon="0.38823">
        <ele>1412.67</ele>
        <time>2020-08-11T14:30:14.710Z</time>
      </trkpt>
      <trkpt lat="42.80331" lon="0.38816">
        <ele>1414.07</ele>
        <time>2020-08-11T14:30:24.220Z</time>
      </trkpt>
      <trkpt lat="42.80352" lon="0.38814">
        <ele>1414.7</ele>
        <time>2020-08-11T14:30:30.061Z</time>
      </trkpt>
      <trkpt lat="42.80356" lon="0.38802">
        <ele>1415.06</ele>
        <time>2020-08-11T14:30:33.016Z</time>
      </trkpt>
      <trkpt lat="42.80355" lon="0.38798">
        <ele>1415.06</ele>
        <time>2020-08-11T14:30:33.640Z</time>
      </trkpt>
      <trkpt lat="42.80348" lon="0.38794">
        <ele>1415.3</ele>
        <time>2020-08-11T14:30:35.792Z</time>
      </trkpt>
      <trkpt lat="42.80338" lon="0.38796">
        <ele>1415.56</ele>
        <time>2020-08-11T14:30:38.456Z</time>
      </trkpt>
      <trkpt lat="42.80284" lon="0.38816">
        <ele>1418.38</ele>
        <time>2020-08-11T14:30:58.214Z</time>
      </trkpt>
      <trkpt lat="42.80245" lon="0.38835">
        <ele>1420.28</ele>
        <time>2020-08-11T14:31:12.415Z</time>
      </trkpt>
      <trkpt lat="42.8023" lon="0.38848">
        <ele>1421.9</ele>
        <time>2020-08-11T14:31:20.985Z</time>
      </trkpt>
      <trkpt lat="42.80179" lon="0.389">
        <ele>1426.2</ele>
        <time>2020-08-11T14:31:46.323Z</time>
      </trkpt>
      <trkpt lat="42.80143" lon="0.38923">
        <ele>1427.83</ele>
        <time>2020-08-11T14:31:59.146Z</time>
      </trkpt>
      <trkpt lat="42.80129" lon="0.3893">
        <ele>1428.71</ele>
        <time>2020-08-11T14:32:04.727Z</time>
      </trkpt>
      <trkpt lat="42.80109" lon="0.38936">
        <ele>1430.26</ele>
        <time>2020-08-11T14:32:13.399Z</time>
      </trkpt>
      <trkpt lat="42.80044" lon="0.38972">
        <ele>1436.38</ele>
        <time>2020-08-11T14:32:46.079Z</time>
      </trkpt>
      <trkpt lat="42.80022" lon="0.38979">
        <ele>1438.94</ele>
        <time>2020-08-11T14:32:59.676Z</time>
      </trkpt>
      <trkpt lat="42.7999" lon="0.38986">
        <ele>1440.72</ele>
        <time>2020-08-11T14:33:11.470Z</time>
      </trkpt>
      <trkpt lat="42.79978" lon="0.38994">
        <ele>1441.18</ele>
        <time>2020-08-11T14:33:15.400Z</time>
      </trkpt>
      <trkpt lat="42.79964" lon="0.39007">
        <ele>1442.96</ele>
        <time>2020-08-11T14:33:24.734Z</time>
      </trkpt>
      <trkpt lat="42.7995" lon="0.39011">
        <ele>1443.92</ele>
        <time>2020-08-11T14:33:30.408Z</time>
      </trkpt>
      <trkpt lat="42.79937" lon="0.39008">
        <ele>1444.95</ele>
        <time>2020-08-11T14:33:36.100Z</time>
      </trkpt>
      <trkpt lat="42.79868" lon="0.38981">
        <ele>1452.44</ele>
        <time>2020-08-11T14:34:15.358Z</time>
      </trkpt>
      <trkpt lat="42.79858" lon="0.3897">
        <ele>1454.13</ele>
        <time>2020-08-11T14:34:25.071Z</time>
      </trkpt>
      <trkpt lat="42.79851" lon="0.38932">
        <ele>1456.73</ele>
        <time>2020-08-11T14:34:38.845Z</time>
      </trkpt>
      <trkpt lat="42.79843" lon="0.38908">
        <ele>1458.14</ele>
        <time>2020-08-11T14:34:46.859Z</time>
      </trkpt>
      <trkpt lat="42.79827" lon="0.3888">
        <ele>1462.71</ele>
        <time>2020-08-11T14:35:07.089Z</time>
      </trkpt>
      <trkpt lat="42.79793" lon="0.38834">
        <ele>1458.39</ele>
        <time>2020-08-11T14:35:11.598Z</time>
      </trkpt>
      <trkpt lat="42.79799" lon="0.3883">
        <ele>1458.39</ele>
        <time>2020-08-11T14:35:12.943Z</time>
      </trkpt>
      <trkpt lat="42.79808" lon="0.38831">
        <ele>1458.39</ele>
        <time>2020-08-11T14:35:14.762Z</time>
      </trkpt>
      <trkpt lat="42.79828" lon="0.38843">
        <ele>1457.5</ele>
        <time>2020-08-11T14:35:17.108Z</time>
      </trkpt>
      <trkpt lat="42.79898" lon="0.38899">
        <ele>1462.49</ele>
        <time>2020-08-11T14:35:48.017Z</time>
      </trkpt>
      <trkpt lat="42.79906" lon="0.38902">
        <ele>1463.65</ele>
        <time>2020-08-11T14:35:54.463Z</time>
      </trkpt>
      <trkpt lat="42.79915" lon="0.389">
        <ele>1464.22</ele>
        <time>2020-08-11T14:35:57.961Z</time>
      </trkpt>
      <trkpt lat="42.79923" lon="0.38895">
        <ele>1465.41</ele>
        <time>2020-08-11T14:36:04.798Z</time>
      </trkpt>
      <trkpt lat="42.79948" lon="0.38857">
        <ele>1469.05</ele>
        <time>2020-08-11T14:36:23.891Z</time>
      </trkpt>
      <trkpt lat="42.79959" lon="0.38844">
        <ele>1471.52</ele>
        <time>2020-08-11T14:36:35.202Z</time>
      </trkpt>
      <trkpt lat="42.79982" lon="0.3883">
        <ele>1473.77</ele>
        <time>2020-08-11T14:36:47.152Z</time>
      </trkpt>
      <trkpt lat="42.8" lon="0.38825">
        <ele>1476.41</ele>
        <time>2020-08-11T14:37:01.423Z</time>
      </trkpt>
      <trkpt lat="42.80049" lon="0.38819">
        <ele>1477.92</ele>
        <time>2020-08-11T14:37:15.207Z</time>
      </trkpt>
      <trkpt lat="42.80085" lon="0.38803">
        <ele>1481.78</ele>
        <time>2020-08-11T14:37:35.421Z</time>
      </trkpt>
      <trkpt lat="42.80111" lon="0.38797">
        <ele>1483.91</ele>
        <time>2020-08-11T14:37:47.053Z</time>
      </trkpt>
      <trkpt lat="42.80118" lon="0.38791">
        <ele>1483.91</ele>
        <time>2020-08-11T14:37:48.719Z</time>
      </trkpt>
      <trkpt lat="42.80119" lon="0.38784">
        <ele>1484.79</ele>
        <time>2020-08-11T14:37:52.784Z</time>
      </trkpt>
      <trkpt lat="42.80114" lon="0.38778">
        <ele>1484.79</ele>
        <time>2020-08-11T14:37:54.125Z</time>
      </trkpt>
      <trkpt lat="42.80107" lon="0.38775">
        <ele>1485.82</ele>
        <time>2020-08-11T14:37:59.826Z</time>
      </trkpt>
      <trkpt lat="42.8006" lon="0.38791">
        <ele>1489.6</ele>
        <time>2020-08-11T14:38:20.724Z</time>
      </trkpt>
      <trkpt lat="42.80047" lon="0.38793">
        <ele>1491.2</ele>
        <time>2020-08-11T14:38:29.479Z</time>
      </trkpt>
      <trkpt lat="42.80036" lon="0.38788">
        <ele>1492.22</ele>
        <time>2020-08-11T14:38:34.915Z</time>
      </trkpt>
      <trkpt lat="42.80009" lon="0.38762">
        <ele>1494.88</ele>
        <time>2020-08-11T14:38:49.460Z</time>
      </trkpt>
      <trkpt lat="42.79994" lon="0.38752">
        <ele>1497.93</ele>
        <time>2020-08-11T14:39:02.432Z</time>
      </trkpt>
      <trkpt lat="42.79972" lon="0.38744">
        <ele>1500.01</ele>
        <time>2020-08-11T14:39:13.431Z</time>
      </trkpt>
      <trkpt lat="42.79929" lon="0.38741">
        <ele>1503.43</ele>
        <time>2020-08-11T14:39:32.217Z</time>
      </trkpt>
      <trkpt lat="42.79915" lon="0.38737">
        <ele>1506.36</ele>
        <time>2020-08-11T14:39:43.329Z</time>
      </trkpt>
      <trkpt lat="42.79902" lon="0.3873">
        <ele>1506.36</ele>
        <time>2020-08-11T14:39:46.144Z</time>
      </trkpt>
      <trkpt lat="42.79844" lon="0.38675">
        <ele>1513.57</ele>
        <time>2020-08-11T14:40:23.903Z</time>
      </trkpt>
      <trkpt lat="42.79795" lon="0.38624">
        <ele>1519.79</ele>
        <time>2020-08-11T14:40:56.476Z</time>
      </trkpt>
      <trkpt lat="42.79781" lon="0.38604">
        <ele>1521.13</ele>
        <time>2020-08-11T14:41:04.459Z</time>
      </trkpt>
      <trkpt lat="42.79767" lon="0.38588">
        <ele>1523.01</ele>
        <time>2020-08-11T14:41:14.306Z</time>
      </trkpt>
      <trkpt lat="42.79748" lon="0.38573">
        <ele>1523.01</ele>
        <time>2020-08-11T14:41:18.729Z</time>
      </trkpt>
      <trkpt lat="42.79732" lon="0.38556">
        <ele>1526.83</ele>
        <time>2020-08-11T14:41:34.490Z</time>
      </trkpt>
      <trkpt lat="42.79674" lon="0.38466">
        <ele>1533.89</ele>
        <time>2020-08-11T14:42:13.118Z</time>
      </trkpt>
      <trkpt lat="42.79659" lon="0.38447">
        <ele>1535.56</ele>
        <time>2020-08-11T14:42:22.209Z</time>
      </trkpt>
      <trkpt lat="42.79649" lon="0.38439">
        <ele>1536.65</ele>
        <time>2020-08-11T14:42:27.947Z</time>
      </trkpt>
      <trkpt lat="42.79639" lon="0.38435">
        <ele>1538.19</ele>
        <time>2020-08-11T14:42:36.043Z</time>
      </trkpt>
      <trkpt lat="42.79629" lon="0.38436">
        <ele>1538.19</ele>
        <time>2020-08-11T14:42:38.063Z</time>
      </trkpt>
      <trkpt lat="42.79594" lon="0.38451">
        <ele>1541.38</ele>
        <time>2020-08-11T14:42:55.111Z</time>
      </trkpt>
      <trkpt lat="42.79556" lon="0.38463">
        <ele>1545.85</ele>
        <time>2020-08-11T14:43:18.928Z</time>
      </trkpt>
      <trkpt lat="42.79547" lon="0.38465">
        <ele>1546.7</ele>
        <time>2020-08-11T14:43:23.408Z</time>
      </trkpt>
      <trkpt lat="42.79538" lon="0.38463">
        <ele>1547.48</ele>
        <time>2020-08-11T14:43:27.594Z</time>
      </trkpt>
      <trkpt lat="42.79529" lon="0.38456">
        <ele>1548.15</ele>
        <time>2020-08-11T14:43:31.631Z</time>
      </trkpt>
      <trkpt lat="42.79519" lon="0.38436">
        <ele>1549.18</ele>
        <time>2020-08-11T14:43:38.231Z</time>
      </trkpt>
      <trkpt lat="42.79487" lon="0.38389">
        <ele>1551.19</ele>
        <time>2020-08-11T14:43:53.799Z</time>
      </trkpt>
      <trkpt lat="42.79472" lon="0.38355">
        <ele>1553.25</ele>
        <time>2020-08-11T14:44:05.666Z</time>
      </trkpt>
      <trkpt lat="42.79455" lon="0.38338">
        <ele>1554.92</ele>
        <time>2020-08-11T14:44:14.848Z</time>
      </trkpt>
      <trkpt lat="42.79443" lon="0.38334">
        <ele>1557.4</ele>
        <time>2020-08-11T14:44:24.445Z</time>
      </trkpt>
      <trkpt lat="42.79413" lon="0.38335">
        <ele>1558.18</ele>
        <time>2020-08-11T14:44:32.378Z</time>
      </trkpt>
      <trkpt lat="42.79401" lon="0.38332">
        <ele>1560.56</ele>
        <time>2020-08-11T14:44:41.856Z</time>
      </trkpt>
      <trkpt lat="42.79386" lon="0.38322">
        <ele>1561.4</ele>
        <time>2020-08-11T14:44:47.748Z</time>
      </trkpt>
      <trkpt lat="42.79347" lon="0.38303">
        <ele>1565.2</ele>
        <time>2020-08-11T14:45:07.827Z</time>
      </trkpt>
      <trkpt lat="42.7933" lon="0.38293">
        <ele>1567.78</ele>
        <time>2020-08-11T14:45:22.211Z</time>
      </trkpt>
      <trkpt lat="42.79316" lon="0.38276">
        <ele>1567.78</ele>
        <time>2020-08-11T14:45:25.988Z</time>
      </trkpt>
      <trkpt lat="42.79286" lon="0.38213">
        <ele>1572.17</ele>
        <time>2020-08-11T14:45:50.077Z</time>
      </trkpt>
      <trkpt lat="42.79268" lon="0.3817">
        <ele>1573.74</ele>
        <time>2020-08-11T14:46:02.188Z</time>
      </trkpt>
      <trkpt lat="42.79258" lon="0.38159">
        <ele>1573.86</ele>
        <time>2020-08-11T14:46:05.018Z</time>
      </trkpt>
      <trkpt lat="42.79242" lon="0.38151">
        <ele>1573.92</ele>
        <time>2020-08-11T14:46:08.565Z</time>
      </trkpt>
      <trkpt lat="42.79205" lon="0.38126">
        <ele>1572.02</ele>
        <time>2020-08-11T14:46:12.788Z</time>
      </trkpt>
      <trkpt lat="42.79192" lon="0.38115">
        <ele>1571.89</ele>
        <time>2020-08-11T14:46:15.148Z</time>
      </trkpt>
      <trkpt lat="42.79186" lon="0.38102">
        <ele>1569.83</ele>
        <time>2020-08-11T14:46:16.209Z</time>
      </trkpt>
      <trkpt lat="42.79186" lon="0.38095">
        <ele>1569.83</ele>
        <time>2020-08-11T14:46:17.243Z</time>
      </trkpt>
      <trkpt lat="42.79188" lon="0.38088">
        <ele>1567.48</ele>
        <time>2020-08-11T14:46:17.762Z</time>
      </trkpt>
      <trkpt lat="42.79193" lon="0.38086">
        <ele>1565.2</ele>
        <time>2020-08-11T14:46:18.253Z</time>
      </trkpt>
      <trkpt lat="42.792" lon="0.38086">
        <ele>1564.7</ele>
        <time>2020-08-11T14:46:18.912Z</time>
      </trkpt>
      <trkpt lat="42.79234" lon="0.38103">
        <ele>1562.18</ele>
        <time>2020-08-11T14:46:22.321Z</time>
      </trkpt>
      <trkpt lat="42.79271" lon="0.38115">
        <ele>1558.58</ele>
        <time>2020-08-11T14:46:25.901Z</time>
      </trkpt>
      <trkpt lat="42.79304" lon="0.38113">
        <ele>1555.48</ele>
        <time>2020-08-11T14:46:29.010Z</time>
      </trkpt>
      <trkpt lat="42.79318" lon="0.38115">
        <ele>1554.2</ele>
        <time>2020-08-11T14:46:30.335Z</time>
      </trkpt>
      <trkpt lat="42.79358" lon="0.38151">
        <ele>1550</ele>
        <time>2020-08-11T14:46:34.847Z</time>
      </trkpt>
      <trkpt lat="42.79375" lon="0.38161">
        <ele>1547.87</ele>
        <time>2020-08-11T14:46:36.590Z</time>
      </trkpt>
      <trkpt lat="42.79397" lon="0.38164">
        <ele>1545.91</ele>
        <time>2020-08-11T14:46:38.671Z</time>
      </trkpt>
      <trkpt lat="42.79417" lon="0.38162">
        <ele>1544.08</ele>
        <time>2020-08-11T14:46:40.559Z</time>
      </trkpt>
      <trkpt lat="42.79474" lon="0.38141">
        <ele>1539.53</ele>
        <time>2020-08-11T14:46:46.117Z</time>
      </trkpt>
      <trkpt lat="42.7949" lon="0.3813">
        <ele>1537.9</ele>
        <time>2020-08-11T14:46:47.804Z</time>
      </trkpt>
      <trkpt lat="42.79513" lon="0.38108">
        <ele>1535.88</ele>
        <time>2020-08-11T14:46:50.449Z</time>
      </trkpt>
      <trkpt lat="42.79534" lon="0.38096">
        <ele>1533.59</ele>
        <time>2020-08-11T14:46:52.592Z</time>
      </trkpt>
      <trkpt lat="42.79551" lon="0.38095">
        <ele>1532.69</ele>
        <time>2020-08-11T14:46:54.231Z</time>
      </trkpt>
      <trkpt lat="42.79568" lon="0.38098">
        <ele>1531.01</ele>
        <time>2020-08-11T14:46:55.844Z</time>
      </trkpt>
      <trkpt lat="42.79582" lon="0.38106">
        <ele>1530.26</ele>
        <time>2020-08-11T14:46:57.350Z</time>
      </trkpt>
      <trkpt lat="42.79594" lon="0.38106">
        <ele>1530.26</ele>
        <time>2020-08-11T14:46:59.767Z</time>
      </trkpt>
      <trkpt lat="42.79628" lon="0.38091">
        <ele>1526.89</ele>
        <time>2020-08-11T14:47:03.131Z</time>
      </trkpt>
      <trkpt lat="42.79654" lon="0.38088">
        <ele>1523.46</ele>
        <time>2020-08-11T14:47:05.587Z</time>
      </trkpt>
      <trkpt lat="42.7967" lon="0.38079">
        <ele>1522.53</ele>
        <time>2020-08-11T14:47:07.242Z</time>
      </trkpt>
      <trkpt lat="42.7968" lon="0.38065">
        <ele>1521.25</ele>
        <time>2020-08-11T14:47:08.591Z</time>
      </trkpt>
      <trkpt lat="42.79703" lon="0.37999">
        <ele>1516.29</ele>
        <time>2020-08-11T14:47:13.638Z</time>
      </trkpt>
      <trkpt lat="42.79704" lon="0.3798">
        <ele>1515.02</ele>
        <time>2020-08-11T14:47:14.954Z</time>
      </trkpt>
      <trkpt lat="42.79693" lon="0.37922">
        <ele>1511.4</ele>
        <time>2020-08-11T14:47:19.091Z</time>
      </trkpt>
      <trkpt lat="42.79689" lon="0.37884">
        <ele>1510.03</ele>
        <time>2020-08-11T14:47:21.905Z</time>
      </trkpt>
      <trkpt lat="42.7969" lon="0.37841">
        <ele>1506.26</ele>
        <time>2020-08-11T14:47:24.876Z</time>
      </trkpt>
      <trkpt lat="42.79697" lon="0.37796">
        <ele>1503.54</ele>
        <time>2020-08-11T14:47:28.053Z</time>
      </trkpt>
      <trkpt lat="42.79699" lon="0.37761">
        <ele>1500.37</ele>
        <time>2020-08-11T14:47:30.478Z</time>
      </trkpt>
      <trkpt lat="42.79698" lon="0.37733">
        <ele>1500.37</ele>
        <time>2020-08-11T14:47:34.621Z</time>
      </trkpt>
      <trkpt lat="42.79694" lon="0.37701">
        <ele>1497.69</ele>
        <time>2020-08-11T14:47:36.863Z</time>
      </trkpt>
      <trkpt lat="42.79694" lon="0.37685">
        <ele>1496.65</ele>
        <time>2020-08-11T14:47:37.968Z</time>
      </trkpt>
      <trkpt lat="42.79705" lon="0.3764">
        <ele>1494.7</ele>
        <time>2020-08-11T14:47:41.232Z</time>
      </trkpt>
      <trkpt lat="42.79718" lon="0.37619">
        <ele>1491.13</ele>
        <time>2020-08-11T14:47:43.130Z</time>
      </trkpt>
      <trkpt lat="42.7976" lon="0.3758">
        <ele>1487.33</ele>
        <time>2020-08-11T14:47:47.914Z</time>
      </trkpt>
      <trkpt lat="42.79775" lon="0.37554">
        <ele>1484.86</ele>
        <time>2020-08-11T14:47:50.198Z</time>
      </trkpt>
      <trkpt lat="42.79796" lon="0.37506">
        <ele>1482.69</ele>
        <time>2020-08-11T14:47:54.146Z</time>
      </trkpt>
      <trkpt lat="42.79819" lon="0.37437">
        <ele>1480.16</ele>
        <time>2020-08-11T14:47:59.857Z</time>
      </trkpt>
      <trkpt lat="42.79832" lon="0.37422">
        <ele>1478.84</ele>
        <time>2020-08-11T14:48:01.461Z</time>
      </trkpt>
      <trkpt lat="42.79844" lon="0.37412">
        <ele>1477.59</ele>
        <time>2020-08-11T14:48:02.784Z</time>
      </trkpt>
      <trkpt lat="42.79872" lon="0.37409">
        <ele>1476.53</ele>
        <time>2020-08-11T14:48:05.887Z</time>
      </trkpt>
      <trkpt lat="42.799" lon="0.37403">
        <ele>1475.71</ele>
        <time>2020-08-11T14:48:09.310Z</time>
      </trkpt>
      <trkpt lat="42.79925" lon="0.3739">
        <ele>1474.82</ele>
        <time>2020-08-11T14:48:12.399Z</time>
      </trkpt>
      <trkpt lat="42.79947" lon="0.37371">
        <ele>1473.95</ele>
        <time>2020-08-11T14:48:15.403Z</time>
      </trkpt>
      <trkpt lat="42.79967" lon="0.37361">
        <ele>1472.64</ele>
        <time>2020-08-11T14:48:17.315Z</time>
      </trkpt>
      <trkpt lat="42.80014" lon="0.37355">
        <ele>1470.23</ele>
        <time>2020-08-11T14:48:21.932Z</time>
      </trkpt>
      <trkpt lat="42.80026" lon="0.37345">
        <ele>1469.27</ele>
        <time>2020-08-11T14:48:23.255Z</time>
      </trkpt>
      <trkpt lat="42.80036" lon="0.37327">
        <ele>1468.9</ele>
        <time>2020-08-11T14:48:25.407Z</time>
      </trkpt>
      <trkpt lat="42.80059" lon="0.37228">
        <ele>1463.82</ele>
        <time>2020-08-11T14:48:31.977Z</time>
      </trkpt>
      <trkpt lat="42.80062" lon="0.37209">
        <ele>1462.6</ele>
        <time>2020-08-11T14:48:33.319Z</time>
      </trkpt>
      <trkpt lat="42.80058" lon="0.3716">
        <ele>1460.97</ele>
        <time>2020-08-11T14:48:37.049Z</time>
      </trkpt>
      <trkpt lat="42.80062" lon="0.37119">
        <ele>1457.72</ele>
        <time>2020-08-11T14:48:39.906Z</time>
      </trkpt>
      <trkpt lat="42.80069" lon="0.37081">
        <ele>1455.83</ele>
        <time>2020-08-11T14:48:42.402Z</time>
      </trkpt>
      <trkpt lat="42.80081" lon="0.37055">
        <ele>1455.57</ele>
        <time>2020-08-11T14:48:45.741Z</time>
      </trkpt>
      <trkpt lat="42.8009" lon="0.37046">
        <ele>1455.59</ele>
        <time>2020-08-11T14:48:48.026Z</time>
      </trkpt>
      <trkpt lat="42.801" lon="0.37044">
        <ele>1455.84</ele>
        <time>2020-08-11T14:48:50.658Z</time>
      </trkpt>
      <trkpt lat="42.80111" lon="0.37048">
        <ele>1455.86</ele>
        <time>2020-08-11T14:48:52.989Z</time>
      </trkpt>
      <trkpt lat="42.80131" lon="0.37071">
        <ele>1455.76</ele>
        <time>2020-08-11T14:48:57.968Z</time>
      </trkpt>
      <trkpt lat="42.80173" lon="0.37145">
        <ele>1453.45</ele>
        <time>2020-08-11T14:49:05.862Z</time>
      </trkpt>
      <trkpt lat="42.80182" lon="0.37151">
        <ele>1453.45</ele>
        <time>2020-08-11T14:49:07.880Z</time>
      </trkpt>
      <trkpt lat="42.80192" lon="0.37152">
        <ele>1453.45</ele>
        <time>2020-08-11T14:49:09.900Z</time>
      </trkpt>
      <trkpt lat="42.80211" lon="0.37141">
        <ele>1450.62</ele>
        <time>2020-08-11T14:49:11.843Z</time>
      </trkpt>
      <trkpt lat="42.8024" lon="0.37117">
        <ele>1447.65</ele>
        <time>2020-08-11T14:49:15.036Z</time>
      </trkpt>
      <trkpt lat="42.80251" lon="0.37102">
        <ele>1447.65</ele>
        <time>2020-08-11T14:49:18.170Z</time>
      </trkpt>
      <trkpt lat="42.80282" lon="0.37038">
        <ele>1444.76</ele>
        <time>2020-08-11T14:49:23.659Z</time>
      </trkpt>
      <trkpt lat="42.80296" lon="0.37001">
        <ele>1442.24</ele>
        <time>2020-08-11T14:49:26.534Z</time>
      </trkpt>
      <trkpt lat="42.80306" lon="0.36985">
        <ele>1441.14</ele>
        <time>2020-08-11T14:49:27.986Z</time>
      </trkpt>
      <trkpt lat="42.8032" lon="0.36977">
        <ele>1439.91</ele>
        <time>2020-08-11T14:49:29.415Z</time>
      </trkpt>
      <trkpt lat="42.80336" lon="0.36972">
        <ele>1439.54</ele>
        <time>2020-08-11T14:49:31.541Z</time>
      </trkpt>
      <trkpt lat="42.80353" lon="0.36934">
        <ele>1436.87</ele>
        <time>2020-08-11T14:49:34.615Z</time>
      </trkpt>
      <trkpt lat="42.80361" lon="0.36924">
        <ele>1436.34</ele>
        <time>2020-08-11T14:49:35.698Z</time>
      </trkpt>
      <trkpt lat="42.80376" lon="0.36916">
        <ele>1434.84</ele>
        <time>2020-08-11T14:49:37.214Z</time>
      </trkpt>
      <trkpt lat="42.80452" lon="0.3689">
        <ele>1429.7</ele>
        <time>2020-08-11T14:49:44.026Z</time>
      </trkpt>
      <trkpt lat="42.80485" lon="0.36865">
        <ele>1426.37</ele>
        <time>2020-08-11T14:49:47.580Z</time>
      </trkpt>
      <trkpt lat="42.80503" lon="0.36843">
        <ele>1423.65</ele>
        <time>2020-08-11T14:49:49.855Z</time>
      </trkpt>
      <trkpt lat="42.8055" lon="0.3682">
        <ele>1419.16</ele>
        <time>2020-08-11T14:49:54.556Z</time>
      </trkpt>
      <trkpt lat="42.80566" lon="0.36805">
        <ele>1416.82</ele>
        <time>2020-08-11T14:49:56.384Z</time>
      </trkpt>
      <trkpt lat="42.8058" lon="0.36781">
        <ele>1414.59</ele>
        <time>2020-08-11T14:49:58.501Z</time>
      </trkpt>
      <trkpt lat="42.80588" lon="0.36748">
        <ele>1413.09</ele>
        <time>2020-08-11T14:50:00.839Z</time>
      </trkpt>
      <trkpt lat="42.80592" lon="0.36695">
        <ele>1408.7</ele>
        <time>2020-08-11T14:50:04.518Z</time>
      </trkpt>
      <trkpt lat="42.80593" lon="0.3665">
        <ele>1405.58</ele>
        <time>2020-08-11T14:50:07.627Z</time>
      </trkpt>
      <trkpt lat="42.80611" lon="0.36545">
        <ele>1396.7</ele>
        <time>2020-08-11T14:50:15.074Z</time>
      </trkpt>
      <trkpt lat="42.80615" lon="0.365">
        <ele>1392.19</ele>
        <time>2020-08-11T14:50:18.204Z</time>
      </trkpt>
      <trkpt lat="42.80614" lon="0.36436">
        <ele>1382.45</ele>
        <time>2020-08-11T14:50:22.625Z</time>
      </trkpt>
      <trkpt lat="42.8062" lon="0.36421">
        <ele>1382.45</ele>
        <time>2020-08-11T14:50:25.149Z</time>
      </trkpt>
      <trkpt lat="42.80629" lon="0.36409">
        <ele>1382.45</ele>
        <time>2020-08-11T14:50:27.685Z</time>
      </trkpt>
      <trkpt lat="42.80673" lon="0.36383">
        <ele>1375.02</ele>
        <time>2020-08-11T14:50:32.199Z</time>
      </trkpt>
      <trkpt lat="42.80717" lon="0.36357">
        <ele>1369.11</ele>
        <time>2020-08-11T14:50:36.713Z</time>
      </trkpt>
      <trkpt lat="42.80751" lon="0.36343">
        <ele>1365.71</ele>
        <time>2020-08-11T14:50:40.056Z</time>
      </trkpt>
      <trkpt lat="42.80783" lon="0.36322">
        <ele>1363.94</ele>
        <time>2020-08-11T14:50:43.567Z</time>
      </trkpt>
      <trkpt lat="42.80825" lon="0.363">
        <ele>1360.18</ele>
        <time>2020-08-11T14:50:47.802Z</time>
      </trkpt>
      <trkpt lat="42.8087" lon="0.36281">
        <ele>1353.06</ele>
        <time>2020-08-11T14:50:52.236Z</time>
      </trkpt>
      <trkpt lat="42.8089" lon="0.36267">
        <ele>1351.35</ele>
        <time>2020-08-11T14:50:54.353Z</time>
      </trkpt>
      <trkpt lat="42.80909" lon="0.36247">
        <ele>1348.23</ele>
        <time>2020-08-11T14:50:56.612Z</time>
      </trkpt>
      <trkpt lat="42.80956" lon="0.36185">
        <ele>1342.32</ele>
        <time>2020-08-11T14:51:02.769Z</time>
      </trkpt>
      <trkpt lat="42.81014" lon="0.36121">
        <ele>1336.87</ele>
        <time>2020-08-11T14:51:09.793Z</time>
      </trkpt>
      <trkpt lat="42.81072" lon="0.36057">
        <ele>1329.96</ele>
        <time>2020-08-11T14:51:16.817Z</time>
      </trkpt>
      <trkpt lat="42.81094" lon="0.36037">
        <ele>1328.68</ele>
        <time>2020-08-11T14:51:19.464Z</time>
      </trkpt>
      <trkpt lat="42.81108" lon="0.36017">
        <ele>1326.24</ele>
        <time>2020-08-11T14:51:21.372Z</time>
      </trkpt>
      <trkpt lat="42.81149" lon="0.35933">
        <ele>1319.17</ele>
        <time>2020-08-11T14:51:28.339Z</time>
      </trkpt>
      <trkpt lat="42.8119" lon="0.35848">
        <ele>1311.82</ele>
        <time>2020-08-11T14:51:35.364Z</time>
      </trkpt>
      <trkpt lat="42.81212" lon="0.35789">
        <ele>1306.87</ele>
        <time>2020-08-11T14:51:39.934Z</time>
      </trkpt>
      <trkpt lat="42.81234" lon="0.3573">
        <ele>1301.8</ele>
        <time>2020-08-11T14:51:44.504Z</time>
      </trkpt>
      <trkpt lat="42.81244" lon="0.35713">
        <ele>1301.17</ele>
        <time>2020-08-11T14:51:46.242Z</time>
      </trkpt>
      <trkpt lat="42.81257" lon="0.35707">
        <ele>1300.14</ele>
        <time>2020-08-11T14:51:47.533Z</time>
      </trkpt>
      <trkpt lat="42.81273" lon="0.35708">
        <ele>1299.6</ele>
        <time>2020-08-11T14:51:49.374Z</time>
      </trkpt>
      <trkpt lat="42.8135" lon="0.35721">
        <ele>1293.72</ele>
        <time>2020-08-11T14:51:56.678Z</time>
      </trkpt>
      <trkpt lat="42.8136" lon="0.35724">
        <ele>1292.95</ele>
        <time>2020-08-11T14:51:57.641Z</time>
      </trkpt>
      <trkpt lat="42.81391" lon="0.3574">
        <ele>1291.02</ele>
        <time>2020-08-11T14:52:00.695Z</time>
      </trkpt>
      <trkpt lat="42.81402" lon="0.3574">
        <ele>1289.91</ele>
        <time>2020-08-11T14:52:01.731Z</time>
      </trkpt>
      <trkpt lat="42.81408" lon="0.35735">
        <ele>1289.91</ele>
        <time>2020-08-11T14:52:03.147Z</time>
      </trkpt>
      <trkpt lat="42.81413" lon="0.35723">
        <ele>1289.24</ele>
        <time>2020-08-11T14:52:04.023Z</time>
      </trkpt>
      <trkpt lat="42.81425" lon="0.35663">
        <ele>1285.35</ele>
        <time>2020-08-11T14:52:08.317Z</time>
      </trkpt>
      <trkpt lat="42.81428" lon="0.35598">
        <ele>1280.44</ele>
        <time>2020-08-11T14:52:12.814Z</time>
      </trkpt>
      <trkpt lat="42.81437" lon="0.35563">
        <ele>1276.67</ele>
        <time>2020-08-11T14:52:15.375Z</time>
      </trkpt>
      <trkpt lat="42.81451" lon="0.35536">
        <ele>1274.54</ele>
        <time>2020-08-11T14:52:17.658Z</time>
      </trkpt>
      <trkpt lat="42.81469" lon="0.35516">
        <ele>1274.48</ele>
        <time>2020-08-11T14:52:22.157Z</time>
      </trkpt>
      <trkpt lat="42.81496" lon="0.35494">
        <ele>1273.09</ele>
        <time>2020-08-11T14:52:25.427Z</time>
      </trkpt>
      <trkpt lat="42.81521" lon="0.35471">
        <ele>1271.97</ele>
        <time>2020-08-11T14:52:28.778Z</time>
      </trkpt>
      <trkpt lat="42.81545" lon="0.35438">
        <ele>1268.42</ele>
        <time>2020-08-11T14:52:31.986Z</time>
      </trkpt>
      <trkpt lat="42.81572" lon="0.35388">
        <ele>1264.62</ele>
        <time>2020-08-11T14:52:36.273Z</time>
      </trkpt>
      <trkpt lat="42.81594" lon="0.35341">
        <ele>1261.41</ele>
        <time>2020-08-11T14:52:40.123Z</time>
      </trkpt>
      <trkpt lat="42.8161" lon="0.35311">
        <ele>1258.23</ele>
        <time>2020-08-11T14:52:42.684Z</time>
      </trkpt>
      <trkpt lat="42.81633" lon="0.35286">
        <ele>1255.09</ele>
        <time>2020-08-11T14:52:45.453Z</time>
      </trkpt>
      <trkpt lat="42.81651" lon="0.35272">
        <ele>1253.55</ele>
        <time>2020-08-11T14:52:47.403Z</time>
      </trkpt>
      <trkpt lat="42.81671" lon="0.35267">
        <ele>1252.79</ele>
        <time>2020-08-11T14:52:49.657Z</time>
      </trkpt>
      <trkpt lat="42.81689" lon="0.35268">
        <ele>1251.65</ele>
        <time>2020-08-11T14:52:51.251Z</time>
      </trkpt>
      <trkpt lat="42.81707" lon="0.35275">
        <ele>1251.65</ele>
        <time>2020-08-11T14:52:55.021Z</time>
      </trkpt>
      <trkpt lat="42.81721" lon="0.35285">
        <ele>1251.16</ele>
        <time>2020-08-11T14:52:56.889Z</time>
      </trkpt>
      <trkpt lat="42.81729" lon="0.35297">
        <ele>1250.32</ele>
        <time>2020-08-11T14:52:58.009Z</time>
      </trkpt>
      <trkpt lat="42.81736" lon="0.35301">
        <ele>1250.32</ele>
        <time>2020-08-11T14:52:59.538Z</time>
      </trkpt>
      <trkpt lat="42.81742" lon="0.35299">
        <ele>1249.16</ele>
        <time>2020-08-11T14:53:00.119Z</time>
      </trkpt>
      <trkpt lat="42.81745" lon="0.35291">
        <ele>1249.16</ele>
        <time>2020-08-11T14:53:01.446Z</time>
      </trkpt>
      <trkpt lat="42.81742" lon="0.35283">
        <ele>1249.16</ele>
        <time>2020-08-11T14:53:02.774Z</time>
      </trkpt>
      <trkpt lat="42.81732" lon="0.35273">
        <ele>1247.8</ele>
        <time>2020-08-11T14:53:03.941Z</time>
      </trkpt>
      <trkpt lat="42.81701" lon="0.35253">
        <ele>1245.96</ele>
        <time>2020-08-11T14:53:07.222Z</time>
      </trkpt>
      <trkpt lat="42.81659" lon="0.35236">
        <ele>1243.23</ele>
        <time>2020-08-11T14:53:11.129Z</time>
      </trkpt>
      <trkpt lat="42.81638" lon="0.35238">
        <ele>1241.34</ele>
        <time>2020-08-11T14:53:13.111Z</time>
      </trkpt>
      <trkpt lat="42.81622" lon="0.35244">
        <ele>1239.79</ele>
        <time>2020-08-11T14:53:14.673Z</time>
      </trkpt>
      <trkpt lat="42.81573" lon="0.35276">
        <ele>1235.57</ele>
        <time>2020-08-11T14:53:19.787Z</time>
      </trkpt>
      <trkpt lat="42.8152" lon="0.35325">
        <ele>1229.73</ele>
        <time>2020-08-11T14:53:25.815Z</time>
      </trkpt>
      <trkpt lat="42.81466" lon="0.35374">
        <ele>1223.06</ele>
        <time>2020-08-11T14:53:31.921Z</time>
      </trkpt>
      <trkpt lat="42.81413" lon="0.35423">
        <ele>1217.63</ele>
        <time>2020-08-11T14:53:37.949Z</time>
      </trkpt>
      <trkpt lat="42.81346" lon="0.35472">
        <ele>1212.03</ele>
        <time>2020-08-11T14:53:45.106Z</time>
      </trkpt>
      <trkpt lat="42.81328" lon="0.35479">
        <ele>1209.81</ele>
        <time>2020-08-11T14:53:46.867Z</time>
      </trkpt>
      <trkpt lat="42.81313" lon="0.35478">
        <ele>1207.92</ele>
        <time>2020-08-11T14:53:48.281Z</time>
      </trkpt>
      <trkpt lat="42.813" lon="0.35468">
        <ele>1206.35</ele>
        <time>2020-08-11T14:53:49.686Z</time>
      </trkpt>
      <trkpt lat="42.8127" lon="0.35437">
        <ele>1198.74</ele>
        <time>2020-08-11T14:53:53.230Z</time>
      </trkpt>
      <trkpt lat="42.81228" lon="0.35389">
        <ele>1188.53</ele>
        <time>2020-08-11T14:53:58.389Z</time>
      </trkpt>
      <trkpt lat="42.81185" lon="0.35341">
        <ele>1181.05</ele>
        <time>2020-08-11T14:54:03.620Z</time>
      </trkpt>
      <trkpt lat="42.81154" lon="0.3532">
        <ele>1175.75</ele>
        <time>2020-08-11T14:54:06.878Z</time>
      </trkpt>
      <trkpt lat="42.81114" lon="0.35272">
        <ele>1172.14</ele>
        <time>2020-08-11T14:54:11.895Z</time>
      </trkpt>
      <trkpt lat="42.81097" lon="0.35259">
        <ele>1167.04</ele>
        <time>2020-08-11T14:54:13.729Z</time>
      </trkpt>
      <trkpt lat="42.81072" lon="0.35262">
        <ele>1167.04</ele>
        <time>2020-08-11T14:54:18.784Z</time>
      </trkpt>
      <trkpt lat="42.81066" lon="0.35257">
        <ele>1165.45</ele>
        <time>2020-08-11T14:54:19.446Z</time>
      </trkpt>
      <trkpt lat="42.81051" lon="0.35235">
        <ele>1165.3</ele>
        <time>2020-08-11T14:54:23.465Z</time>
      </trkpt>
      <trkpt lat="42.81045" lon="0.35221">
        <ele>1164.24</ele>
        <time>2020-08-11T14:54:24.584Z</time>
      </trkpt>
      <trkpt lat="42.81044" lon="0.35205">
        <ele>1162.19</ele>
        <time>2020-08-11T14:54:25.693Z</time>
      </trkpt>
      <trkpt lat="42.81047" lon="0.35198">
        <ele>1162.19</ele>
        <time>2020-08-11T14:54:26.891Z</time>
      </trkpt>
      <trkpt lat="42.8106" lon="0.35186">
        <ele>1159.74</ele>
        <time>2020-08-11T14:54:28.369Z</time>
      </trkpt>
      <trkpt lat="42.81087" lon="0.35168">
        <ele>1156.82</ele>
        <time>2020-08-11T14:54:31.198Z</time>
      </trkpt>
      <trkpt lat="42.81103" lon="0.35151">
        <ele>1156.49</ele>
        <time>2020-08-11T14:54:34.029Z</time>
      </trkpt>
      <trkpt lat="42.8111" lon="0.35145">
        <ele>1156.19</ele>
        <time>2020-08-11T14:54:34.955Z</time>
      </trkpt>
      <trkpt lat="42.81129" lon="0.35147">
        <ele>1155.29</ele>
        <time>2020-08-11T14:54:36.882Z</time>
      </trkpt>
      <trkpt lat="42.81159" lon="0.35163">
        <ele>1148.98</ele>
        <time>2020-08-11T14:54:39.914Z</time>
      </trkpt>
      <trkpt lat="42.81164" lon="0.35164">
        <ele>1148.98</ele>
        <time>2020-08-11T14:54:40.932Z</time>
      </trkpt>
      <trkpt lat="42.81169" lon="0.35162">
        <ele>1143.39</ele>
        <time>2020-08-11T14:54:41.423Z</time>
      </trkpt>
      <trkpt lat="42.81173" lon="0.35156">
        <ele>1143.39</ele>
        <time>2020-08-11T14:54:42.621Z</time>
      </trkpt>
      <trkpt lat="42.81182" lon="0.35124">
        <ele>1141.65</ele>
        <time>2020-08-11T14:54:44.987Z</time>
      </trkpt>
      <trkpt lat="42.81203" lon="0.35112">
        <ele>1141.93</ele>
        <time>2020-08-11T14:54:50.155Z</time>
      </trkpt>
      <trkpt lat="42.81208" lon="0.35105">
        <ele>1141.97</ele>
        <time>2020-08-11T14:54:51.677Z</time>
      </trkpt>
      <trkpt lat="42.81209" lon="0.35097">
        <ele>1141.97</ele>
        <time>2020-08-11T14:54:52.876Z</time>
      </trkpt>
      <trkpt lat="42.812" lon="0.35079">
        <ele>1141.78</ele>
        <time>2020-08-11T14:54:55.232Z</time>
      </trkpt>
      <trkpt lat="42.81138" lon="0.35024">
        <ele>1139.58</ele>
        <time>2020-08-11T14:55:04.090Z</time>
      </trkpt>
      <trkpt lat="42.81106" lon="0.34987">
        <ele>1137.76</ele>
        <time>2020-08-11T14:55:08.484Z</time>
      </trkpt>
      <trkpt lat="42.81097" lon="0.34968">
        <ele>1136.21</ele>
        <time>2020-08-11T14:55:10.046Z</time>
      </trkpt>
      <trkpt lat="42.81097" lon="0.34957">
        <ele>1136.21</ele>
        <time>2020-08-11T14:55:11.671Z</time>
      </trkpt>
      <trkpt lat="42.81099" lon="0.34951">
        <ele>1135.12</ele>
        <time>2020-08-11T14:55:12.126Z</time>
      </trkpt>
      <trkpt lat="42.81105" lon="0.34944">
        <ele>1135.12</ele>
        <time>2020-08-11T14:55:13.717Z</time>
      </trkpt>
      <trkpt lat="42.8111" lon="0.34943">
        <ele>1134.52</ele>
        <time>2020-08-11T14:55:14.192Z</time>
      </trkpt>
      <trkpt lat="42.8112" lon="0.34944">
        <ele>1134.52</ele>
        <time>2020-08-11T14:55:16.212Z</time>
      </trkpt>
      <trkpt lat="42.8117" lon="0.3497">
        <ele>1130.31</ele>
        <time>2020-08-11T14:55:21.249Z</time>
      </trkpt>
      <trkpt lat="42.8122" lon="0.35005">
        <ele>1125.53</ele>
        <time>2020-08-11T14:55:26.540Z</time>
      </trkpt>
      <trkpt lat="42.81269" lon="0.3504">
        <ele>1118.14</ele>
        <time>2020-08-11T14:55:31.747Z</time>
      </trkpt>
      <trkpt lat="42.81288" lon="0.35049">
        <ele>1114.9</ele>
        <time>2020-08-11T14:55:33.640Z</time>
      </trkpt>
      <trkpt lat="42.81296" lon="0.35042">
        <ele>1114.9</ele>
        <time>2020-08-11T14:55:35.555Z</time>
      </trkpt>
      <trkpt lat="42.81296" lon="0.35038">
        <ele>1114.9</ele>
        <time>2020-08-11T14:55:36.146Z</time>
      </trkpt>
      <trkpt lat="42.81293" lon="0.35031">
        <ele>1114.9</ele>
        <time>2020-08-11T14:55:37.344Z</time>
      </trkpt>
      <trkpt lat="42.81279" lon="0.35011">
        <ele>1109.96</ele>
        <time>2020-08-11T14:55:39.253Z</time>
      </trkpt>
      <trkpt lat="42.81243" lon="0.34971">
        <ele>1105.55</ele>
        <time>2020-08-11T14:55:43.624Z</time>
      </trkpt>
      <trkpt lat="42.81203" lon="0.34913">
        <ele>1095.67</ele>
        <time>2020-08-11T14:55:49.121Z</time>
      </trkpt>
      <trkpt lat="42.81163" lon="0.34855">
        <ele>1088.28</ele>
        <time>2020-08-11T14:55:54.618Z</time>
      </trkpt>
      <trkpt lat="42.81131" lon="0.34797">
        <ele>1083.92</ele>
        <time>2020-08-11T14:55:59.629Z</time>
      </trkpt>
      <trkpt lat="42.81111" lon="0.34749">
        <ele>1080.05</ele>
        <time>2020-08-11T14:56:03.441Z</time>
      </trkpt>
      <trkpt lat="42.81109" lon="0.34739">
        <ele>1079.82</ele>
        <time>2020-08-11T14:56:04.347Z</time>
      </trkpt>
      <trkpt lat="42.81111" lon="0.34726">
        <ele>1079.62</ele>
        <time>2020-08-11T14:56:05.639Z</time>
      </trkpt>
      <trkpt lat="42.81115" lon="0.34722">
        <ele>1079.62</ele>
        <time>2020-08-11T14:56:06.638Z</time>
      </trkpt>
      <trkpt lat="42.81119" lon="0.34721">
        <ele>1079.45</ele>
        <time>2020-08-11T14:56:07.070Z</time>
      </trkpt>
      <trkpt lat="42.81126" lon="0.34723">
        <ele>1079.45</ele>
        <time>2020-08-11T14:56:08.511Z</time>
      </trkpt>
      <trkpt lat="42.81137" lon="0.34731">
        <ele>1079.45</ele>
        <time>2020-08-11T14:56:11.022Z</time>
      </trkpt>
      <trkpt lat="42.81174" lon="0.34768">
        <ele>1078.76</ele>
        <time>2020-08-11T14:56:17.523Z</time>
      </trkpt>
      <trkpt lat="42.81192" lon="0.3478">
        <ele>1078.62</ele>
        <time>2020-08-11T14:56:21.168Z</time>
      </trkpt>
      <trkpt lat="42.81212" lon="0.34789">
        <ele>1078.4</ele>
        <time>2020-08-11T14:56:24.333Z</time>
      </trkpt>
      <trkpt lat="42.81232" lon="0.34795">
        <ele>1076.02</ele>
        <time>2020-08-11T14:56:26.261Z</time>
      </trkpt>
      <trkpt lat="42.81262" lon="0.34796">
        <ele>1073.63</ele>
        <time>2020-08-11T14:56:29.086Z</time>
      </trkpt>
      <trkpt lat="42.81327" lon="0.34796">
        <ele>1067.18</ele>
        <time>2020-08-11T14:56:35.204Z</time>
      </trkpt>
      <trkpt lat="42.81368" lon="0.348">
        <ele>1063.44</ele>
        <time>2020-08-11T14:56:39.073Z</time>
      </trkpt>
      <trkpt lat="42.81385" lon="0.34797">
        <ele>1062.31</ele>
        <time>2020-08-11T14:56:40.560Z</time>
      </trkpt>
      <trkpt lat="42.81459" lon="0.34773">
        <ele>1054.47</ele>
        <time>2020-08-11T14:56:47.720Z</time>
      </trkpt>
      <trkpt lat="42.81491" lon="0.34759">
        <ele>1052.37</ele>
        <time>2020-08-11T14:56:50.712Z</time>
      </trkpt>
      <trkpt lat="42.81508" lon="0.34746">
        <ele>1048.78</ele>
        <time>2020-08-11T14:56:52.547Z</time>
      </trkpt>
      <trkpt lat="42.81521" lon="0.34733">
        <ele>1047.44</ele>
        <time>2020-08-11T14:56:54.065Z</time>
      </trkpt>
      <trkpt lat="42.81534" lon="0.34712">
        <ele>1044.56</ele>
        <time>2020-08-11T14:56:55.962Z</time>
      </trkpt>
      <trkpt lat="42.81546" lon="0.34701">
        <ele>1044.56</ele>
        <time>2020-08-11T14:56:58.875Z</time>
      </trkpt>
      <trkpt lat="42.81571" lon="0.34685">
        <ele>1040.49</ele>
        <time>2020-08-11T14:57:01.474Z</time>
      </trkpt>
      <trkpt lat="42.81603" lon="0.34669">
        <ele>1038.04</ele>
        <time>2020-08-11T14:57:04.683Z</time>
      </trkpt>
      <trkpt lat="42.81642" lon="0.34657">
        <ele>1032.21</ele>
        <time>2020-08-11T14:57:08.446Z</time>
      </trkpt>
      <trkpt lat="42.81669" lon="0.34644">
        <ele>1029.48</ele>
        <time>2020-08-11T14:57:11.141Z</time>
      </trkpt>
      <trkpt lat="42.81716" lon="0.34611">
        <ele>1019.35</ele>
        <time>2020-08-11T14:57:16.118Z</time>
      </trkpt>
      <trkpt lat="42.81728" lon="0.34607">
        <ele>1017.84</ele>
        <time>2020-08-11T14:57:17.280Z</time>
      </trkpt>
      <trkpt lat="42.81747" lon="0.34606">
        <ele>1013.58</ele>
        <time>2020-08-11T14:57:19.070Z</time>
      </trkpt>
      <trkpt lat="42.81751" lon="0.34604">
        <ele>1013.58</ele>
        <time>2020-08-11T14:57:19.928Z</time>
      </trkpt>
      <trkpt lat="42.81772" lon="0.34563">
        <ele>1010.66</ele>
        <time>2020-08-11T14:57:23.381Z</time>
      </trkpt>
      <trkpt lat="42.81787" lon="0.34539">
        <ele>1005.33</ele>
        <time>2020-08-11T14:57:25.558Z</time>
      </trkpt>
      <trkpt lat="42.81806" lon="0.34478">
        <ele>999.33</ele>
        <time>2020-08-11T14:57:30.134Z</time>
      </trkpt>
      <trkpt lat="42.81823" lon="0.34417">
        <ele>990.84</ele>
        <time>2020-08-11T14:57:34.639Z</time>
      </trkpt>
      <trkpt lat="42.81839" lon="0.34356">
        <ele>989.99</ele>
        <time>2020-08-11T14:57:41.141Z</time>
      </trkpt>
      <trkpt lat="42.81847" lon="0.34339">
        <ele>989.99</ele>
        <time>2020-08-11T14:57:44.124Z</time>
      </trkpt>
      <trkpt lat="42.81856" lon="0.34334">
        <ele>983.92</ele>
        <time>2020-08-11T14:57:45.039Z</time>
      </trkpt>
      <trkpt lat="42.81872" lon="0.34332">
        <ele>983.92</ele>
        <time>2020-08-11T14:57:48.275Z</time>
      </trkpt>
      <trkpt lat="42.81878" lon="0.34326">
        <ele>983.85</ele>
        <time>2020-08-11T14:57:49.409Z</time>
      </trkpt>
      <trkpt lat="42.81878" lon="0.34322">
        <ele>983.85</ele>
        <time>2020-08-11T14:57:50.000Z</time>
      </trkpt>
      <trkpt lat="42.81876" lon="0.34313">
        <ele>983.85</ele>
        <time>2020-08-11T14:57:51.389Z</time>
      </trkpt>
      <trkpt lat="42.81872" lon="0.34307">
        <ele>983.85</ele>
        <time>2020-08-11T14:57:52.587Z</time>
      </trkpt>
      <trkpt lat="42.81863" lon="0.34305">
        <ele>983.36</ele>
        <time>2020-08-11T14:57:53.459Z</time>
      </trkpt>
      <trkpt lat="42.81856" lon="0.34306">
        <ele>983.36</ele>
        <time>2020-08-11T14:57:54.876Z</time>
      </trkpt>
      <trkpt lat="42.81848" lon="0.34311">
        <ele>983.36</ele>
        <time>2020-08-11T14:57:56.649Z</time>
      </trkpt>
      <trkpt lat="42.81836" lon="0.34325">
        <ele>982.87</ele>
        <time>2020-08-11T14:57:58.515Z</time>
      </trkpt>
      <trkpt lat="42.81791" lon="0.34413">
        <ele>979.92</ele>
        <time>2020-08-11T14:58:07.227Z</time>
      </trkpt>
      <trkpt lat="42.81775" lon="0.34432">
        <ele>978.3</ele>
        <time>2020-08-11T14:58:09.224Z</time>
      </trkpt>
      <trkpt lat="42.81742" lon="0.34453">
        <ele>973.86</ele>
        <time>2020-08-11T14:58:12.652Z</time>
      </trkpt>
      <trkpt lat="42.81732" lon="0.34456">
        <ele>973.86</ele>
        <time>2020-08-11T14:58:14.714Z</time>
      </trkpt>
      <trkpt lat="42.81718" lon="0.34455">
        <ele>972.38</ele>
        <time>2020-08-11T14:58:16.034Z</time>
      </trkpt>
      <trkpt lat="42.81682" lon="0.3444">
        <ele>967.84</ele>
        <time>2020-08-11T14:58:19.577Z</time>
      </trkpt>
      <trkpt lat="42.81665" lon="0.34428">
        <ele>966.16</ele>
        <time>2020-08-11T14:58:21.379Z</time>
      </trkpt>
      <trkpt lat="42.81636" lon="0.34402">
        <ele>963.33</ele>
        <time>2020-08-11T14:58:24.646Z</time>
      </trkpt>
      <trkpt lat="42.81629" lon="0.3439">
        <ele>961.31</ele>
        <time>2020-08-11T14:58:25.705Z</time>
      </trkpt>
      <trkpt lat="42.81628" lon="0.34385">
        <ele>961.31</ele>
        <time>2020-08-11T14:58:26.471Z</time>
      </trkpt>
      <trkpt lat="42.81629" lon="0.3438">
        <ele>960.78</ele>
        <time>2020-08-11T14:58:26.828Z</time>
      </trkpt>
      <trkpt lat="42.81636" lon="0.34375">
        <ele>960.78</ele>
        <time>2020-08-11T14:58:28.420Z</time>
      </trkpt>
      <trkpt lat="42.81664" lon="0.3439">
        <ele>959.21</ele>
        <time>2020-08-11T14:58:31.334Z</time>
      </trkpt>
      <trkpt lat="42.81677" lon="0.34392">
        <ele>958.42</ele>
        <time>2020-08-11T14:58:32.519Z</time>
      </trkpt>
      <trkpt lat="42.8169" lon="0.34389">
        <ele>958.42</ele>
        <time>2020-08-11T14:58:35.174Z</time>
      </trkpt>
      <trkpt lat="42.81711" lon="0.34379">
        <ele>959.78</ele>
        <time>2020-08-11T14:58:43.625Z</time>
      </trkpt>
      <trkpt lat="42.81715" lon="0.34373">
        <ele>960.59</ele>
        <time>2020-08-11T14:58:48.245Z</time>
      </trkpt>
      <trkpt lat="42.81715" lon="0.34364">
        <ele>960.59</ele>
        <time>2020-08-11T14:58:49.575Z</time>
      </trkpt>
      <trkpt lat="42.81712" lon="0.34356">
        <ele>960.59</ele>
        <time>2020-08-11T14:58:50.902Z</time>
      </trkpt>
      <trkpt lat="42.81708" lon="0.34354">
        <ele>961.78</ele>
        <time>2020-08-11T14:58:54.212Z</time>
      </trkpt>
      <trkpt lat="42.81633" lon="0.34345">
        <ele>960.98</ele>
        <time>2020-08-11T14:59:05.498Z</time>
      </trkpt>
      <trkpt lat="42.81616" lon="0.34335">
        <ele>958.15</ele>
        <time>2020-08-11T14:59:07.241Z</time>
      </trkpt>
      <trkpt lat="42.81615" lon="0.34324">
        <ele>957.41</ele>
        <time>2020-08-11T14:59:08.006Z</time>
      </trkpt>
      <trkpt lat="42.8163" lon="0.34291">
        <ele>955.11</ele>
        <time>2020-08-11T14:59:10.687Z</time>
      </trkpt>
      <trkpt lat="42.81647" lon="0.3426">
        <ele>953.32</ele>
        <time>2020-08-11T14:59:13.204Z</time>
      </trkpt>
      <trkpt lat="42.81696" lon="0.34194">
        <ele>945.02</ele>
        <time>2020-08-11T14:59:19.688Z</time>
      </trkpt>
      <trkpt lat="42.81746" lon="0.34108">
        <ele>934.86</ele>
        <time>2020-08-11T14:59:27.265Z</time>
      </trkpt>
      <trkpt lat="42.81784" lon="0.34014">
        <ele>920.95</ele>
        <time>2020-08-11T14:59:34.676Z</time>
      </trkpt>
      <trkpt lat="42.818" lon="0.33985">
        <ele>916.26</ele>
        <time>2020-08-11T14:59:37.181Z</time>
      </trkpt>
      <trkpt lat="42.81808" lon="0.33976">
        <ele>916.26</ele>
        <time>2020-08-11T14:59:39.270Z</time>
      </trkpt>
      <trkpt lat="42.81825" lon="0.33965">
        <ele>915.89</ele>
        <time>2020-08-11T14:59:41.791Z</time>
      </trkpt>
      <trkpt lat="42.81849" lon="0.33956">
        <ele>915.29</ele>
        <time>2020-08-11T14:59:44.959Z</time>
      </trkpt>
      <trkpt lat="42.81853" lon="0.33951">
        <ele>915.06</ele>
        <time>2020-08-11T14:59:45.533Z</time>
      </trkpt>
      <trkpt lat="42.81858" lon="0.33939">
        <ele>914.89</ele>
        <time>2020-08-11T14:59:46.936Z</time>
      </trkpt>
      <trkpt lat="42.81863" lon="0.33883">
        <ele>914.68</ele>
        <time>2020-08-11T14:59:54.669Z</time>
      </trkpt>
      <trkpt lat="42.81858" lon="0.33817">
        <ele>915.69</ele>
        <time>2020-08-11T15:00:06.772Z</time>
      </trkpt>
      <trkpt lat="42.81856" lon="0.33744">
        <ele>917.63</ele>
        <time>2020-08-11T15:00:22.919Z</time>
      </trkpt>
      <trkpt lat="42.81866" lon="0.33707">
        <ele>918.01</ele>
        <time>2020-08-11T15:00:29.541Z</time>
      </trkpt>
      <trkpt lat="42.81879" lon="0.33674">
        <ele>919.21</ele>
        <time>2020-08-11T15:00:38.765Z</time>
      </trkpt>
      <trkpt lat="42.81886" lon="0.3365">
        <ele>919.91</ele>
        <time>2020-08-11T15:00:44.533Z</time>
      </trkpt>
      <trkpt lat="42.81891" lon="0.33612">
        <ele>920.85</ele>
        <time>2020-08-11T15:00:52.728Z</time>
      </trkpt>
      <trkpt lat="42.81897" lon="0.33534">
        <ele>921.24</ele>
        <time>2020-08-11T15:01:05.082Z</time>
      </trkpt>
      <trkpt lat="42.81904" lon="0.33512">
        <ele>921.24</ele>
        <time>2020-08-11T15:01:08.624Z</time>
      </trkpt>
      <trkpt lat="42.81922" lon="0.33479">
        <ele>918.48</ele>
        <time>2020-08-11T15:01:11.464Z</time>
      </trkpt>
      <trkpt lat="42.8194" lon="0.33428">
        <ele>917.15</ele>
        <time>2020-08-11T15:01:16.317Z</time>
      </trkpt>
      <trkpt lat="42.81931" lon="0.33417">
        <ele>916.32</ele>
        <time>2020-08-11T15:01:17.455Z</time>
      </trkpt>
      <trkpt lat="42.81941" lon="0.33316">
        <ele>911.52</ele>
        <time>2020-08-11T15:01:24.024Z</time>
      </trkpt>
      <trkpt lat="42.81943" lon="0.33268">
        <ele>904.41</ele>
        <time>2020-08-11T15:01:27.343Z</time>
      </trkpt>
      <trkpt lat="42.81941" lon="0.3321">
        <ele>899.2</ele>
        <time>2020-08-11T15:01:31.352Z</time>
      </trkpt>
      <trkpt lat="42.81938" lon="0.3319">
        <ele>899.2</ele>
        <time>2020-08-11T15:01:34.368Z</time>
      </trkpt>
      <trkpt lat="42.81933" lon="0.33173">
        <ele>895.14</ele>
        <time>2020-08-11T15:01:35.633Z</time>
      </trkpt>
      <trkpt lat="42.81914" lon="0.33142">
        <ele>891.86</ele>
        <time>2020-08-11T15:01:38.422Z</time>
      </trkpt>
      <trkpt lat="42.81902" lon="0.33129">
        <ele>891.41</ele>
        <time>2020-08-11T15:01:40.265Z</time>
      </trkpt>
      <trkpt lat="42.8189" lon="0.33121">
        <ele>890.88</ele>
        <time>2020-08-11T15:01:41.713Z</time>
      </trkpt>
      <trkpt lat="42.81875" lon="0.33117">
        <ele>890.88</ele>
        <time>2020-08-11T15:01:44.791Z</time>
      </trkpt>
      <trkpt lat="42.81836" lon="0.33115">
        <ele>889.9</ele>
        <time>2020-08-11T15:01:49.704Z</time>
      </trkpt>
      <trkpt lat="42.81801" lon="0.33123">
        <ele>888.98</ele>
        <time>2020-08-11T15:01:54.131Z</time>
      </trkpt>
      <trkpt lat="42.81783" lon="0.33121">
        <ele>888.26</ele>
        <time>2020-08-11T15:01:56.086Z</time>
      </trkpt>
      <trkpt lat="42.81763" lon="0.33116">
        <ele>887.39</ele>
        <time>2020-08-11T15:01:58.226Z</time>
      </trkpt>
      <trkpt lat="42.81731" lon="0.33101">
        <ele>885.47</ele>
        <time>2020-08-11T15:02:01.382Z</time>
      </trkpt>
      <trkpt lat="42.81694" lon="0.33091">
        <ele>884.95</ele>
        <time>2020-08-11T15:02:06.810Z</time>
      </trkpt>
      <trkpt lat="42.81675" lon="0.3308">
        <ele>884.48</ele>
        <time>2020-08-11T15:02:09.478Z</time>
      </trkpt>
      <trkpt lat="42.81639" lon="0.33012">
        <ele>883.71</ele>
        <time>2020-08-11T15:02:18.475Z</time>
      </trkpt>
      <trkpt lat="42.81632" lon="0.32987">
        <ele>883.11</ele>
        <time>2020-08-11T15:02:20.805Z</time>
      </trkpt>
      <trkpt lat="42.81629" lon="0.32963">
        <ele>882.79</ele>
        <time>2020-08-11T15:02:23.248Z</time>
      </trkpt>
      <trkpt lat="42.81631" lon="0.32904">
        <ele>882.55</ele>
        <time>2020-08-11T15:02:31.291Z</time>
      </trkpt>
      <trkpt lat="42.8163" lon="0.32894">
        <ele>882.55</ele>
        <time>2020-08-11T15:02:32.782Z</time>
      </trkpt>
      <trkpt lat="42.81622" lon="0.32873">
        <ele>881.32</ele>
        <time>2020-08-11T15:02:34.416Z</time>
      </trkpt>
      <trkpt lat="42.81601" lon="0.32802">
        <ele>878.97</ele>
        <time>2020-08-11T15:02:40.380Z</time>
      </trkpt>
      <trkpt lat="42.81593" lon="0.32781">
        <ele>877.84</ele>
        <time>2020-08-11T15:02:41.895Z</time>
      </trkpt>
      <trkpt lat="42.81581" lon="0.32762">
        <ele>876.96</ele>
        <time>2020-08-11T15:02:43.745Z</time>
      </trkpt>
      <trkpt lat="42.81536" lon="0.3272">
        <ele>873.86</ele>
        <time>2020-08-11T15:02:48.826Z</time>
      </trkpt>
      <trkpt lat="42.8149" lon="0.32678">
        <ele>871.91</ele>
        <time>2020-08-11T15:02:55.094Z</time>
      </trkpt>
      <trkpt lat="42.81479" lon="0.32674">
        <ele>871.91</ele>
        <time>2020-08-11T15:02:57.387Z</time>
      </trkpt>
      <trkpt lat="42.81461" lon="0.32673">
        <ele>871.07</ele>
        <time>2020-08-11T15:02:59.219Z</time>
      </trkpt>
      <trkpt lat="42.81422" lon="0.32661">
        <ele>869.55</ele>
        <time>2020-08-11T15:03:03.622Z</time>
      </trkpt>
      <trkpt lat="42.81416" lon="0.32654">
        <ele>869.55</ele>
        <time>2020-08-11T15:03:05.213Z</time>
      </trkpt>
      <trkpt lat="42.81368" lon="0.32575">
        <ele>866.58</ele>
        <time>2020-08-11T15:03:13.387Z</time>
      </trkpt>
      <trkpt lat="42.81354" lon="0.32544">
        <ele>865.38</ele>
        <time>2020-08-11T15:03:16.144Z</time>
      </trkpt>
      <trkpt lat="42.81345" lon="0.3251">
        <ele>864.08</ele>
        <time>2020-08-11T15:03:18.783Z</time>
      </trkpt>
      <trkpt lat="42.81335" lon="0.32484">
        <ele>863.5</ele>
        <time>2020-08-11T15:03:21.440Z</time>
      </trkpt>
      <trkpt lat="42.81311" lon="0.32438">
        <ele>861.02</ele>
        <time>2020-08-11T15:03:25.204Z</time>
      </trkpt>
      <trkpt lat="42.81305" lon="0.32415">
        <ele>859.87</ele>
        <time>2020-08-11T15:03:26.778Z</time>
      </trkpt>
      <trkpt lat="42.81297" lon="0.32395">
        <ele>858.8</ele>
        <time>2020-08-11T15:03:28.248Z</time>
      </trkpt>
      <trkpt lat="42.81276" lon="0.32365">
        <ele>857.44</ele>
        <time>2020-08-11T15:03:31.395Z</time>
      </trkpt>
      <trkpt lat="42.81273" lon="0.32355">
        <ele>857.44</ele>
        <time>2020-08-11T15:03:32.991Z</time>
      </trkpt>
      <trkpt lat="42.81273" lon="0.32341">
        <ele>855.27</ele>
        <time>2020-08-11T15:03:33.958Z</time>
      </trkpt>
      <trkpt lat="42.81285" lon="0.32298">
        <ele>853.25</ele>
        <time>2020-08-11T15:03:37.027Z</time>
      </trkpt>
      <trkpt lat="42.81292" lon="0.32243">
        <ele>852.31</ele>
        <time>2020-08-11T15:03:42.307Z</time>
      </trkpt>
      <trkpt lat="42.81288" lon="0.32199">
        <ele>850.5</ele>
        <time>2020-08-11T15:03:45.367Z</time>
      </trkpt>
      <trkpt lat="42.81273" lon="0.32157">
        <ele>849.46</ele>
        <time>2020-08-11T15:03:49.445Z</time>
      </trkpt>
      <trkpt lat="42.81277" lon="0.32083">
        <ele>845.36</ele>
        <time>2020-08-11T15:03:54.568Z</time>
      </trkpt>
      <trkpt lat="42.81281" lon="0.32009">
        <ele>844.45</ele>
        <time>2020-08-11T15:04:02.122Z</time>
      </trkpt>
      <trkpt lat="42.81266" lon="0.31938">
        <ele>843.18</ele>
        <time>2020-08-11T15:04:09.074Z</time>
      </trkpt>
      <trkpt lat="42.81267" lon="0.3189">
        <ele>843.21</ele>
        <time>2020-08-11T15:04:16.224Z</time>
      </trkpt>
      <trkpt lat="42.8127" lon="0.31855">
        <ele>843.44</ele>
        <time>2020-08-11T15:04:21.893Z</time>
      </trkpt>
      <trkpt lat="42.81269" lon="0.3183">
        <ele>843.72</ele>
        <time>2020-08-11T15:04:26.192Z</time>
      </trkpt>
      <trkpt lat="42.81263" lon="0.31812">
        <ele>844.08</ele>
        <time>2020-08-11T15:04:29.973Z</time>
      </trkpt>
      <trkpt lat="42.81233" lon="0.31752">
        <ele>851.85</ele>
        <time>2020-08-11T15:05:11.353Z</time>
      </trkpt>
      <trkpt lat="42.81209" lon="0.31719">
        <ele>857.14</ele>
        <time>2020-08-11T15:05:37.835Z</time>
      </trkpt>
      <trkpt lat="42.81208" lon="0.31707">
        <ele>857.14</ele>
        <time>2020-08-11T15:05:39.620Z</time>
      </trkpt>
      <trkpt lat="42.81211" lon="0.31696">
        <ele>857.69</ele>
        <time>2020-08-11T15:05:42.955Z</time>
      </trkpt>
      <trkpt lat="42.8119" lon="0.31621">
        <ele>862.78</ele>
        <time>2020-08-11T15:06:10.197Z</time>
      </trkpt>
      <trkpt lat="42.81184" lon="0.31605">
        <ele>862.78</ele>
        <time>2020-08-11T15:06:12.852Z</time>
      </trkpt>
      <trkpt lat="42.81163" lon="0.31572">
        <ele>862.78</ele>
        <time>2020-08-11T15:06:19.307Z</time>
      </trkpt>
      <trkpt lat="42.81162" lon="0.31572">
        <ele>862.81</ele>
        <time>2020-08-11T15:06:19.585Z</time>
      </trkpt>
      <trkpt lat="42.81137" lon="0.31523">
        <ele>865.42</ele>
        <time>2020-08-11T15:06:36.040Z</time>
      </trkpt>
      <trkpt lat="42.81115" lon="0.31453">
        <ele>867.91</ele>
        <time>2020-08-11T15:06:55.039Z</time>
      </trkpt>
      <trkpt lat="42.81104" lon="0.31436">
        <ele>868.16</ele>
        <time>2020-08-11T15:06:58.923Z</time>
      </trkpt>
      <trkpt lat="42.81081" lon="0.31408">
        <ele>869.61</ele>
        <time>2020-08-11T15:07:09.575Z</time>
      </trkpt>
      <trkpt lat="42.8104" lon="0.31338">
        <ele>873.87</ele>
        <time>2020-08-11T15:07:35.207Z</time>
      </trkpt>
      <trkpt lat="42.80993" lon="0.31294">
        <ele>875.71</ele>
        <time>2020-08-11T15:07:51.510Z</time>
      </trkpt>
      <trkpt lat="42.80942" lon="0.31281">
        <ele>878.73</ele>
        <time>2020-08-11T15:08:10.820Z</time>
      </trkpt>
      <trkpt lat="42.80933" lon="0.31269">
        <ele>879.58</ele>
        <time>2020-08-11T15:08:15.829Z</time>
      </trkpt>
      <trkpt lat="42.80921" lon="0.3124">
        <ele>882.14</ele>
        <time>2020-08-11T15:08:29.251Z</time>
      </trkpt>
      <trkpt lat="42.80898" lon="0.31133">
        <ele>893.42</ele>
        <time>2020-08-11T15:09:32.796Z</time>
      </trkpt>
      <trkpt lat="42.80894" lon="0.31122">
        <ele>894.84</ele>
        <time>2020-08-11T15:09:39.793Z</time>
      </trkpt>
      <trkpt lat="42.80888" lon="0.31115">
        <ele>895.39</ele>
        <time>2020-08-11T15:09:42.985Z</time>
      </trkpt>
      <trkpt lat="42.8084" lon="0.31072">
        <ele>897.4</ele>
        <time>2020-08-11T15:10:00.011Z</time>
      </trkpt>
      <trkpt lat="42.80799" lon="0.31009">
        <ele>898.99</ele>
        <time>2020-08-11T15:10:16.292Z</time>
      </trkpt>
      <trkpt lat="42.80785" lon="0.30991">
        <ele>900.96</ele>
        <time>2020-08-11T15:10:26.610Z</time>
      </trkpt>
      <trkpt lat="42.80769" lon="0.30974">
        <ele>904.63</ele>
        <time>2020-08-11T15:10:42.369Z</time>
      </trkpt>
      <trkpt lat="42.80757" lon="0.30967">
        <ele>905.58</ele>
        <time>2020-08-11T15:10:47.773Z</time>
      </trkpt>
      <trkpt lat="42.80701" lon="0.30982">
        <ele>899.36</ele>
        <time>2020-08-11T15:10:53.145Z</time>
      </trkpt>
      <trkpt lat="42.80681" lon="0.30979">
        <ele>898.18</ele>
        <time>2020-08-11T15:10:54.992Z</time>
      </trkpt>
      <trkpt lat="42.80663" lon="0.30972">
        <ele>897.04</ele>
        <time>2020-08-11T15:10:56.680Z</time>
      </trkpt>
      <trkpt lat="42.80637" lon="0.30956">
        <ele>891.76</ele>
        <time>2020-08-11T15:10:59.365Z</time>
      </trkpt>
      <trkpt lat="42.80623" lon="0.3094">
        <ele>891.76</ele>
        <time>2020-08-11T15:11:03.045Z</time>
      </trkpt>
      <trkpt lat="42.80606" lon="0.30913">
        <ele>888.52</ele>
        <time>2020-08-11T15:11:05.502Z</time>
      </trkpt>
      <trkpt lat="42.80585" lon="0.30869">
        <ele>887.18</ele>
        <time>2020-08-11T15:11:09.880Z</time>
      </trkpt>
      <trkpt lat="42.80559" lon="0.30782">
        <ele>887.19</ele>
        <time>2020-08-11T15:11:23.780Z</time>
      </trkpt>
      <trkpt lat="42.80532" lon="0.30695">
        <ele>887.55</ele>
        <time>2020-08-11T15:11:38.436Z</time>
      </trkpt>
      <trkpt lat="42.80522" lon="0.30673">
        <ele>887.85</ele>
        <time>2020-08-11T15:11:42.907Z</time>
      </trkpt>
      <trkpt lat="42.80496" lon="0.30635">
        <ele>888.92</ele>
        <time>2020-08-11T15:11:53.242Z</time>
      </trkpt>
      <trkpt lat="42.80477" lon="0.30603">
        <ele>889.36</ele>
        <time>2020-08-11T15:12:00.262Z</time>
      </trkpt>
      <trkpt lat="42.8047" lon="0.30588">
        <ele>889.51</ele>
        <time>2020-08-11T15:12:03.198Z</time>
      </trkpt>
      <trkpt lat="42.80442" lon="0.30509">
        <ele>891.19</ele>
        <time>2020-08-11T15:12:20.235Z</time>
      </trkpt>
      <trkpt lat="42.80413" lon="0.3043">
        <ele>892.28</ele>
        <time>2020-08-11T15:12:35.666Z</time>
      </trkpt>
      <trkpt lat="42.80385" lon="0.30351">
        <ele>894.75</ele>
        <time>2020-08-11T15:12:55.657Z</time>
      </trkpt>
      <trkpt lat="42.80364" lon="0.30296">
        <ele>897.3</ele>
        <time>2020-08-11T15:13:12.339Z</time>
      </trkpt>
      <trkpt lat="42.80342" lon="0.30241">
        <ele>900.45</ele>
        <time>2020-08-11T15:13:30.763Z</time>
      </trkpt>
      <trkpt lat="42.80295" lon="0.30153">
        <ele>905.08</ele>
        <time>2020-08-11T15:14:00.438Z</time>
      </trkpt>
      <trkpt lat="42.80239" lon="0.30064">
        <ele>907.39</ele>
        <time>2020-08-11T15:14:23.415Z</time>
      </trkpt>
      <trkpt lat="42.80182" lon="0.29974">
        <ele>908.76</ele>
        <time>2020-08-11T15:14:43.936Z</time>
      </trkpt>
      <trkpt lat="42.80126" lon="0.29885">
        <ele>910.47</ele>
        <time>2020-08-11T15:15:05.119Z</time>
      </trkpt>
      <trkpt lat="42.80118" lon="0.29877">
        <ele>910.47</ele>
        <time>2020-08-11T15:15:07.118Z</time>
      </trkpt>
      <trkpt lat="42.80043" lon="0.29813">
        <ele>911.76</ele>
        <time>2020-08-11T15:15:27.686Z</time>
      </trkpt>
      <trkpt lat="42.80022" lon="0.29786">
        <ele>912.3</ele>
        <time>2020-08-11T15:15:34.703Z</time>
      </trkpt>
      <trkpt lat="42.8001" lon="0.29766">
        <ele>912.99</ele>
        <time>2020-08-11T15:15:40.430Z</time>
      </trkpt>
      <trkpt lat="42.79978" lon="0.29699">
        <ele>913.72</ele>
        <time>2020-08-11T15:15:53.764Z</time>
      </trkpt>
      <trkpt lat="42.79946" lon="0.29631">
        <ele>913.91</ele>
        <time>2020-08-11T15:16:06.064Z</time>
      </trkpt>
      <trkpt lat="42.79903" lon="0.29545">
        <ele>914.53</ele>
        <time>2020-08-11T15:16:22.679Z</time>
      </trkpt>
      <trkpt lat="42.7986" lon="0.29459">
        <ele>915.83</ele>
        <time>2020-08-11T15:16:40.900Z</time>
      </trkpt>
      <trkpt lat="42.79845" lon="0.29432">
        <ele>916.44</ele>
        <time>2020-08-11T15:16:47.356Z</time>
      </trkpt>
      <trkpt lat="42.79799" lon="0.29371">
        <ele>920.03</ele>
        <time>2020-08-11T15:17:10.874Z</time>
      </trkpt>
      <trkpt lat="42.79792" lon="0.29357">
        <ele>921.12</ele>
        <time>2020-08-11T15:17:16.687Z</time>
      </trkpt>
      <trkpt lat="42.79782" lon="0.29319">
        <ele>923.27</ele>
        <time>2020-08-11T15:17:28.930Z</time>
      </trkpt>
      <trkpt lat="42.79778" lon="0.29297">
        <ele>925.17</ele>
        <time>2020-08-11T15:17:39.045Z</time>
      </trkpt>
      <trkpt lat="42.79777" lon="0.29269">
        <ele>926</ele>
        <time>2020-08-11T15:17:45.617Z</time>
      </trkpt>
      <trkpt lat="42.79782" lon="0.29247">
        <ele>926.72</ele>
        <time>2020-08-11T15:17:51.199Z</time>
      </trkpt>
      <trkpt lat="42.79796" lon="0.29218">
        <ele>928.06</ele>
        <time>2020-08-11T15:18:00.325Z</time>
      </trkpt>
      <trkpt lat="42.79811" lon="0.29198">
        <ele>928.87</ele>
        <time>2020-08-11T15:18:06.863Z</time>
      </trkpt>
      <trkpt lat="42.79841" lon="0.29171">
        <ele>932</ele>
        <time>2020-08-11T15:18:23.585Z</time>
      </trkpt>
      <trkpt lat="42.79891" lon="0.29135">
        <ele>936.83</ele>
        <time>2020-08-11T15:18:49.516Z</time>
      </trkpt>
      <trkpt lat="42.79899" lon="0.29125">
        <ele>937.86</ele>
        <time>2020-08-11T15:18:54.932Z</time>
      </trkpt>
      <trkpt lat="42.79905" lon="0.29114">
        <ele>939.96</ele>
        <time>2020-08-11T15:19:02.745Z</time>
      </trkpt>
      <trkpt lat="42.7991" lon="0.29099">
        <ele>939.96</ele>
        <time>2020-08-11T15:19:05.180Z</time>
      </trkpt>
      <trkpt lat="42.79912" lon="0.29061">
        <ele>942.02</ele>
        <time>2020-08-11T15:19:16.833Z</time>
      </trkpt>
      <trkpt lat="42.79908" lon="0.2904">
        <ele>943.83</ele>
        <time>2020-08-11T15:19:26.456Z</time>
      </trkpt>
      <trkpt lat="42.79903" lon="0.29026">
        <ele>944.43</ele>
        <time>2020-08-11T15:19:30.546Z</time>
      </trkpt>
      <trkpt lat="42.79877" lon="0.28977">
        <ele>946.9</ele>
        <time>2020-08-11T15:19:46.775Z</time>
      </trkpt>
      <trkpt lat="42.79865" lon="0.2893">
        <ele>949.4</ele>
        <time>2020-08-11T15:20:01.404Z</time>
      </trkpt>
      <trkpt lat="42.79858" lon="0.28913">
        <ele>950.52</ele>
        <time>2020-08-11T15:20:07.588Z</time>
      </trkpt>
      <trkpt lat="42.79809" lon="0.28829">
        <ele>957.7</ele>
        <time>2020-08-11T15:20:45.567Z</time>
      </trkpt>
      <trkpt lat="42.79797" lon="0.28796">
        <ele>958.57</ele>
        <time>2020-08-11T15:20:53.286Z</time>
      </trkpt>
      <trkpt lat="42.79795" lon="0.28772">
        <ele>963</ele>
        <time>2020-08-11T15:21:07.055Z</time>
      </trkpt>
      <trkpt lat="42.79795" lon="0.28764">
        <ele>962.64</ele>
        <time>2020-08-11T15:21:07.582Z</time>
      </trkpt>
      <trkpt lat="42.79803" lon="0.28729">
        <ele>962.07</ele>
        <time>2020-08-11T15:21:11.122Z</time>
      </trkpt>
      <trkpt lat="42.79811" lon="0.28712">
        <ele>961.87</ele>
        <time>2020-08-11T15:21:13.262Z</time>
      </trkpt>
      <trkpt lat="42.79824" lon="0.28693">
        <ele>961.88</ele>
        <time>2020-08-11T15:21:17.120Z</time>
      </trkpt>
      <trkpt lat="42.7985" lon="0.28667">
        <ele>962.33</ele>
        <time>2020-08-11T15:21:24.567Z</time>
      </trkpt>
      <trkpt lat="42.79866" lon="0.28646">
        <ele>963.09</ele>
        <time>2020-08-11T15:21:31.083Z</time>
      </trkpt>
      <trkpt lat="42.79876" lon="0.28617">
        <ele>963.96</ele>
        <time>2020-08-11T15:21:38.246Z</time>
      </trkpt>
      <trkpt lat="42.79881" lon="0.28584">
        <ele>966.93</ele>
        <time>2020-08-11T15:21:54.354Z</time>
      </trkpt>
      <trkpt lat="42.79881" lon="0.28546">
        <ele>968.63</ele>
        <time>2020-08-11T15:22:04.934Z</time>
      </trkpt>
      <trkpt lat="42.79875" lon="0.28484">
        <ele>971.05</ele>
        <time>2020-08-11T15:22:21.389Z</time>
      </trkpt>
      <trkpt lat="42.79868" lon="0.28421">
        <ele>973.68</ele>
        <time>2020-08-11T15:22:38.558Z</time>
      </trkpt>
      <trkpt lat="42.79868" lon="0.28355">
        <ele>976.4</ele>
        <time>2020-08-11T15:22:56.330Z</time>
      </trkpt>
      <trkpt lat="42.79874" lon="0.28322">
        <ele>977.94</ele>
        <time>2020-08-11T15:23:05.847Z</time>
      </trkpt>
      <trkpt lat="42.79874" lon="0.28299">
        <ele>978.75</ele>
        <time>2020-08-11T15:23:11.714Z</time>
      </trkpt>
      <trkpt lat="42.79887" lon="0.28213">
        <ele>981.94</ele>
        <time>2020-08-11T15:23:34.331Z</time>
      </trkpt>
      <trkpt lat="42.79874" lon="0.28143">
        <ele>984.07</ele>
        <time>2020-08-11T15:23:51.222Z</time>
      </trkpt>
      <trkpt lat="42.79873" lon="0.28119">
        <ele>985.16</ele>
        <time>2020-08-11T15:23:57.954Z</time>
      </trkpt>
      <trkpt lat="42.79875" lon="0.2809">
        <ele>985.88</ele>
        <time>2020-08-11T15:24:04.179Z</time>
      </trkpt>
      <trkpt lat="42.79879" lon="0.2807">
        <ele>986.52</ele>
        <time>2020-08-11T15:24:09.164Z</time>
      </trkpt>
      <trkpt lat="42.79892" lon="0.28035">
        <ele>987.81</ele>
        <time>2020-08-11T15:24:18.968Z</time>
      </trkpt>
      <trkpt lat="42.79895" lon="0.28009">
        <ele>987.81</ele>
        <time>2020-08-11T15:24:22.857Z</time>
      </trkpt>
      <trkpt lat="42.79895" lon="0.27981">
        <ele>988.58</ele>
        <time>2020-08-11T15:24:29.158Z</time>
      </trkpt>
      <trkpt lat="42.79885" lon="0.27925">
        <ele>990.15</ele>
        <time>2020-08-11T15:24:42.064Z</time>
      </trkpt>
      <trkpt lat="42.79876" lon="0.27855">
        <ele>992.4</ele>
        <time>2020-08-11T15:24:59.430Z</time>
      </trkpt>
      <trkpt lat="42.79869" lon="0.27771">
        <ele>994.77</ele>
        <time>2020-08-11T15:25:18.650Z</time>
      </trkpt>
      <trkpt lat="42.79851" lon="0.27698">
        <ele>996.55</ele>
        <time>2020-08-11T15:25:34.646Z</time>
      </trkpt>
      <trkpt lat="42.7982" lon="0.27584">
        <ele>1001.93</ele>
        <time>2020-08-11T15:26:08.338Z</time>
      </trkpt>
      <trkpt lat="42.79813" lon="0.27566">
        <ele>1002.59</ele>
        <time>2020-08-11T15:26:13.393Z</time>
      </trkpt>
      <trkpt lat="42.79797" lon="0.27541">
        <ele>1003.91</ele>
        <time>2020-08-11T15:26:22.210Z</time>
      </trkpt>
      <trkpt lat="42.79784" lon="0.27527">
        <ele>1004.91</ele>
        <time>2020-08-11T15:26:28.470Z</time>
      </trkpt>
      <trkpt lat="42.79777" lon="0.27514">
        <ele>1005.5</ele>
        <time>2020-08-11T15:26:32.633Z</time>
      </trkpt>
      <trkpt lat="42.79755" lon="0.27456">
        <ele>1007.87</ele>
        <time>2020-08-11T15:26:49.446Z</time>
      </trkpt>
      <trkpt lat="42.79749" lon="0.27447">
        <ele>1008.01</ele>
        <time>2020-08-11T15:26:51.545Z</time>
      </trkpt>
      <trkpt lat="42.79737" lon="0.27437">
        <ele>1008.41</ele>
        <time>2020-08-11T15:26:55.376Z</time>
      </trkpt>
      <trkpt lat="42.79684" lon="0.27403">
        <ele>1011.44</ele>
        <time>2020-08-11T15:27:16.241Z</time>
      </trkpt>
      <trkpt lat="42.79667" lon="0.2739">
        <ele>1012.14</ele>
        <time>2020-08-11T15:27:22.092Z</time>
      </trkpt>
      <trkpt lat="42.79648" lon="0.27364">
        <ele>1013.08</ele>
        <time>2020-08-11T15:27:30.064Z</time>
      </trkpt>
      <trkpt lat="42.79631" lon="0.27334">
        <ele>1013.72</ele>
        <time>2020-08-11T15:27:37.162Z</time>
      </trkpt>
      <trkpt lat="42.79609" lon="0.27305">
        <ele>1010.68</ele>
        <time>2020-08-11T15:27:40.043Z</time>
      </trkpt>
      <trkpt lat="42.79585" lon="0.27244">
        <ele>1013.11</ele>
        <time>2020-08-11T15:27:57.680Z</time>
      </trkpt>
      <trkpt lat="42.79552" lon="0.2719">
        <ele>1016.03</ele>
        <time>2020-08-11T15:28:16.664Z</time>
      </trkpt>
      <trkpt lat="42.79542" lon="0.27167">
        <ele>1016.9</ele>
        <time>2020-08-11T15:28:23.318Z</time>
      </trkpt>
      <trkpt lat="42.79526" lon="0.27096">
        <ele>1018.28</ele>
        <time>2020-08-11T15:28:37.610Z</time>
      </trkpt>
      <trkpt lat="42.79509" lon="0.27025">
        <ele>1019.3</ele>
        <time>2020-08-11T15:28:50.916Z</time>
      </trkpt>
      <trkpt lat="42.79492" lon="0.26973">
        <ele>1020.01</ele>
        <time>2020-08-11T15:29:00.881Z</time>
      </trkpt>
      <trkpt lat="42.79449" lon="0.26871">
        <ele>1021.81</ele>
        <time>2020-08-11T15:29:22.371Z</time>
      </trkpt>
      <trkpt lat="42.79431" lon="0.26834">
        <ele>1026.42</ele>
        <time>2020-08-11T15:29:47.677Z</time>
      </trkpt>
      <trkpt lat="42.79411" lon="0.26798">
        <ele>1028.41</ele>
        <time>2020-08-11T15:30:00.169Z</time>
      </trkpt>
      <trkpt lat="42.79386" lon="0.26763">
        <ele>1029.68</ele>
        <time>2020-08-11T15:30:10.856Z</time>
      </trkpt>
      <trkpt lat="42.79379" lon="0.26749">
        <ele>1029.87</ele>
        <time>2020-08-11T15:30:13.768Z</time>
      </trkpt>
      <trkpt lat="42.79376" lon="0.26736">
        <ele>1029.96</ele>
        <time>2020-08-11T15:30:15.963Z</time>
      </trkpt>
      <trkpt lat="42.79375" lon="0.26715">
        <ele>1030.03</ele>
        <time>2020-08-11T15:30:19.208Z</time>
      </trkpt>
      <trkpt lat="42.79388" lon="0.26673">
        <ele>1030.03</ele>
        <time>2020-08-11T15:30:25.945Z</time>
      </trkpt>
      <trkpt lat="42.79393" lon="0.26645">
        <ele>1030.03</ele>
        <time>2020-08-11T15:30:30.204Z</time>
      </trkpt>
      <trkpt lat="42.79392" lon="0.26626">
        <ele>1030.03</ele>
        <time>2020-08-11T15:30:33.019Z</time>
      </trkpt>
      <trkpt lat="42.79385" lon="0.26599">
        <ele>1030.03</ele>
        <time>2020-08-11T15:30:37.251Z</time>
      </trkpt>
      <trkpt lat="42.79377" lon="0.26576">
        <ele>1030.08</ele>
        <time>2020-08-11T15:30:41.107Z</time>
      </trkpt>
      <trkpt lat="42.79343" lon="0.26519">
        <ele>1030.08</ele>
        <time>2020-08-11T15:30:51.964Z</time>
      </trkpt>
      <trkpt lat="42.79324" lon="0.26472">
        <ele>1030.08</ele>
        <time>2020-08-11T15:30:59.894Z</time>
      </trkpt>
      <trkpt lat="42.79281" lon="0.26417">
        <ele>1030.4</ele>
        <time>2020-08-11T15:31:12.393Z</time>
      </trkpt>
      <trkpt lat="42.79271" lon="0.26399">
        <ele>1030.65</ele>
        <time>2020-08-11T15:31:16.265Z</time>
      </trkpt>
      <trkpt lat="42.79246" lon="0.2632">
        <ele>1033.07</ele>
        <time>2020-08-11T15:31:35.861Z</time>
      </trkpt>
      <trkpt lat="42.79211" lon="0.26243">
        <ele>1039.43</ele>
        <time>2020-08-11T15:32:09.269Z</time>
      </trkpt>
      <trkpt lat="42.79194" lon="0.26211">
        <ele>1043.22</ele>
        <time>2020-08-11T15:32:30.944Z</time>
      </trkpt>
      <trkpt lat="42.79132" lon="0.26152">
        <ele>1048.25</ele>
        <time>2020-08-11T15:33:00.808Z</time>
      </trkpt>
      <trkpt lat="42.79069" lon="0.26092">
        <ele>1054.25</ele>
        <time>2020-08-11T15:33:33.974Z</time>
      </trkpt>
      <trkpt lat="42.79025" lon="0.26042">
        <ele>1056.94</ele>
        <time>2020-08-11T15:33:53.756Z</time>
      </trkpt>
      <trkpt lat="42.78976" lon="0.2597">
        <ele>1056.73</ele>
        <time>2020-08-11T15:34:07.649Z</time>
      </trkpt>
      <trkpt lat="42.78967" lon="0.25951">
        <ele>1056.68</ele>
        <time>2020-08-11T15:34:10.844Z</time>
      </trkpt>
      <trkpt lat="42.78949" lon="0.25899">
        <ele>1056.67</ele>
        <time>2020-08-11T15:34:19.311Z</time>
      </trkpt>
      <trkpt lat="42.78934" lon="0.25863">
        <ele>1056.7</ele>
        <time>2020-08-11T15:34:25.486Z</time>
      </trkpt>
      <trkpt lat="42.78886" lon="0.25763">
        <ele>1062.63</ele>
        <time>2020-08-11T15:35:00.399Z</time>
      </trkpt>
      <trkpt lat="42.78831" lon="0.25675">
        <ele>1069.98</ele>
        <time>2020-08-11T15:35:39.713Z</time>
      </trkpt>
      <trkpt lat="42.78774" lon="0.25593">
        <ele>1070.97</ele>
        <time>2020-08-11T15:35:58.457Z</time>
      </trkpt>
      <trkpt lat="42.78717" lon="0.2551">
        <ele>1072.14</ele>
        <time>2020-08-11T15:36:17.736Z</time>
      </trkpt>
      <trkpt lat="42.78695" lon="0.25463">
        <ele>1072.89</ele>
        <time>2020-08-11T15:36:27.638Z</time>
      </trkpt>
      <trkpt lat="42.78688" lon="0.25431">
        <ele>1073.08</ele>
        <time>2020-08-11T15:36:32.951Z</time>
      </trkpt>
      <trkpt lat="42.7869" lon="0.2539">
        <ele>1073.22</ele>
        <time>2020-08-11T15:36:39.295Z</time>
      </trkpt>
      <trkpt lat="42.78701" lon="0.25279">
        <ele>1072.76</ele>
        <time>2020-08-11T15:36:54.543Z</time>
      </trkpt>
      <trkpt lat="42.78707" lon="0.25252">
        <ele>1072.12</ele>
        <time>2020-08-11T15:36:56.992Z</time>
      </trkpt>
      <trkpt lat="42.78721" lon="0.25209">
        <ele>1071.5</ele>
        <time>2020-08-11T15:37:01.711Z</time>
      </trkpt>
      <trkpt lat="42.78724" lon="0.25164">
        <ele>1070.6</ele>
        <time>2020-08-11T15:37:05.794Z</time>
      </trkpt>
      <trkpt lat="42.78721" lon="0.2511">
        <ele>1069.8</ele>
        <time>2020-08-11T15:37:11.088Z</time>
      </trkpt>
      <trkpt lat="42.78723" lon="0.25022">
        <ele>1068.21</ele>
        <time>2020-08-11T15:37:19.267Z</time>
      </trkpt>
      <trkpt lat="42.78721" lon="0.24991">
        <ele>1067.8</ele>
        <time>2020-08-11T15:37:22.389Z</time>
      </trkpt>
      <trkpt lat="42.78709" lon="0.24937">
        <ele>1066.24</ele>
        <time>2020-08-11T15:37:26.966Z</time>
      </trkpt>
      <trkpt lat="42.78704" lon="0.24886">
        <ele>1063.37</ele>
        <time>2020-08-11T15:37:30.520Z</time>
      </trkpt>
      <trkpt lat="42.78699" lon="0.24798">
        <ele>1059.57</ele>
        <time>2020-08-11T15:37:36.466Z</time>
      </trkpt>
      <trkpt lat="42.78705" lon="0.2469">
        <ele>1060.02</ele>
        <time>2020-08-11T15:37:53.351Z</time>
      </trkpt>
      <trkpt lat="42.7871" lon="0.24582">
        <ele>1068.56</ele>
        <time>2020-08-11T15:38:38.242Z</time>
      </trkpt>
      <trkpt lat="42.78708" lon="0.24552">
        <ele>1071.33</ele>
        <time>2020-08-11T15:38:53.609Z</time>
      </trkpt>
      <trkpt lat="42.787" lon="0.24505">
        <ele>1074.29</ele>
        <time>2020-08-11T15:39:09.598Z</time>
      </trkpt>
      <trkpt lat="42.78698" lon="0.24481">
        <ele>1075.9</ele>
        <time>2020-08-11T15:39:18.121Z</time>
      </trkpt>
      <trkpt lat="42.78702" lon="0.24454">
        <ele>1076.69</ele>
        <time>2020-08-11T15:39:24.462Z</time>
      </trkpt>
      <trkpt lat="42.78722" lon="0.24382">
        <ele>1085.97</ele>
        <time>2020-08-11T15:40:08.353Z</time>
      </trkpt>
      <trkpt lat="42.78741" lon="0.2431">
        <ele>1093.92</ele>
        <time>2020-08-11T15:40:51.974Z</time>
      </trkpt>
      <trkpt lat="42.78747" lon="0.24275">
        <ele>1098.77</ele>
        <time>2020-08-11T15:41:12.466Z</time>
      </trkpt>
      <trkpt lat="42.78746" lon="0.2425">
        <ele>1098.91</ele>
        <time>2020-08-11T15:41:16.444Z</time>
      </trkpt>
      <trkpt lat="42.78738" lon="0.24194">
        <ele>1099.47</ele>
        <time>2020-08-11T15:41:26.054Z</time>
      </trkpt>
      <trkpt lat="42.78734" lon="0.24127">
        <ele>1100.92</ele>
        <time>2020-08-11T15:41:39.650Z</time>
      </trkpt>
      <trkpt lat="42.78737" lon="0.24098">
        <ele>1101.17</ele>
        <time>2020-08-11T15:41:44.495Z</time>
      </trkpt>
      <trkpt lat="42.78747" lon="0.2408">
        <ele>1101.36</ele>
        <time>2020-08-11T15:41:48.224Z</time>
      </trkpt>
      <trkpt lat="42.78761" lon="0.24061">
        <ele>1101.51</ele>
        <time>2020-08-11T15:41:52.501Z</time>
      </trkpt>
      <trkpt lat="42.78789" lon="0.24028">
        <ele>1102.05</ele>
        <time>2020-08-11T15:42:01.107Z</time>
      </trkpt>
      <trkpt lat="42.78797" lon="0.24014">
        <ele>1102.05</ele>
        <time>2020-08-11T15:42:03.730Z</time>
      </trkpt>
      <trkpt lat="42.78825" lon="0.23944">
        <ele>1103.08</ele>
        <time>2020-08-11T15:42:17.779Z</time>
      </trkpt>
      <trkpt lat="42.78828" lon="0.2393">
        <ele>1103.08</ele>
        <time>2020-08-11T15:42:19.934Z</time>
      </trkpt>
      <trkpt lat="42.78828" lon="0.23896">
        <ele>1104.81</ele>
        <time>2020-08-11T15:42:29.996Z</time>
      </trkpt>
      <trkpt lat="42.78836" lon="0.23867">
        <ele>1105.69</ele>
        <time>2020-08-11T15:42:37.090Z</time>
      </trkpt>
      <trkpt lat="42.7888" lon="0.2379">
        <ele>1109.01</ele>
        <time>2020-08-11T15:43:01.724Z</time>
      </trkpt>
      <trkpt lat="42.78899" lon="0.2372">
        <ele>1109.65</ele>
        <time>2020-08-11T15:43:14.078Z</time>
      </trkpt>
      <trkpt lat="42.78908" lon="0.23635">
        <ele>1111.76</ele>
        <time>2020-08-11T15:43:32.386Z</time>
      </trkpt>
      <trkpt lat="42.78907" lon="0.23599">
        <ele>1112.65</ele>
        <time>2020-08-11T15:43:40.084Z</time>
      </trkpt>
      <trkpt lat="42.78908" lon="0.23584">
        <ele>1113.48</ele>
        <time>2020-08-11T15:43:44.743Z</time>
      </trkpt>
      <trkpt lat="42.78913" lon="0.23564">
        <ele>1115.31</ele>
        <time>2020-08-11T15:43:54.594Z</time>
      </trkpt>
      <trkpt lat="42.78931" lon="0.23528">
        <ele>1116.95</ele>
        <time>2020-08-11T15:44:05.949Z</time>
      </trkpt>
      <trkpt lat="42.78939" lon="0.23437">
        <ele>1123.1</ele>
        <time>2020-08-11T15:44:38.463Z</time>
      </trkpt>
      <trkpt lat="42.78939" lon="0.23424">
        <ele>1123.1</ele>
        <time>2020-08-11T15:44:40.385Z</time>
      </trkpt>
      <trkpt lat="42.78926" lon="0.23365">
        <ele>1126.71</ele>
        <time>2020-08-11T15:45:00.177Z</time>
      </trkpt>
      <trkpt lat="42.78913" lon="0.23305">
        <ele>1132.29</ele>
        <time>2020-08-11T15:45:30.611Z</time>
      </trkpt>
      <trkpt lat="42.78904" lon="0.23268">
        <ele>1134.65</ele>
        <time>2020-08-11T15:45:43.411Z</time>
      </trkpt>
      <trkpt lat="42.78899" lon="0.23231">
        <ele>1137.58</ele>
        <time>2020-08-11T15:45:58.789Z</time>
      </trkpt>
      <trkpt lat="42.78898" lon="0.23201">
        <ele>1137.58</ele>
        <time>2020-08-11T15:46:03.228Z</time>
      </trkpt>
      <trkpt lat="42.78901" lon="0.23122">
        <ele>1141.17</ele>
        <time>2020-08-11T15:46:25.392Z</time>
      </trkpt>
      <trkpt lat="42.78909" lon="0.23081">
        <ele>1143.27</ele>
        <time>2020-08-11T15:46:37.772Z</time>
      </trkpt>
      <trkpt lat="42.78916" lon="0.23061">
        <ele>1143.73</ele>
        <time>2020-08-11T15:46:42.192Z</time>
      </trkpt>
      <trkpt lat="42.78924" lon="0.23049">
        <ele>1144.66</ele>
        <time>2020-08-11T15:46:47.331Z</time>
      </trkpt>
      <trkpt lat="42.78957" lon="0.23017">
        <ele>1147.91</ele>
        <time>2020-08-11T15:47:05.119Z</time>
      </trkpt>
      <trkpt lat="42.78967" lon="0.23005">
        <ele>1148.93</ele>
        <time>2020-08-11T15:47:10.800Z</time>
      </trkpt>
      <trkpt lat="42.78986" lon="0.22973">
        <ele>1152.05</ele>
        <time>2020-08-11T15:47:27.145Z</time>
      </trkpt>
      <trkpt lat="42.79018" lon="0.22904">
        <ele>1157.08</ele>
        <time>2020-08-11T15:47:54.280Z</time>
      </trkpt>
      <trkpt lat="42.7904" lon="0.22863">
        <ele>1158.85</ele>
        <time>2020-08-11T15:48:07.194Z</time>
      </trkpt>
      <trkpt lat="42.79077" lon="0.2282">
        <ele>1161.45</ele>
        <time>2020-08-11T15:48:24.717Z</time>
      </trkpt>
      <trkpt lat="42.79079" lon="0.22815">
        <ele>1161.45</ele>
        <time>2020-08-11T15:48:25.559Z</time>
      </trkpt>
      <trkpt lat="42.79079" lon="0.22807">
        <ele>1161.45</ele>
        <time>2020-08-11T15:48:26.741Z</time>
      </trkpt>
      <trkpt lat="42.79072" lon="0.22784">
        <ele>1159.46</ele>
        <time>2020-08-11T15:48:28.461Z</time>
      </trkpt>
      <trkpt lat="42.79067" lon="0.22781">
        <ele>1158.21</ele>
        <time>2020-08-11T15:48:28.976Z</time>
      </trkpt>
      <trkpt lat="42.7905" lon="0.22779">
        <ele>1159.36</ele>
        <time>2020-08-11T15:48:35.758Z</time>
      </trkpt>
      <trkpt lat="42.79039" lon="0.22766">
        <ele>1161.9</ele>
        <time>2020-08-11T15:48:47.069Z</time>
      </trkpt>
      <trkpt lat="42.79036" lon="0.22755">
        <ele>1161.9</ele>
        <time>2020-08-11T15:48:48.804Z</time>
      </trkpt>
      <trkpt lat="42.79034" lon="0.22727">
        <ele>1163.48</ele>
        <time>2020-08-11T15:48:57.604Z</time>
      </trkpt>
      <trkpt lat="42.79036" lon="0.22755">
        <ele>1161.9</ele>
        <time>2020-08-11T15:48:59.547Z</time>
      </trkpt>
      <trkpt lat="42.79039" lon="0.22766">
        <ele>1160.55</ele>
        <time>2020-08-11T15:49:00.358Z</time>
      </trkpt>
      <trkpt lat="42.7905" lon="0.22779">
        <ele>1158.21</ele>
        <time>2020-08-11T15:49:01.729Z</time>
      </trkpt>
      <trkpt lat="42.79067" lon="0.22781">
        <ele>1159.46</ele>
        <time>2020-08-11T15:49:08.818Z</time>
      </trkpt>
      <trkpt lat="42.79089" lon="0.22762">
        <ele>1158.91</ele>
        <time>2020-08-11T15:49:12.248Z</time>
      </trkpt>
      <trkpt lat="42.79092" lon="0.22755">
        <ele>1158.91</ele>
        <time>2020-08-11T15:49:13.447Z</time>
      </trkpt>
      <trkpt lat="42.79096" lon="0.22728">
        <ele>1161.51</ele>
        <time>2020-08-11T15:49:28.129Z</time>
      </trkpt>
      <trkpt lat="42.79102" lon="0.22711">
        <ele>1168.42</ele>
        <time>2020-08-11T15:49:38.883Z</time>
      </trkpt>
      <trkpt lat="42.79107" lon="0.22705">
        <ele>1168.42</ele>
        <time>2020-08-11T15:49:40.225Z</time>
      </trkpt>
      <trkpt lat="42.79143" lon="0.22683">
        <ele>1174.43</ele>
        <time>2020-08-11T15:50:10.876Z</time>
      </trkpt>
      <trkpt lat="42.79146" lon="0.22679">
        <ele>1177.3</ele>
        <time>2020-08-11T15:50:14.136Z</time>
      </trkpt>
      <trkpt lat="42.79159" lon="0.22637">
        <ele>1181.39</ele>
        <time>2020-08-11T15:50:36.512Z</time>
      </trkpt>
      <trkpt lat="42.79164" lon="0.22627">
        <ele>1183.67</ele>
        <time>2020-08-11T15:50:43.410Z</time>
      </trkpt>
      <trkpt lat="42.79195" lon="0.22602">
        <ele>1188.69</ele>
        <time>2020-08-11T15:51:11.394Z</time>
      </trkpt>
      <trkpt lat="42.79233" lon="0.22579">
        <ele>1193.47</ele>
        <time>2020-08-11T15:51:36.888Z</time>
      </trkpt>
      <trkpt lat="42.79259" lon="0.22569">
        <ele>1199.68</ele>
        <time>2020-08-11T15:51:57.875Z</time>
      </trkpt>
      <trkpt lat="42.79276" lon="0.22566">
        <ele>1201.44</ele>
        <time>2020-08-11T15:52:07.094Z</time>
      </trkpt>
      <trkpt lat="42.79311" lon="0.22565">
        <ele>1207.75</ele>
        <time>2020-08-11T15:52:34.289Z</time>
      </trkpt>
      <trkpt lat="42.79336" lon="0.22555">
        <ele>1212.99</ele>
        <time>2020-08-11T15:52:54.530Z</time>
      </trkpt>
      <trkpt lat="42.79349" lon="0.22553">
        <ele>1215.55</ele>
        <time>2020-08-11T15:53:04.693Z</time>
      </trkpt>
      <trkpt lat="42.79357" lon="0.22554">
        <ele>1215.55</ele>
        <time>2020-08-11T15:53:06.311Z</time>
      </trkpt>
      <trkpt lat="42.79383" lon="0.2257">
        <ele>1217.13</ele>
        <time>2020-08-11T15:53:16.726Z</time>
      </trkpt>
      <trkpt lat="42.79398" lon="0.22573">
        <ele>1218.33</ele>
        <time>2020-08-11T15:53:23.325Z</time>
      </trkpt>
      <trkpt lat="42.79433" lon="0.22576">
        <ele>1219.82</ele>
        <time>2020-08-11T15:53:34.889Z</time>
      </trkpt>
      <trkpt lat="42.79471" lon="0.22592">
        <ele>1221.18</ele>
        <time>2020-08-11T15:53:46.552Z</time>
      </trkpt>
      <trkpt lat="42.79549" lon="0.22582">
        <ele>1225.91</ele>
        <time>2020-08-11T15:54:16.155Z</time>
      </trkpt>
      <trkpt lat="42.79571" lon="0.22584">
        <ele>1226.32</ele>
        <time>2020-08-11T15:54:21.508Z</time>
      </trkpt>
      <trkpt lat="42.79591" lon="0.22595">
        <ele>1227.35</ele>
        <time>2020-08-11T15:54:28.993Z</time>
      </trkpt>
      <trkpt lat="42.79617" lon="0.22615">
        <ele>1228.27</ele>
        <time>2020-08-11T15:54:37.371Z</time>
      </trkpt>
      <trkpt lat="42.7964" lon="0.2263">
        <ele>1230.06</ele>
        <time>2020-08-11T15:54:47.720Z</time>
      </trkpt>
      <trkpt lat="42.79649" lon="0.22638">
        <ele>1230.93</ele>
        <time>2020-08-11T15:54:52.468Z</time>
      </trkpt>
      <trkpt lat="42.79653" lon="0.22645">
        <ele>1231.29</ele>
        <time>2020-08-11T15:54:54.843Z</time>
      </trkpt>
      <trkpt lat="42.79657" lon="0.22667">
        <ele>1231.68</ele>
        <time>2020-08-11T15:54:59.109Z</time>
      </trkpt>
      <trkpt lat="42.79699" lon="0.22755">
        <ele>1233.26</ele>
        <time>2020-08-11T15:55:18.212Z</time>
      </trkpt>
      <trkpt lat="42.79708" lon="0.22769">
        <ele>1233.58</ele>
        <time>2020-08-11T15:55:21.715Z</time>
      </trkpt>
      <trkpt lat="42.79719" lon="0.22777">
        <ele>1233.86</ele>
        <time>2020-08-11T15:55:24.876Z</time>
      </trkpt>
      <trkpt lat="42.79796" lon="0.2279">
        <ele>1239.67</ele>
        <time>2020-08-11T15:55:57.523Z</time>
      </trkpt>
      <trkpt lat="42.79803" lon="0.22795">
        <ele>1240.3</ele>
        <time>2020-08-11T15:56:00.979Z</time>
      </trkpt>
      <trkpt lat="42.79808" lon="0.22802">
        <ele>1240.92</ele>
        <time>2020-08-11T15:56:04.297Z</time>
      </trkpt>
      <trkpt lat="42.79848" lon="0.22879">
        <ele>1244.75</ele>
        <time>2020-08-11T15:56:29.558Z</time>
      </trkpt>
      <trkpt lat="42.79856" lon="0.22887">
        <ele>1245.48</ele>
        <time>2020-08-11T15:56:33.690Z</time>
      </trkpt>
      <trkpt lat="42.79873" lon="0.22898">
        <ele>1246.91</ele>
        <time>2020-08-11T15:56:41.678Z</time>
      </trkpt>
      <trkpt lat="42.79904" lon="0.22939">
        <ele>1249.69</ele>
        <time>2020-08-11T15:56:58.470Z</time>
      </trkpt>
      <trkpt lat="42.79908" lon="0.22951">
        <ele>1250.41</ele>
        <time>2020-08-11T15:57:02.526Z</time>
      </trkpt>
      <trkpt lat="42.79912" lon="0.22976">
        <ele>1253.94</ele>
        <time>2020-08-11T15:57:17.111Z</time>
      </trkpt>
      <trkpt lat="42.79916" lon="0.22984">
        <ele>1254.51</ele>
        <time>2020-08-11T15:57:20.231Z</time>
      </trkpt>
      <trkpt lat="42.79928" lon="0.22994">
        <ele>1255.76</ele>
        <time>2020-08-11T15:57:26.877Z</time>
      </trkpt>
      <trkpt lat="42.79971" lon="0.23009">
        <ele>1259.73</ele>
        <time>2020-08-11T15:57:47.956Z</time>
      </trkpt>
      <trkpt lat="42.79986" lon="0.23011">
        <ele>1260.82</ele>
        <time>2020-08-11T15:57:54.173Z</time>
      </trkpt>
      <trkpt lat="42.79999" lon="0.23008">
        <ele>1261.9</ele>
        <time>2020-08-11T15:58:00.044Z</time>
      </trkpt>
      <trkpt lat="42.80023" lon="0.22996">
        <ele>1264.06</ele>
        <time>2020-08-11T15:58:11.675Z</time>
      </trkpt>
      <trkpt lat="42.80039" lon="0.22991">
        <ele>1266.47</ele>
        <time>2020-08-11T15:58:24.428Z</time>
      </trkpt>
      <trkpt lat="42.80099" lon="0.23004">
        <ele>1271.34</ele>
        <time>2020-08-11T15:58:51.092Z</time>
      </trkpt>
      <trkpt lat="42.80123" lon="0.23001">
        <ele>1272.68</ele>
        <time>2020-08-11T15:58:59.903Z</time>
      </trkpt>
      <trkpt lat="42.80134" lon="0.22997">
        <ele>1273.8</ele>
        <time>2020-08-11T15:59:05.773Z</time>
      </trkpt>
      <trkpt lat="42.80148" lon="0.22985">
        <ele>1274.99</ele>
        <time>2020-08-11T15:59:12.576Z</time>
      </trkpt>
      <trkpt lat="42.80162" lon="0.22977">
        <ele>1277.32</ele>
        <time>2020-08-11T15:59:24.369Z</time>
      </trkpt>
      <trkpt lat="42.80191" lon="0.22967">
        <ele>1278.53</ele>
        <time>2020-08-11T15:59:33.940Z</time>
      </trkpt>
      <trkpt lat="42.80202" lon="0.2296">
        <ele>1280.31</ele>
        <time>2020-08-11T15:59:43.371Z</time>
      </trkpt>
      <trkpt lat="42.80233" lon="0.22924">
        <ele>1284.5</ele>
        <time>2020-08-11T16:00:05.318Z</time>
      </trkpt>
      <trkpt lat="42.80241" lon="0.22908">
        <ele>1285.88</ele>
        <time>2020-08-11T16:00:12.557Z</time>
      </trkpt>
      <trkpt lat="42.8025" lon="0.22883">
        <ele>1287.99</ele>
        <time>2020-08-11T16:00:23.611Z</time>
      </trkpt>
      <trkpt lat="42.80262" lon="0.22869">
        <ele>1289.96</ele>
        <time>2020-08-11T16:00:34.509Z</time>
      </trkpt>
      <trkpt lat="42.8028" lon="0.22858">
        <ele>1292.23</ele>
        <time>2020-08-11T16:00:46.620Z</time>
      </trkpt>
      <trkpt lat="42.80353" lon="0.22789">
        <ele>1297.16</ele>
        <time>2020-08-11T16:01:19.074Z</time>
      </trkpt>
      <trkpt lat="42.80389" lon="0.22777">
        <ele>1298.36</ele>
        <time>2020-08-11T16:01:29.685Z</time>
      </trkpt>
      <trkpt lat="42.80446" lon="0.22751">
        <ele>1301.97</ele>
        <time>2020-08-11T16:01:52.347Z</time>
      </trkpt>
      <trkpt lat="42.80456" lon="0.2275">
        <ele>1302.76</ele>
        <time>2020-08-11T16:01:56.699Z</time>
      </trkpt>
      <trkpt lat="42.80496" lon="0.22752">
        <ele>1305.13</ele>
        <time>2020-08-11T16:02:11.701Z</time>
      </trkpt>
      <trkpt lat="42.80509" lon="0.22751">
        <ele>1305.13</ele>
        <time>2020-08-11T16:02:14.323Z</time>
      </trkpt>
      <trkpt lat="42.80526" lon="0.22744">
        <ele>1307.56</ele>
        <time>2020-08-11T16:02:28.119Z</time>
      </trkpt>
      <trkpt lat="42.8054" lon="0.22741">
        <ele>1307.56</ele>
        <time>2020-08-11T16:02:30.973Z</time>
      </trkpt>
      <trkpt lat="42.80579" lon="0.22738">
        <ele>1310.44</ele>
        <time>2020-08-11T16:02:47.262Z</time>
      </trkpt>
      <trkpt lat="42.80586" lon="0.22735">
        <ele>1310.44</ele>
        <time>2020-08-11T16:02:48.740Z</time>
      </trkpt>
      <trkpt lat="42.80599" lon="0.22721">
        <ele>1311.81</ele>
        <time>2020-08-11T16:02:56.165Z</time>
      </trkpt>
      <trkpt lat="42.80608" lon="0.22705">
        <ele>1312.85</ele>
        <time>2020-08-11T16:03:02.174Z</time>
      </trkpt>
      <trkpt lat="42.80618" lon="0.22693">
        <ele>1313.4</ele>
        <time>2020-08-11T16:03:06.489Z</time>
      </trkpt>
      <trkpt lat="42.80644" lon="0.2267">
        <ele>1316.22</ele>
        <time>2020-08-11T16:03:21.412Z</time>
      </trkpt>
      <trkpt lat="42.80705" lon="0.22582">
        <ele>1321.23</ele>
        <time>2020-08-11T16:03:54.062Z</time>
      </trkpt>
      <trkpt lat="42.80719" lon="0.22568">
        <ele>1322.38</ele>
        <time>2020-08-11T16:04:00.905Z</time>
      </trkpt>
      <trkpt lat="42.80751" lon="0.22546">
        <ele>1325.87</ele>
        <time>2020-08-11T16:04:19.209Z</time>
      </trkpt>
      <trkpt lat="42.80776" lon="0.22546">
        <ele>1326.99</ele>
        <time>2020-08-11T16:04:27.723Z</time>
      </trkpt>
      <trkpt lat="42.80797" lon="0.22549">
        <ele>1336.27</ele>
        <time>2020-08-11T16:04:44.126Z</time>
      </trkpt>
      <trkpt lat="42.80812" lon="0.22538">
        <ele>1337.74</ele>
        <time>2020-08-11T16:04:51.997Z</time>
      </trkpt>
      <trkpt lat="42.80846" lon="0.22502">
        <ele>1343.2</ele>
        <time>2020-08-11T16:05:22.525Z</time>
      </trkpt>
      <trkpt lat="42.80889" lon="0.22404">
        <ele>1349.32</ele>
        <time>2020-08-11T16:05:57.277Z</time>
      </trkpt>
      <trkpt lat="42.80916" lon="0.22349">
        <ele>1354.33</ele>
        <time>2020-08-11T16:06:23.522Z</time>
      </trkpt>
      <trkpt lat="42.8093" lon="0.22313">
        <ele>1355.97</ele>
        <time>2020-08-11T16:06:34.395Z</time>
      </trkpt>
      <trkpt lat="42.80935" lon="0.2229">
        <ele>1357.95</ele>
        <time>2020-08-11T16:06:44.892Z</time>
      </trkpt>
      <trkpt lat="42.80937" lon="0.22255">
        <ele>1360.11</ele>
        <time>2020-08-11T16:06:56.549Z</time>
      </trkpt>
      <trkpt lat="42.80936" lon="0.22192">
        <ele>1364.12</ele>
        <time>2020-08-11T16:07:17.991Z</time>
      </trkpt>
      <trkpt lat="42.80944" lon="0.22148">
        <ele>1369.02</ele>
        <time>2020-08-11T16:07:43.826Z</time>
      </trkpt>
      <trkpt lat="42.80955" lon="0.22119">
        <ele>1371.43</ele>
        <time>2020-08-11T16:07:56.447Z</time>
      </trkpt>
      <trkpt lat="42.80967" lon="0.22106">
        <ele>1372.96</ele>
        <time>2020-08-11T16:08:04.461Z</time>
      </trkpt>
      <trkpt lat="42.80981" lon="0.22097">
        <ele>1374.86</ele>
        <time>2020-08-11T16:08:14.877Z</time>
      </trkpt>
      <trkpt lat="42.80991" lon="0.22094">
        <ele>1376.63</ele>
        <time>2020-08-11T16:08:22.832Z</time>
      </trkpt>
      <trkpt lat="42.81002" lon="0.22096">
        <ele>1377.26</ele>
        <time>2020-08-11T16:08:26.921Z</time>
      </trkpt>
      <trkpt lat="42.81014" lon="0.22101">
        <ele>1378.57</ele>
        <time>2020-08-11T16:08:33.788Z</time>
      </trkpt>
      <trkpt lat="42.81052" lon="0.22145">
        <ele>1384.5</ele>
        <time>2020-08-11T16:09:05.811Z</time>
      </trkpt>
      <trkpt lat="42.81069" lon="0.22158">
        <ele>1386.71</ele>
        <time>2020-08-11T16:09:17.550Z</time>
      </trkpt>
      <trkpt lat="42.81094" lon="0.22167">
        <ele>1389.91</ele>
        <time>2020-08-11T16:09:35.173Z</time>
      </trkpt>
      <trkpt lat="42.8115" lon="0.22167">
        <ele>1396.06</ele>
        <time>2020-08-11T16:10:07.607Z</time>
      </trkpt>
      <trkpt lat="42.81187" lon="0.22161">
        <ele>1398.52</ele>
        <time>2020-08-11T16:10:22.269Z</time>
      </trkpt>
      <trkpt lat="42.81202" lon="0.22153">
        <ele>1399.06</ele>
        <time>2020-08-11T16:10:26.950Z</time>
      </trkpt>
      <trkpt lat="42.8124" lon="0.22096">
        <ele>1401.49</ele>
        <time>2020-08-11T16:10:45.727Z</time>
      </trkpt>
      <trkpt lat="42.81275" lon="0.21995">
        <ele>1408.05</ele>
        <time>2020-08-11T16:11:21.661Z</time>
      </trkpt>
      <trkpt lat="42.81287" lon="0.21946">
        <ele>1409.63</ele>
        <time>2020-08-11T16:11:34.010Z</time>
      </trkpt>
      <trkpt lat="42.81296" lon="0.2189">
        <ele>1406.74</ele>
        <time>2020-08-11T16:11:37.968Z</time>
      </trkpt>
      <trkpt lat="42.8132" lon="0.21831">
        <ele>1402.47</ele>
        <time>2020-08-11T16:11:42.627Z</time>
      </trkpt>
      <trkpt lat="42.81339" lon="0.21765">
        <ele>1402.91</ele>
        <time>2020-08-11T16:11:53.982Z</time>
      </trkpt>
      <trkpt lat="42.81339" lon="0.21735">
        <ele>1402.86</ele>
        <time>2020-08-11T16:11:58.265Z</time>
      </trkpt>
      <trkpt lat="42.81361" lon="0.21687">
        <ele>1406.16</ele>
        <time>2020-08-11T16:12:16.388Z</time>
      </trkpt>
      <trkpt lat="42.81369" lon="0.21646">
        <ele>1408.51</ele>
        <time>2020-08-11T16:12:29.547Z</time>
      </trkpt>
      <trkpt lat="42.81395" lon="0.21585">
        <ele>1412.79</ele>
        <time>2020-08-11T16:12:52.743Z</time>
      </trkpt>
      <trkpt lat="42.81403" lon="0.21556">
        <ele>1416.34</ele>
        <time>2020-08-11T16:13:10.399Z</time>
      </trkpt>
      <trkpt lat="42.81409" lon="0.21491">
        <ele>1420.52</ele>
        <time>2020-08-11T16:13:32.736Z</time>
      </trkpt>
      <trkpt lat="42.81415" lon="0.21425">
        <ele>1424.45</ele>
        <time>2020-08-11T16:13:54.217Z</time>
      </trkpt>
      <trkpt lat="42.81428" lon="0.21382">
        <ele>1426.27</ele>
        <time>2020-08-11T16:14:06.502Z</time>
      </trkpt>
      <trkpt lat="42.81441" lon="0.21349">
        <ele>1428</ele>
        <time>2020-08-11T16:14:17.076Z</time>
      </trkpt>
      <trkpt lat="42.81449" lon="0.21318">
        <ele>1428.88</ele>
        <time>2020-08-11T16:14:24.371Z</time>
      </trkpt>
      <trkpt lat="42.81454" lon="0.21217">
        <ele>1439.56</ele>
        <time>2020-08-11T16:15:22.058Z</time>
      </trkpt>
      <trkpt lat="42.81466" lon="0.21161">
        <ele>1441.85</ele>
        <time>2020-08-11T16:15:37.484Z</time>
      </trkpt>
      <trkpt lat="42.81468" lon="0.21141">
        <ele>1441.85</ele>
        <time>2020-08-11T16:15:40.467Z</time>
      </trkpt>
      <trkpt lat="42.81468" lon="0.21113">
        <ele>1443.07</ele>
        <time>2020-08-11T16:15:48.175Z</time>
      </trkpt>
      <trkpt lat="42.81461" lon="0.21079">
        <ele>1445.49</ele>
        <time>2020-08-11T16:16:00.925Z</time>
      </trkpt>
      <trkpt lat="42.81461" lon="0.21019">
        <ele>1447.42</ele>
        <time>2020-08-11T16:16:15.740Z</time>
      </trkpt>
      <trkpt lat="42.81474" lon="0.2096">
        <ele>1452.74</ele>
        <time>2020-08-11T16:16:44.350Z</time>
      </trkpt>
      <trkpt lat="42.81483" lon="0.20944">
        <ele>1454.38</ele>
        <time>2020-08-11T16:16:53.016Z</time>
      </trkpt>
      <trkpt lat="42.81499" lon="0.20926">
        <ele>1454.83</ele>
        <time>2020-08-11T16:16:58.230Z</time>
      </trkpt>
      <trkpt lat="42.81519" lon="0.20872">
        <ele>1458.1</ele>
        <time>2020-08-11T16:17:16.729Z</time>
      </trkpt>
      <trkpt lat="42.81537" lon="0.20815">
        <ele>1461.64</ele>
        <time>2020-08-11T16:17:36.325Z</time>
      </trkpt>
      <trkpt lat="42.81538" lon="0.20799">
        <ele>1464.25</ele>
        <time>2020-08-11T16:17:45.476Z</time>
      </trkpt>
      <trkpt lat="42.81525" lon="0.20757">
        <ele>1468</ele>
        <time>2020-08-11T16:18:05.341Z</time>
      </trkpt>
      <trkpt lat="42.81524" lon="0.20731">
        <ele>1469.84</ele>
        <time>2020-08-11T16:18:15.000Z</time>
      </trkpt>
      <trkpt lat="42.81531" lon="0.2071">
        <ele>1472.12</ele>
        <time>2020-08-11T16:18:28.144Z</time>
      </trkpt>
      <trkpt lat="42.81541" lon="0.20689">
        <ele>1474.59</ele>
        <time>2020-08-11T16:18:42.412Z</time>
      </trkpt>
      <trkpt lat="42.81568" lon="0.20662">
        <ele>1480.92</ele>
        <time>2020-08-11T16:19:08.425Z</time>
      </trkpt>
      <trkpt lat="42.81573" lon="0.20655">
        <ele>1480.92</ele>
        <time>2020-08-11T16:19:09.869Z</time>
      </trkpt>
      <trkpt lat="42.81575" lon="0.2064">
        <ele>1482.27</ele>
        <time>2020-08-11T16:19:17.207Z</time>
      </trkpt>
      <trkpt lat="42.8155" lon="0.20557">
        <ele>1488.67</ele>
        <time>2020-08-11T16:19:50.776Z</time>
      </trkpt>
      <trkpt lat="42.81546" lon="0.20551">
        <ele>1488.67</ele>
        <time>2020-08-11T16:19:51.974Z</time>
      </trkpt>
      <trkpt lat="42.81541" lon="0.20549">
        <ele>1489.5</ele>
        <time>2020-08-11T16:19:56.022Z</time>
      </trkpt>
      <trkpt lat="42.81536" lon="0.20551">
        <ele>1489.5</ele>
        <time>2020-08-11T16:19:57.072Z</time>
      </trkpt>
      <trkpt lat="42.81532" lon="0.20557">
        <ele>1490.21</ele>
        <time>2020-08-11T16:20:00.912Z</time>
      </trkpt>
      <trkpt lat="42.81535" lon="0.20603">
        <ele>1493.37</ele>
        <time>2020-08-11T16:20:17.565Z</time>
      </trkpt>
      <trkpt lat="42.81535" lon="0.2063">
        <ele>1495.7</ele>
        <time>2020-08-11T16:20:30.092Z</time>
      </trkpt>
      <trkpt lat="42.8153" lon="0.20656">
        <ele>1498.2</ele>
        <time>2020-08-11T16:20:44.068Z</time>
      </trkpt>
      <trkpt lat="42.81523" lon="0.20671">
        <ele>1498.2</ele>
        <time>2020-08-11T16:20:46.694Z</time>
      </trkpt>
      <trkpt lat="42.81518" lon="0.20675">
        <ele>1499.09</ele>
        <time>2020-08-11T16:20:51.198Z</time>
      </trkpt>
      <trkpt lat="42.81512" lon="0.20675">
        <ele>1499.09</ele>
        <time>2020-08-11T16:20:52.406Z</time>
      </trkpt>
      <trkpt lat="42.81508" lon="0.20673">
        <ele>1499.09</ele>
        <time>2020-08-11T16:20:53.265Z</time>
      </trkpt>
      <trkpt lat="42.81505" lon="0.20669">
        <ele>1499.09</ele>
        <time>2020-08-11T16:20:54.110Z</time>
      </trkpt>
      <trkpt lat="42.81505" lon="0.20656">
        <ele>1501.25</ele>
        <time>2020-08-11T16:21:01.518Z</time>
      </trkpt>
      <trkpt lat="42.81514" lon="0.20638">
        <ele>1502.48</ele>
        <time>2020-08-11T16:21:08.353Z</time>
      </trkpt>
      <trkpt lat="42.81515" lon="0.20631">
        <ele>1502.48</ele>
        <time>2020-08-11T16:21:09.407Z</time>
      </trkpt>
      <trkpt lat="42.81506" lon="0.2058">
        <ele>1506.58</ele>
        <time>2020-08-11T16:21:30.935Z</time>
      </trkpt>
      <trkpt lat="42.81476" lon="0.20543">
        <ele>1510.67</ele>
        <time>2020-08-11T16:21:52.353Z</time>
      </trkpt>
      <trkpt lat="42.81463" lon="0.20524">
        <ele>1511.92</ele>
        <time>2020-08-11T16:21:59.829Z</time>
      </trkpt>
      <trkpt lat="42.81456" lon="0.2051">
        <ele>1513.96</ele>
        <time>2020-08-11T16:22:09.484Z</time>
      </trkpt>
      <trkpt lat="42.81453" lon="0.20498">
        <ele>1513.96</ele>
        <time>2020-08-11T16:22:11.357Z</time>
      </trkpt>
      <trkpt lat="42.81449" lon="0.20456">
        <ele>1517.35</ele>
        <time>2020-08-11T16:22:29.215Z</time>
      </trkpt>
      <trkpt lat="42.81452" lon="0.2041">
        <ele>1522.07</ele>
        <time>2020-08-11T16:22:55.533Z</time>
      </trkpt>
      <trkpt lat="42.81457" lon="0.20391">
        <ele>1523.17</ele>
        <time>2020-08-11T16:23:01.734Z</time>
      </trkpt>
      <trkpt lat="42.81463" lon="0.20379">
        <ele>1523.73</ele>
        <time>2020-08-11T16:23:05.550Z</time>
      </trkpt>
      <trkpt lat="42.81464" lon="0.20361">
        <ele>1524.23</ele>
        <time>2020-08-11T16:23:09.627Z</time>
      </trkpt>
      <trkpt lat="42.81462" lon="0.20344">
        <ele>1525.42</ele>
        <time>2020-08-11T16:23:15.890Z</time>
      </trkpt>
      <trkpt lat="42.81441" lon="0.20251">
        <ele>1530.57</ele>
        <time>2020-08-11T16:23:45.295Z</time>
      </trkpt>
      <trkpt lat="42.81436" lon="0.20213">
        <ele>1534.45</ele>
        <time>2020-08-11T16:24:07.296Z</time>
      </trkpt>
      <trkpt lat="42.81435" lon="0.20187">
        <ele>1535.85</ele>
        <time>2020-08-11T16:24:15.234Z</time>
      </trkpt>
      <trkpt lat="42.81438" lon="0.20155">
        <ele>1537.92</ele>
        <time>2020-08-11T16:24:26.280Z</time>
      </trkpt>
      <trkpt lat="42.81443" lon="0.20124">
        <ele>1540.54</ele>
        <time>2020-08-11T16:24:40.170Z</time>
      </trkpt>
      <trkpt lat="42.81456" lon="0.20099">
        <ele>1542.6</ele>
        <time>2020-08-11T16:24:51.057Z</time>
      </trkpt>
      <trkpt lat="42.81463" lon="0.2009">
        <ele>1543.9</ele>
        <time>2020-08-11T16:24:58.532Z</time>
      </trkpt>
      <trkpt lat="42.8149" lon="0.20072">
        <ele>1544.81</ele>
        <time>2020-08-11T16:25:06.909Z</time>
      </trkpt>
      <trkpt lat="42.81494" lon="0.20066">
        <ele>1546.6</ele>
        <time>2020-08-11T16:25:11.529Z</time>
      </trkpt>
      <trkpt lat="42.81517" lon="0.20005">
        <ele>1549.91</ele>
        <time>2020-08-11T16:25:31.292Z</time>
      </trkpt>
      <trkpt lat="42.81528" lon="0.19988">
        <ele>1554.06</ele>
        <time>2020-08-11T16:25:44.210Z</time>
      </trkpt>
      <trkpt lat="42.8154" lon="0.19973">
        <ele>1554.06</ele>
        <time>2020-08-11T16:25:47.489Z</time>
      </trkpt>
      <trkpt lat="42.81599" lon="0.19915">
        <ele>1560.57</ele>
        <time>2020-08-11T16:26:22.050Z</time>
      </trkpt>
      <trkpt lat="42.81604" lon="0.19898">
        <ele>1561.8</ele>
        <time>2020-08-11T16:26:28.551Z</time>
      </trkpt>
      <trkpt lat="42.81608" lon="0.19862">
        <ele>1562.17</ele>
        <time>2020-08-11T16:26:34.712Z</time>
      </trkpt>
      <trkpt lat="42.81607" lon="0.19846">
        <ele>1562.43</ele>
        <time>2020-08-11T16:26:37.686Z</time>
      </trkpt>
      <trkpt lat="42.816" lon="0.19805">
        <ele>1563.6</ele>
        <time>2020-08-11T16:26:47.211Z</time>
      </trkpt>
      <trkpt lat="42.81602" lon="0.19771">
        <ele>1564.48</ele>
        <time>2020-08-11T16:26:54.645Z</time>
      </trkpt>
      <trkpt lat="42.81608" lon="0.19731">
        <ele>1567.32</ele>
        <time>2020-08-11T16:27:09.579Z</time>
      </trkpt>
      <trkpt lat="42.8162" lon="0.19684">
        <ele>1572.66</ele>
        <time>2020-08-11T16:27:37.938Z</time>
      </trkpt>
      <trkpt lat="42.81637" lon="0.19651">
        <ele>1573.82</ele>
        <time>2020-08-11T16:27:47.235Z</time>
      </trkpt>
      <trkpt lat="42.81643" lon="0.19646">
        <ele>1576.72</ele>
        <time>2020-08-11T16:27:52.698Z</time>
      </trkpt>
      <trkpt lat="42.81674" lon="0.19641">
        <ele>1574.37</ele>
        <time>2020-08-11T16:27:55.636Z</time>
      </trkpt>
      <trkpt lat="42.81681" lon="0.19634">
        <ele>1574.37</ele>
        <time>2020-08-11T16:27:57.385Z</time>
      </trkpt>
      <trkpt lat="42.81682" lon="0.19624">
        <ele>1574.63</ele>
        <time>2020-08-11T16:27:59.583Z</time>
      </trkpt>
      <trkpt lat="42.81679" lon="0.19619">
        <ele>1574.63</ele>
        <time>2020-08-11T16:28:00.537Z</time>
      </trkpt>
      <trkpt lat="42.8167" lon="0.19613">
        <ele>1575.13</ele>
        <time>2020-08-11T16:28:04.063Z</time>
      </trkpt>
      <trkpt lat="42.81664" lon="0.19616">
        <ele>1575.13</ele>
        <time>2020-08-11T16:28:05.350Z</time>
      </trkpt>
      <trkpt lat="42.81656" lon="0.19628">
        <ele>1575.71</ele>
        <time>2020-08-11T16:28:09.506Z</time>
      </trkpt>
      <trkpt lat="42.81651" lon="0.1963">
        <ele>1575.71</ele>
        <time>2020-08-11T16:28:10.555Z</time>
      </trkpt>
      <trkpt lat="42.81645" lon="0.19629">
        <ele>1576.53</ele>
        <time>2020-08-11T16:28:15.251Z</time>
      </trkpt>
      <trkpt lat="42.81641" lon="0.19622">
        <ele>1577.15</ele>
        <time>2020-08-11T16:28:18.509Z</time>
      </trkpt>
      <trkpt lat="42.8164" lon="0.19613">
        <ele>1577.15</ele>
        <time>2020-08-11T16:28:19.854Z</time>
      </trkpt>
      <trkpt lat="42.81642" lon="0.19607">
        <ele>1577.15</ele>
        <time>2020-08-11T16:28:20.828Z</time>
      </trkpt>
      <trkpt lat="42.81646" lon="0.19603">
        <ele>1579.4</ele>
        <time>2020-08-11T16:28:24.682Z</time>
      </trkpt>
      <trkpt lat="42.81681" lon="0.19581">
        <ele>1581.71</ele>
        <time>2020-08-11T16:28:39.200Z</time>
      </trkpt>
      <trkpt lat="42.81692" lon="0.19578">
        <ele>1582.78</ele>
        <time>2020-08-11T16:28:44.822Z</time>
      </trkpt>
      <trkpt lat="42.81699" lon="0.19578">
        <ele>1584.06</ele>
        <time>2020-08-11T16:28:50.260Z</time>
      </trkpt>
      <trkpt lat="42.81726" lon="0.19595">
        <ele>1586.7</ele>
        <time>2020-08-11T16:29:04.300Z</time>
      </trkpt>
      <trkpt lat="42.81733" lon="0.19595">
        <ele>1587.89</ele>
        <time>2020-08-11T16:29:09.738Z</time>
      </trkpt>
      <trkpt lat="42.81738" lon="0.19592">
        <ele>1587.89</ele>
        <time>2020-08-11T16:29:10.839Z</time>
      </trkpt>
      <trkpt lat="42.81748" lon="0.1958">
        <ele>1589.34</ele>
        <time>2020-08-11T16:29:18.474Z</time>
      </trkpt>
      <trkpt lat="42.8177" lon="0.19518">
        <ele>1594.29</ele>
        <time>2020-08-11T16:29:44.424Z</time>
      </trkpt>
      <trkpt lat="42.81775" lon="0.19481">
        <ele>1597.63</ele>
        <time>2020-08-11T16:30:02.603Z</time>
      </trkpt>
      <trkpt lat="42.81794" lon="0.19439">
        <ele>1600.25</ele>
        <time>2020-08-11T16:30:17.541Z</time>
      </trkpt>
      <trkpt lat="42.81812" lon="0.19423">
        <ele>1602.89</ele>
        <time>2020-08-11T16:30:32.021Z</time>
      </trkpt>
      <trkpt lat="42.81819" lon="0.19414">
        <ele>1604.65</ele>
        <time>2020-08-11T16:30:39.496Z</time>
      </trkpt>
      <trkpt lat="42.81819" lon="0.19402">
        <ele>1605.45</ele>
        <time>2020-08-11T16:30:43.730Z</time>
      </trkpt>
      <trkpt lat="42.81815" lon="0.19387">
        <ele>1606.58</ele>
        <time>2020-08-11T16:30:49.660Z</time>
      </trkpt>
      <trkpt lat="42.81803" lon="0.19373">
        <ele>1607.44</ele>
        <time>2020-08-11T16:30:55.390Z</time>
      </trkpt>
      <trkpt lat="42.818" lon="0.19366">
        <ele>1608.46</ele>
        <time>2020-08-11T16:31:00.010Z</time>
      </trkpt>
      <trkpt lat="42.81799" lon="0.19358">
        <ele>1608.46</ele>
        <time>2020-08-11T16:31:01.208Z</time>
      </trkpt>
      <trkpt lat="42.81801" lon="0.19347">
        <ele>1609.14</ele>
        <time>2020-08-11T16:31:04.907Z</time>
      </trkpt>
      <trkpt lat="42.81805" lon="0.19338">
        <ele>1610.15</ele>
        <time>2020-08-11T16:31:10.687Z</time>
      </trkpt>
      <trkpt lat="42.81816" lon="0.19336">
        <ele>1610.15</ele>
        <time>2020-08-11T16:31:12.922Z</time>
      </trkpt>
      <trkpt lat="42.81823" lon="0.19337">
        <ele>1611.28</ele>
        <time>2020-08-11T16:31:18.390Z</time>
      </trkpt>
      <trkpt lat="42.8184" lon="0.19346">
        <ele>1613.05</ele>
        <time>2020-08-11T16:31:27.675Z</time>
      </trkpt>
      <trkpt lat="42.81845" lon="0.19346">
        <ele>1613.05</ele>
        <time>2020-08-11T16:31:28.682Z</time>
      </trkpt>
      <trkpt lat="42.81864" lon="0.19319">
        <ele>1614.58</ele>
        <time>2020-08-11T16:31:38.726Z</time>
      </trkpt>
      <trkpt lat="42.81873" lon="0.19295">
        <ele>1617.81</ele>
        <time>2020-08-11T16:31:54.085Z</time>
      </trkpt>
      <trkpt lat="42.81876" lon="0.19281">
        <ele>1617.81</ele>
        <time>2020-08-11T16:31:56.240Z</time>
      </trkpt>
      <trkpt lat="42.81875" lon="0.19235">
        <ele>1621.95</ele>
        <time>2020-08-11T16:32:18.926Z</time>
      </trkpt>
      <trkpt lat="42.81878" lon="0.1922">
        <ele>1623.49</ele>
        <time>2020-08-11T16:32:27.785Z</time>
      </trkpt>
      <trkpt lat="42.81894" lon="0.1918">
        <ele>1627.08</ele>
        <time>2020-08-11T16:32:46.654Z</time>
      </trkpt>
      <trkpt lat="42.81899" lon="0.1914">
        <ele>1629.12</ele>
        <time>2020-08-11T16:32:58.585Z</time>
      </trkpt>
      <trkpt lat="42.81897" lon="0.1912">
        <ele>1629.12</ele>
        <time>2020-08-11T16:33:01.567Z</time>
      </trkpt>
      <trkpt lat="42.81893" lon="0.19102">
        <ele>1629.75</ele>
        <time>2020-08-11T16:33:06.291Z</time>
      </trkpt>
      <trkpt lat="42.81878" lon="0.19073">
        <ele>1630.44</ele>
        <time>2020-08-11T16:33:13.215Z</time>
      </trkpt>
      <trkpt lat="42.81873" lon="0.19059">
        <ele>1631.36</ele>
        <time>2020-08-11T16:33:18.244Z</time>
      </trkpt>
      <trkpt lat="42.81874" lon="0.19044">
        <ele>1631.36</ele>
        <time>2020-08-11T16:33:20.469Z</time>
      </trkpt>
      <trkpt lat="42.819" lon="0.18963">
        <ele>1635.75</ele>
        <time>2020-08-11T16:33:46.303Z</time>
      </trkpt>
      <trkpt lat="42.81925" lon="0.18881">
        <ele>1643.68</ele>
        <time>2020-08-11T16:34:29.591Z</time>
      </trkpt>
      <trkpt lat="42.81933" lon="0.18848">
        <ele>1647.02</ele>
        <time>2020-08-11T16:34:48.726Z</time>
      </trkpt>
      <trkpt lat="42.8194" lon="0.18801">
        <ele>1649.93</ele>
        <time>2020-08-11T16:35:04.496Z</time>
      </trkpt>
      <trkpt lat="42.81948" lon="0.18701">
        <ele>1660.71</ele>
        <time>2020-08-11T16:36:01.816Z</time>
      </trkpt>
      <trkpt lat="42.81955" lon="0.18664">
        <ele>1663.53</ele>
        <time>2020-08-11T16:36:16.584Z</time>
      </trkpt>
      <trkpt lat="42.81964" lon="0.18629">
        <ele>1665.96</ele>
        <time>2020-08-11T16:36:29.490Z</time>
      </trkpt>
      <trkpt lat="42.81982" lon="0.18609">
        <ele>1669.43</ele>
        <time>2020-08-11T16:36:47.529Z</time>
      </trkpt>
      <trkpt lat="42.81991" lon="0.18589">
        <ele>1671.88</ele>
        <time>2020-08-11T16:37:00.900Z</time>
      </trkpt>
      <trkpt lat="42.82002" lon="0.18556">
        <ele>1674.24</ele>
        <time>2020-08-11T16:37:13.451Z</time>
      </trkpt>
      <trkpt lat="42.82023" lon="0.18536">
        <ele>1677.1</ele>
        <time>2020-08-11T16:37:28.585Z</time>
      </trkpt>
      <trkpt lat="42.82026" lon="0.18528">
        <ele>1678.3</ele>
        <time>2020-08-11T16:37:33.705Z</time>
      </trkpt>
      <trkpt lat="42.82032" lon="0.18498">
        <ele>1680.37</ele>
        <time>2020-08-11T16:37:44.664Z</time>
      </trkpt>
      <trkpt lat="42.82046" lon="0.18472">
        <ele>1682.85</ele>
        <time>2020-08-11T16:37:57.666Z</time>
      </trkpt>
      <trkpt lat="42.82079" lon="0.18445">
        <ele>1687.15</ele>
        <time>2020-08-11T16:38:20.425Z</time>
      </trkpt>
      <trkpt lat="42.82094" lon="0.18436">
        <ele>1691.5</ele>
        <time>2020-08-11T16:38:33.156Z</time>
      </trkpt>
      <trkpt lat="42.82127" lon="0.18434">
        <ele>1696.92</ele>
        <time>2020-08-11T16:38:58.818Z</time>
      </trkpt>
      <trkpt lat="42.8213" lon="0.18437">
        <ele>1696.92</ele>
        <time>2020-08-11T16:38:59.567Z</time>
      </trkpt>
      <trkpt lat="42.82136" lon="0.18448">
        <ele>1697.66</ele>
        <time>2020-08-11T16:39:03.756Z</time>
      </trkpt>
      <trkpt lat="42.82134" lon="0.1847">
        <ele>1695.34</ele>
        <time>2020-08-11T16:39:05.286Z</time>
      </trkpt>
      <trkpt lat="42.82109" lon="0.18497">
        <ele>1693.48</ele>
        <time>2020-08-11T16:39:08.222Z</time>
      </trkpt>
      <trkpt lat="42.821" lon="0.18513">
        <ele>1692.28</ele>
        <time>2020-08-11T16:39:09.614Z</time>
      </trkpt>
      <trkpt lat="42.82077" lon="0.1858">
        <ele>1688.86</ele>
        <time>2020-08-11T16:39:14.426Z</time>
      </trkpt>
      <trkpt lat="42.82078" lon="0.18587">
        <ele>1688.3</ele>
        <time>2020-08-11T16:39:14.918Z</time>
      </trkpt>
      <trkpt lat="42.82081" lon="0.18593">
        <ele>1687.78</ele>
        <time>2020-08-11T16:39:15.419Z</time>
      </trkpt>
      <trkpt lat="42.82089" lon="0.18595">
        <ele>1687.3</ele>
        <time>2020-08-11T16:39:16.164Z</time>
      </trkpt>
      <trkpt lat="42.82097" lon="0.18581">
        <ele>1686.37</ele>
        <time>2020-08-11T16:39:17.389Z</time>
      </trkpt>
      <trkpt lat="42.82101" lon="0.18547">
        <ele>1687.41</ele>
        <time>2020-08-11T16:39:25.557Z</time>
      </trkpt>
      <trkpt lat="42.8211" lon="0.18522">
        <ele>1688.46</ele>
        <time>2020-08-11T16:39:32.817Z</time>
      </trkpt>
      <trkpt lat="42.82162" lon="0.18465">
        <ele>1701.83</ele>
        <time>2020-08-11T16:40:24.651Z</time>
      </trkpt>
      <trkpt lat="42.82172" lon="0.18436">
        <ele>1704.4</ele>
        <time>2020-08-11T16:40:38.194Z</time>
      </trkpt>
      <trkpt lat="42.8218" lon="0.18406">
        <ele>1706.97</ele>
        <time>2020-08-11T16:40:51.747Z</time>
      </trkpt>
      <trkpt lat="42.82182" lon="0.18381">
        <ele>1711.13</ele>
        <time>2020-08-11T16:41:06.077Z</time>
      </trkpt>
      <trkpt lat="42.82171" lon="0.18341">
        <ele>1717.97</ele>
        <time>2020-08-11T16:41:30.418Z</time>
      </trkpt>
      <trkpt lat="42.82163" lon="0.18291">
        <ele>1723.48</ele>
        <time>2020-08-11T16:41:59.578Z</time>
      </trkpt>
      <trkpt lat="42.82166" lon="0.18256">
        <ele>1729.25</ele>
        <time>2020-08-11T16:42:19.657Z</time>
      </trkpt>
      <trkpt lat="42.82161" lon="0.1824">
        <ele>1729.25</ele>
        <time>2020-08-11T16:42:22.226Z</time>
      </trkpt>
      <trkpt lat="42.82135" lon="0.18207">
        <ele>1732.56</ele>
        <time>2020-08-11T16:42:39.672Z</time>
      </trkpt>
      <trkpt lat="42.82121" lon="0.18171">
        <ele>1735.08</ele>
        <time>2020-08-11T16:42:53.250Z</time>
      </trkpt>
      <trkpt lat="42.82117" lon="0.1813">
        <ele>1738.6</ele>
        <time>2020-08-11T16:43:12.081Z</time>
      </trkpt>
      <trkpt lat="42.8212" lon="0.1808">
        <ele>1743.42</ele>
        <time>2020-08-11T16:43:39.691Z</time>
      </trkpt>
      <trkpt lat="42.82129" lon="0.17987">
        <ele>1748.83</ele>
        <time>2020-08-11T16:44:09.517Z</time>
      </trkpt>
      <trkpt lat="42.82126" lon="0.17949">
        <ele>1750.28</ele>
        <time>2020-08-11T16:44:19.502Z</time>
      </trkpt>
      <trkpt lat="42.82116" lon="0.17896">
        <ele>1752.19</ele>
        <time>2020-08-11T16:44:33.418Z</time>
      </trkpt>
      <trkpt lat="42.82115" lon="0.17867">
        <ele>1753.08</ele>
        <time>2020-08-11T16:44:40.367Z</time>
      </trkpt>
      <trkpt lat="42.82144" lon="0.17784">
        <ele>1755.16</ele>
        <time>2020-08-11T16:44:59.297Z</time>
      </trkpt>
      <trkpt lat="42.8214" lon="0.17763">
        <ele>1755.91</ele>
        <time>2020-08-11T16:45:04.798Z</time>
      </trkpt>
      <trkpt lat="42.82129" lon="0.17751">
        <ele>1756.51</ele>
        <time>2020-08-11T16:45:09.450Z</time>
      </trkpt>
      <trkpt lat="42.82117" lon="0.17751">
        <ele>1756.94</ele>
        <time>2020-08-11T16:45:13.048Z</time>
      </trkpt>
      <trkpt lat="42.82092" lon="0.17767">
        <ele>1757.64</ele>
        <time>2020-08-11T16:45:20.292Z</time>
      </trkpt>
      <trkpt lat="42.82078" lon="0.17785">
        <ele>1758.03</ele>
        <time>2020-08-11T16:45:25.052Z</time>
      </trkpt>
      <trkpt lat="42.8207" lon="0.17804">
        <ele>1758.97</ele>
        <time>2020-08-11T16:45:31.044Z</time>
      </trkpt>
      <trkpt lat="42.82074" lon="0.17836">
        <ele>1759.65</ele>
        <time>2020-08-11T16:45:37.539Z</time>
      </trkpt>
      <trkpt lat="42.82085" lon="0.17857">
        <ele>1759.94</ele>
        <time>2020-08-11T16:45:41.973Z</time>
      </trkpt>
      <trkpt lat="42.82095" lon="0.17905">
        <ele>1760.16</ele>
        <time>2020-08-11T16:45:49.774Z</time>
      </trkpt>
      <trkpt lat="42.82097" lon="0.17971">
        <ele>1760.21</ele>
        <time>2020-08-11T16:45:59.626Z</time>
      </trkpt>
      <trkpt lat="42.82086" lon="0.1801">
        <ele>1760.42</ele>
        <time>2020-08-11T16:46:06.212Z</time>
      </trkpt>
      <trkpt lat="42.82085" lon="0.18036">
        <ele>1760.88</ele>
        <time>2020-08-11T16:46:11.147Z</time>
      </trkpt>
      <trkpt lat="42.82081" lon="0.18051">
        <ele>1761.48</ele>
        <time>2020-08-11T16:46:15.304Z</time>
      </trkpt>
      <trkpt lat="42.82073" lon="0.18054">
        <ele>1761.48</ele>
        <time>2020-08-11T16:46:16.975Z</time>
      </trkpt>
      <trkpt lat="42.82066" lon="0.18048">
        <ele>1761.92</ele>
        <time>2020-08-11T16:46:19.949Z</time>
      </trkpt>
      <trkpt lat="42.82065" lon="0.18035">
        <ele>1762.38</ele>
        <time>2020-08-11T16:46:23.282Z</time>
      </trkpt>
      <trkpt lat="42.82085" lon="0.17994">
        <ele>1763</ele>
        <time>2020-08-11T16:46:31.913Z</time>
      </trkpt>
      <trkpt lat="42.8209" lon="0.17959">
        <ele>1763.09</ele>
        <time>2020-08-11T16:46:37.352Z</time>
      </trkpt>
      <trkpt lat="42.82076" lon="0.17912">
        <ele>1764.96</ele>
        <time>2020-08-11T16:46:50.478Z</time>
      </trkpt>
      <trkpt lat="42.82056" lon="0.17886">
        <ele>1769.52</ele>
        <time>2020-08-11T16:47:11.946Z</time>
      </trkpt>
      <trkpt lat="42.82039" lon="0.17868">
        <ele>1772.13</ele>
        <time>2020-08-11T16:47:26.165Z</time>
      </trkpt>
      <trkpt lat="42.82008" lon="0.17846">
        <ele>1778.64</ele>
        <time>2020-08-11T16:47:53.315Z</time>
      </trkpt>
      <trkpt lat="42.82002" lon="0.17826">
        <ele>1781.27</ele>
        <time>2020-08-11T16:48:05.627Z</time>
      </trkpt>
      <trkpt lat="42.82011" lon="0.17797">
        <ele>1782.23</ele>
        <time>2020-08-11T16:48:13.139Z</time>
      </trkpt>
      <trkpt lat="42.82029" lon="0.17768">
        <ele>1787.82</ele>
        <time>2020-08-11T16:48:34.786Z</time>
      </trkpt>
      <trkpt lat="42.82048" lon="0.17754">
        <ele>1791.06</ele>
        <time>2020-08-11T16:48:51.564Z</time>
      </trkpt>
      <trkpt lat="42.82057" lon="0.17737">
        <ele>1793.62</ele>
        <time>2020-08-11T16:49:03.511Z</time>
      </trkpt>
      <trkpt lat="42.82061" lon="0.1772">
        <ele>1795.47</ele>
        <time>2020-08-11T16:49:13.684Z</time>
      </trkpt>
      <trkpt lat="42.82067" lon="0.17705">
        <ele>1797.31</ele>
        <time>2020-08-11T16:49:23.419Z</time>
      </trkpt>
      <trkpt lat="42.82078" lon="0.17692">
        <ele>1801.51</ele>
        <time>2020-08-11T16:49:34.728Z</time>
      </trkpt>
      <trkpt lat="42.82122" lon="0.17625">
        <ele>1811.1</ele>
        <time>2020-08-11T16:50:25.972Z</time>
      </trkpt>
      <trkpt lat="42.8213" lon="0.17611">
        <ele>1813.52</ele>
        <time>2020-08-11T16:50:36.084Z</time>
      </trkpt>
      <trkpt lat="42.82138" lon="0.17589">
        <ele>1816.91</ele>
        <time>2020-08-11T16:50:50.076Z</time>
      </trkpt>
      <trkpt lat="42.82146" lon="0.17578">
        <ele>1819.11</ele>
        <time>2020-08-11T16:50:58.903Z</time>
      </trkpt>
      <trkpt lat="42.82159" lon="0.17567">
        <ele>1821.29</ele>
        <time>2020-08-11T16:51:10.789Z</time>
      </trkpt>
      <trkpt lat="42.82176" lon="0.17561">
        <ele>1824.91</ele>
        <time>2020-08-11T16:51:24.430Z</time>
      </trkpt>
      <trkpt lat="42.82186" lon="0.17553">
        <ele>1826.97</ele>
        <time>2020-08-11T16:51:33.438Z</time>
      </trkpt>
      <trkpt lat="42.82197" lon="0.17535">
        <ele>1831.15</ele>
        <time>2020-08-11T16:51:46.787Z</time>
      </trkpt>
      <trkpt lat="42.82206" lon="0.17526">
        <ele>1832.56</ele>
        <time>2020-08-11T16:51:54.651Z</time>
      </trkpt>
      <trkpt lat="42.82231" lon="0.17522">
        <ele>1833.99</ele>
        <time>2020-08-11T16:52:03.929Z</time>
      </trkpt>
      <trkpt lat="42.82234" lon="0.17519">
        <ele>1833.99</ele>
        <time>2020-08-11T16:52:04.679Z</time>
      </trkpt>
      <trkpt lat="42.82235" lon="0.17508">
        <ele>1834.4</ele>
        <time>2020-08-11T16:52:07.550Z</time>
      </trkpt>
      <trkpt lat="42.8223" lon="0.175">
        <ele>1835.35</ele>
        <time>2020-08-11T16:52:12.769Z</time>
      </trkpt>
      <trkpt lat="42.82219" lon="0.17499">
        <ele>1835.35</ele>
        <time>2020-08-11T16:52:14.989Z</time>
      </trkpt>
      <trkpt lat="42.82208" lon="0.17505">
        <ele>1836.68</ele>
        <time>2020-08-11T16:52:22.037Z</time>
      </trkpt>
      <trkpt lat="42.82196" lon="0.1752">
        <ele>1838.02</ele>
        <time>2020-08-11T16:52:29.310Z</time>
      </trkpt>
      <trkpt lat="42.82191" lon="0.17522">
        <ele>1838.65</ele>
        <time>2020-08-11T16:52:32.737Z</time>
      </trkpt>
      <trkpt lat="42.82185" lon="0.17518">
        <ele>1839.11</ele>
        <time>2020-08-11T16:52:35.421Z</time>
      </trkpt>
      <trkpt lat="42.82184" lon="0.17506">
        <ele>1839.81</ele>
        <time>2020-08-11T16:52:39.273Z</time>
      </trkpt>
      <trkpt lat="42.82192" lon="0.17496">
        <ele>1840.05</ele>
        <time>2020-08-11T16:52:42.014Z</time>
      </trkpt>
      <trkpt lat="42.8221" lon="0.17486">
        <ele>1840.51</ele>
        <time>2020-08-11T16:52:47.013Z</time>
      </trkpt>
      <trkpt lat="42.8223" lon="0.17481">
        <ele>1841.04</ele>
        <time>2020-08-11T16:52:52.392Z</time>
      </trkpt>
      <trkpt lat="42.82237" lon="0.17475">
        <ele>1841.04</ele>
        <time>2020-08-11T16:52:54.058Z</time>
      </trkpt>
      <trkpt lat="42.82238" lon="0.17464">
        <ele>1841.28</ele>
        <time>2020-08-11T16:52:56.302Z</time>
      </trkpt>
      <trkpt lat="42.82236" lon="0.17459">
        <ele>1841.28</ele>
        <time>2020-08-11T16:52:57.143Z</time>
      </trkpt>
      <trkpt lat="42.82232" lon="0.17456">
        <ele>1841.28</ele>
        <time>2020-08-11T16:52:58.063Z</time>
      </trkpt>
      <trkpt lat="42.82227" lon="0.17455">
        <ele>1841.28</ele>
        <time>2020-08-11T16:52:59.080Z</time>
      </trkpt>
      <trkpt lat="42.82223" lon="0.17456">
        <ele>1841.59</ele>
        <time>2020-08-11T16:53:00.810Z</time>
      </trkpt>
      <trkpt lat="42.82207" lon="0.17469">
        <ele>1841.59</ele>
        <time>2020-08-11T16:53:04.561Z</time>
      </trkpt>
      <trkpt lat="42.822" lon="0.1747">
        <ele>1841.86</ele>
        <time>2020-08-11T16:53:06.747Z</time>
      </trkpt>
      <trkpt lat="42.82191" lon="0.17476">
        <ele>1842.22</ele>
        <time>2020-08-11T16:53:09.754Z</time>
      </trkpt>
      <trkpt lat="42.82182" lon="0.17488">
        <ele>1842.79</ele>
        <time>2020-08-11T16:53:14.055Z</time>
      </trkpt>
      <trkpt lat="42.82174" lon="0.1749">
        <ele>1842.79</ele>
        <time>2020-08-11T16:53:15.693Z</time>
      </trkpt>
      <trkpt lat="42.8217" lon="0.17486">
        <ele>1843.24</ele>
        <time>2020-08-11T16:53:18.075Z</time>
      </trkpt>
      <trkpt lat="42.82168" lon="0.17476">
        <ele>1843.65</ele>
        <time>2020-08-11T16:53:20.824Z</time>
      </trkpt>
      <trkpt lat="42.82177" lon="0.17462">
        <ele>1844.27</ele>
        <time>2020-08-11T16:53:25.492Z</time>
      </trkpt>
      <trkpt lat="42.82188" lon="0.17449">
        <ele>1845.5</ele>
        <time>2020-08-11T16:53:32.115Z</time>
      </trkpt>
      <trkpt lat="42.822" lon="0.17441">
        <ele>1846.21</ele>
        <time>2020-08-11T16:53:36.919Z</time>
      </trkpt>
      <trkpt lat="42.82222" lon="0.17435">
        <ele>1847.23</ele>
        <time>2020-08-11T16:53:44.592Z</time>
      </trkpt>
      <trkpt lat="42.82227" lon="0.17429">
        <ele>1847.59</ele>
        <time>2020-08-11T16:53:47.002Z</time>
      </trkpt>
      <trkpt lat="42.82228" lon="0.17415">
        <ele>1847.59</ele>
        <time>2020-08-11T16:53:49.080Z</time>
      </trkpt>
      <trkpt lat="42.82221" lon="0.17407">
        <ele>1848</ele>
        <time>2020-08-11T16:53:52.192Z</time>
      </trkpt>
      <trkpt lat="42.82196" lon="0.17418">
        <ele>1848.7</ele>
        <time>2020-08-11T16:53:59.191Z</time>
      </trkpt>
      <trkpt lat="42.82186" lon="0.1742">
        <ele>1848.7</ele>
        <time>2020-08-11T16:54:01.227Z</time>
      </trkpt>
      <trkpt lat="42.82175" lon="0.17425">
        <ele>1849.16</ele>
        <time>2020-08-11T16:54:04.895Z</time>
      </trkpt>
      <trkpt lat="42.8217" lon="0.17438">
        <ele>1849.73</ele>
        <time>2020-08-11T16:54:08.761Z</time>
      </trkpt>
      <trkpt lat="42.82168" lon="0.17449">
        <ele>1849.73</ele>
        <time>2020-08-11T16:54:10.436Z</time>
      </trkpt>
      <trkpt lat="42.82162" lon="0.17458">
        <ele>1850.27</ele>
        <time>2020-08-11T16:54:13.810Z</time>
      </trkpt>
      <trkpt lat="42.82154" lon="0.17457">
        <ele>1850.98</ele>
        <time>2020-08-11T16:54:17.590Z</time>
      </trkpt>
      <trkpt lat="42.8215" lon="0.17448">
        <ele>1850.98</ele>
        <time>2020-08-11T16:54:19.144Z</time>
      </trkpt>
      <trkpt lat="42.82151" lon="0.17442">
        <ele>1851.81</ele>
        <time>2020-08-11T16:54:22.650Z</time>
      </trkpt>
      <trkpt lat="42.82166" lon="0.17407">
        <ele>1852.96</ele>
        <time>2020-08-11T16:54:31.924Z</time>
      </trkpt>
      <trkpt lat="42.82181" lon="0.17388">
        <ele>1853.69</ele>
        <time>2020-08-11T16:54:38.048Z</time>
      </trkpt>
      <trkpt lat="42.82195" lon="0.17379">
        <ele>1855.57</ele>
        <time>2020-08-11T16:54:48.298Z</time>
      </trkpt>
      <trkpt lat="42.82214" lon="0.17372">
        <ele>1856.27</ele>
        <time>2020-08-11T16:54:54.178Z</time>
      </trkpt>
      <trkpt lat="42.82223" lon="0.17364">
        <ele>1857.11</ele>
        <time>2020-08-11T16:54:58.818Z</time>
      </trkpt>
      <trkpt lat="42.82242" lon="0.17313">
        <ele>1859.43</ele>
        <time>2020-08-11T16:55:14.125Z</time>
      </trkpt>
      <trkpt lat="42.82247" lon="0.17286">
        <ele>1861.07</ele>
        <time>2020-08-11T16:55:23.099Z</time>
      </trkpt>
      <trkpt lat="42.82267" lon="0.17235">
        <ele>1863.75</ele>
        <time>2020-08-11T16:55:39.450Z</time>
      </trkpt>
      <trkpt lat="42.82278" lon="0.17195">
        <ele>1865.84</ele>
        <time>2020-08-11T16:55:51.840Z</time>
      </trkpt>
      <trkpt lat="42.82283" lon="0.17153">
        <ele>1869.66</ele>
        <time>2020-08-11T16:56:12.751Z</time>
      </trkpt>
      <trkpt lat="42.82293" lon="0.17125">
        <ele>1870.84</ele>
        <time>2020-08-11T16:56:20.884Z</time>
      </trkpt>
      <trkpt lat="42.82313" lon="0.17093">
        <ele>1872.22</ele>
        <time>2020-08-11T16:56:31.382Z</time>
      </trkpt>
      <trkpt lat="42.82325" lon="0.17058">
        <ele>1873.68</ele>
        <time>2020-08-11T16:56:41.462Z</time>
      </trkpt>
      <trkpt lat="42.82359" lon="0.16983">
        <ele>1877.09</ele>
        <time>2020-08-11T16:57:04.651Z</time>
      </trkpt>
      <trkpt lat="42.82384" lon="0.16951">
        <ele>1878.56</ele>
        <time>2020-08-11T16:57:16.023Z</time>
      </trkpt>
      <trkpt lat="42.82429" lon="0.16907">
        <ele>1883.21</ele>
        <time>2020-08-11T16:57:41.108Z</time>
      </trkpt>
      <trkpt lat="42.82442" lon="0.16871">
        <ele>1883.65</ele>
        <time>2020-08-11T16:57:47.977Z</time>
      </trkpt>
      <trkpt lat="42.8245" lon="0.1684">
        <ele>1882.94</ele>
        <time>2020-08-11T16:57:50.871Z</time>
      </trkpt>
      <trkpt lat="42.8246" lon="0.16724">
        <ele>1878.88</ele>
        <time>2020-08-11T16:57:59.522Z</time>
      </trkpt>
      <trkpt lat="42.82456" lon="0.16625">
        <ele>1875.44</ele>
        <time>2020-08-11T16:58:06.871Z</time>
      </trkpt>
      <trkpt lat="42.8246" lon="0.16538">
        <ele>1871.54</ele>
        <time>2020-08-11T16:58:12.632Z</time>
      </trkpt>
      <trkpt lat="42.82455" lon="0.16463">
        <ele>1867.95</ele>
        <time>2020-08-11T16:58:17.456Z</time>
      </trkpt>
      <trkpt lat="42.82457" lon="0.16447">
        <ele>1867.32</ele>
        <time>2020-08-11T16:58:18.602Z</time>
      </trkpt>
      <trkpt lat="42.82461" lon="0.16438">
        <ele>1867.32</ele>
        <time>2020-08-11T16:58:20.156Z</time>
      </trkpt>
      <trkpt lat="42.82465" lon="0.16436">
        <ele>1867.18</ele>
        <time>2020-08-11T16:58:20.650Z</time>
      </trkpt>
      <trkpt lat="42.82472" lon="0.16438">
        <ele>1867.18</ele>
        <time>2020-08-11T16:58:22.091Z</time>
      </trkpt>
      <trkpt lat="42.82474" lon="0.16445">
        <ele>1867.18</ele>
        <time>2020-08-11T16:58:23.201Z</time>
      </trkpt>
      <trkpt lat="42.82474" lon="0.16486">
        <ele>1866.54</ele>
        <time>2020-08-11T16:58:27.153Z</time>
      </trkpt>
      <trkpt lat="42.82483" lon="0.1655">
        <ele>1865.57</ele>
        <time>2020-08-11T16:58:33.508Z</time>
      </trkpt>
      <trkpt lat="42.82491" lon="0.16651">
        <ele>1865.39</ele>
        <time>2020-08-11T16:58:47.979Z</time>
      </trkpt>
      <trkpt lat="42.82507" lon="0.16747">
        <ele>1865.41</ele>
        <time>2020-08-11T16:59:02.559Z</time>
      </trkpt>
      <trkpt lat="42.82508" lon="0.16769">
        <ele>1865.41</ele>
        <time>2020-08-11T16:59:05.815Z</time>
      </trkpt>
      <trkpt lat="42.82505" lon="0.1679">
        <ele>1865.37</ele>
        <time>2020-08-11T16:59:08.856Z</time>
      </trkpt>
      <trkpt lat="42.82492" lon="0.16838">
        <ele>1864.87</ele>
        <time>2020-08-11T16:59:14.289Z</time>
      </trkpt>
      <trkpt lat="42.82486" lon="0.16868">
        <ele>1864.2</ele>
        <time>2020-08-11T16:59:17.030Z</time>
      </trkpt>
      <trkpt lat="42.82487" lon="0.16873">
        <ele>1864.2</ele>
        <time>2020-08-11T16:59:17.796Z</time>
      </trkpt>
      <trkpt lat="42.82491" lon="0.16878">
        <ele>1862.46</ele>
        <time>2020-08-11T16:59:18.307Z</time>
      </trkpt>
      <trkpt lat="42.82501" lon="0.16884">
        <ele>1862.46</ele>
        <time>2020-08-11T16:59:20.507Z</time>
      </trkpt>
      <trkpt lat="42.82576" lon="0.16905">
        <ele>1860.75</ele>
        <time>2020-08-11T16:59:30.451Z</time>
      </trkpt>
      <trkpt lat="42.82582" lon="0.16904">
        <ele>1860.89</ele>
        <time>2020-08-11T16:59:31.996Z</time>
      </trkpt>
      <trkpt lat="42.82586" lon="0.169">
        <ele>1860.89</ele>
        <time>2020-08-11T16:59:32.995Z</time>
      </trkpt>
      <trkpt lat="42.82612" lon="0.16848">
        <ele>1861.7</ele>
        <time>2020-08-11T16:59:44.072Z</time>
      </trkpt>
      <trkpt lat="42.82627" lon="0.16842">
        <ele>1861.97</ele>
        <time>2020-08-11T16:59:47.812Z</time>
      </trkpt>
      <trkpt lat="42.82636" lon="0.16842">
        <ele>1861.97</ele>
        <time>2020-08-11T16:59:49.625Z</time>
      </trkpt>
      <trkpt lat="42.82641" lon="0.16845">
        <ele>1862.02</ele>
        <time>2020-08-11T16:59:50.826Z</time>
      </trkpt>
    </trkseg>
  </trk>
</gpx>